Wetterdaten: Samstag, 26.08.2017
Datum Zeit Temp. A. Temp. A. max Feuchte A. Luftdruck Regen Wind Richtung Richtung Sonnenschein ET UV Solar Taupunkt Windchill Windböen
26.08.2017 00:00 17,1 °C 17,1 °C 89 % 1014,8 hPa 0,0 mm 0,0 km/h (0 Bft) W-SW 252 ° 0 min 0,000 mm 0,0 UV-I 0 W/m² 15,3 °C 17,1 °C 0,0 km/h (0 Bft)
26.08.2017 00:01 17,1 °C 17,1 °C 89 % 1014,8 hPa 0,0 mm 1,2 km/h (1 Bft) W-NW 288 ° 0 min 0,000 mm 0,0 UV-I 0 W/m² 15,3 °C 17,1 °C 3,2 km/h (1 Bft)
26.08.2017 00:02 17,1 °C 17,1 °C 89 % 1014,8 hPa 0,0 mm 2,2 km/h (1 Bft) W 267 ° 0 min 0,000 mm 0,0 UV-I 0 W/m² 15,3 °C 17,1 °C 4,8 km/h (1 Bft)
26.08.2017 00:03 17,2 °C 17,2 °C 89 % 1014,8 hPa 0,0 mm 2,0 km/h (1 Bft) W 266 ° 0 min 0,000 mm 0,0 UV-I 0 W/m² 15,4 °C 17,2 °C 3,2 km/h (1 Bft)
26.08.2017 00:04 17,3 °C 17,3 °C 88 % 1014,8 hPa 0,0 mm 2,0 km/h (1 Bft) W 266 ° 0 min 0,000 mm 0,0 UV-I 0 W/m² 15,3 °C 17,3 °C 3,2 km/h (1 Bft)
26.08.2017 00:05 17,3 °C 17,3 °C 88 % 1014,9 hPa 0,0 mm 2,7 km/h (1 Bft) S 190 ° 0 min 0,000 mm 0,0 UV-I 0 W/m² 15,3 °C 17,3 °C 4,8 km/h (1 Bft)
26.08.2017 00:06 17,4 °C 17,4 °C 88 % 1014,8 hPa 0,0 mm 2,8 km/h (1 Bft) S 188 ° 0 min 0,000 mm 0,0 UV-I 0 W/m² 15,4 °C 17,4 °C 8,0 km/h (2 Bft)
26.08.2017 00:07 17,6 °C 17,6 °C 87 % 1014,8 hPa 0,0 mm 4,8 km/h (1 Bft) S-SW 195 ° 0 min 0,000 mm 0,0 UV-I 0 W/m² 15,4 °C 17,6 °C 6,4 km/h (2 Bft)
26.08.2017 00:08 17,7 °C 17,7 °C 86 % 1014,8 hPa 0,0 mm 4,8 km/h (1 Bft) S-SW 194 ° 0 min 0,000 mm 0,0 UV-I 0 W/m² 15,3 °C 17,7 °C 6,4 km/h (2 Bft)
26.08.2017 00:09 17,8 °C 17,8 °C 86 % 1014,8 hPa 0,0 mm 4,4 km/h (1 Bft) S-SW 195 ° 0 min 0,000 mm 0,0 UV-I 0 W/m² 15,4 °C 17,8 °C 6,4 km/h (2 Bft)
26.08.2017 00:10 17,9 °C 17,9 °C 85 % 1014,8 hPa 0,0 mm 2,1 km/h (1 Bft) S-SW 195 ° 0 min 0,000 mm 0,0 UV-I 0 W/m² 15,3 °C 17,9 °C 6,4 km/h (2 Bft)
26.08.2017 00:11 18,0 °C 18,0 °C 85 % 1014,8 hPa 0,0 mm 1,8 km/h (1 Bft) S-SW 195 ° 0 min 0,000 mm 0,0 UV-I 0 W/m² 15,4 °C 18,0 °C 3,2 km/h (1 Bft)
26.08.2017 00:12 18,1 °C 18,1 °C 85 % 1014,8 hPa 0,0 mm 2,1 km/h (1 Bft) S-SW 195 ° 0 min 0,000 mm 0,0 UV-I 0 W/m² 15,5 °C 18,1 °C 4,8 km/h (1 Bft)
26.08.2017 00:13 18,1 °C 18,1 °C 85 % 1014,7 hPa 0,0 mm 3,6 km/h (1 Bft) S-SW 195 ° 0 min 0,000 mm 0,0 UV-I 0 W/m² 15,5 °C 18,1 °C 4,8 km/h (1 Bft)
26.08.2017 00:14 18,1 °C 18,1 °C 85 % 1014,7 hPa 0,0 mm 4,0 km/h (1 Bft) S-SW 195 ° 0 min 0,000 mm 0,0 UV-I 0 W/m² 15,5 °C 18,1 °C 4,8 km/h (1 Bft)
26.08.2017 00:15 18,1 °C 18,1 °C 85 % 1014,7 hPa 0,0 mm 4,3 km/h (1 Bft) S-SW 195 ° 0 min 0,000 mm 0,0 UV-I 0 W/m² 15,5 °C 18,1 °C 4,8 km/h (1 Bft)
26.08.2017 00:16 18,1 °C 18,1 °C 85 % 1014,8 hPa 0,0 mm 3,9 km/h (1 Bft) S-SW 195 ° 0 min 0,000 mm 0,0 UV-I 0 W/m² 15,5 °C 18,1 °C 6,4 km/h (2 Bft)
26.08.2017 00:17 18,1 °C 18,1 °C 85 % 1014,8 hPa 0,0 mm 3,3 km/h (1 Bft) S-SW 195 ° 0 min 0,000 mm 0,0 UV-I 0 W/m² 15,5 °C 18,1 °C 4,8 km/h (1 Bft)
26.08.2017 00:18 18,0 °C 18,1 °C 85 % 1014,8 hPa 0,0 mm 4,1 km/h (1 Bft) S-SW 195 ° 0 min 0,000 mm 0,0 UV-I 0 W/m² 15,4 °C 18,0 °C 6,4 km/h (2 Bft)
26.08.2017 00:19 17,9 °C 18,0 °C 85 % 1014,8 hPa 0,0 mm 4,0 km/h (1 Bft) S-SW 195 ° 0 min 0,000 mm 0,0 UV-I 0 W/m² 15,3 °C 17,9 °C 4,8 km/h (1 Bft)
26.08.2017 00:20 17,8 °C 17,9 °C 86 % 1014,8 hPa 0,0 mm 2,7 km/h (1 Bft) S-SW 195 ° 0 min 0,000 mm 0,0 UV-I 0 W/m² 15,4 °C 17,8 °C 4,8 km/h (1 Bft)
26.08.2017 00:21 17,8 °C 17,8 °C 86 % 1014,7 hPa 0,0 mm 2,8 km/h (1 Bft) S-SW 195 ° 0 min 0,000 mm 0,0 UV-I 0 W/m² 15,4 °C 17,8 °C 4,8 km/h (1 Bft)
26.08.2017 00:22 17,8 °C 17,8 °C 86 % 1014,8 hPa 0,0 mm 0,1 km/h (0 Bft) S-SW 195 ° 0 min 0,000 mm 0,0 UV-I 0 W/m² 15,4 °C 17,8 °C 1,6 km/h (1 Bft)
26.08.2017 00:23 17,8 °C 17,8 °C 86 % 1014,8 hPa 0,0 mm 0,0 km/h (0 Bft) S-SW 195 ° 0 min 0,000 mm 0,0 UV-I 0 W/m² 15,4 °C 17,8 °C 0,0 km/h (0 Bft)
26.08.2017 00:24 17,8 °C 17,8 °C 86 % 1014,8 hPa 0,0 mm 0,3 km/h (0 Bft) S-SW 195 ° 0 min 0,000 mm 0,0 UV-I 0 W/m² 15,4 °C 17,8 °C 1,6 km/h (1 Bft)
26.08.2017 00:25 17,8 °C 17,8 °C 86 % 1014,8 hPa 0,0 mm 0,0 km/h (0 Bft) S-SW 195 ° 0 min 0,000 mm 0,0 UV-I 0 W/m² 15,4 °C 17,8 °C 0,0 km/h (0 Bft)
26.08.2017 00:26 17,9 °C 17,9 °C 86 % 1014,8 hPa 0,0 mm 2,2 km/h (1 Bft) S-SW 195 ° 0 min 0,000 mm 0,0 UV-I 0 W/m² 15,5 °C 17,9 °C 3,2 km/h (1 Bft)
26.08.2017 00:27 18,0 °C 18,0 °C 85 % 1014,8 hPa 0,0 mm 1,7 km/h (1 Bft) S-SW 195 ° 0 min 0,000 mm 0,0 UV-I 0 W/m² 15,4 °C 18,0 °C 4,8 km/h (1 Bft)
26.08.2017 00:28 18,1 °C 18,1 °C 85 % 1014,8 hPa 0,0 mm 2,1 km/h (1 Bft) S-SW 195 ° 0 min 0,000 mm 0,0 UV-I 0 W/m² 15,5 °C 18,1 °C 3,2 km/h (1 Bft)
26.08.2017 00:29 18,2 °C 18,2 °C 85 % 1014,8 hPa 0,0 mm 0,5 km/h (0 Bft) S-SW 195 ° 0 min 0,000 mm 0,0 UV-I 0 W/m² 15,6 °C 18,2 °C 1,6 km/h (1 Bft)
26.08.2017 00:30 18,2 °C 18,2 °C 85 % 1014,8 hPa 0,0 mm 0,0 km/h (0 Bft) S-SW 195 ° 0 min 0,000 mm 0,0 UV-I 0 W/m² 15,6 °C 18,2 °C 0,0 km/h (0 Bft)
26.08.2017 00:31 18,2 °C 18,2 °C 85 % 1014,9 hPa 0,0 mm 0,1 km/h (0 Bft) S-SW 195 ° 0 min 0,000 mm 0,0 UV-I 0 W/m² 15,6 °C 18,2 °C 1,6 km/h (1 Bft)
26.08.2017 00:32 18,1 °C 18,2 °C 85 % 1014,9 hPa 0,0 mm 0,7 km/h (0 Bft) S-SW 195 ° 0 min 0,000 mm 0,0 UV-I 0 W/m² 15,5 °C 18,1 °C 3,2 km/h (1 Bft)
26.08.2017 00:33 18,1 °C 18,1 °C 85 % 1014,9 hPa 0,0 mm 0,0 km/h (0 Bft) S-SW 195 ° 0 min 0,000 mm 0,0 UV-I 0 W/m² 15,5 °C 18,1 °C 0,0 km/h (0 Bft)
26.08.2017 00:34 18,1 °C 18,1 °C 85 % 1014,9 hPa 0,0 mm 0,0 km/h (0 Bft) S-SW 195 ° 0 min 0,000 mm 0,0 UV-I 0 W/m² 15,5 °C 18,1 °C 0,0 km/h (0 Bft)
26.08.2017 00:35 18,0 °C 18,1 °C 85 % 1014,9 hPa 0,0 mm 2,3 km/h (1 Bft) NW 319 ° 0 min 0,000 mm 0,0 UV-I 0 W/m² 15,4 °C 18,0 °C 4,8 km/h (1 Bft)
26.08.2017 00:36 18,0 °C 18,1 °C 85 % 1014,9 hPa 0,0 mm 2,7 km/h (1 Bft) NW 319 ° 0 min 0,000 mm 0,0 UV-I 0 W/m² 15,4 °C 18,0 °C 4,8 km/h (1 Bft)
26.08.2017 00:37 17,9 °C 18,0 °C 85 % 1014,9 hPa 0,0 mm 2,5 km/h (1 Bft) NW 321 ° 0 min 0,000 mm 0,0 UV-I 0 W/m² 15,3 °C 17,9 °C 4,8 km/h (1 Bft)
26.08.2017 00:38 17,8 °C 17,9 °C 85 % 1015,0 hPa 0,0 mm 2,0 km/h (1 Bft) NW 321 ° 0 min 0,000 mm 0,0 UV-I 0 W/m² 15,2 °C 17,8 °C 3,2 km/h (1 Bft)
26.08.2017 00:39 17,7 °C 17,8 °C 85 % 1015,0 hPa 0,0 mm 1,3 km/h (1 Bft) NW 321 ° 0 min 0,000 mm 0,0 UV-I 0 W/m² 15,1 °C 17,7 °C 1,6 km/h (1 Bft)
26.08.2017 00:40 17,5 °C 17,7 °C 86 % 1015,1 hPa 0,0 mm 2,9 km/h (1 Bft) W 271 ° 0 min 0,000 mm 0,0 UV-I 0 W/m² 15,1 °C 17,5 °C 4,8 km/h (1 Bft)
26.08.2017 00:41 17,4 °C 17,5 °C 86 % 1015,1 hPa 0,0 mm 2,1 km/h (1 Bft) W-NW 298 ° 0 min 0,000 mm 0,0 UV-I 0 W/m² 15,0 °C 17,4 °C 3,2 km/h (1 Bft)
26.08.2017 00:42 17,3 °C 17,4 °C 86 % 1015,1 hPa 0,0 mm 1,3 km/h (1 Bft) W-NW 298 ° 0 min 0,000 mm 0,0 UV-I 0 W/m² 14,9 °C 17,3 °C 3,2 km/h (1 Bft)
26.08.2017 00:43 17,3 °C 17,3 °C 87 % 1015,1 hPa 0,0 mm 2,1 km/h (1 Bft) W-NW 298 ° 0 min 0,000 mm 0,0 UV-I 0 W/m² 15,1 °C 17,3 °C 3,2 km/h (1 Bft)
26.08.2017 00:44 17,2 °C 17,3 °C 87 % 1015,1 hPa 0,0 mm 1,9 km/h (1 Bft) W-NW 298 ° 0 min 0,000 mm 0,0 UV-I 0 W/m² 15,0 °C 17,2 °C 3,2 km/h (1 Bft)
26.08.2017 00:45 17,2 °C 17,2 °C 87 % 1015,1 hPa 0,0 mm 1,4 km/h (1 Bft) W-NW 298 ° 0 min 0,000 mm 0,0 UV-I 0 W/m² 15,0 °C 17,2 °C 1,6 km/h (1 Bft)
26.08.2017 00:46 17,2 °C 17,2 °C 88 % 1015,0 hPa 0,0 mm 1,3 km/h (1 Bft) W-NW 298 ° 0 min 0,000 mm 0,0 UV-I 0 W/m² 15,2 °C 17,2 °C 3,2 km/h (1 Bft)
26.08.2017 00:47 17,2 °C 17,2 °C 88 % 1015,0 hPa 0,0 mm 0,1 km/h (0 Bft) W-NW 298 ° 0 min 0,000 mm 0,0 UV-I 0 W/m² 15,2 °C 17,2 °C 1,6 km/h (1 Bft)
26.08.2017 00:48 17,2 °C 17,2 °C 87 % 1015,0 hPa 0,0 mm 1,7 km/h (1 Bft) S-SW 209 ° 0 min 0,000 mm 0,0 UV-I 0 W/m² 15,0 °C 17,2 °C 3,2 km/h (1 Bft)
26.08.2017 00:49 17,3 °C 17,3 °C 88 % 1015,0 hPa 0,0 mm 2,5 km/h (1 Bft) S-SW 194 ° 0 min 0,000 mm 0,0 UV-I 0 W/m² 15,3 °C 17,3 °C 8,0 km/h (2 Bft)
26.08.2017 00:50 17,3 °C 17,3 °C 87 % 1015,0 hPa 0,0 mm 4,8 km/h (1 Bft) S-SW 197 ° 0 min 0,000 mm 0,0 UV-I 0 W/m² 15,1 °C 17,3 °C 8,0 km/h (2 Bft)
26.08.2017 00:51 17,4 °C 17,4 °C 87 % 1015,0 hPa 0,0 mm 2,8 km/h (1 Bft) S-SW 197 ° 0 min 0,000 mm 0,0 UV-I 0 W/m² 15,2 °C 17,4 °C 4,8 km/h (1 Bft)
26.08.2017 00:52 17,6 °C 17,6 °C 87 % 1015,1 hPa 0,0 mm 5,9 km/h (2 Bft) S 190 ° 0 min 0,000 mm 0,0 UV-I 0 W/m² 15,4 °C 17,6 °C 11,3 km/h (2 Bft)
26.08.2017 00:53 17,7 °C 17,7 °C 86 % 1015,1 hPa 0,0 mm 5,5 km/h (1 Bft) S-SW 202 ° 0 min 0,000 mm 0,0 UV-I 0 W/m² 15,3 °C 17,7 °C 8,0 km/h (2 Bft)
26.08.2017 00:54 17,8 °C 17,8 °C 86 % 1015,1 hPa 0,0 mm 3,6 km/h (1 Bft) S-SW 203 ° 0 min 0,000 mm 0,0 UV-I 0 W/m² 15,4 °C 17,8 °C 6,4 km/h (2 Bft)
26.08.2017 00:55 17,9 °C 17,9 °C 86 % 1015,1 hPa 0,0 mm 1,2 km/h (1 Bft) S-SW 202 ° 0 min 0,000 mm 0,0 UV-I 0 W/m² 15,5 °C 17,9 °C 4,8 km/h (1 Bft)
26.08.2017 00:56 17,9 °C 17,9 °C 85 % 1015,1 hPa 0,0 mm 3,5 km/h (1 Bft) S-SW 202 ° 0 min 0,000 mm 0,0 UV-I 0 W/m² 15,3 °C 17,9 °C 4,8 km/h (1 Bft)
26.08.2017 00:57 18,1 °C 18,1 °C 85 % 1015,1 hPa 0,0 mm 7,9 km/h (2 Bft) S-SW 196 ° 0 min 0,000 mm 0,0 UV-I 0 W/m² 15,5 °C 18,1 °C 11,3 km/h (2 Bft)
26.08.2017 00:58 18,1 °C 18,1 °C 85 % 1015,1 hPa 0,0 mm 5,7 km/h (1 Bft) S 186 ° 0 min 0,000 mm 0,0 UV-I 0 W/m² 15,5 °C 18,1 °C 8,0 km/h (2 Bft)
26.08.2017 00:59 18,2 °C 18,2 °C 84 % 1015,1 hPa 0,0 mm 3,6 km/h (1 Bft) S 182 ° 0 min 0,000 mm 0,0 UV-I 0 W/m² 15,4 °C 18,2 °C 6,4 km/h (2 Bft)
26.08.2017 01:00 18,1 °C 18,2 °C 84 % 1015,1 hPa 0,0 mm 3,4 km/h (1 Bft) S-SW 196 ° 0 min 0,025 mm 0,0 UV-I 0 W/m² 15,4 °C 18,1 °C 6,4 km/h (2 Bft)
26.08.2017 01:01 18,2 °C 18,2 °C 84 % 1015,1 hPa 0,0 mm 2,6 km/h (1 Bft) S 184 ° 0 min 0,000 mm 0,0 UV-I 0 W/m² 15,4 °C 18,2 °C 8,0 km/h (2 Bft)
26.08.2017 01:02 18,1 °C 18,2 °C 84 % 1015,1 hPa 0,0 mm 4,0 km/h (1 Bft) S 185 ° 0 min 0,000 mm 0,0 UV-I 0 W/m² 15,4 °C 18,1 °C 6,4 km/h (2 Bft)
26.08.2017 01:03 18,2 °C 18,2 °C 83 % 1015,1 hPa 0,0 mm 0,8 km/h (0 Bft) S 185 ° 0 min 0,000 mm 0,0 UV-I 0 W/m² 15,3 °C 18,2 °C 3,2 km/h (1 Bft)
26.08.2017 01:04 18,2 °C 18,2 °C 84 % 1015,0 hPa 0,0 mm 3,6 km/h (1 Bft) S 187 ° 0 min 0,000 mm 0,0 UV-I 0 W/m² 15,4 °C 18,2 °C 6,4 km/h (2 Bft)
26.08.2017 01:05 18,2 °C 18,3 °C 83 % 1015,1 hPa 0,0 mm 1,1 km/h (1 Bft) S 187 ° 0 min 0,000 mm 0,0 UV-I 0 W/m² 15,3 °C 18,2 °C 3,2 km/h (1 Bft)
26.08.2017 01:06 18,3 °C 18,3 °C 83 % 1015,1 hPa 0,0 mm 3,9 km/h (1 Bft) S-SW 207 ° 0 min 0,000 mm 0,0 UV-I 0 W/m² 15,4 °C 18,3 °C 6,4 km/h (2 Bft)
26.08.2017 01:07 18,2 °C 18,3 °C 83 % 1015,1 hPa 0,0 mm 1,3 km/h (1 Bft) S-SW 207 ° 0 min 0,000 mm 0,0 UV-I 0 W/m² 15,3 °C 18,2 °C 3,2 km/h (1 Bft)
26.08.2017 01:08 18,2 °C 18,2 °C 82 % 1015,1 hPa 0,0 mm 1,2 km/h (1 Bft) S-SW 207 ° 0 min 0,000 mm 0,0 UV-I 0 W/m² 15,1 °C 18,2 °C 3,2 km/h (1 Bft)
26.08.2017 01:09 18,3 °C 18,3 °C 83 % 1015,1 hPa 0,0 mm 0,8 km/h (0 Bft) S-SW 200 ° 0 min 0,000 mm 0,0 UV-I 0 W/m² 15,4 °C 18,3 °C 3,2 km/h (1 Bft)
26.08.2017 01:10 18,3 °C 18,3 °C 82 % 1015,2 hPa 0,0 mm 5,7 km/h (1 Bft) S 189 ° 0 min 0,000 mm 0,0 UV-I 0 W/m² 15,2 °C 18,3 °C 9,7 km/h (2 Bft)
26.08.2017 01:11 18,3 °C 18,3 °C 82 % 1015,2 hPa 0,0 mm 9,0 km/h (2 Bft) S 188 ° 0 min 0,000 mm 0,0 UV-I 0 W/m² 15,2 °C 18,3 °C 12,9 km/h (3 Bft)
26.08.2017 01:12 18,4 °C 18,4 °C 82 % 1015,2 hPa 0,0 mm 9,4 km/h (2 Bft) S-SW 196 ° 0 min 0,000 mm 0,0 UV-I 0 W/m² 15,3 °C 18,4 °C 11,3 km/h (2 Bft)
26.08.2017 01:13 18,4 °C 18,4 °C 82 % 1015,2 hPa 0,0 mm 7,8 km/h (2 Bft) S 183 ° 0 min 0,000 mm 0,0 UV-I 0 W/m² 15,3 °C 18,4 °C 9,7 km/h (2 Bft)
26.08.2017 01:14 18,5 °C 18,5 °C 81 % 1015,2 hPa 0,0 mm 5,6 km/h (1 Bft) S-SW 200 ° 0 min 0,000 mm 0,0 UV-I 0 W/m² 15,2 °C 18,5 °C 12,9 km/h (3 Bft)
26.08.2017 01:15 18,5 °C 18,5 °C 81 % 1015,2 hPa 0,0 mm 5,5 km/h (1 Bft) S-SW 197 ° 0 min 0,000 mm 0,0 UV-I 0 W/m² 15,2 °C 18,5 °C 8,0 km/h (2 Bft)
26.08.2017 01:16 18,5 °C 18,5 °C 81 % 1015,2 hPa 0,0 mm 5,9 km/h (2 Bft) S 178 ° 0 min 0,000 mm 0,0 UV-I 0 W/m² 15,2 °C 18,5 °C 11,3 km/h (2 Bft)
26.08.2017 01:17 18,5 °C 18,6 °C 81 % 1015,2 hPa 0,0 mm 5,8 km/h (2 Bft) S 171 ° 0 min 0,000 mm 0,0 UV-I 0 W/m² 15,2 °C 18,5 °C 8,0 km/h (2 Bft)
26.08.2017 01:18 18,4 °C 18,5 °C 82 % 1015,2 hPa 0,0 mm 2,9 km/h (1 Bft) O-SO 118 ° 0 min 0,000 mm 0,0 UV-I 0 W/m² 15,3 °C 18,4 °C 6,4 km/h (2 Bft)
26.08.2017 01:19 18,3 °C 18,4 °C 83 % 1015,1 hPa 0,0 mm 3,0 km/h (1 Bft) S-SO 150 ° 0 min 0,000 mm 0,0 UV-I 0 W/m² 15,4 °C 18,3 °C 4,8 km/h (1 Bft)
26.08.2017 01:20 18,2 °C 18,3 °C 83 % 1015,2 hPa 0,0 mm 1,7 km/h (1 Bft) S-SO 148 ° 0 min 0,000 mm 0,0 UV-I 0 W/m² 15,3 °C 18,2 °C 4,8 km/h (1 Bft)
26.08.2017 01:21 18,0 °C 18,2 °C 83 % 1015,2 hPa 0,0 mm 3,2 km/h (1 Bft) SW 217 ° 0 min 0,000 mm 0,0 UV-I 0 W/m² 15,1 °C 18,0 °C 9,7 km/h (2 Bft)
26.08.2017 01:22 18,0 °C 18,0 °C 83 % 1015,1 hPa 0,0 mm 5,3 km/h (1 Bft) SW 217 ° 0 min 0,000 mm 0,0 UV-I 0 W/m² 15,1 °C 18,0 °C 9,7 km/h (2 Bft)
26.08.2017 01:23 17,9 °C 18,0 °C 83 % 1015,1 hPa 0,0 mm 3,2 km/h (1 Bft) S-SW 211 ° 0 min 0,000 mm 0,0 UV-I 0 W/m² 15,0 °C 17,9 °C 4,8 km/h (1 Bft)
26.08.2017 01:24 17,9 °C 17,9 °C 84 % 1015,1 hPa 0,0 mm 0,7 km/h (0 Bft) S-SW 211 ° 0 min 0,000 mm 0,0 UV-I 0 W/m² 15,2 °C 17,9 °C 1,6 km/h (1 Bft)
26.08.2017 01:25 18,0 °C 18,0 °C 83 % 1015,1 hPa 0,0 mm 4,6 km/h (1 Bft) S-SW 198 ° 0 min 0,000 mm 0,0 UV-I 0 W/m² 15,1 °C 18,0 °C 6,4 km/h (2 Bft)
26.08.2017 01:26 18,0 °C 18,0 °C 83 % 1015,1 hPa 0,0 mm 3,4 km/h (1 Bft) S 175 ° 0 min 0,000 mm 0,0 UV-I 0 W/m² 15,1 °C 18,0 °C 4,8 km/h (1 Bft)
26.08.2017 01:27 18,1 °C 18,1 °C 83 % 1015,2 hPa 0,0 mm 0,9 km/h (0 Bft) S 175 ° 0 min 0,000 mm 0,0 UV-I 0 W/m² 15,2 °C 18,1 °C 3,2 km/h (1 Bft)
26.08.2017 01:28 18,1 °C 18,1 °C 82 % 1015,2 hPa 0,0 mm 2,9 km/h (1 Bft) S-SW 194 ° 0 min 0,000 mm 0,0 UV-I 0 W/m² 15,0 °C 18,1 °C 3,2 km/h (1 Bft)
26.08.2017 01:29 18,1 °C 18,1 °C 83 % 1015,2 hPa 0,0 mm 2,9 km/h (1 Bft) W-SW 238 ° 0 min 0,000 mm 0,0 UV-I 0 W/m² 15,2 °C 18,1 °C 3,2 km/h (1 Bft)
26.08.2017 01:30 18,2 °C 18,2 °C 82 % 1015,3 hPa 0,0 mm 1,9 km/h (1 Bft) W-SW 239 ° 0 min 0,000 mm 0,0 UV-I 0 W/m² 15,1 °C 18,2 °C 4,8 km/h (1 Bft)
26.08.2017 01:31 18,2 °C 18,2 °C 82 % 1015,2 hPa 0,0 mm 0,5 km/h (0 Bft) W-SW 240 ° 0 min 0,000 mm 0,0 UV-I 0 W/m² 15,1 °C 18,2 °C 1,6 km/h (1 Bft)
26.08.2017 01:32 18,2 °C 18,2 °C 82 % 1015,2 hPa 0,0 mm 0,0 km/h (0 Bft) W-SW 239 ° 0 min 0,000 mm 0,0 UV-I 0 W/m² 15,1 °C 18,2 °C 0,0 km/h (0 Bft)
26.08.2017 01:33 18,2 °C 18,3 °C 82 % 1015,2 hPa 0,0 mm 1,1 km/h (1 Bft) S-SO 155 ° 0 min 0,000 mm 0,0 UV-I 0 W/m² 15,1 °C 18,2 °C 3,2 km/h (1 Bft)
26.08.2017 01:34 18,3 °C 18,3 °C 82 % 1015,2 hPa 0,0 mm 1,5 km/h (1 Bft) S-SW 192 ° 0 min 0,000 mm 0,0 UV-I 0 W/m² 15,2 °C 18,3 °C 6,4 km/h (2 Bft)
26.08.2017 01:35 18,3 °C 18,3 °C 82 % 1015,2 hPa 0,0 mm 0,9 km/h (0 Bft) S-SW 192 ° 0 min 0,000 mm 0,0 UV-I 0 W/m² 15,2 °C 18,3 °C 3,2 km/h (1 Bft)
26.08.2017 01:36 18,4 °C 18,4 °C 82 % 1015,2 hPa 0,0 mm 2,0 km/h (1 Bft) S-SO 166 ° 0 min 0,000 mm 0,0 UV-I 0 W/m² 15,3 °C 18,4 °C 6,4 km/h (2 Bft)
26.08.2017 01:37 18,4 °C 18,4 °C 82 % 1015,2 hPa 0,0 mm 2,4 km/h (1 Bft) S 178 ° 0 min 0,000 mm 0,0 UV-I 0 W/m² 15,3 °C 18,4 °C 6,4 km/h (2 Bft)
26.08.2017 01:38 18,4 °C 18,4 °C 82 % 1015,1 hPa 0,0 mm 2,3 km/h (1 Bft) S 174 ° 0 min 0,000 mm 0,0 UV-I 0 W/m² 15,3 °C 18,4 °C 3,2 km/h (1 Bft)
26.08.2017 01:39 18,5 °C 18,5 °C 81 % 1015,1 hPa 0,0 mm 1,3 km/h (1 Bft) S 174 ° 0 min 0,000 mm 0,0 UV-I 0 W/m² 15,2 °C 18,5 °C 3,2 km/h (1 Bft)
26.08.2017 01:40 18,5 °C 18,5 °C 81 % 1015,1 hPa 0,0 mm 1,5 km/h (1 Bft) S 174 ° 0 min 0,000 mm 0,0 UV-I 0 W/m² 15,2 °C 18,5 °C 3,2 km/h (1 Bft)
26.08.2017 01:41 18,6 °C 18,6 °C 81 % 1015,1 hPa 0,0 mm 3,2 km/h (1 Bft) SO 141 ° 0 min 0,000 mm 0,0 UV-I 0 W/m² 15,3 °C 18,6 °C 4,8 km/h (1 Bft)
26.08.2017 01:42 18,6 °C 18,6 °C 81 % 1015,0 hPa 0,0 mm 1,9 km/h (1 Bft) SO 141 ° 0 min 0,000 mm 0,0 UV-I 0 W/m² 15,3 °C 18,6 °C 4,8 km/h (1 Bft)
26.08.2017 01:43 18,5 °C 18,6 °C 81 % 1015,1 hPa 0,0 mm 1,3 km/h (1 Bft) W 272 ° 0 min 0,000 mm 0,0 UV-I 0 W/m² 15,2 °C 18,5 °C 3,2 km/h (1 Bft)
26.08.2017 01:44 18,4 °C 18,5 °C 81 % 1015,1 hPa 0,0 mm 0,1 km/h (0 Bft) W 271 ° 0 min 0,000 mm 0,0 UV-I 0 W/m² 15,1 °C 18,4 °C 1,6 km/h (1 Bft)
26.08.2017 01:45 18,4 °C 18,4 °C 81 % 1015,0 hPa 0,0 mm 0,5 km/h (0 Bft) W 271 ° 0 min 0,000 mm 0,0 UV-I 0 W/m² 15,1 °C 18,4 °C 1,6 km/h (1 Bft)
26.08.2017 01:46 18,3 °C 18,4 °C 81 % 1015,1 hPa 0,0 mm 0,0 km/h (0 Bft) W 271 ° 0 min 0,000 mm 0,0 UV-I 0 W/m² 15,0 °C 18,3 °C 0,0 km/h (0 Bft)
26.08.2017 01:47 18,3 °C 18,3 °C 81 % 1015,1 hPa 0,0 mm 0,2 km/h (0 Bft) W 271 ° 0 min 0,000 mm 0,0 UV-I 0 W/m² 15,0 °C 18,3 °C 1,6 km/h (1 Bft)
26.08.2017 01:48 18,3 °C 18,3 °C 81 % 1015,1 hPa 0,0 mm 0,5 km/h (0 Bft) W 271 ° 0 min 0,000 mm 0,0 UV-I 0 W/m² 15,0 °C 18,3 °C 1,6 km/h (1 Bft)
26.08.2017 01:49 18,3 °C 18,3 °C 82 % 1015,1 hPa 0,0 mm 0,0 km/h (0 Bft) W 271 ° 0 min 0,000 mm 0,0 UV-I 0 W/m² 15,2 °C 18,3 °C 0,0 km/h (0 Bft)
26.08.2017 01:50 18,2 °C 18,3 °C 82 % 1015,1 hPa 0,0 mm 0,2 km/h (0 Bft) W 271 ° 0 min 0,000 mm 0,0 UV-I 0 W/m² 15,1 °C 18,2 °C 1,6 km/h (1 Bft)
26.08.2017 01:51 18,2 °C 18,2 °C 81 % 1015,1 hPa 0,0 mm 0,0 km/h (0 Bft) W 271 ° 0 min 0,000 mm 0,0 UV-I 0 W/m² 14,9 °C 18,2 °C 0,0 km/h (0 Bft)
26.08.2017 01:52 18,2 °C 18,2 °C 81 % 1015,1 hPa 0,0 mm 0,0 km/h (0 Bft) W 271 ° 0 min 0,000 mm 0,0 UV-I 0 W/m² 14,9 °C 18,2 °C 0,0 km/h (0 Bft)
26.08.2017 01:53 18,2 °C 18,2 °C 81 % 1015,1 hPa 0,0 mm 0,7 km/h (0 Bft) W 271 ° 0 min 0,000 mm 0,0 UV-I 0 W/m² 14,9 °C 18,2 °C 3,2 km/h (1 Bft)
26.08.2017 01:54 18,2 °C 18,2 °C 82 % 1015,1 hPa 0,0 mm 0,6 km/h (0 Bft) W 271 ° 0 min 0,000 mm 0,0 UV-I 0 W/m² 15,1 °C 18,2 °C 3,2 km/h (1 Bft)
26.08.2017 01:55 18,1 °C 18,2 °C 82 % 1015,1 hPa 0,0 mm 0,0 km/h (0 Bft) W 271 ° 0 min 0,000 mm 0,0 UV-I 0 W/m² 15,0 °C 18,1 °C 0,0 km/h (0 Bft)
26.08.2017 01:56 18,1 °C 18,1 °C 82 % 1015,1 hPa 0,0 mm 2,2 km/h (1 Bft) S-SW 202 ° 0 min 0,000 mm 0,0 UV-I 0 W/m² 15,0 °C 18,1 °C 4,8 km/h (1 Bft)
26.08.2017 01:57 18,1 °C 18,1 °C 83 % 1015,1 hPa 0,0 mm 0,8 km/h (0 Bft) S-SW 202 ° 0 min 0,000 mm 0,0 UV-I 0 W/m² 15,2 °C 18,1 °C 3,2 km/h (1 Bft)
26.08.2017 01:58 18,1 °C 18,1 °C 83 % 1015,1 hPa 0,0 mm 0,8 km/h (0 Bft) W-SW 238 ° 0 min 0,000 mm 0,0 UV-I 0 W/m² 15,2 °C 18,1 °C 3,2 km/h (1 Bft)
26.08.2017 01:59 18,2 °C 18,2 °C 82 % 1015,1 hPa 0,0 mm 0,5 km/h (0 Bft) W-SW 238 ° 0 min 0,000 mm 0,0 UV-I 0 W/m² 15,1 °C 18,2 °C 1,6 km/h (1 Bft)
26.08.2017 02:00 18,2 °C 18,2 °C 83 % 1015,1 hPa 0,0 mm 0,9 km/h (0 Bft) W-SW 238 ° 0 min 0,026 mm 0,0 UV-I 0 W/m² 15,3 °C 18,2 °C 1,6 km/h (1 Bft)
26.08.2017 02:01 18,2 °C 18,3 °C 82 % 1015,0 hPa 0,0 mm 1,7 km/h (1 Bft) S-SW 193 ° 0 min 0,000 mm 0,0 UV-I 0 W/m² 15,1 °C 18,2 °C 4,8 km/h (1 Bft)
26.08.2017 02:02 18,3 °C 18,3 °C 82 % 1015,0 hPa 0,0 mm 2,4 km/h (1 Bft) S 188 ° 0 min 0,000 mm 0,0 UV-I 0 W/m² 15,2 °C 18,3 °C 4,8 km/h (1 Bft)
26.08.2017 02:03 18,4 °C 18,4 °C 83 % 1015,0 hPa 0,0 mm 0,6 km/h (0 Bft) S 188 ° 0 min 0,000 mm 0,0 UV-I 0 W/m² 15,5 °C 18,4 °C 1,6 km/h (1 Bft)
26.08.2017 02:04 18,4 °C 18,4 °C 82 % 1015,0 hPa 0,0 mm 1,8 km/h (1 Bft) S 188 ° 0 min 0,000 mm 0,0 UV-I 0 W/m² 15,3 °C 18,4 °C 3,2 km/h (1 Bft)
26.08.2017 02:05 18,4 °C 18,4 °C 82 % 1014,9 hPa 0,0 mm 2,1 km/h (1 Bft) S 188 ° 0 min 0,000 mm 0,0 UV-I 0 W/m² 15,3 °C 18,4 °C 4,8 km/h (1 Bft)
26.08.2017 02:06 18,5 °C 18,5 °C 82 % 1014,9 hPa 0,0 mm 3,3 km/h (1 Bft) S 181 ° 0 min 0,000 mm 0,0 UV-I 0 W/m² 15,4 °C 18,5 °C 4,8 km/h (1 Bft)
26.08.2017 02:07 18,6 °C 18,6 °C 81 % 1014,8 hPa 0,0 mm 4,7 km/h (1 Bft) S-SO 167 ° 0 min 0,000 mm 0,0 UV-I 0 W/m² 15,3 °C 18,6 °C 6,4 km/h (2 Bft)
26.08.2017 02:08 18,7 °C 18,7 °C 81 % 1014,8 hPa 0,0 mm 2,4 km/h (1 Bft) S-SO 167 ° 0 min 0,000 mm 0,0 UV-I 0 W/m² 15,4 °C 18,7 °C 4,8 km/h (1 Bft)
26.08.2017 02:09 18,8 °C 18,8 °C 81 % 1014,8 hPa 0,0 mm 1,3 km/h (1 Bft) S-SO 167 ° 0 min 0,000 mm 0,0 UV-I 0 W/m² 15,5 °C 18,8 °C 4,8 km/h (1 Bft)
26.08.2017 02:10 18,8 °C 18,8 °C 81 % 1014,8 hPa 0,0 mm 2,7 km/h (1 Bft) S-SO 167 ° 0 min 0,000 mm 0,0 UV-I 0 W/m² 15,5 °C 18,8 °C 4,8 km/h (1 Bft)
26.08.2017 02:11 18,8 °C 18,8 °C 80 % 1014,8 hPa 0,0 mm 2,2 km/h (1 Bft) S-SO 167 ° 0 min 0,000 mm 0,0 UV-I 0 W/m² 15,3 °C 18,8 °C 4,8 km/h (1 Bft)
26.08.2017 02:12 18,9 °C 18,9 °C 79 % 1014,9 hPa 0,0 mm 0,0 km/h (0 Bft) S-SO 167 ° 0 min 0,000 mm 0,0 UV-I 0 W/m² 15,2 °C 18,9 °C 0,0 km/h (0 Bft)
26.08.2017 02:13 19,0 °C 19,0 °C 80 % 1014,9 hPa 0,0 mm 1,9 km/h (1 Bft) S-SO 167 ° 0 min 0,000 mm 0,0 UV-I 0 W/m² 15,5 °C 19,0 °C 4,8 km/h (1 Bft)
26.08.2017 02:14 19,1 °C 19,1 °C 80 % 1014,9 hPa 0,0 mm 2,8 km/h (1 Bft) S 169 ° 0 min 0,000 mm 0,0 UV-I 0 W/m² 15,6 °C 19,1 °C 4,8 km/h (1 Bft)
26.08.2017 02:15 19,1 °C 19,1 °C 80 % 1014,9 hPa 0,0 mm 0,6 km/h (0 Bft) S 169 ° 0 min 0,000 mm 0,0 UV-I 0 W/m² 15,6 °C 19,1 °C 1,6 km/h (1 Bft)
26.08.2017 02:16 19,1 °C 19,1 °C 80 % 1014,8 hPa 0,0 mm 1,7 km/h (1 Bft) S 169 ° 0 min 0,000 mm 0,0 UV-I 0 W/m² 15,6 °C 19,1 °C 3,2 km/h (1 Bft)
26.08.2017 02:17 19,1 °C 19,1 °C 81 % 1014,8 hPa 0,0 mm 3,4 km/h (1 Bft) S-SO 150 ° 0 min 0,000 mm 0,0 UV-I 0 W/m² 15,8 °C 19,1 °C 6,4 km/h (2 Bft)
26.08.2017 02:18 19,1 °C 19,1 °C 80 % 1014,8 hPa 0,0 mm 5,4 km/h (1 Bft) S-SO 150 ° 0 min 0,000 mm 0,0 UV-I 0 W/m² 15,6 °C 19,1 °C 6,4 km/h (2 Bft)
26.08.2017 02:19 19,1 °C 19,1 °C 80 % 1014,7 hPa 0,0 mm 5,1 km/h (1 Bft) S-SO 156 ° 0 min 0,000 mm 0,0 UV-I 0 W/m² 15,6 °C 19,1 °C 9,7 km/h (2 Bft)
26.08.2017 02:20 19,0 °C 19,1 °C 80 % 1014,7 hPa 0,0 mm 3,6 km/h (1 Bft) S-SO 153 ° 0 min 0,000 mm 0,0 UV-I 0 W/m² 15,5 °C 19,0 °C 6,4 km/h (2 Bft)
26.08.2017 02:21 19,0 °C 19,1 °C 81 % 1014,6 hPa 0,0 mm 0,9 km/h (0 Bft) S-SO 153 ° 0 min 0,000 mm 0,0 UV-I 0 W/m² 15,7 °C 19,0 °C 3,2 km/h (1 Bft)
26.08.2017 02:22 18,9 °C 19,0 °C 81 % 1014,7 hPa 0,0 mm 0,0 km/h (0 Bft) S-SO 153 ° 0 min 0,000 mm 0,0 UV-I 0 W/m² 15,6 °C 18,9 °C 0,0 km/h (0 Bft)
26.08.2017 02:23 18,9 °C 18,9 °C 81 % 1014,8 hPa 0,0 mm 0,3 km/h (0 Bft) S-SO 153 ° 0 min 0,000 mm 0,0 UV-I 0 W/m² 15,6 °C 18,9 °C 3,2 km/h (1 Bft)
26.08.2017 02:24 18,8 °C 18,9 °C 82 % 1014,8 hPa 0,0 mm 4,0 km/h (1 Bft) W 267 ° 0 min 0,000 mm 0,0 UV-I 0 W/m² 15,7 °C 18,8 °C 4,8 km/h (1 Bft)
26.08.2017 02:25 18,8 °C 18,8 °C 81 % 1014,9 hPa 0,0 mm 3,4 km/h (1 Bft) W-NW 290 ° 0 min 0,000 mm 0,0 UV-I 0 W/m² 15,5 °C 18,8 °C 6,4 km/h (2 Bft)
26.08.2017 02:26 18,8 °C 18,8 °C 81 % 1014,9 hPa 0,0 mm 1,4 km/h (1 Bft) SW 236 ° 0 min 0,000 mm 0,0 UV-I 0 W/m² 15,5 °C 18,8 °C 4,8 km/h (1 Bft)
26.08.2017 02:27 18,7 °C 18,8 °C 82 % 1014,8 hPa 0,0 mm 0,8 km/h (0 Bft) SW 236 ° 0 min 0,000 mm 0,0 UV-I 0 W/m² 15,6 °C 18,7 °C 3,2 km/h (1 Bft)
26.08.2017 02:28 18,7 °C 18,7 °C 82 % 1014,9 hPa 0,0 mm 2,0 km/h (1 Bft) SW 227 ° 0 min 0,000 mm 0,0 UV-I 0 W/m² 15,6 °C 18,7 °C 3,2 km/h (1 Bft)
26.08.2017 02:29 18,6 °C 18,7 °C 82 % 1014,9 hPa 0,0 mm 2,7 km/h (1 Bft) SW 227 ° 0 min 0,000 mm 0,0 UV-I 0 W/m² 15,5 °C 18,6 °C 3,2 km/h (1 Bft)
26.08.2017 02:30 18,6 °C 18,6 °C 82 % 1014,8 hPa 0,0 mm 2,5 km/h (1 Bft) SW 227 ° 0 min 0,000 mm 0,0 UV-I 0 W/m² 15,5 °C 18,6 °C 3,2 km/h (1 Bft)
26.08.2017 02:31 18,5 °C 18,6 °C 83 % 1014,8 hPa 0,0 mm 0,5 km/h (0 Bft) SW 227 ° 0 min 0,000 mm 0,0 UV-I 0 W/m² 15,6 °C 18,5 °C 1,6 km/h (1 Bft)
26.08.2017 02:32 18,4 °C 18,5 °C 83 % 1014,9 hPa 0,0 mm 0,0 km/h (0 Bft) SW 227 ° 0 min 0,000 mm 0,0 UV-I 0 W/m² 15,5 °C 18,4 °C 0,0 km/h (0 Bft)
26.08.2017 02:33 18,3 °C 18,4 °C 83 % 1014,9 hPa 0,0 mm 0,0 km/h (0 Bft) SW 227 ° 0 min 0,000 mm 0,0 UV-I 0 W/m² 15,4 °C 18,3 °C 0,0 km/h (0 Bft)
26.08.2017 02:34 18,3 °C 18,3 °C 83 % 1014,9 hPa 0,0 mm 2,8 km/h (1 Bft) N-NW 342 ° 0 min 0,000 mm 0,0 UV-I 0 W/m² 15,4 °C 18,3 °C 4,8 km/h (1 Bft)
26.08.2017 02:35 18,2 °C 18,3 °C 84 % 1015,0 hPa 0,0 mm 0,9 km/h (0 Bft) N-NW 342 ° 0 min 0,000 mm 0,0 UV-I 0 W/m² 15,4 °C 18,2 °C 3,2 km/h (1 Bft)
26.08.2017 02:36 18,1 °C 18,2 °C 84 % 1015,0 hPa 0,0 mm 0,0 km/h (0 Bft) N-NW 342 ° 0 min 0,000 mm 0,0 UV-I 0 W/m² 15,4 °C 18,1 °C 0,0 km/h (0 Bft)
26.08.2017 02:37 17,9 °C 18,1 °C 85 % 1015,0 hPa 0,0 mm 1,3 km/h (1 Bft) N-NW 342 ° 0 min 0,000 mm 0,0 UV-I 0 W/m² 15,3 °C 17,9 °C 3,2 km/h (1 Bft)
26.08.2017 02:38 17,8 °C 17,9 °C 85 % 1015,0 hPa 0,0 mm 3,2 km/h (1 Bft) NW 308 ° 0 min 0,000 mm 0,0 UV-I 0 W/m² 15,2 °C 17,8 °C 6,4 km/h (2 Bft)
26.08.2017 02:39 17,8 °C 17,8 °C 85 % 1015,1 hPa 0,0 mm 4,2 km/h (1 Bft) W 265 ° 0 min 0,000 mm 0,0 UV-I 0 W/m² 15,2 °C 17,8 °C 9,7 km/h (2 Bft)
26.08.2017 02:40 17,7 °C 17,8 °C 85 % 1015,1 hPa 0,0 mm 7,8 km/h (2 Bft) S 190 ° 0 min 0,000 mm 0,0 UV-I 0 W/m² 15,1 °C 17,7 °C 11,3 km/h (2 Bft)
26.08.2017 02:41 17,8 °C 17,8 °C 84 % 1015,1 hPa 0,0 mm 7,5 km/h (2 Bft) S 169 ° 0 min 0,000 mm 0,0 UV-I 0 W/m² 15,1 °C 17,8 °C 11,3 km/h (2 Bft)
26.08.2017 02:42 17,9 °C 17,9 °C 84 % 1015,1 hPa 0,0 mm 4,2 km/h (1 Bft) S-SO 151 ° 0 min 0,000 mm 0,0 UV-I 0 W/m² 15,2 °C 17,9 °C 8,0 km/h (2 Bft)
26.08.2017 02:43 17,9 °C 17,9 °C 84 % 1015,1 hPa 0,0 mm 4,4 km/h (1 Bft) S 175 ° 0 min 0,000 mm 0,0 UV-I 0 W/m² 15,2 °C 17,9 °C 8,0 km/h (2 Bft)
26.08.2017 02:44 18,0 °C 18,0 °C 83 % 1015,2 hPa 0,0 mm 4,8 km/h (1 Bft) S 182 ° 0 min 0,000 mm 0,0 UV-I 0 W/m² 15,1 °C 18,0 °C 6,4 km/h (2 Bft)
26.08.2017 02:45 18,1 °C 18,1 °C 83 % 1015,1 hPa 0,0 mm 2,3 km/h (1 Bft) S 175 ° 0 min 0,000 mm 0,0 UV-I 0 W/m² 15,2 °C 18,1 °C 6,4 km/h (2 Bft)
26.08.2017 02:46 18,1 °C 18,2 °C 83 % 1015,2 hPa 0,0 mm 3,9 km/h (1 Bft) S-SW 210 ° 0 min 0,000 mm 0,0 UV-I 0 W/m² 15,2 °C 18,1 °C 8,0 km/h (2 Bft)
26.08.2017 02:47 18,2 °C 18,2 °C 82 % 1015,2 hPa 0,0 mm 1,2 km/h (1 Bft) S-SW 210 ° 0 min 0,000 mm 0,0 UV-I 0 W/m² 15,1 °C 18,2 °C 3,2 km/h (1 Bft)
26.08.2017 02:48 18,3 °C 18,3 °C 82 % 1015,1 hPa 0,0 mm 4,5 km/h (1 Bft) S 178 ° 0 min 0,000 mm 0,0 UV-I 0 W/m² 15,2 °C 18,3 °C 6,4 km/h (2 Bft)
26.08.2017 02:49 18,3 °C 18,3 °C 82 % 1015,1 hPa 0,0 mm 3,7 km/h (1 Bft) SO 143 ° 0 min 0,000 mm 0,0 UV-I 0 W/m² 15,2 °C 18,3 °C 6,4 km/h (2 Bft)
26.08.2017 02:50 18,4 °C 18,4 °C 80 % 1015,2 hPa 0,0 mm 3,8 km/h (1 Bft) SW 215 ° 0 min 0,000 mm 0,0 UV-I 0 W/m² 14,9 °C 18,4 °C 6,4 km/h (2 Bft)
26.08.2017 02:51 18,4 °C 18,4 °C 80 % 1015,3 hPa 0,0 mm 0,1 km/h (0 Bft) SW 215 ° 0 min 0,000 mm 0,0 UV-I 0 W/m² 14,9 °C 18,4 °C 1,6 km/h (1 Bft)
26.08.2017 02:52 18,6 °C 18,6 °C 79 % 1015,3 hPa 0,0 mm 4,6 km/h (1 Bft) W 263 ° 0 min 0,000 mm 0,0 UV-I 0 W/m² 14,9 °C 18,6 °C 6,4 km/h (2 Bft)
26.08.2017 02:53 18,8 °C 18,8 °C 78 % 1015,3 hPa 0,0 mm 6,2 km/h (2 Bft) SW 215 ° 0 min 0,000 mm 0,0 UV-I 0 W/m² 14,9 °C 18,8 °C 9,7 km/h (2 Bft)
26.08.2017 02:54 18,9 °C 18,9 °C 77 % 1015,3 hPa 0,0 mm 5,4 km/h (1 Bft) SW 225 ° 0 min 0,000 mm 0,0 UV-I 0 W/m² 14,8 °C 18,9 °C 8,0 km/h (2 Bft)
26.08.2017 02:55 19,1 °C 19,1 °C 76 % 1015,3 hPa 0,0 mm 4,9 km/h (1 Bft) S 188 ° 0 min 0,000 mm 0,0 UV-I 0 W/m² 14,8 °C 19,1 °C 6,4 km/h (2 Bft)
26.08.2017 02:56 19,3 °C 19,3 °C 76 % 1015,3 hPa 0,0 mm 6,8 km/h (2 Bft) S-SW 193 ° 0 min 0,000 mm 0,0 UV-I 0 W/m² 15,0 °C 19,3 °C 12,9 km/h (3 Bft)
26.08.2017 02:57 19,4 °C 19,4 °C 75 % 1015,2 hPa 0,0 mm 4,5 km/h (1 Bft) S-SW 200 ° 0 min 0,000 mm 0,0 UV-I 0 W/m² 14,8 °C 19,4 °C 8,0 km/h (2 Bft)
26.08.2017 02:58 19,5 °C 19,5 °C 75 % 1015,2 hPa 0,0 mm 4,8 km/h (1 Bft) S 185 ° 0 min 0,000 mm 0,0 UV-I 0 W/m² 14,9 °C 19,5 °C 8,0 km/h (2 Bft)
26.08.2017 02:59 19,6 °C 19,6 °C 75 % 1015,2 hPa 0,0 mm 4,4 km/h (1 Bft) S-SW 194 ° 0 min 0,000 mm 0,0 UV-I 0 W/m² 15,0 °C 19,6 °C 8,0 km/h (2 Bft)
26.08.2017 03:00 19,6 °C 19,7 °C 75 % 1015,3 hPa 0,0 mm 1,1 km/h (1 Bft) S-SW 202 ° 0 min 0,025 mm 0,0 UV-I 0 W/m² 15,0 °C 19,6 °C 3,2 km/h (1 Bft)
26.08.2017 03:01 19,7 °C 19,7 °C 75 % 1015,3 hPa 0,0 mm 3,2 km/h (1 Bft) S 190 ° 0 min 0,000 mm 0,0 UV-I 0 W/m² 15,1 °C 19,7 °C 8,0 km/h (2 Bft)
26.08.2017 03:02 19,7 °C 19,7 °C 75 % 1015,4 hPa 0,0 mm 4,3 km/h (1 Bft) SW 217 ° 0 min 0,000 mm 0,0 UV-I 0 W/m² 15,1 °C 19,7 °C 6,4 km/h (2 Bft)
26.08.2017 03:03 19,6 °C 19,7 °C 74 % 1015,4 hPa 0,0 mm 5,9 km/h (2 Bft) S 189 ° 0 min 0,000 mm 0,0 UV-I 0 W/m² 14,8 °C 19,6 °C 6,4 km/h (2 Bft)
26.08.2017 03:04 19,7 °C 19,7 °C 74 % 1015,4 hPa 0,0 mm 3,2 km/h (1 Bft) S-SW 199 ° 0 min 0,000 mm 0,0 UV-I 0 W/m² 14,9 °C 19,7 °C 4,8 km/h (1 Bft)
26.08.2017 03:05 19,7 °C 19,7 °C 74 % 1015,4 hPa 0,0 mm 5,8 km/h (2 Bft) S-SW 195 ° 0 min 0,000 mm 0,0 UV-I 0 W/m² 14,9 °C 19,7 °C 8,0 km/h (2 Bft)
26.08.2017 03:06 19,7 °C 19,7 °C 73 % 1015,4 hPa 0,0 mm 9,3 km/h (2 Bft) S-SW 203 ° 0 min 0,000 mm 0,0 UV-I 0 W/m² 14,7 °C 19,7 °C 12,9 km/h (3 Bft)
26.08.2017 03:07 19,8 °C 19,8 °C 73 % 1015,5 hPa 0,0 mm 4,6 km/h (1 Bft) S-SW 195 ° 0 min 0,000 mm 0,0 UV-I 0 W/m² 14,8 °C 19,8 °C 9,7 km/h (2 Bft)
26.08.2017 03:08 19,8 °C 19,8 °C 73 % 1015,5 hPa 0,0 mm 1,3 km/h (1 Bft) S-SW 195 ° 0 min 0,000 mm 0,0 UV-I 0 W/m² 14,8 °C 19,8 °C 3,2 km/h (1 Bft)
26.08.2017 03:09 19,8 °C 19,8 °C 73 % 1015,5 hPa 0,0 mm 1,9 km/h (1 Bft) NW 309 ° 0 min 0,000 mm 0,0 UV-I 0 W/m² 14,8 °C 19,8 °C 4,8 km/h (1 Bft)
26.08.2017 03:10 19,8 °C 19,8 °C 73 % 1015,6 hPa 0,0 mm 3,2 km/h (1 Bft) NW 309 ° 0 min 0,000 mm 0,0 UV-I 0 W/m² 14,8 °C 19,8 °C 4,8 km/h (1 Bft)
26.08.2017 03:11 19,6 °C 19,8 °C 76 % 1015,6 hPa 0,0 mm 2,8 km/h (1 Bft) NW 309 ° 0 min 0,000 mm 0,0 UV-I 0 W/m² 15,2 °C 19,6 °C 3,2 km/h (1 Bft)
26.08.2017 03:12 19,4 °C 19,6 °C 77 % 1015,6 hPa 0,0 mm 2,8 km/h (1 Bft) W 271 ° 0 min 0,000 mm 0,0 UV-I 0 W/m² 15,3 °C 19,4 °C 4,8 km/h (1 Bft)
26.08.2017 03:13 19,2 °C 19,4 °C 78 % 1015,5 hPa 0,0 mm 1,8 km/h (1 Bft) W 271 ° 0 min 0,000 mm 0,0 UV-I 0 W/m² 15,3 °C 19,2 °C 3,2 km/h (1 Bft)
26.08.2017 03:14 18,8 °C 19,2 °C 79 % 1015,5 hPa 0,0 mm 0,5 km/h (0 Bft) W 271 ° 0 min 0,000 mm 0,0 UV-I 0 W/m² 15,1 °C 18,8 °C 1,6 km/h (1 Bft)
26.08.2017 03:15 18,7 °C 18,8 °C 79 % 1015,5 hPa 0,0 mm 0,0 km/h (0 Bft) SW 231 ° 0 min 0,000 mm 0,0 UV-I 0 W/m² 15,0 °C 18,7 °C 0,0 km/h (0 Bft)
26.08.2017 03:16 18,7 °C 18,7 °C 77 % 1015,5 hPa 0,0 mm 2,1 km/h (1 Bft) SW 230 ° 0 min 0,000 mm 0,0 UV-I 0 W/m² 14,6 °C 18,7 °C 3,2 km/h (1 Bft)
26.08.2017 03:17 18,9 °C 18,9 °C 75 % 1015,5 hPa 0,0 mm 2,8 km/h (1 Bft) S-SW 213 ° 0 min 0,000 mm 0,0 UV-I 0 W/m² 14,4 °C 18,9 °C 4,8 km/h (1 Bft)
26.08.2017 03:18 19,2 °C 19,2 °C 74 % 1015,5 hPa 0,0 mm 4,2 km/h (1 Bft) S-SW 200 ° 0 min 0,000 mm 0,0 UV-I 0 W/m² 14,4 °C 19,2 °C 6,4 km/h (2 Bft)
26.08.2017 03:19 19,4 °C 19,4 °C 75 % 1015,4 hPa 0,0 mm 1,3 km/h (1 Bft) S-SW 194 ° 0 min 0,000 mm 0,0 UV-I 0 W/m² 14,8 °C 19,4 °C 3,2 km/h (1 Bft)
26.08.2017 03:20 19,5 °C 19,5 °C 75 % 1015,3 hPa 0,0 mm 2,9 km/h (1 Bft) W-NW 303 ° 0 min 0,000 mm 0,0 UV-I 0 W/m² 14,9 °C 19,5 °C 6,4 km/h (2 Bft)
26.08.2017 03:21 19,6 °C 19,6 °C 75 % 1015,3 hPa 0,0 mm 3,4 km/h (1 Bft) W-SW 248 ° 0 min 0,000 mm 0,0 UV-I 0 W/m² 15,0 °C 19,6 °C 4,8 km/h (1 Bft)
26.08.2017 03:22 19,6 °C 19,6 °C 74 % 1015,5 hPa 0,0 mm 4,1 km/h (1 Bft) W-NW 282 ° 0 min 0,000 mm 0,0 UV-I 0 W/m² 14,8 °C 19,6 °C 9,7 km/h (2 Bft)
26.08.2017 03:23 19,6 °C 19,6 °C 76 % 1015,4 hPa 0,0 mm 3,8 km/h (1 Bft) N-NW 333 ° 0 min 0,000 mm 0,0 UV-I 0 W/m² 15,2 °C 19,6 °C 4,8 km/h (1 Bft)
26.08.2017 03:24 19,4 °C 19,6 °C 77 % 1015,4 hPa 0,0 mm 2,7 km/h (1 Bft) N-NW 342 ° 0 min 0,000 mm 0,0 UV-I 0 W/m² 15,3 °C 19,4 °C 4,8 km/h (1 Bft)
26.08.2017 03:25 19,2 °C 19,4 °C 78 % 1015,4 hPa 0,0 mm 0,5 km/h (0 Bft) N-NW 342 ° 0 min 0,000 mm 0,0 UV-I 0 W/m² 15,3 °C 19,2 °C 1,6 km/h (1 Bft)
26.08.2017 03:26 18,9 °C 19,2 °C 79 % 1015,3 hPa 0,0 mm 2,5 km/h (1 Bft) N-NO 27 ° 0 min 0,000 mm 0,0 UV-I 0 W/m² 15,2 °C 18,9 °C 3,2 km/h (1 Bft)
26.08.2017 03:27 18,7 °C 18,9 °C 79 % 1015,3 hPa 0,0 mm 3,5 km/h (1 Bft) O 81 ° 0 min 0,000 mm 0,0 UV-I 0 W/m² 15,0 °C 18,7 °C 4,8 km/h (1 Bft)
26.08.2017 03:28 18,5 °C 18,7 °C 81 % 1015,3 hPa 0,0 mm 2,7 km/h (1 Bft) O 81 ° 0 min 0,000 mm 0,0 UV-I 0 W/m² 15,2 °C 18,5 °C 4,8 km/h (1 Bft)
26.08.2017 03:29 18,4 °C 18,5 °C 81 % 1015,4 hPa 0,0 mm 1,1 km/h (1 Bft) O 81 ° 0 min 0,000 mm 0,0 UV-I 0 W/m² 15,1 °C 18,4 °C 3,2 km/h (1 Bft)
26.08.2017 03:30 18,4 °C 18,4 °C 80 % 1015,3 hPa 0,0 mm 2,0 km/h (1 Bft) O 81 ° 0 min 0,000 mm 0,0 UV-I 0 W/m² 14,9 °C 18,4 °C 3,2 km/h (1 Bft)
26.08.2017 03:31 18,5 °C 18,5 °C 80 % 1015,3 hPa 0,0 mm 1,8 km/h (1 Bft) O 81 ° 0 min 0,000 mm 0,0 UV-I 0 W/m² 15,0 °C 18,5 °C 4,8 km/h (1 Bft)
26.08.2017 03:32 18,5 °C 18,5 °C 80 % 1015,3 hPa 0,0 mm 3,2 km/h (1 Bft) O 81 ° 0 min 0,000 mm 0,0 UV-I 0 W/m² 15,0 °C 18,5 °C 3,2 km/h (1 Bft)
26.08.2017 03:33 18,5 °C 18,5 °C 80 % 1015,3 hPa 0,0 mm 2,0 km/h (1 Bft) O 81 ° 0 min 0,000 mm 0,0 UV-I 0 W/m² 15,0 °C 18,5 °C 3,2 km/h (1 Bft)
26.08.2017 03:34 18,5 °C 18,5 °C 80 % 1015,4 hPa 0,0 mm 0,0 km/h (0 Bft) O 81 ° 0 min 0,000 mm 0,0 UV-I 0 W/m² 15,0 °C 18,5 °C 0,0 km/h (0 Bft)
26.08.2017 03:35 18,6 °C 18,6 °C 80 % 1015,3 hPa 0,0 mm 1,9 km/h (1 Bft) SO 135 ° 0 min 0,000 mm 0,0 UV-I 0 W/m² 15,1 °C 18,6 °C 3,2 km/h (1 Bft)
26.08.2017 03:36 18,5 °C 18,6 °C 81 % 1015,3 hPa 0,0 mm 2,7 km/h (1 Bft) SO 135 ° 0 min 0,000 mm 0,0 UV-I 0 W/m² 15,2 °C 18,5 °C 4,8 km/h (1 Bft)
26.08.2017 03:37 18,4 °C 18,5 °C 81 % 1015,3 hPa 0,0 mm 0,0 km/h (0 Bft) SO 135 ° 0 min 0,000 mm 0,0 UV-I 0 W/m² 15,1 °C 18,4 °C 0,0 km/h (0 Bft)
26.08.2017 03:38 18,4 °C 18,4 °C 81 % 1015,4 hPa 0,0 mm 0,1 km/h (0 Bft) SO 135 ° 0 min 0,000 mm 0,0 UV-I 0 W/m² 15,1 °C 18,4 °C 1,6 km/h (1 Bft)
26.08.2017 03:39 18,3 °C 18,4 °C 82 % 1015,4 hPa 0,0 mm 0,0 km/h (0 Bft) SO 135 ° 0 min 0,000 mm 0,0 UV-I 0 W/m² 15,2 °C 18,3 °C 0,0 km/h (0 Bft)
26.08.2017 03:40 18,2 °C 18,3 °C 83 % 1015,4 hPa 0,0 mm 0,0 km/h (0 Bft) SO 135 ° 0 min 0,000 mm 0,0 UV-I 0 W/m² 15,3 °C 18,2 °C 0,0 km/h (0 Bft)
26.08.2017 03:41 18,2 °C 18,2 °C 83 % 1015,3 hPa 0,0 mm 0,0 km/h (0 Bft) SO 135 ° 0 min 0,000 mm 0,0 UV-I 0 W/m² 15,3 °C 18,2 °C 0,0 km/h (0 Bft)
26.08.2017 03:42 18,1 °C 18,2 °C 82 % 1015,3 hPa 0,0 mm 0,0 km/h (0 Bft) SO 135 ° 0 min 0,000 mm 0,0 UV-I 0 W/m² 15,0 °C 18,1 °C 0,0 km/h (0 Bft)
26.08.2017 03:43 18,1 °C 18,1 °C 82 % 1015,3 hPa 0,0 mm 0,0 km/h (0 Bft) SO 135 ° 0 min 0,000 mm 0,0 UV-I 0 W/m² 15,0 °C 18,1 °C 0,0 km/h (0 Bft)
26.08.2017 03:44 18,0 °C 18,1 °C 83 % 1015,2 hPa 0,0 mm 0,0 km/h (0 Bft) SO 135 ° 0 min 0,000 mm 0,0 UV-I 0 W/m² 15,1 °C 18,0 °C 0,0 km/h (0 Bft)
26.08.2017 03:45 18,0 °C 18,0 °C 83 % 1015,2 hPa 0,0 mm 0,0 km/h (0 Bft) SO 135 ° 0 min 0,000 mm 0,0 UV-I 0 W/m² 15,1 °C 18,0 °C 0,0 km/h (0 Bft)
26.08.2017 03:46 17,9 °C 18,0 °C 83 % 1015,2 hPa 0,0 mm 0,0 km/h (0 Bft) SO 135 ° 0 min 0,000 mm 0,0 UV-I 0 W/m² 15,0 °C 17,9 °C 0,0 km/h (0 Bft)
26.08.2017 03:47 17,9 °C 17,9 °C 82 % 1015,2 hPa 0,0 mm 0,0 km/h (0 Bft) SO 135 ° 0 min 0,000 mm 0,0 UV-I 0 W/m² 14,8 °C 17,9 °C 0,0 km/h (0 Bft)
26.08.2017 03:48 17,9 °C 17,9 °C 82 % 1015,3 hPa 0,0 mm 0,0 km/h (0 Bft) SO 135 ° 0 min 0,000 mm 0,0 UV-I 0 W/m² 14,8 °C 17,9 °C 0,0 km/h (0 Bft)
26.08.2017 03:49 17,9 °C 17,9 °C 81 % 1015,3 hPa 0,0 mm 0,0 km/h (0 Bft) SO 135 ° 0 min 0,000 mm 0,0 UV-I 0 W/m² 14,6 °C 17,9 °C 0,0 km/h (0 Bft)
26.08.2017 03:50 17,9 °C 17,9 °C 81 % 1015,2 hPa 0,0 mm 0,0 km/h (0 Bft) SO 135 ° 0 min 0,000 mm 0,0 UV-I 0 W/m² 14,6 °C 17,9 °C 0,0 km/h (0 Bft)
26.08.2017 03:51 18,0 °C 18,1 °C 80 % 1015,1 hPa 0,0 mm 0,0 km/h (0 Bft) SO 135 ° 0 min 0,000 mm 0,0 UV-I 0 W/m² 14,5 °C 18,0 °C 0,0 km/h (0 Bft)
26.08.2017 03:52 17,9 °C 18,0 °C 81 % 1015,1 hPa 0,0 mm 0,0 km/h (0 Bft) SO 135 ° 0 min 0,000 mm 0,0 UV-I 0 W/m² 14,6 °C 17,9 °C 0,0 km/h (0 Bft)
26.08.2017 03:53 17,9 °C 17,9 °C 81 % 1015,2 hPa 0,0 mm 0,0 km/h (0 Bft) SO 135 ° 0 min 0,000 mm 0,0 UV-I 0 W/m² 14,6 °C 17,9 °C 0,0 km/h (0 Bft)
26.08.2017 03:54 17,9 °C 17,9 °C 81 % 1015,2 hPa 0,0 mm 0,0 km/h (0 Bft) SO 135 ° 0 min 0,000 mm 0,0 UV-I 0 W/m² 14,6 °C 17,9 °C 0,0 km/h (0 Bft)
26.08.2017 03:55 17,9 °C 17,9 °C 80 % 1015,2 hPa 0,0 mm 0,0 km/h (0 Bft) SO 135 ° 0 min 0,000 mm 0,0 UV-I 0 W/m² 14,4 °C 17,9 °C 0,0 km/h (0 Bft)
26.08.2017 03:56 17,9 °C 17,9 °C 80 % 1015,2 hPa 0,0 mm 0,0 km/h (0 Bft) SO 135 ° 0 min 0,000 mm 0,0 UV-I 0 W/m² 14,4 °C 17,9 °C 0,0 km/h (0 Bft)
26.08.2017 03:57 17,9 °C 18,0 °C 80 % 1015,2 hPa 0,0 mm 0,0 km/h (0 Bft) SO 135 ° 0 min 0,000 mm 0,0 UV-I 0 W/m² 14,4 °C 17,9 °C 0,0 km/h (0 Bft)
26.08.2017 03:58 18,0 °C 18,0 °C 80 % 1015,2 hPa 0,0 mm 0,0 km/h (0 Bft) SO 135 ° 0 min 0,000 mm 0,0 UV-I 0 W/m² 14,5 °C 18,0 °C 0,0 km/h (0 Bft)
26.08.2017 03:59 18,1 °C 18,1 °C 79 % 1015,2 hPa 0,0 mm 0,0 km/h (0 Bft) SO 135 ° 0 min 0,000 mm 0,0 UV-I 0 W/m² 14,4 °C 18,1 °C 0,0 km/h (0 Bft)
26.08.2017 04:00 18,2 °C 18,2 °C 78 % 1015,2 hPa 0,0 mm 0,0 km/h (0 Bft) SO 135 ° 0 min 0,026 mm 0,0 UV-I 0 W/m² 14,3 °C 18,2 °C 0,0 km/h (0 Bft)
26.08.2017 04:01 18,2 °C 18,2 °C 78 % 1015,2 hPa 0,0 mm 0,0 km/h (0 Bft) SO 135 ° 0 min 0,000 mm 0,0 UV-I 0 W/m² 14,3 °C 18,2 °C 0,0 km/h (0 Bft)
26.08.2017 04:02 18,1 °C 18,2 °C 79 % 1015,2 hPa 0,0 mm 0,0 km/h (0 Bft) SO 135 ° 0 min 0,000 mm 0,0 UV-I 0 W/m² 14,4 °C 18,1 °C 0,0 km/h (0 Bft)
26.08.2017 04:03 18,0 °C 18,1 °C 79 % 1015,1 hPa 0,0 mm 0,7 km/h (0 Bft) SO 135 ° 0 min 0,000 mm 0,0 UV-I 0 W/m² 14,3 °C 18,0 °C 3,2 km/h (1 Bft)
26.08.2017 04:05 17,8 °C 18,0 °C 81 % 1015,1 hPa 0,0 mm 0,2 km/h (0 Bft) SO 135 ° 0 min 0,000 mm 0,0 UV-I 0 W/m² 14,5 °C 17,8 °C 1,6 km/h (1 Bft)
26.08.2017 04:06 17,7 °C 17,8 °C 81 % 1015,1 hPa 0,0 mm 0,3 km/h (0 Bft) SO 135 ° 0 min 0,000 mm 0,0 UV-I 0 W/m² 14,4 °C 17,7 °C 1,6 km/h (1 Bft)
26.08.2017 04:07 17,7 °C 17,7 °C 81 % 1015,1 hPa 0,0 mm 1,3 km/h (1 Bft) SO 128 ° 0 min 0,000 mm 0,0 UV-I 0 W/m² 14,4 °C 17,7 °C 3,2 km/h (1 Bft)
26.08.2017 04:08 17,6 °C 17,7 °C 82 % 1015,1 hPa 0,0 mm 1,6 km/h (1 Bft) SO 128 ° 0 min 0,000 mm 0,0 UV-I 0 W/m² 14,5 °C 17,6 °C 3,2 km/h (1 Bft)
26.08.2017 04:09 17,4 °C 17,6 °C 82 % 1015,1 hPa 0,0 mm 0,2 km/h (0 Bft) SO 128 ° 0 min 0,000 mm 0,0 UV-I 0 W/m² 14,3 °C 17,4 °C 1,6 km/h (1 Bft)
26.08.2017 04:10 17,2 °C 17,4 °C 83 % 1015,1 hPa 0,0 mm 0,0 km/h (0 Bft) SO 128 ° 0 min 0,000 mm 0,0 UV-I 0 W/m² 14,3 °C 17,2 °C 0,0 km/h (0 Bft)
26.08.2017 04:11 17,1 °C 17,2 °C 84 % 1015,1 hPa 0,0 mm 0,0 km/h (0 Bft) SO 128 ° 0 min 0,000 mm 0,0 UV-I 0 W/m² 14,4 °C 17,1 °C 0,0 km/h (0 Bft)
26.08.2017 04:12 16,9 °C 17,1 °C 85 % 1015,1 hPa 0,0 mm 0,0 km/h (0 Bft) SO 128 ° 0 min 0,000 mm 0,0 UV-I 0 W/m² 14,4 °C 16,9 °C 0,0 km/h (0 Bft)
26.08.2017 04:13 16,8 °C 16,9 °C 85 % 1015,1 hPa 0,0 mm 0,3 km/h (0 Bft) SO 128 ° 0 min 0,000 mm 0,0 UV-I 0 W/m² 14,3 °C 16,8 °C 1,6 km/h (1 Bft)
26.08.2017 04:14 16,8 °C 16,8 °C 85 % 1015,1 hPa 0,0 mm 0,7 km/h (0 Bft) SO 128 ° 0 min 0,000 mm 0,0 UV-I 0 W/m² 14,3 °C 16,8 °C 1,6 km/h (1 Bft)
26.08.2017 04:15 16,8 °C 16,8 °C 85 % 1015,1 hPa 0,0 mm 0,0 km/h (0 Bft) SO 128 ° 0 min 0,000 mm 0,0 UV-I 0 W/m² 14,3 °C 16,8 °C 0,0 km/h (0 Bft)
26.08.2017 04:16 16,8 °C 16,8 °C 85 % 1015,1 hPa 0,0 mm 0,0 km/h (0 Bft) SO 128 ° 0 min 0,000 mm 0,0 UV-I 0 W/m² 14,3 °C 16,8 °C 0,0 km/h (0 Bft)
26.08.2017 04:17 16,8 °C 16,8 °C 85 % 1015,1 hPa 0,0 mm 0,1 km/h (0 Bft) SO 128 ° 0 min 0,000 mm 0,0 UV-I 0 W/m² 14,3 °C 16,8 °C 1,6 km/h (1 Bft)
26.08.2017 04:18 16,9 °C 16,9 °C 85 % 1015,0 hPa 0,0 mm 3,0 km/h (1 Bft) SO 128 ° 0 min 0,000 mm 0,0 UV-I 0 W/m² 14,4 °C 16,9 °C 4,8 km/h (1 Bft)
26.08.2017 04:19 16,9 °C 16,9 °C 84 % 1015,0 hPa 0,0 mm 0,2 km/h (0 Bft) SO 128 ° 0 min 0,000 mm 0,0 UV-I 0 W/m² 14,2 °C 16,9 °C 1,6 km/h (1 Bft)
26.08.2017 04:20 17,1 °C 17,1 °C 83 % 1015,0 hPa 0,0 mm 0,0 km/h (0 Bft) SO 128 ° 0 min 0,000 mm 0,0 UV-I 0 W/m² 14,2 °C 17,1 °C 0,0 km/h (0 Bft)
26.08.2017 04:21 17,2 °C 17,2 °C 82 % 1015,0 hPa 0,0 mm 0,3 km/h (0 Bft) SO 128 ° 0 min 0,000 mm 0,0 UV-I 0 W/m² 14,1 °C 17,2 °C 1,6 km/h (1 Bft)
26.08.2017 04:22 17,3 °C 17,3 °C 81 % 1015,0 hPa 0,0 mm 0,0 km/h (0 Bft) SO 128 ° 0 min 0,000 mm 0,0 UV-I 0 W/m² 14,0 °C 17,3 °C 0,0 km/h (0 Bft)
26.08.2017 04:23 17,3 °C 17,3 °C 82 % 1014,9 hPa 0,0 mm 0,3 km/h (0 Bft) SO 128 ° 0 min 0,000 mm 0,0 UV-I 0 W/m² 14,2 °C 17,3 °C 1,6 km/h (1 Bft)
26.08.2017 04:24 17,3 °C 17,3 °C 82 % 1014,9 hPa 0,0 mm 0,6 km/h (0 Bft) SO 128 ° 0 min 0,000 mm 0,0 UV-I 0 W/m² 14,2 °C 17,3 °C 1,6 km/h (1 Bft)
26.08.2017 04:25 17,2 °C 17,3 °C 83 % 1014,9 hPa 0,0 mm 0,5 km/h (0 Bft) SO 128 ° 0 min 0,000 mm 0,0 UV-I 0 W/m² 14,3 °C 17,2 °C 1,6 km/h (1 Bft)
26.08.2017 04:26 17,2 °C 17,2 °C 82 % 1014,9 hPa 0,0 mm 0,0 km/h (0 Bft) SO 128 ° 0 min 0,000 mm 0,0 UV-I 0 W/m² 14,1 °C 17,2 °C 0,0 km/h (0 Bft)
26.08.2017 04:27 17,2 °C 17,2 °C 82 % 1014,9 hPa 0,0 mm 0,0 km/h (0 Bft) SO 128 ° 0 min 0,000 mm 0,0 UV-I 0 W/m² 14,1 °C 17,2 °C 0,0 km/h (0 Bft)
26.08.2017 04:28 17,2 °C 17,2 °C 81 % 1014,9 hPa 0,0 mm 0,4 km/h (0 Bft) SO 128 ° 0 min 0,000 mm 0,0 UV-I 0 W/m² 13,9 °C 17,2 °C 1,6 km/h (1 Bft)
26.08.2017 04:29 17,3 °C 17,3 °C 80 % 1014,9 hPa 0,0 mm 2,4 km/h (1 Bft) SO 128 ° 0 min 0,000 mm 0,0 UV-I 0 W/m² 13,8 °C 17,3 °C 3,2 km/h (1 Bft)
26.08.2017 04:30 17,4 °C 17,4 °C 80 % 1014,9 hPa 0,0 mm 3,0 km/h (1 Bft) SO 128 ° 0 min 0,000 mm 0,0 UV-I 0 W/m² 13,9 °C 17,4 °C 3,2 km/h (1 Bft)
26.08.2017 04:31 17,4 °C 17,4 °C 81 % 1014,9 hPa 0,0 mm 2,1 km/h (1 Bft) SO 126 ° 0 min 0,000 mm 0,0 UV-I 0 W/m² 14,1 °C 17,4 °C 3,2 km/h (1 Bft)
26.08.2017 04:32 17,6 °C 17,6 °C 79 % 1014,9 hPa 0,0 mm 0,7 km/h (0 Bft) SO 126 ° 0 min 0,000 mm 0,0 UV-I 0 W/m² 13,9 °C 17,6 °C 1,6 km/h (1 Bft)
26.08.2017 04:33 17,6 °C 17,6 °C 78 % 1014,8 hPa 0,0 mm 0,0 km/h (0 Bft) SO 126 ° 0 min 0,000 mm 0,0 UV-I 0 W/m² 13,7 °C 17,6 °C 0,0 km/h (0 Bft)
26.08.2017 04:34 17,7 °C 17,7 °C 76 % 1014,9 hPa 0,0 mm 0,0 km/h (0 Bft) SO 126 ° 0 min 0,000 mm 0,0 UV-I 0 W/m² 13,4 °C 17,7 °C 0,0 km/h (0 Bft)
26.08.2017 04:35 17,7 °C 17,7 °C 77 % 1014,9 hPa 0,0 mm 2,3 km/h (1 Bft) SW 227 ° 0 min 0,000 mm 0,0 UV-I 0 W/m² 13,6 °C 17,7 °C 4,8 km/h (1 Bft)
26.08.2017 04:36 17,8 °C 17,8 °C 78 % 1014,9 hPa 0,0 mm 2,3 km/h (1 Bft) W-SW 256 ° 0 min 0,000 mm 0,0 UV-I 0 W/m² 13,9 °C 17,8 °C 3,2 km/h (1 Bft)
26.08.2017 04:37 17,9 °C 17,9 °C 77 % 1014,9 hPa 0,0 mm 0,1 km/h (0 Bft) W-SW 256 ° 0 min 0,000 mm 0,0 UV-I 0 W/m² 13,8 °C 17,9 °C 1,6 km/h (1 Bft)
26.08.2017 04:38 17,9 °C 18,0 °C 76 % 1014,8 hPa 0,0 mm 0,0 km/h (0 Bft) W-SW 256 ° 0 min 0,000 mm 0,0 UV-I 0 W/m² 13,6 °C 17,9 °C 0,0 km/h (0 Bft)
26.08.2017 04:39 17,9 °C 17,9 °C 77 % 1014,8 hPa 0,0 mm 0,0 km/h (0 Bft) W-SW 256 ° 0 min 0,000 mm 0,0 UV-I 0 W/m² 13,8 °C 17,9 °C 0,0 km/h (0 Bft)
26.08.2017 04:40 17,8 °C 17,9 °C 78 % 1014,8 hPa 0,0 mm 0,0 km/h (0 Bft) W-SW 256 ° 0 min 0,000 mm 0,0 UV-I 0 W/m² 13,9 °C 17,8 °C 0,0 km/h (0 Bft)
26.08.2017 04:41 17,8 °C 17,9 °C 78 % 1014,8 hPa 0,0 mm 0,0 km/h (0 Bft) W-SW 256 ° 0 min 0,000 mm 0,0 UV-I 0 W/m² 13,9 °C 17,8 °C 0,0 km/h (0 Bft)
26.08.2017 04:42 17,8 °C 17,8 °C 78 % 1014,8 hPa 0,0 mm 0,6 km/h (0 Bft) W-SW 254 ° 0 min 0,000 mm 0,0 UV-I 0 W/m² 13,9 °C 17,8 °C 3,2 km/h (1 Bft)
26.08.2017 04:43 17,8 °C 17,8 °C 78 % 1014,9 hPa 0,0 mm 0,6 km/h (0 Bft) W-SW 254 ° 0 min 0,000 mm 0,0 UV-I 0 W/m² 13,9 °C 17,8 °C 3,2 km/h (1 Bft)
26.08.2017 04:44 17,7 °C 17,8 °C 77 % 1014,9 hPa 0,0 mm 0,0 km/h (0 Bft) W-SW 254 ° 0 min 0,000 mm 0,0 UV-I 0 W/m² 13,6 °C 17,7 °C 0,0 km/h (0 Bft)
26.08.2017 04:45 17,8 °C 17,8 °C 78 % 1014,9 hPa 0,0 mm 1,4 km/h (1 Bft) N-NW 327 ° 0 min 0,000 mm 0,0 UV-I 0 W/m² 13,9 °C 17,8 °C 6,4 km/h (2 Bft)
26.08.2017 04:46 17,7 °C 17,8 °C 79 % 1014,8 hPa 0,0 mm 3,4 km/h (1 Bft) N-NW 329 ° 0 min 0,000 mm 0,0 UV-I 0 W/m² 14,0 °C 17,7 °C 6,4 km/h (2 Bft)
26.08.2017 04:47 17,6 °C 17,7 °C 80 % 1014,8 hPa 0,0 mm 0,1 km/h (0 Bft) N-NW 329 ° 0 min 0,000 mm 0,0 UV-I 0 W/m² 14,1 °C 17,6 °C 1,6 km/h (1 Bft)
26.08.2017 04:48 17,3 °C 17,6 °C 81 % 1014,8 hPa 0,0 mm 0,6 km/h (0 Bft) N-NW 329 ° 0 min 0,000 mm 0,0 UV-I 0 W/m² 14,0 °C 17,3 °C 3,2 km/h (1 Bft)
26.08.2017 04:49 17,2 °C 17,3 °C 81 % 1014,9 hPa 0,0 mm 0,5 km/h (0 Bft) N-NW 329 ° 0 min 0,000 mm 0,0 UV-I 0 W/m² 13,9 °C 17,2 °C 1,6 km/h (1 Bft)
26.08.2017 04:50 17,1 °C 17,2 °C 81 % 1014,8 hPa 0,0 mm 0,0 km/h (0 Bft) N-NW 329 ° 0 min 0,000 mm 0,0 UV-I 0 W/m² 13,8 °C 17,1 °C 0,0 km/h (0 Bft)
26.08.2017 04:51 17,1 °C 17,1 °C 81 % 1014,8 hPa 0,0 mm 0,0 km/h (0 Bft) N-NW 329 ° 0 min 0,000 mm 0,0 UV-I 0 W/m² 13,8 °C 17,1 °C 0,0 km/h (0 Bft)
26.08.2017 04:52 17,0 °C 17,1 °C 81 % 1014,9 hPa 0,0 mm 0,0 km/h (0 Bft) N-NW 329 ° 0 min 0,000 mm 0,0 UV-I 0 W/m² 13,7 °C 17,0 °C 0,0 km/h (0 Bft)
26.08.2017 04:53 17,0 °C 17,1 °C 82 % 1014,9 hPa 0,0 mm 0,0 km/h (0 Bft) N-NW 329 ° 0 min 0,000 mm 0,0 UV-I 0 W/m² 13,9 °C 17,0 °C 0,0 km/h (0 Bft)
26.08.2017 04:54 17,0 °C 17,0 °C 82 % 1014,9 hPa 0,0 mm 0,0 km/h (0 Bft) N-NW 329 ° 0 min 0,000 mm 0,0 UV-I 0 W/m² 13,9 °C 17,0 °C 0,0 km/h (0 Bft)
26.08.2017 04:55 17,0 °C 17,0 °C 80 % 1014,9 hPa 0,0 mm 0,0 km/h (0 Bft) N-NW 329 ° 0 min 0,000 mm 0,0 UV-I 0 W/m² 13,5 °C 17,0 °C 0,0 km/h (0 Bft)
26.08.2017 04:56 17,1 °C 17,1 °C 80 % 1014,9 hPa 0,0 mm 1,3 km/h (1 Bft) N-NW 329 ° 0 min 0,000 mm 0,0 UV-I 0 W/m² 13,6 °C 17,1 °C 3,2 km/h (1 Bft)
26.08.2017 04:57 17,1 °C 17,2 °C 78 % 1014,9 hPa 0,0 mm 2,3 km/h (1 Bft) N-NW 329 ° 0 min 0,000 mm 0,0 UV-I 0 W/m² 13,2 °C 17,1 °C 3,2 km/h (1 Bft)
26.08.2017 04:58 17,3 °C 17,3 °C 77 % 1015,0 hPa 0,0 mm 0,7 km/h (0 Bft) N-NW 329 ° 0 min 0,000 mm 0,0 UV-I 0 W/m² 13,2 °C 17,3 °C 3,2 km/h (1 Bft)
26.08.2017 04:59 17,6 °C 17,6 °C 76 % 1014,9 hPa 0,0 mm 2,4 km/h (1 Bft) O-NO 66 ° 0 min 0,000 mm 0,0 UV-I 0 W/m² 13,3 °C 17,6 °C 4,8 km/h (1 Bft)
26.08.2017 05:00 17,7 °C 17,7 °C 74 % 1015,0 hPa 0,0 mm 2,7 km/h (1 Bft) S-SO 150 ° 0 min 0,025 mm 0,0 UV-I 0 W/m² 13,0 °C 17,7 °C 3,2 km/h (1 Bft)
26.08.2017 05:01 18,0 °C 18,0 °C 74 % 1014,9 hPa 0,0 mm 2,7 km/h (1 Bft) S 179 ° 0 min 0,000 mm 0,0 UV-I 0 W/m² 13,3 °C 18,0 °C 4,8 km/h (1 Bft)
26.08.2017 05:02 18,1 °C 18,1 °C 74 % 1014,9 hPa 0,0 mm 1,7 km/h (1 Bft) S 179 ° 0 min 0,000 mm 0,0 UV-I 0 W/m² 13,4 °C 18,1 °C 3,2 km/h (1 Bft)
26.08.2017 05:03 18,1 °C 18,1 °C 73 % 1014,9 hPa 0,0 mm 0,8 km/h (0 Bft) S 179 ° 0 min 0,000 mm 0,0 UV-I 0 W/m² 13,2 °C 18,1 °C 3,2 km/h (1 Bft)
26.08.2017 05:04 18,2 °C 18,2 °C 73 % 1014,9 hPa 0,0 mm 0,0 km/h (0 Bft) S 179 ° 0 min 0,000 mm 0,0 UV-I 0 W/m² 13,3 °C 18,2 °C 0,0 km/h (0 Bft)
26.08.2017 05:05 18,2 °C 18,2 °C 73 % 1014,9 hPa 0,0 mm 0,0 km/h (0 Bft) S 179 ° 0 min 0,000 mm 0,0 UV-I 0 W/m² 13,3 °C 18,2 °C 0,0 km/h (0 Bft)
26.08.2017 05:06 18,2 °C 18,2 °C 72 % 1014,9 hPa 0,0 mm 0,0 km/h (0 Bft) S 179 ° 0 min 0,000 mm 0,0 UV-I 0 W/m² 13,1 °C 18,2 °C 0,0 km/h (0 Bft)
26.08.2017 05:07 18,2 °C 18,2 °C 73 % 1014,9 hPa 0,0 mm 0,0 km/h (0 Bft) S 179 ° 0 min 0,000 mm 0,0 UV-I 0 W/m² 13,3 °C 18,2 °C 0,0 km/h (0 Bft)
26.08.2017 05:08 18,2 °C 18,2 °C 72 % 1014,9 hPa 0,0 mm 0,0 km/h (0 Bft) S 179 ° 0 min 0,000 mm 0,0 UV-I 0 W/m² 13,1 °C 18,2 °C 0,0 km/h (0 Bft)
26.08.2017 05:09 18,2 °C 18,2 °C 73 % 1014,9 hPa 0,0 mm 0,0 km/h (0 Bft) S 179 ° 0 min 0,000 mm 0,0 UV-I 0 W/m² 13,3 °C 18,2 °C 0,0 km/h (0 Bft)
26.08.2017 05:10 18,3 °C 18,3 °C 73 % 1014,9 hPa 0,0 mm 0,0 km/h (0 Bft) S 179 ° 0 min 0,000 mm 0,0 UV-I 0 W/m² 13,4 °C 18,3 °C 0,0 km/h (0 Bft)
26.08.2017 05:11 18,4 °C 18,4 °C 72 % 1014,9 hPa 0,0 mm 0,0 km/h (0 Bft) S 179 ° 0 min 0,000 mm 0,0 UV-I 0 W/m² 13,3 °C 18,4 °C 0,0 km/h (0 Bft)
26.08.2017 05:12 18,4 °C 18,4 °C 71 % 1014,8 hPa 0,0 mm 0,0 km/h (0 Bft) S 179 ° 0 min 0,000 mm 0,0 UV-I 0 W/m² 13,0 °C 18,4 °C 0,0 km/h (0 Bft)
26.08.2017 05:13 18,4 °C 18,4 °C 73 % 1014,8 hPa 0,0 mm 0,0 km/h (0 Bft) S 179 ° 0 min 0,000 mm 0,0 UV-I 0 W/m² 13,5 °C 18,4 °C 0,0 km/h (0 Bft)
26.08.2017 05:14 18,2 °C 18,4 °C 73 % 1014,8 hPa 0,0 mm 0,5 km/h (0 Bft) S 179 ° 0 min 0,000 mm 0,0 UV-I 0 W/m² 13,3 °C 18,2 °C 3,2 km/h (1 Bft)
26.08.2017 05:15 18,2 °C 18,2 °C 72 % 1014,8 hPa 0,0 mm 0,0 km/h (0 Bft) S 179 ° 0 min 0,000 mm 0,0 UV-I 0 W/m² 13,1 °C 18,2 °C 0,0 km/h (0 Bft)
26.08.2017 05:16 18,1 °C 18,2 °C 73 % 1014,8 hPa 0,0 mm 0,0 km/h (0 Bft) S 179 ° 0 min 0,000 mm 0,0 UV-I 0 W/m² 13,2 °C 18,1 °C 0,0 km/h (0 Bft)
26.08.2017 05:17 18,1 °C 18,1 °C 74 % 1014,8 hPa 0,0 mm 0,0 km/h (0 Bft) S 179 ° 0 min 0,000 mm 0,0 UV-I 0 W/m² 13,4 °C 18,1 °C 0,0 km/h (0 Bft)
26.08.2017 05:18 18,1 °C 18,1 °C 73 % 1014,8 hPa 0,0 mm 0,0 km/h (0 Bft) S 179 ° 0 min 0,000 mm 0,0 UV-I 0 W/m² 13,2 °C 18,1 °C 0,0 km/h (0 Bft)
26.08.2017 05:19 18,1 °C 18,1 °C 73 % 1014,8 hPa 0,0 mm 0,0 km/h (0 Bft) S 179 ° 0 min 0,000 mm 0,0 UV-I 0 W/m² 13,2 °C 18,1 °C 0,0 km/h (0 Bft)
26.08.2017 05:20 18,0 °C 18,1 °C 73 % 1014,8 hPa 0,0 mm 0,0 km/h (0 Bft) S 179 ° 0 min 0,000 mm 0,0 UV-I 0 W/m² 13,1 °C 18,0 °C 0,0 km/h (0 Bft)
26.08.2017 05:21 17,9 °C 18,0 °C 73 % 1014,8 hPa 0,0 mm 0,0 km/h (0 Bft) S 179 ° 0 min 0,000 mm 0,0 UV-I 0 W/m² 13,0 °C 17,9 °C 0,0 km/h (0 Bft)
26.08.2017 05:22 17,9 °C 18,0 °C 73 % 1014,9 hPa 0,0 mm 0,6 km/h (0 Bft) W 259 ° 0 min 0,000 mm 0,0 UV-I 0 W/m² 13,0 °C 17,9 °C 3,2 km/h (1 Bft)
26.08.2017 05:23 17,9 °C 17,9 °C 73 % 1014,8 hPa 0,0 mm 1,0 km/h (0 Bft) W 259 ° 0 min 0,000 mm 0,0 UV-I 0 W/m² 13,0 °C 17,9 °C 3,2 km/h (1 Bft)
26.08.2017 05:24 18,0 °C 18,0 °C 73 % 1014,9 hPa 0,0 mm 0,0 km/h (0 Bft) W 259 ° 0 min 0,000 mm 0,0 UV-I 0 W/m² 13,1 °C 18,0 °C 0,0 km/h (0 Bft)
26.08.2017 05:25 17,8 °C 18,0 °C 74 % 1014,9 hPa 0,0 mm 0,4 km/h (0 Bft) W 259 ° 0 min 0,000 mm 0,0 UV-I 0 W/m² 13,1 °C 17,8 °C 1,6 km/h (1 Bft)
26.08.2017 05:26 17,7 °C 17,8 °C 76 % 1014,9 hPa 0,0 mm 0,0 km/h (0 Bft) W 259 ° 0 min 0,000 mm 0,0 UV-I 0 W/m² 13,4 °C 17,7 °C 0,0 km/h (0 Bft)
26.08.2017 05:27 17,5 °C 17,7 °C 76 % 1014,9 hPa 0,0 mm 0,0 km/h (0 Bft) W 259 ° 0 min 0,000 mm 0,0 UV-I 0 W/m² 13,2 °C 17,5 °C 0,0 km/h (0 Bft)
26.08.2017 05:28 17,4 °C 17,5 °C 77 % 1014,9 hPa 0,0 mm 1,4 km/h (1 Bft) W-SW 258 ° 0 min 0,000 mm 0,0 UV-I 0 W/m² 13,3 °C 17,4 °C 3,2 km/h (1 Bft)
26.08.2017 05:29 17,4 °C 17,4 °C 76 % 1014,9 hPa 0,0 mm 3,3 km/h (1 Bft) W-SW 242 ° 0 min 0,000 mm 0,0 UV-I 0 W/m² 13,1 °C 17,4 °C 4,8 km/h (1 Bft)
26.08.2017 05:30 17,6 °C 17,6 °C 76 % 1014,9 hPa 0,0 mm 4,2 km/h (1 Bft) S 183 ° 0 min 0,000 mm 0,0 UV-I 0 W/m² 13,3 °C 17,6 °C 4,8 km/h (1 Bft)
26.08.2017 05:31 17,7 °C 17,7 °C 75 % 1014,9 hPa 0,0 mm 3,6 km/h (1 Bft) S 183 ° 0 min 0,000 mm 0,0 UV-I 0 W/m² 13,2 °C 17,7 °C 4,8 km/h (1 Bft)
26.08.2017 05:32 17,8 °C 17,8 °C 75 % 1014,9 hPa 0,0 mm 3,0 km/h (1 Bft) S 183 ° 0 min 0,000 mm 0,0 UV-I 0 W/m² 13,3 °C 17,8 °C 4,8 km/h (1 Bft)
26.08.2017 05:33 17,7 °C 17,8 °C 75 % 1014,9 hPa 0,0 mm 1,1 km/h (1 Bft) S 183 ° 0 min 0,000 mm 0,0 UV-I 0 W/m² 13,2 °C 17,7 °C 4,8 km/h (1 Bft)
26.08.2017 05:34 17,6 °C 17,7 °C 75 % 1014,9 hPa 0,0 mm 0,6 km/h (0 Bft) S 183 ° 0 min 0,000 mm 0,0 UV-I 0 W/m² 13,1 °C 17,6 °C 3,2 km/h (1 Bft)
26.08.2017 05:35 17,6 °C 17,6 °C 75 % 1014,9 hPa 0,0 mm 1,4 km/h (1 Bft) S 183 ° 0 min 0,000 mm 0,0 UV-I 0 W/m² 13,1 °C 17,6 °C 3,2 km/h (1 Bft)
26.08.2017 05:36 17,6 °C 17,6 °C 75 % 1014,9 hPa 0,0 mm 0,8 km/h (0 Bft) S 173 ° 0 min 0,000 mm 0,0 UV-I 0 W/m² 13,1 °C 17,6 °C 1,6 km/h (1 Bft)
26.08.2017 05:37 17,5 °C 17,6 °C 76 % 1014,9 hPa 0,0 mm 0,1 km/h (0 Bft) S 173 ° 0 min 0,000 mm 0,0 UV-I 0 W/m² 13,2 °C 17,5 °C 1,6 km/h (1 Bft)
26.08.2017 05:38 17,3 °C 17,5 °C 77 % 1014,9 hPa 0,0 mm 0,0 km/h (0 Bft) S 173 ° 0 min 0,000 mm 0,0 UV-I 0 W/m² 13,2 °C 17,3 °C 0,0 km/h (0 Bft)
26.08.2017 05:39 17,1 °C 17,3 °C 77 % 1014,9 hPa 0,0 mm 0,0 km/h (0 Bft) S 173 ° 0 min 0,000 mm 0,0 UV-I 0 W/m² 13,0 °C 17,1 °C 0,0 km/h (0 Bft)
26.08.2017 05:40 16,8 °C 17,1 °C 78 % 1014,9 hPa 0,0 mm 0,0 km/h (0 Bft) S 173 ° 0 min 0,000 mm 0,0 UV-I 0 W/m² 12,9 °C 16,8 °C 0,0 km/h (0 Bft)
26.08.2017 05:41 16,7 °C 16,8 °C 79 % 1014,9 hPa 0,0 mm 0,0 km/h (0 Bft) S 173 ° 0 min 0,000 mm 0,0 UV-I 0 W/m² 13,0 °C 16,7 °C 0,0 km/h (0 Bft)
26.08.2017 05:42 16,6 °C 16,7 °C 79 % 1014,9 hPa 0,0 mm 0,0 km/h (0 Bft) S 173 ° 0 min 0,000 mm 0,0 UV-I 0 W/m² 12,9 °C 16,6 °C 0,0 km/h (0 Bft)
26.08.2017 05:43 16,4 °C 16,6 °C 80 % 1015,0 hPa 0,0 mm 0,0 km/h (0 Bft) S 173 ° 0 min 0,000 mm 0,0 UV-I 0 W/m² 12,9 °C 16,4 °C 0,0 km/h (0 Bft)
26.08.2017 05:44 16,3 °C 16,4 °C 81 % 1015,0 hPa 0,0 mm 0,0 km/h (0 Bft) S 173 ° 0 min 0,000 mm 0,0 UV-I 0 W/m² 13,0 °C 16,3 °C 0,0 km/h (0 Bft)
26.08.2017 05:45 16,2 °C 16,3 °C 81 % 1015,0 hPa 0,0 mm 0,0 km/h (0 Bft) S 173 ° 0 min 0,000 mm 0,0 UV-I 0 W/m² 12,9 °C 16,2 °C 0,0 km/h (0 Bft)
26.08.2017 05:46 16,1 °C 16,2 °C 82 % 1015,0 hPa 0,0 mm 0,0 km/h (0 Bft) S 173 ° 0 min 0,000 mm 0,0 UV-I 0 W/m² 13,0 °C 16,1 °C 0,0 km/h (0 Bft)
26.08.2017 05:47 16,0 °C 16,1 °C 82 % 1015,0 hPa 0,0 mm 0,0 km/h (0 Bft) S 173 ° 0 min 0,000 mm 0,0 UV-I 0 W/m² 12,9 °C 16,0 °C 0,0 km/h (0 Bft)
26.08.2017 05:48 15,9 °C 16,0 °C 82 % 1015,0 hPa 0,0 mm 0,0 km/h (0 Bft) S 173 ° 0 min 0,000 mm 0,0 UV-I 0 W/m² 12,8 °C 15,9 °C 0,0 km/h (0 Bft)
26.08.2017 05:49 15,9 °C 15,9 °C 82 % 1015,0 hPa 0,0 mm 0,0 km/h (0 Bft) S 173 ° 0 min 0,000 mm 0,0 UV-I 0 W/m² 12,8 °C 15,9 °C 0,0 km/h (0 Bft)
26.08.2017 05:50 15,9 °C 15,9 °C 82 % 1015,0 hPa 0,0 mm 0,0 km/h (0 Bft) S 173 ° 0 min 0,000 mm 0,0 UV-I 0 W/m² 12,8 °C 15,9 °C 0,0 km/h (0 Bft)
26.08.2017 05:51 15,9 °C 15,9 °C 83 % 1015,0 hPa 0,0 mm 0,0 km/h (0 Bft) S 173 ° 0 min 0,000 mm 0,0 UV-I 0 W/m² 13,0 °C 15,9 °C 0,0 km/h (0 Bft)
26.08.2017 05:52 15,8 °C 15,9 °C 83 % 1015,0 hPa 0,0 mm 0,0 km/h (0 Bft) S 173 ° 0 min 0,000 mm 0,0 UV-I 0 W/m² 12,9 °C 15,8 °C 0,0 km/h (0 Bft)
26.08.2017 05:53 15,8 °C 15,8 °C 83 % 1015,0 hPa 0,0 mm 0,0 km/h (0 Bft) S 173 ° 0 min 0,000 mm 0,0 UV-I 0 W/m² 12,9 °C 15,8 °C 0,0 km/h (0 Bft)
26.08.2017 05:54 15,7 °C 15,8 °C 84 % 1015,0 hPa 0,0 mm 0,0 km/h (0 Bft) S 173 ° 0 min 0,000 mm 0,0 UV-I 0 W/m² 13,0 °C 15,7 °C 0,0 km/h (0 Bft)
26.08.2017 05:55 15,7 °C 15,7 °C 84 % 1015,1 hPa 0,0 mm 0,0 km/h (0 Bft) S 173 ° 0 min 0,000 mm 0,0 UV-I 0 W/m² 13,0 °C 15,7 °C 0,0 km/h (0 Bft)
26.08.2017 05:56 15,7 °C 15,7 °C 84 % 1015,0 hPa 0,0 mm 0,0 km/h (0 Bft) S 173 ° 0 min 0,000 mm 0,0 UV-I 0 W/m² 13,0 °C 15,7 °C 0,0 km/h (0 Bft)
26.08.2017 05:57 15,6 °C 15,7 °C 84 % 1015,0 hPa 0,0 mm 0,0 km/h (0 Bft) S 173 ° 0 min 0,000 mm 0,0 UV-I 0 W/m² 12,9 °C 15,6 °C 0,0 km/h (0 Bft)
26.08.2017 05:58 15,6 °C 15,6 °C 84 % 1015,0 hPa 0,0 mm 0,0 km/h (0 Bft) S 173 ° 0 min 0,000 mm 0,0 UV-I 0 W/m² 12,9 °C 15,6 °C 0,0 km/h (0 Bft)
26.08.2017 05:59 15,5 °C 15,6 °C 84 % 1015,1 hPa 0,0 mm 0,1 km/h (0 Bft) S 173 ° 0 min 0,000 mm 0,0 UV-I 0 W/m² 12,8 °C 15,5 °C 1,6 km/h (1 Bft)
26.08.2017 06:00 15,5 °C 15,6 °C 85 % 1015,0 hPa 0,0 mm 0,0 km/h (0 Bft) S 173 ° 0 min 0,025 mm 0,0 UV-I 0 W/m² 13,0 °C 15,5 °C 0,0 km/h (0 Bft)
26.08.2017 06:01 15,5 °C 15,5 °C 85 % 1015,0 hPa 0,0 mm 0,0 km/h (0 Bft) S 173 ° 0 min 0,000 mm 0,0 UV-I 0 W/m² 13,0 °C 15,5 °C 0,0 km/h (0 Bft)
26.08.2017 06:02 15,5 °C 15,5 °C 85 % 1015,0 hPa 0,0 mm 0,0 km/h (0 Bft) S 173 ° 0 min 0,000 mm 0,0 UV-I 0 W/m² 13,0 °C 15,5 °C 0,0 km/h (0 Bft)
26.08.2017 06:03 15,5 °C 15,5 °C 85 % 1015,1 hPa 0,0 mm 0,0 km/h (0 Bft) S 173 ° 0 min 0,000 mm 0,0 UV-I 0 W/m² 13,0 °C 15,5 °C 0,0 km/h (0 Bft)
26.08.2017 06:04 15,5 °C 15,6 °C 84 % 1015,0 hPa 0,0 mm 0,0 km/h (0 Bft) S 173 ° 0 min 0,000 mm 0,0 UV-I 0 W/m² 12,8 °C 15,5 °C 0,0 km/h (0 Bft)
26.08.2017 06:05 15,6 °C 15,6 °C 84 % 1015,1 hPa 0,0 mm 0,0 km/h (0 Bft) S 173 ° 0 min 0,000 mm 0,0 UV-I 0 W/m² 12,9 °C 15,6 °C 0,0 km/h (0 Bft)
26.08.2017 06:06 15,6 °C 15,6 °C 85 % 1015,1 hPa 0,0 mm 0,0 km/h (0 Bft) S 173 ° 0 min 0,000 mm 0,0 UV-I 0 W/m² 13,1 °C 15,6 °C 0,0 km/h (0 Bft)
26.08.2017 06:07 15,6 °C 15,6 °C 85 % 1015,0 hPa 0,0 mm 0,0 km/h (0 Bft) S 173 ° 0 min 0,000 mm 0,0 UV-I 0 W/m² 13,1 °C 15,6 °C 0,0 km/h (0 Bft)
26.08.2017 06:08 15,5 °C 15,6 °C 85 % 1015,1 hPa 0,0 mm 0,0 km/h (0 Bft) S 173 ° 0 min 0,000 mm 0,0 UV-I 0 W/m² 13,0 °C 15,5 °C 0,0 km/h (0 Bft)
26.08.2017 06:09 15,4 °C 15,5 °C 85 % 1015,0 hPa 0,0 mm 0,0 km/h (0 Bft) S 173 ° 0 min 0,000 mm 0,0 UV-I 0 W/m² 12,9 °C 15,4 °C 0,0 km/h (0 Bft)
26.08.2017 06:10 15,4 °C 15,5 °C 84 % 1015,0 hPa 0,0 mm 0,0 km/h (0 Bft) S 173 ° 0 min 0,000 mm 0,0 UV-I 0 W/m² 12,7 °C 15,4 °C 0,0 km/h (0 Bft)
26.08.2017 06:11 15,4 °C 15,5 °C 84 % 1015,1 hPa 0,0 mm 0,0 km/h (0 Bft) S 173 ° 0 min 0,000 mm 0,0 UV-I 0 W/m² 12,7 °C 15,4 °C 0,0 km/h (0 Bft)
26.08.2017 06:12 15,4 °C 15,4 °C 84 % 1015,1 hPa 0,0 mm 0,0 km/h (0 Bft) S 173 ° 0 min 0,000 mm 0,0 UV-I 0 W/m² 12,7 °C 15,4 °C 0,0 km/h (0 Bft)
26.08.2017 06:13 15,4 °C 15,4 °C 84 % 1015,0 hPa 0,0 mm 0,0 km/h (0 Bft) S 173 ° 0 min 0,000 mm 0,0 UV-I 0 W/m² 12,7 °C 15,4 °C 0,0 km/h (0 Bft)
26.08.2017 06:14 15,5 °C 15,5 °C 84 % 1015,0 hPa 0,0 mm 0,0 km/h (0 Bft) S 173 ° 0 min 0,000 mm 0,0 UV-I 0 W/m² 12,8 °C 15,5 °C 0,0 km/h (0 Bft)
26.08.2017 06:15 15,6 °C 15,6 °C 83 % 1015,1 hPa 0,0 mm 0,0 km/h (0 Bft) S 173 ° 0 min 0,000 mm 0,0 UV-I 0 W/m² 12,7 °C 15,6 °C 0,0 km/h (0 Bft)
26.08.2017 06:16 15,6 °C 15,6 °C 83 % 1015,0 hPa 0,0 mm 0,0 km/h (0 Bft) S 173 ° 0 min 0,000 mm 0,0 UV-I 0 W/m² 12,7 °C 15,6 °C 0,0 km/h (0 Bft)
26.08.2017 06:17 15,6 °C 15,6 °C 83 % 1015,1 hPa 0,0 mm 0,0 km/h (0 Bft) S 173 ° 0 min 0,000 mm 0,0 UV-I 0 W/m² 12,7 °C 15,6 °C 0,0 km/h (0 Bft)
26.08.2017 06:18 15,7 °C 15,7 °C 83 % 1015,0 hPa 0,0 mm 0,0 km/h (0 Bft) S 173 ° 0 min 0,000 mm 0,0 UV-I 0 W/m² 12,8 °C 15,7 °C 0,0 km/h (0 Bft)
26.08.2017 06:19 15,7 °C 15,7 °C 83 % 1015,0 hPa 0,0 mm 0,0 km/h (0 Bft) S 173 ° 0 min 0,000 mm 0,0 UV-I 0 W/m² 12,8 °C 15,7 °C 0,0 km/h (0 Bft)
26.08.2017 06:20 15,7 °C 15,7 °C 83 % 1015,0 hPa 0,0 mm 0,0 km/h (0 Bft) S 173 ° 0 min 0,000 mm 0,0 UV-I 0 W/m² 12,8 °C 15,7 °C 0,0 km/h (0 Bft)
26.08.2017 06:21 15,6 °C 15,7 °C 83 % 1015,1 hPa 0,0 mm 0,0 km/h (0 Bft) S 173 ° 0 min 0,000 mm 0,0 UV-I 0 W/m² 12,7 °C 15,6 °C 0,0 km/h (0 Bft)
26.08.2017 06:22 15,6 °C 15,6 °C 83 % 1015,1 hPa 0,0 mm 0,0 km/h (0 Bft) S 173 ° 0 min 0,000 mm 0,0 UV-I 0 W/m² 12,7 °C 15,6 °C 0,0 km/h (0 Bft)
26.08.2017 06:23 15,6 °C 15,6 °C 83 % 1015,0 hPa 0,0 mm 0,0 km/h (0 Bft) S 173 ° 0 min 0,000 mm 0,0 UV-I 0 W/m² 12,7 °C 15,6 °C 0,0 km/h (0 Bft)
26.08.2017 06:24 15,6 °C 15,6 °C 83 % 1015,0 hPa 0,0 mm 0,0 km/h (0 Bft) S 173 ° 0 min 0,000 mm 0,0 UV-I 0 W/m² 12,7 °C 15,6 °C 0,0 km/h (0 Bft)
26.08.2017 06:25 15,5 °C 15,6 °C 83 % 1015,0 hPa 0,0 mm 0,0 km/h (0 Bft) S 173 ° 0 min 0,000 mm 0,0 UV-I 0 W/m² 12,6 °C 15,5 °C 0,0 km/h (0 Bft)
26.08.2017 06:26 15,4 °C 15,5 °C 83 % 1015,0 hPa 0,0 mm 0,0 km/h (0 Bft) S 173 ° 0 min 0,000 mm 0,0 UV-I 0 W/m² 12,5 °C 15,4 °C 0,0 km/h (0 Bft)
26.08.2017 06:27 15,4 °C 15,5 °C 83 % 1015,0 hPa 0,0 mm 0,0 km/h (0 Bft) S 173 ° 0 min 0,000 mm 0,0 UV-I 0 W/m² 12,5 °C 15,4 °C 0,0 km/h (0 Bft)
26.08.2017 06:28 15,4 °C 15,5 °C 84 % 1015,0 hPa 0,0 mm 0,0 km/h (0 Bft) S 173 ° 0 min 0,000 mm 0,0 UV-I 0 W/m² 12,7 °C 15,4 °C 0,0 km/h (0 Bft)
26.08.2017 06:29 15,4 °C 15,4 °C 84 % 1015,0 hPa 0,0 mm 0,0 km/h (0 Bft) S 173 ° 0 min 0,000 mm 0,0 UV-I 0 W/m² 12,7 °C 15,4 °C 0,0 km/h (0 Bft)
26.08.2017 06:30 15,4 °C 15,4 °C 84 % 1015,0 hPa 0,0 mm 0,0 km/h (0 Bft) S 173 ° 0 min 0,000 mm 0,0 UV-I 0 W/m² 12,7 °C 15,4 °C 0,0 km/h (0 Bft)
26.08.2017 06:31 15,3 °C 15,4 °C 84 % 1015,0 hPa 0,0 mm 0,0 km/h (0 Bft) S 173 ° 0 min 0,000 mm 0,0 UV-I 5 W/m² 12,6 °C 15,3 °C 0,0 km/h (0 Bft)
26.08.2017 06:32 15,3 °C 15,3 °C 85 % 1015,0 hPa 0,0 mm 0,0 km/h (0 Bft) S 173 ° 0 min 0,000 mm 0,0 UV-I 5 W/m² 12,8 °C 15,3 °C 0,0 km/h (0 Bft)
26.08.2017 06:33 15,3 °C 15,3 °C 85 % 1015,0 hPa 0,0 mm 0,0 km/h (0 Bft) S 173 ° 0 min 0,000 mm 0,0 UV-I 7 W/m² 12,8 °C 15,3 °C 0,0 km/h (0 Bft)
26.08.2017 06:34 15,3 °C 15,3 °C 85 % 1015,0 hPa 0,0 mm 0,0 km/h (0 Bft) S 173 ° 0 min 0,000 mm 0,0 UV-I 7 W/m² 12,8 °C 15,3 °C 0,0 km/h (0 Bft)
26.08.2017 06:35 15,3 °C 15,3 °C 86 % 1015,0 hPa 0,0 mm 0,0 km/h (0 Bft) S 173 ° 0 min 0,000 mm 0,0 UV-I 9 W/m² 13,0 °C 15,3 °C 0,0 km/h (0 Bft)
26.08.2017 06:36 15,3 °C 15,3 °C 86 % 1015,0 hPa 0,0 mm 0,0 km/h (0 Bft) S 173 ° 0 min 0,000 mm 0,0 UV-I 9 W/m² 13,0 °C 15,3 °C 0,0 km/h (0 Bft)
26.08.2017 06:37 15,3 °C 15,3 °C 86 % 1015,0 hPa 0,0 mm 0,0 km/h (0 Bft) S 173 ° 0 min 0,000 mm 0,0 UV-I 11 W/m² 13,0 °C 15,3 °C 0,0 km/h (0 Bft)
26.08.2017 06:38 15,3 °C 15,3 °C 86 % 1015,0 hPa 0,0 mm 0,0 km/h (0 Bft) S 173 ° 0 min 0,000 mm 0,0 UV-I 11 W/m² 13,0 °C 15,3 °C 0,0 km/h (0 Bft)
26.08.2017 06:39 15,2 °C 15,3 °C 86 % 1015,0 hPa 0,0 mm 0,0 km/h (0 Bft) S 173 ° 0 min 0,000 mm 0,0 UV-I 12 W/m² 12,9 °C 15,2 °C 0,0 km/h (0 Bft)
26.08.2017 06:40 15,2 °C 15,2 °C 86 % 1015,0 hPa 0,0 mm 0,0 km/h (0 Bft) S 173 ° 0 min 0,000 mm 0,0 UV-I 12 W/m² 12,9 °C 15,2 °C 0,0 km/h (0 Bft)
26.08.2017 06:41 15,2 °C 15,2 °C 86 % 1015,0 hPa 0,0 mm 0,0 km/h (0 Bft) S 173 ° 0 min 0,000 mm 0,0 UV-I 14 W/m² 12,9 °C 15,2 °C 0,0 km/h (0 Bft)
26.08.2017 06:42 15,2 °C 15,2 °C 86 % 1015,1 hPa 0,0 mm 0,0 km/h (0 Bft) S 173 ° 0 min 0,000 mm 0,0 UV-I 14 W/m² 12,9 °C 15,2 °C 0,0 km/h (0 Bft)
26.08.2017 06:43 15,1 °C 15,2 °C 86 % 1015,1 hPa 0,0 mm 0,0 km/h (0 Bft) S 173 ° 0 min 0,000 mm 0,0 UV-I 14 W/m² 12,8 °C 15,1 °C 0,0 km/h (0 Bft)
26.08.2017 06:44 15,2 °C 15,2 °C 86 % 1015,1 hPa 0,0 mm 0,0 km/h (0 Bft) S 173 ° 0 min 0,000 mm 0,0 UV-I 16 W/m² 12,9 °C 15,2 °C 0,0 km/h (0 Bft)
26.08.2017 06:45 15,2 °C 15,2 °C 86 % 1015,1 hPa 0,0 mm 0,9 km/h (0 Bft) S 173 ° 0 min 0,000 mm 0,0 UV-I 16 W/m² 12,9 °C 15,2 °C 3,2 km/h (1 Bft)
26.08.2017 06:46 15,2 °C 15,2 °C 86 % 1015,1 hPa 0,0 mm 0,0 km/h (0 Bft) S 173 ° 0 min 0,000 mm 0,0 UV-I 16 W/m² 12,9 °C 15,2 °C 0,0 km/h (0 Bft)
26.08.2017 06:47 15,2 °C 15,2 °C 86 % 1015,1 hPa 0,0 mm 0,0 km/h (0 Bft) S 173 ° 0 min 0,000 mm 0,0 UV-I 18 W/m² 12,9 °C 15,2 °C 0,0 km/h (0 Bft)
26.08.2017 06:48 15,2 °C 15,2 °C 86 % 1015,1 hPa 0,0 mm 0,0 km/h (0 Bft) S 173 ° 0 min 0,000 mm 0,0 UV-I 18 W/m² 12,9 °C 15,2 °C 0,0 km/h (0 Bft)
26.08.2017 06:49 15,2 °C 15,2 °C 86 % 1015,2 hPa 0,0 mm 0,0 km/h (0 Bft) S 173 ° 0 min 0,000 mm 0,0 UV-I 18 W/m² 12,9 °C 15,2 °C 0,0 km/h (0 Bft)
26.08.2017 06:50 15,2 °C 15,2 °C 86 % 1015,2 hPa 0,0 mm 0,0 km/h (0 Bft) S 173 ° 0 min 0,000 mm 0,0 UV-I 19 W/m² 12,9 °C 15,2 °C 0,0 km/h (0 Bft)
26.08.2017 06:51 15,2 °C 15,2 °C 86 % 1015,2 hPa 0,0 mm 0,0 km/h (0 Bft) S 173 ° 0 min 0,000 mm 0,0 UV-I 19 W/m² 12,9 °C 15,2 °C 0,0 km/h (0 Bft)
26.08.2017 06:52 15,2 °C 15,2 °C 86 % 1015,1 hPa 0,0 mm 0,0 km/h (0 Bft) S 173 ° 0 min 0,000 mm 0,0 UV-I 21 W/m² 12,9 °C 15,2 °C 0,0 km/h (0 Bft)
26.08.2017 06:53 15,3 °C 15,3 °C 85 % 1015,1 hPa 0,0 mm 0,0 km/h (0 Bft) S 173 ° 0 min 0,000 mm 0,0 UV-I 21 W/m² 12,8 °C 15,3 °C 0,0 km/h (0 Bft)
26.08.2017 06:54 15,4 °C 15,4 °C 84 % 1015,1 hPa 0,0 mm 0,0 km/h (0 Bft) S 173 ° 0 min 0,000 mm 0,0 UV-I 21 W/m² 12,7 °C 15,4 °C 0,0 km/h (0 Bft)
26.08.2017 06:55 15,6 °C 15,6 °C 83 % 1015,2 hPa 0,0 mm 0,0 km/h (0 Bft) S 173 ° 0 min 0,000 mm 0,0 UV-I 23 W/m² 12,7 °C 15,6 °C 0,0 km/h (0 Bft)
26.08.2017 06:56 15,7 °C 15,7 °C 82 % 1015,2 hPa 0,0 mm 0,0 km/h (0 Bft) S 173 ° 0 min 0,000 mm 0,0 UV-I 23 W/m² 12,6 °C 15,7 °C 0,0 km/h (0 Bft)
26.08.2017 06:57 15,7 °C 15,7 °C 83 % 1015,2 hPa 0,0 mm 0,0 km/h (0 Bft) S 173 ° 0 min 0,000 mm 0,0 UV-I 25 W/m² 12,8 °C 15,7 °C 0,0 km/h (0 Bft)
26.08.2017 06:58 15,8 °C 15,8 °C 82 % 1015,2 hPa 0,0 mm 0,0 km/h (0 Bft) S 173 ° 0 min 0,000 mm 0,0 UV-I 25 W/m² 12,7 °C 15,8 °C 0,0 km/h (0 Bft)
26.08.2017 06:59 15,8 °C 15,8 °C 82 % 1015,2 hPa 0,0 mm 0,0 km/h (0 Bft) S 173 ° 0 min 0,000 mm 0,0 UV-I 26 W/m² 12,7 °C 15,8 °C 0,0 km/h (0 Bft)
26.08.2017 07:00 15,9 °C 15,9 °C 83 % 1015,1 hPa 0,0 mm 0,0 km/h (0 Bft) S 173 ° 0 min 0,000 mm 0,0 UV-I 26 W/m² 13,0 °C 15,9 °C 0,0 km/h (0 Bft)
26.08.2017 07:01 15,8 °C 15,9 °C 83 % 1015,1 hPa 0,0 mm 0,0 km/h (0 Bft) S 173 ° 0 min 0,000 mm 0,0 UV-I 26 W/m² 12,9 °C 15,8 °C 0,0 km/h (0 Bft)
26.08.2017 07:02 15,8 °C 15,8 °C 83 % 1015,1 hPa 0,0 mm 0,0 km/h (0 Bft) S 173 ° 0 min 0,000 mm 0,0 UV-I 28 W/m² 12,9 °C 15,8 °C 0,0 km/h (0 Bft)
26.08.2017 07:03 15,8 °C 15,8 °C 83 % 1015,1 hPa 0,0 mm 0,0 km/h (0 Bft) S 173 ° 0 min 0,000 mm 0,0 UV-I 28 W/m² 12,9 °C 15,8 °C 0,0 km/h (0 Bft)
26.08.2017 07:04 15,8 °C 15,8 °C 83 % 1015,1 hPa 0,0 mm 0,0 km/h (0 Bft) S 173 ° 0 min 0,000 mm 0,0 UV-I 28 W/m² 12,9 °C 15,8 °C 0,0 km/h (0 Bft)
26.08.2017 07:05 15,8 °C 15,8 °C 83 % 1015,1 hPa 0,0 mm 0,0 km/h (0 Bft) S 173 ° 0 min 0,000 mm 0,0 UV-I 30 W/m² 12,9 °C 15,8 °C 0,0 km/h (0 Bft)
26.08.2017 07:06 15,8 °C 15,8 °C 83 % 1015,1 hPa 0,0 mm 0,0 km/h (0 Bft) S 173 ° 0 min 0,000 mm 0,0 UV-I 30 W/m² 12,9 °C 15,8 °C 0,0 km/h (0 Bft)
26.08.2017 07:07 15,8 °C 15,8 °C 83 % 1015,1 hPa 0,0 mm 0,0 km/h (0 Bft) S 173 ° 0 min 0,000 mm 0,0 UV-I 30 W/m² 12,9 °C 15,8 °C 0,0 km/h (0 Bft)
26.08.2017 07:08 15,9 °C 15,9 °C 83 % 1015,1 hPa 0,0 mm 0,0 km/h (0 Bft) S 173 ° 0 min 0,000 mm 0,0 UV-I 32 W/m² 13,0 °C 15,9 °C 0,0 km/h (0 Bft)
26.08.2017 07:09 15,9 °C 15,9 °C 83 % 1015,1 hPa 0,0 mm 0,0 km/h (0 Bft) S 173 ° 0 min 0,000 mm 0,0 UV-I 32 W/m² 13,0 °C 15,9 °C 0,0 km/h (0 Bft)
26.08.2017 07:10 15,9 °C 15,9 °C 83 % 1015,1 hPa 0,0 mm 0,0 km/h (0 Bft) S 173 ° 0 min 0,000 mm 0,0 UV-I 33 W/m² 13,0 °C 15,9 °C 0,0 km/h (0 Bft)
26.08.2017 07:11 15,9 °C 15,9 °C 83 % 1015,1 hPa 0,0 mm 0,0 km/h (0 Bft) S 173 ° 0 min 0,000 mm 0,0 UV-I 33 W/m² 13,0 °C 15,9 °C 0,0 km/h (0 Bft)
26.08.2017 07:12 15,9 °C 15,9 °C 84 % 1015,1 hPa 0,0 mm 0,0 km/h (0 Bft) S 173 ° 0 min 0,000 mm 0,0 UV-I 33 W/m² 13,2 °C 15,9 °C 0,0 km/h (0 Bft)
26.08.2017 07:13 16,0 °C 16,0 °C 84 % 1015,1 hPa 0,0 mm 0,0 km/h (0 Bft) S 173 ° 0 min 0,000 mm 0,0 UV-I 35 W/m² 13,3 °C 16,0 °C 0,0 km/h (0 Bft)
26.08.2017 07:14 16,1 °C 16,1 °C 84 % 1015,1 hPa 0,0 mm 0,0 km/h (0 Bft) S 173 ° 0 min 0,000 mm 0,0 UV-I 35 W/m² 13,4 °C 16,1 °C 0,0 km/h (0 Bft)
26.08.2017 07:15 16,1 °C 16,1 °C 83 % 1015,1 hPa 0,0 mm 0,0 km/h (0 Bft) S 173 ° 0 min 0,000 mm 0,0 UV-I 37 W/m² 13,2 °C 16,1 °C 0,0 km/h (0 Bft)
26.08.2017 07:16 16,1 °C 16,1 °C 84 % 1015,1 hPa 0,0 mm 0,0 km/h (0 Bft) S 173 ° 0 min 0,000 mm 0,0 UV-I 37 W/m² 13,4 °C 16,1 °C 0,0 km/h (0 Bft)
26.08.2017 07:17 16,1 °C 16,1 °C 83 % 1015,2 hPa 0,0 mm 0,0 km/h (0 Bft) S 173 ° 0 min 0,000 mm 0,0 UV-I 37 W/m² 13,2 °C 16,1 °C 0,0 km/h (0 Bft)
26.08.2017 07:18 16,1 °C 16,1 °C 84 % 1015,1 hPa 0,0 mm 0,0 km/h (0 Bft) S 173 ° 0 min 0,000 mm 0,0 UV-I 39 W/m² 13,4 °C 16,1 °C 0,0 km/h (0 Bft)
26.08.2017 07:19 16,1 °C 16,1 °C 84 % 1015,1 hPa 0,0 mm 0,0 km/h (0 Bft) S 173 ° 0 min 0,000 mm 0,0 UV-I 39 W/m² 13,4 °C 16,1 °C 0,0 km/h (0 Bft)
26.08.2017 07:20 16,1 °C 16,1 °C 84 % 1015,1 hPa 0,0 mm 0,0 km/h (0 Bft) S 173 ° 0 min 0,000 mm 0,0 UV-I 40 W/m² 13,4 °C 16,1 °C 0,0 km/h (0 Bft)
26.08.2017 07:21 16,1 °C 16,1 °C 83 % 1015,2 hPa 0,0 mm 0,0 km/h (0 Bft) S-SW 209 ° 0 min 0,000 mm 0,0 UV-I 40 W/m² 13,2 °C 16,1 °C 0,0 km/h (0 Bft)
26.08.2017 07:22 16,1 °C 16,1 °C 83 % 1015,2 hPa 0,0 mm 0,0 km/h (0 Bft) S-SW 209 ° 0 min 0,000 mm 0,0 UV-I 42 W/m² 13,2 °C 16,1 °C 0,0 km/h (0 Bft)
26.08.2017 07:23 16,1 °C 16,2 °C 84 % 1015,2 hPa 0,0 mm 0,0 km/h (0 Bft) S-SW 209 ° 0 min 0,000 mm 0,0 UV-I 42 W/m² 13,4 °C 16,1 °C 0,0 km/h (0 Bft)
26.08.2017 07:24 16,2 °C 16,2 °C 84 % 1015,2 hPa 0,0 mm 0,0 km/h (0 Bft) S-SW 209 ° 0 min 0,000 mm 0,0 UV-I 42 W/m² 13,5 °C 16,2 °C 0,0 km/h (0 Bft)
26.08.2017 07:25 16,2 °C 16,2 °C 84 % 1015,1 hPa 0,0 mm 0,0 km/h (0 Bft) S-SW 209 ° 0 min 0,000 mm 0,0 UV-I 44 W/m² 13,5 °C 16,2 °C 0,0 km/h (0 Bft)
26.08.2017 07:26 16,2 °C 16,2 °C 83 % 1015,1 hPa 0,0 mm 0,0 km/h (0 Bft) S-SW 209 ° 0 min 0,000 mm 0,0 UV-I 44 W/m² 13,3 °C 16,2 °C 0,0 km/h (0 Bft)
26.08.2017 07:27 16,2 °C 16,3 °C 84 % 1015,1 hPa 0,0 mm 0,0 km/h (0 Bft) S-SW 209 ° 0 min 0,000 mm 0,0 UV-I 46 W/m² 13,5 °C 16,2 °C 0,0 km/h (0 Bft)
26.08.2017 07:28 16,2 °C 16,2 °C 84 % 1015,1 hPa 0,0 mm 0,5 km/h (0 Bft) NW 319 ° 0 min 0,000 mm 0,0 UV-I 46 W/m² 13,5 °C 16,2 °C 4,8 km/h (1 Bft)
26.08.2017 07:29 16,3 °C 16,3 °C 83 % 1015,1 hPa 0,0 mm 1,5 km/h (1 Bft) N-NW 327 ° 0 min 0,000 mm 0,0 UV-I 47 W/m² 13,4 °C 16,3 °C 3,2 km/h (1 Bft)
26.08.2017 07:30 16,3 °C 16,3 °C 84 % 1015,1 hPa 0,0 mm 0,3 km/h (0 Bft) N-NW 327 ° 0 min 0,000 mm 0,0 UV-I 47 W/m² 13,6 °C 16,3 °C 1,6 km/h (1 Bft)
26.08.2017 07:31 16,3 °C 16,3 °C 84 % 1015,1 hPa 0,0 mm 0,0 km/h (0 Bft) N-NW 327 ° 0 min 0,000 mm 0,0 UV-I 49 W/m² 13,6 °C 16,3 °C 0,0 km/h (0 Bft)
26.08.2017 07:32 16,2 °C 16,3 °C 84 % 1015,1 hPa 0,0 mm 0,0 km/h (0 Bft) N-NW 327 ° 0 min 0,000 mm 0,0 UV-I 49 W/m² 13,5 °C 16,2 °C 0,0 km/h (0 Bft)
26.08.2017 07:33 16,3 °C 16,3 °C 84 % 1015,1 hPa 0,0 mm 0,0 km/h (0 Bft) N-NW 327 ° 0 min 0,000 mm 0,0 UV-I 51 W/m² 13,6 °C 16,3 °C 0,0 km/h (0 Bft)
26.08.2017 07:34 16,3 °C 16,3 °C 83 % 1015,1 hPa 0,0 mm 0,3 km/h (0 Bft) N-NW 327 ° 0 min 0,000 mm 0,0 UV-I 51 W/m² 13,4 °C 16,3 °C 1,6 km/h (1 Bft)
26.08.2017 07:35 16,3 °C 16,3 °C 83 % 1015,1 hPa 0,0 mm 0,6 km/h (0 Bft) N-NW 327 ° 0 min 0,000 mm 0,0 UV-I 51 W/m² 13,4 °C 16,3 °C 3,2 km/h (1 Bft)
26.08.2017 07:36 16,3 °C 16,3 °C 84 % 1015,1 hPa 0,0 mm 0,5 km/h (0 Bft) N-NW 327 ° 0 min 0,000 mm 0,0 UV-I 53 W/m² 13,6 °C 16,3 °C 3,2 km/h (1 Bft)
26.08.2017 07:37 16,4 °C 16,4 °C 84 % 1015,1 hPa 0,0 mm 0,0 km/h (0 Bft) N-NW 327 ° 0 min 0,000 mm 0,0 UV-I 53 W/m² 13,7 °C 16,4 °C 0,0 km/h (0 Bft)
26.08.2017 07:38 16,4 °C 16,4 °C 83 % 1015,1 hPa 0,0 mm 0,0 km/h (0 Bft) N-NW 327 ° 0 min 0,000 mm 0,0 UV-I 54 W/m² 13,5 °C 16,4 °C 0,0 km/h (0 Bft)
26.08.2017 07:39 16,4 °C 16,4 °C 83 % 1015,1 hPa 0,0 mm 0,0 km/h (0 Bft) N-NW 327 ° 0 min 0,000 mm 0,0 UV-I 54 W/m² 13,5 °C 16,4 °C 0,0 km/h (0 Bft)
26.08.2017 07:40 16,4 °C 16,4 °C 83 % 1015,1 hPa 0,0 mm 0,0 km/h (0 Bft) N-NW 327 ° 0 min 0,000 mm 0,0 UV-I 56 W/m² 13,5 °C 16,4 °C 0,0 km/h (0 Bft)
26.08.2017 07:41 16,4 °C 16,5 °C 84 % 1015,1 hPa 0,0 mm 0,1 km/h (0 Bft) N-NW 327 ° 0 min 0,000 mm 0,0 UV-I 62 W/m² 13,7 °C 16,4 °C 1,6 km/h (1 Bft)
26.08.2017 07:42 16,4 °C 16,5 °C 84 % 1015,2 hPa 0,0 mm 0,0 km/h (0 Bft) N-NW 327 ° 0 min 0,000 mm 0,0 UV-I 72 W/m² 13,7 °C 16,4 °C 0,0 km/h (0 Bft)
26.08.2017 07:43 16,6 °C 16,6 °C 83 % 1015,2 hPa 0,0 mm 0,0 km/h (0 Bft) N-NW 327 ° 0 min 0,000 mm 0,5 UV-I 91 W/m² 13,7 °C 16,6 °C 0,0 km/h (0 Bft)
26.08.2017 07:44 16,7 °C 16,7 °C 83 % 1015,2 hPa 0,0 mm 0,0 km/h (0 Bft) N-NW 327 ° 0 min 0,000 mm 0,5 UV-I 100 W/m² 13,8 °C 16,7 °C 0,0 km/h (0 Bft)
26.08.2017 07:45 16,8 °C 16,8 °C 83 % 1015,2 hPa 0,0 mm 0,1 km/h (0 Bft) N-NW 327 ° 0 min 0,000 mm 0,5 UV-I 105 W/m² 13,9 °C 16,8 °C 1,6 km/h (1 Bft)
26.08.2017 07:46 16,9 °C 16,9 °C 82 % 1015,2 hPa 0,0 mm 0,0 km/h (0 Bft) N-NW 327 ° 0 min 0,000 mm 0,5 UV-I 109 W/m² 13,8 °C 16,9 °C 0,0 km/h (0 Bft)
26.08.2017 07:47 17,1 °C 17,1 °C 81 % 1015,2 hPa 0,0 mm 0,0 km/h (0 Bft) N-NW 327 ° 0 min 0,000 mm 0,5 UV-I 111 W/m² 13,8 °C 17,1 °C 0,0 km/h (0 Bft)
26.08.2017 07:48 17,2 °C 17,2 °C 81 % 1015,2 hPa 0,0 mm 0,0 km/h (0 Bft) N-NW 327 ° 0 min 0,000 mm 0,5 UV-I 113 W/m² 13,9 °C 17,2 °C 0,0 km/h (0 Bft)
26.08.2017 07:49 17,3 °C 17,3 °C 81 % 1015,3 hPa 0,0 mm 0,0 km/h (0 Bft) N-NW 327 ° 0 min 0,000 mm 0,5 UV-I 121 W/m² 14,0 °C 17,3 °C 0,0 km/h (0 Bft)
26.08.2017 07:50 17,3 °C 17,3 °C 81 % 1015,3 hPa 0,0 mm 0,0 km/h (0 Bft) N-NW 327 ° 0 min 0,000 mm 0,5 UV-I 121 W/m² 14,0 °C 17,3 °C 0,0 km/h (0 Bft)
26.08.2017 07:51 17,4 °C 17,4 °C 80 % 1015,3 hPa 0,0 mm 0,0 km/h (0 Bft) N-NW 327 ° 0 min 0,000 mm 0,6 UV-I 127 W/m² 13,9 °C 17,4 °C 0,0 km/h (0 Bft)
26.08.2017 07:52 17,6 °C 17,6 °C 80 % 1015,3 hPa 0,0 mm 0,0 km/h (0 Bft) N-NW 327 ° 0 min 0,000 mm 0,6 UV-I 130 W/m² 14,1 °C 17,6 °C 0,0 km/h (0 Bft)
26.08.2017 07:53 17,7 °C 17,7 °C 79 % 1015,3 hPa 0,0 mm 0,0 km/h (0 Bft) N-NW 327 ° 0 min 0,000 mm 0,6 UV-I 134 W/m² 14,0 °C 17,7 °C 0,0 km/h (0 Bft)
26.08.2017 07:54 17,8 °C 17,8 °C 78 % 1015,3 hPa 0,0 mm 0,0 km/h (0 Bft) N-NW 327 ° 0 min 0,000 mm 0,6 UV-I 137 W/m² 13,9 °C 17,8 °C 0,0 km/h (0 Bft)
26.08.2017 07:55 17,9 °C 17,9 °C 78 % 1015,3 hPa 0,0 mm 0,0 km/h (0 Bft) N-NW 327 ° 0 min 0,000 mm 0,6 UV-I 144 W/m² 14,0 °C 17,9 °C 0,0 km/h (0 Bft)
26.08.2017 07:56 18,1 °C 18,1 °C 78 % 1015,3 hPa 0,0 mm 0,0 km/h (0 Bft) N-NW 327 ° 0 min 0,000 mm 0,6 UV-I 149 W/m² 14,2 °C 18,1 °C 0,0 km/h (0 Bft)
26.08.2017 07:57 17,9 °C 18,1 °C 81 % 1015,3 hPa 0,0 mm 0,0 km/h (0 Bft) N-NW 327 ° 0 min 0,000 mm 0,6 UV-I 156 W/m² 14,6 °C 17,9 °C 0,0 km/h (0 Bft)
26.08.2017 07:59 17,9 °C 17,9 °C 81 % 1015,2 hPa 0,0 mm 1,2 km/h (1 Bft) N-NW 327 ° 0 min 0,000 mm 0,7 UV-I 172 W/m² 14,6 °C 17,9 °C 4,8 km/h (1 Bft)
26.08.2017 08:00 18,0 °C 18,0 °C 81 % 1015,2 hPa 0,0 mm 3,1 km/h (1 Bft) NW 311 ° 0 min 0,051 mm 0,7 UV-I 183 W/m² 14,7 °C 18,0 °C 4,8 km/h (1 Bft)
26.08.2017 08:01 18,2 °C 18,2 °C 81 % 1015,3 hPa 0,0 mm 1,7 km/h (1 Bft) NW 311 ° 0 min 0,000 mm 0,7 UV-I 200 W/m² 14,9 °C 18,2 °C 4,8 km/h (1 Bft)
26.08.2017 08:02 18,2 °C 18,2 °C 80 % 1015,3 hPa 0,0 mm 0,1 km/h (0 Bft) NW 311 ° 0 min 0,000 mm 0,7 UV-I 209 W/m² 14,7 °C 18,2 °C 1,6 km/h (1 Bft)
26.08.2017 08:03 18,3 °C 18,3 °C 80 % 1015,3 hPa 0,0 mm 0,9 km/h (0 Bft) NW 311 ° 0 min 0,000 mm 0,7 UV-I 218 W/m² 14,8 °C 18,3 °C 1,6 km/h (1 Bft)
26.08.2017 08:04 18,3 °C 18,3 °C 80 % 1015,3 hPa 0,0 mm 0,0 km/h (0 Bft) NW 311 ° 0 min 0,000 mm 0,7 UV-I 223 W/m² 14,8 °C 18,3 °C 0,0 km/h (0 Bft)
26.08.2017 08:05 18,4 °C 18,4 °C 81 % 1015,2 hPa 0,0 mm 0,0 km/h (0 Bft) NW 311 ° 0 min 0,000 mm 0,7 UV-I 227 W/m² 15,1 °C 18,4 °C 0,0 km/h (0 Bft)
26.08.2017 08:06 18,6 °C 18,6 °C 81 % 1015,2 hPa 0,0 mm 1,1 km/h (1 Bft) NW 309 ° 0 min 0,000 mm 0,7 UV-I 229 W/m² 15,3 °C 18,6 °C 3,2 km/h (1 Bft)
26.08.2017 08:07 18,6 °C 18,6 °C 81 % 1015,3 hPa 0,0 mm 0,3 km/h (0 Bft) NW 309 ° 0 min 0,000 mm 0,7 UV-I 165 W/m² 15,3 °C 18,6 °C 1,6 km/h (1 Bft)
26.08.2017 08:08 18,7 °C 18,7 °C 80 % 1015,2 hPa 0,0 mm 0,9 km/h (0 Bft) NW 309 ° 0 min 0,000 mm 0,7 UV-I 165 W/m² 15,2 °C 18,7 °C 3,2 km/h (1 Bft)
26.08.2017 08:09 18,8 °C 18,8 °C 77 % 1015,2 hPa 0,0 mm 0,0 km/h (0 Bft) NW 309 ° 0 min 0,000 mm 0,7 UV-I 220 W/m² 14,7 °C 18,8 °C 0,0 km/h (0 Bft)
26.08.2017 08:10 18,9 °C 18,9 °C 79 % 1015,2 hPa 0,0 mm 0,0 km/h (0 Bft) NW 309 ° 0 min 0,000 mm 0,7 UV-I 213 W/m² 15,2 °C 18,9 °C 0,0 km/h (0 Bft)
26.08.2017 08:11 18,9 °C 18,9 °C 81 % 1015,3 hPa 0,0 mm 0,0 km/h (0 Bft) NW 309 ° 0 min 0,000 mm 0,7 UV-I 218 W/m² 15,6 °C 18,9 °C 0,0 km/h (0 Bft)
26.08.2017 08:12 19,1 °C 19,1 °C 81 % 1015,3 hPa 0,0 mm 0,4 km/h (0 Bft) NW 309 ° 0 min 0,000 mm 0,7 UV-I 218 W/m² 15,8 °C 19,1 °C 3,2 km/h (1 Bft)
26.08.2017 08:13 19,1 °C 19,1 °C 81 % 1015,2 hPa 0,0 mm 0,5 km/h (0 Bft) NW 309 ° 0 min 0,000 mm 0,8 UV-I 220 W/m² 15,8 °C 19,1 °C 3,2 km/h (1 Bft)
26.08.2017 08:14 19,2 °C 19,2 °C 77 % 1015,2 hPa 0,0 mm 0,0 km/h (0 Bft) NW 309 ° 0 min 0,000 mm 0,8 UV-I 218 W/m² 15,1 °C 19,2 °C 0,0 km/h (0 Bft)
26.08.2017 08:15 19,2 °C 19,2 °C 79 % 1015,2 hPa 0,0 mm 0,0 km/h (0 Bft) NW 309 ° 0 min 0,000 mm 0,7 UV-I 163 W/m² 15,5 °C 19,2 °C 0,0 km/h (0 Bft)
26.08.2017 08:16 19,3 °C 19,3 °C 80 % 1015,2 hPa 0,0 mm 0,0 km/h (0 Bft) NW 309 ° 0 min 0,000 mm 0,7 UV-I 116 W/m² 15,8 °C 19,3 °C 0,0 km/h (0 Bft)
26.08.2017 08:17 19,4 °C 19,4 °C 78 % 1015,2 hPa 0,0 mm 0,7 km/h (0 Bft) NW 309 ° 0 min 0,000 mm 0,7 UV-I 118 W/m² 15,5 °C 19,4 °C 1,6 km/h (1 Bft)
26.08.2017 08:18 19,4 °C 19,4 °C 76 % 1015,3 hPa 0,0 mm 0,7 km/h (0 Bft) NW 305 ° 0 min 0,000 mm 0,7 UV-I 123 W/m² 15,1 °C 19,4 °C 3,2 km/h (1 Bft)
26.08.2017 08:19 19,6 °C 19,6 °C 75 % 1015,3 hPa 0,0 mm 0,0 km/h (0 Bft) NW 305 ° 0 min 0,000 mm 0,8 UV-I 127 W/m² 15,0 °C 19,6 °C 0,0 km/h (0 Bft)
26.08.2017 08:20 19,6 °C 19,6 °C 77 % 1015,2 hPa 0,0 mm 0,0 km/h (0 Bft) NW 305 ° 0 min 0,000 mm 0,8 UV-I 132 W/m² 15,5 °C 19,6 °C 0,0 km/h (0 Bft)
26.08.2017 08:21 19,7 °C 19,7 °C 77 % 1015,3 hPa 0,0 mm 0,1 km/h (0 Bft) NW 305 ° 0 min 0,000 mm 0,9 UV-I 179 W/m² 15,5 °C 19,7 °C 1,6 km/h (1 Bft)
26.08.2017 08:22 19,7 °C 19,7 °C 76 % 1015,3 hPa 0,0 mm 0,4 km/h (0 Bft) NW 305 ° 0 min 0,000 mm 0,8 UV-I 137 W/m² 15,3 °C 19,7 °C 1,6 km/h (1 Bft)
26.08.2017 08:23 19,8 °C 19,8 °C 75 % 1015,3 hPa 0,0 mm 0,0 km/h (0 Bft) NW 305 ° 0 min 0,000 mm 0,8 UV-I 134 W/m² 15,2 °C 19,8 °C 0,0 km/h (0 Bft)
26.08.2017 08:24 19,8 °C 19,8 °C 76 % 1015,4 hPa 0,0 mm 0,0 km/h (0 Bft) NW 305 ° 0 min 0,000 mm 0,8 UV-I 130 W/m² 15,4 °C 19,8 °C 0,0 km/h (0 Bft)
26.08.2017 08:25 19,8 °C 19,8 °C 76 % 1015,3 hPa 0,0 mm 0,0 km/h (0 Bft) NW 305 ° 0 min 0,000 mm 0,9 UV-I 130 W/m² 15,4 °C 19,8 °C 0,0 km/h (0 Bft)
26.08.2017 08:26 19,8 °C 19,8 °C 75 % 1015,3 hPa 0,0 mm 0,0 km/h (0 Bft) NW 305 ° 0 min 0,000 mm 0,9 UV-I 130 W/m² 15,2 °C 19,8 °C 0,0 km/h (0 Bft)
26.08.2017 08:27 19,8 °C 19,8 °C 78 % 1015,3 hPa 0,0 mm 0,0 km/h (0 Bft) NW 305 ° 0 min 0,000 mm 0,8 UV-I 123 W/m² 15,8 °C 19,8 °C 0,0 km/h (0 Bft)
26.08.2017 08:28 19,8 °C 19,8 °C 76 % 1015,4 hPa 0,0 mm 0,0 km/h (0 Bft) NW 305 ° 0 min 0,000 mm 0,9 UV-I 158 W/m² 15,4 °C 19,8 °C 0,0 km/h (0 Bft)
26.08.2017 08:29 19,8 °C 19,8 °C 74 % 1015,4 hPa 0,0 mm 0,7 km/h (0 Bft) NW 305 ° 0 min 0,000 mm 0,8 UV-I 141 W/m² 15,0 °C 19,8 °C 3,2 km/h (1 Bft)
26.08.2017 08:30 19,8 °C 19,8 °C 76 % 1015,4 hPa 0,0 mm 0,3 km/h (0 Bft) NW 305 ° 0 min 0,000 mm 0,8 UV-I 104 W/m² 15,4 °C 19,8 °C 1,6 km/h (1 Bft)
26.08.2017 08:31 19,8 °C 19,8 °C 76 % 1015,4 hPa 0,0 mm 0,5 km/h (0 Bft) NW 305 ° 0 min 0,000 mm 0,8 UV-I 100 W/m² 15,4 °C 19,8 °C 3,2 km/h (1 Bft)
26.08.2017 08:32 19,8 °C 19,8 °C 75 % 1015,4 hPa 0,0 mm 0,9 km/h (0 Bft) NW 305 ° 0 min 0,000 mm 0,9 UV-I 98 W/m² 15,2 °C 19,8 °C 1,6 km/h (1 Bft)
26.08.2017 08:33 19,8 °C 19,8 °C 74 % 1015,4 hPa 0,0 mm 0,6 km/h (0 Bft) NW 305 ° 0 min 0,000 mm 0,9 UV-I 97 W/m² 15,0 °C 19,8 °C 1,6 km/h (1 Bft)
26.08.2017 08:34 19,8 °C 19,8 °C 73 % 1015,4 hPa 0,0 mm 0,0 km/h (0 Bft) NW 305 ° 0 min 0,000 mm 0,9 UV-I 95 W/m² 14,8 °C 19,8 °C 0,0 km/h (0 Bft)
26.08.2017 08:35 19,7 °C 19,8 °C 74 % 1015,4 hPa 0,0 mm 0,9 km/h (0 Bft) NW 305 ° 0 min 0,000 mm 0,9 UV-I 93 W/m² 14,9 °C 19,7 °C 3,2 km/h (1 Bft)
26.08.2017 08:36 19,7 °C 19,7 °C 73 % 1015,5 hPa 0,0 mm 0,1 km/h (0 Bft) NW 305 ° 0 min 0,000 mm 0,9 UV-I 90 W/m² 14,7 °C 19,7 °C 1,6 km/h (1 Bft)
26.08.2017 08:37 19,6 °C 19,7 °C 73 % 1015,5 hPa 0,0 mm 0,0 km/h (0 Bft) NW 305 ° 0 min 0,000 mm 0,9 UV-I 88 W/m² 14,6 °C 19,6 °C 0,0 km/h (0 Bft)
26.08.2017 08:38 19,6 °C 19,6 °C 74 % 1015,5 hPa 0,0 mm 0,1 km/h (0 Bft) NW 305 ° 0 min 0,000 mm 1,0 UV-I 91 W/m² 14,8 °C 19,6 °C 1,6 km/h (1 Bft)
26.08.2017 08:39 19,5 °C 19,6 °C 74 % 1015,5 hPa 0,0 mm 0,4 km/h (0 Bft) NW 305 ° 0 min 0,000 mm 1,0 UV-I 97 W/m² 14,7 °C 19,5 °C 1,6 km/h (1 Bft)
26.08.2017 08:40 19,4 °C 19,5 °C 76 % 1015,5 hPa 0,0 mm 0,4 km/h (0 Bft) NW 305 ° 0 min 0,000 mm 1,0 UV-I 188 W/m² 15,1 °C 19,4 °C 1,6 km/h (1 Bft)
26.08.2017 08:41 19,3 °C 19,4 °C 74 % 1015,5 hPa 0,0 mm 0,0 km/h (0 Bft) NW 305 ° 0 min 0,000 mm 1,1 UV-I 102 W/m² 14,5 °C 19,3 °C 0,0 km/h (0 Bft)
26.08.2017 08:42 19,2 °C 19,3 °C 76 % 1015,5 hPa 0,0 mm 0,6 km/h (0 Bft) N 355 ° 0 min 0,000 mm 1,1 UV-I 104 W/m² 14,9 °C 19,2 °C 3,2 km/h (1 Bft)
26.08.2017 08:43 19,1 °C 19,2 °C 79 % 1015,5 hPa 0,0 mm 0,1 km/h (0 Bft) N 355 ° 0 min 0,000 mm 1,3 UV-I 137 W/m² 15,4 °C 19,1 °C 1,6 km/h (1 Bft)
26.08.2017 08:44 19,1 °C 19,1 °C 76 % 1015,5 hPa 0,0 mm 0,0 km/h (0 Bft) N 355 ° 0 min 0,000 mm 1,4 UV-I 137 W/m² 14,8 °C 19,1 °C 0,0 km/h (0 Bft)
26.08.2017 08:45 19,1 °C 19,1 °C 81 % 1015,5 hPa 0,0 mm 0,0 km/h (0 Bft) N 355 ° 0 min 0,000 mm 1,3 UV-I 137 W/m² 15,8 °C 19,1 °C 0,0 km/h (0 Bft)
26.08.2017 08:46 19,1 °C 19,1 °C 77 % 1015,5 hPa 0,0 mm 0,0 km/h (0 Bft) N 355 ° 0 min 0,000 mm 1,4 UV-I 244 W/m² 15,0 °C 19,1 °C 0,0 km/h (0 Bft)
26.08.2017 08:47 19,2 °C 19,2 °C 76 % 1015,5 hPa 0,0 mm 0,0 km/h (0 Bft) N 355 ° 1 min 0,000 mm 1,5 UV-I 294 W/m² 14,9 °C 19,2 °C 0,0 km/h (0 Bft)
26.08.2017 08:48 19,3 °C 19,3 °C 78 % 1015,5 hPa 0,0 mm 0,1 km/h (0 Bft) N 355 ° 1 min 0,000 mm 1,5 UV-I 295 W/m² 15,4 °C 19,3 °C 1,6 km/h (1 Bft)
26.08.2017 08:49 19,3 °C 19,3 °C 78 % 1015,5 hPa 0,0 mm 0,9 km/h (0 Bft) N 355 ° 1 min 0,000 mm 1,5 UV-I 297 W/m² 15,4 °C 19,3 °C 1,6 km/h (1 Bft)
26.08.2017 08:50 19,5 °C 19,5 °C 80 % 1015,5 hPa 0,0 mm 0,0 km/h (0 Bft) N 355 ° 1 min 0,000 mm 1,5 UV-I 301 W/m² 16,0 °C 19,5 °C 0,0 km/h (0 Bft)
26.08.2017 08:51 19,5 °C 19,6 °C 77 % 1015,5 hPa 0,0 mm 2,8 km/h (1 Bft) O-SO 119 ° 1 min 0,000 mm 1,5 UV-I 304 W/m² 15,4 °C 19,5 °C 6,4 km/h (2 Bft)
26.08.2017 08:52 19,5 °C 19,6 °C 76 % 1015,4 hPa 0,0 mm 2,9 km/h (1 Bft) O-SO 119 ° 1 min 0,000 mm 1,6 UV-I 308 W/m² 15,2 °C 19,5 °C 4,8 km/h (1 Bft)
26.08.2017 08:53 19,5 °C 19,5 °C 75 % 1015,5 hPa 0,0 mm 1,4 km/h (1 Bft) O-SO 119 ° 1 min 0,000 mm 1,6 UV-I 311 W/m² 14,9 °C 19,5 °C 1,6 km/h (1 Bft)
26.08.2017 08:54 19,6 °C 19,6 °C 79 % 1015,4 hPa 0,0 mm 0,3 km/h (0 Bft) O-SO 119 ° 1 min 0,000 mm 1,6 UV-I 315 W/m² 15,9 °C 19,6 °C 1,6 km/h (1 Bft)
26.08.2017 08:55 19,8 °C 19,8 °C 80 % 1015,4 hPa 0,0 mm 0,2 km/h (0 Bft) O-SO 119 ° 1 min 0,000 mm 1,6 UV-I 316 W/m² 16,2 °C 19,8 °C 1,6 km/h (1 Bft)
26.08.2017 08:56 20,0 °C 20,0 °C 80 % 1015,4 hPa 0,0 mm 1,1 km/h (1 Bft) O-SO 119 ° 1 min 0,000 mm 1,7 UV-I 320 W/m² 16,4 °C 20,0 °C 3,2 km/h (1 Bft)
26.08.2017 08:57 20,1 °C 20,1 °C 77 % 1015,4 hPa 0,0 mm 0,5 km/h (0 Bft) O-SO 119 ° 1 min 0,000 mm 1,7 UV-I 325 W/m² 15,9 °C 20,1 °C 1,6 km/h (1 Bft)
26.08.2017 08:58 20,1 °C 20,1 °C 74 % 1015,4 hPa 0,0 mm 0,0 km/h (0 Bft) O-SO 119 ° 1 min 0,000 mm 1,7 UV-I 329 W/m² 15,3 °C 20,1 °C 0,0 km/h (0 Bft)
26.08.2017 08:59 20,2 °C 20,2 °C 76 % 1015,4 hPa 0,0 mm 0,9 km/h (0 Bft) O-SO 119 ° 1 min 0,000 mm 1,7 UV-I 336 W/m² 15,8 °C 20,2 °C 3,2 km/h (1 Bft)
26.08.2017 09:00 20,2 °C 20,2 °C 75 % 1015,4 hPa 0,0 mm 1,7 km/h (1 Bft) O-SO 119 ° 1 min 0,127 mm 1,8 UV-I 339 W/m² 15,6 °C 20,2 °C 3,2 km/h (1 Bft)
26.08.2017 09:01 20,3 °C 20,3 °C 74 % 1015,4 hPa 0,0 mm 2,5 km/h (1 Bft) O-SO 119 ° 1 min 0,000 mm 1,8 UV-I 345 W/m² 15,5 °C 20,3 °C 3,2 km/h (1 Bft)
26.08.2017 09:02 20,4 °C 20,4 °C 73 % 1015,4 hPa 0,0 mm 1,2 km/h (1 Bft) O-SO 119 ° 1 min 0,000 mm 1,8 UV-I 345 W/m² 15,4 °C 20,4 °C 3,2 km/h (1 Bft)
26.08.2017 09:03 20,4 °C 20,4 °C 73 % 1015,4 hPa 0,0 mm 0,8 km/h (0 Bft) O-SO 119 ° 1 min 0,000 mm 1,8 UV-I 355 W/m² 15,4 °C 20,4 °C 1,6 km/h (1 Bft)
26.08.2017 09:04 20,4 °C 20,4 °C 75 % 1015,3 hPa 0,0 mm 0,1 km/h (0 Bft) O-SO 119 ° 1 min 0,000 mm 1,9 UV-I 357 W/m² 15,8 °C 20,4 °C 1,6 km/h (1 Bft)
26.08.2017 09:05 20,6 °C 20,6 °C 76 % 1015,4 hPa 0,0 mm 0,1 km/h (0 Bft) O-SO 119 ° 1 min 0,000 mm 1,9 UV-I 360 W/m² 16,2 °C 20,6 °C 1,6 km/h (1 Bft)
26.08.2017 09:06 20,7 °C 20,7 °C 72 % 1015,4 hPa 0,0 mm 0,0 km/h (0 Bft) O-SO 119 ° 1 min 0,000 mm 1,9 UV-I 362 W/m² 15,5 °C 20,7 °C 0,0 km/h (0 Bft)
26.08.2017 09:07 20,9 °C 20,9 °C 76 % 1015,4 hPa 0,0 mm 0,1 km/h (0 Bft) O-SO 119 ° 1 min 0,000 mm 1,9 UV-I 364 W/m² 16,5 °C 20,9 °C 1,6 km/h (1 Bft)
26.08.2017 09:08 21,0 °C 21,0 °C 71 % 1015,3 hPa 0,0 mm 0,5 km/h (0 Bft) O-SO 119 ° 1 min 0,000 mm 1,9 UV-I 367 W/m² 15,5 °C 21,0 °C 3,2 km/h (1 Bft)
26.08.2017 09:09 21,1 °C 21,1 °C 70 % 1015,3 hPa 0,0 mm 0,7 km/h (0 Bft) S 182 ° 1 min 0,000 mm 2,0 UV-I 371 W/m² 15,4 °C 21,1 °C 3,2 km/h (1 Bft)
26.08.2017 09:10 21,2 °C 21,2 °C 70 % 1015,3 hPa 0,0 mm 3,1 km/h (1 Bft) S-SW 193 ° 1 min 0,000 mm 2,0 UV-I 371 W/m² 15,5 °C 21,2 °C 4,8 km/h (1 Bft)
26.08.2017 09:11 21,2 °C 21,2 °C 69 % 1015,3 hPa 0,0 mm 0,7 km/h (0 Bft) S-SW 193 ° 1 min 0,000 mm 2,0 UV-I 376 W/m² 15,3 °C 21,2 °C 1,6 km/h (1 Bft)
26.08.2017 09:12 21,1 °C 21,2 °C 70 % 1015,3 hPa 0,0 mm 0,0 km/h (0 Bft) S-SW 193 ° 1 min 0,000 mm 2,0 UV-I 380 W/m² 15,4 °C 21,1 °C 0,0 km/h (0 Bft)
26.08.2017 09:13 21,2 °C 21,2 °C 73 % 1015,3 hPa 0,0 mm 0,0 km/h (0 Bft) S-SW 193 ° 1 min 0,000 mm 2,0 UV-I 385 W/m² 16,2 °C 21,2 °C 0,0 km/h (0 Bft)
26.08.2017 09:14 21,2 °C 21,2 °C 70 % 1015,3 hPa 0,0 mm 0,1 km/h (0 Bft) S-SW 193 ° 1 min 0,000 mm 2,0 UV-I 346 W/m² 15,5 °C 21,2 °C 1,6 km/h (1 Bft)
26.08.2017 09:15 21,3 °C 21,3 °C 70 % 1015,3 hPa 0,0 mm 0,2 km/h (0 Bft) S-SW 193 ° 1 min 0,000 mm 2,0 UV-I 387 W/m² 15,6 °C 21,3 °C 1,6 km/h (1 Bft)
26.08.2017 09:16 21,2 °C 21,3 °C 70 % 1015,3 hPa 0,0 mm 0,4 km/h (0 Bft) S-SW 193 ° 1 min 0,000 mm 1,9 UV-I 355 W/m² 15,5 °C 21,2 °C 1,6 km/h (1 Bft)
26.08.2017 09:17 21,3 °C 21,3 °C 74 % 1015,4 hPa 0,0 mm 0,3 km/h (0 Bft) S-SW 193 ° 1 min 0,000 mm 2,1 UV-I 348 W/m² 16,5 °C 21,3 °C 1,6 km/h (1 Bft)
26.08.2017 09:18 21,3 °C 21,3 °C 73 % 1015,4 hPa 0,0 mm 0,0 km/h (0 Bft) S-SW 193 ° 0 min 0,000 mm 1,7 UV-I 272 W/m² 16,3 °C 21,3 °C 0,0 km/h (0 Bft)
26.08.2017 09:19 21,3 °C 21,3 °C 71 % 1015,3 hPa 0,0 mm 0,0 km/h (0 Bft) S-SW 193 ° 0 min 0,000 mm 1,9 UV-I 186 W/m² 15,8 °C 21,3 °C 0,0 km/h (0 Bft)
26.08.2017 09:20 21,3 °C 21,3 °C 70 % 1015,3 hPa 0,0 mm 0,0 km/h (0 Bft) S-SW 193 ° 0 min 0,000 mm 1,7 UV-I 186 W/m² 15,6 °C 21,3 °C 0,0 km/h (0 Bft)
26.08.2017 09:21 21,2 °C 21,3 °C 72 % 1015,3 hPa 0,0 mm 0,0 km/h (0 Bft) S-SW 193 ° 0 min 0,000 mm 1,7 UV-I 237 W/m² 15,9 °C 21,2 °C 0,0 km/h (0 Bft)
26.08.2017 09:22 21,2 °C 21,2 °C 70 % 1015,4 hPa 0,0 mm 0,0 km/h (0 Bft) S-SW 193 ° 0 min 0,000 mm 1,6 UV-I 204 W/m² 15,5 °C 21,2 °C 0,0 km/h (0 Bft)
26.08.2017 09:23 21,2 °C 21,3 °C 74 % 1015,4 hPa 0,0 mm 0,0 km/h (0 Bft) S-SW 194 ° 0 min 0,000 mm 1,6 UV-I 193 W/m² 16,4 °C 21,2 °C 0,0 km/h (0 Bft)
26.08.2017 09:24 21,2 °C 21,2 °C 71 % 1015,4 hPa 0,0 mm 0,0 km/h (0 Bft) S-SW 194 ° 0 min 0,000 mm 1,7 UV-I 200 W/m² 15,7 °C 21,2 °C 0,0 km/h (0 Bft)
26.08.2017 09:25 21,1 °C 21,2 °C 74 % 1015,4 hPa 0,0 mm 0,0 km/h (0 Bft) S-SW 194 ° 0 min 0,000 mm 1,8 UV-I 213 W/m² 16,3 °C 21,1 °C 0,0 km/h (0 Bft)
26.08.2017 09:26 21,1 °C 21,1 °C 77 % 1015,4 hPa 0,0 mm 0,0 km/h (0 Bft) S-SW 194 ° 1 min 0,000 mm 2,0 UV-I 290 W/m² 16,9 °C 21,1 °C 0,0 km/h (0 Bft)
26.08.2017 09:27 21,1 °C 21,1 °C 75 % 1015,4 hPa 0,0 mm 0,0 km/h (0 Bft) S-SW 194 ° 0 min 0,000 mm 2,0 UV-I 278 W/m² 16,5 °C 21,1 °C 0,0 km/h (0 Bft)
26.08.2017 09:28 21,2 °C 21,2 °C 75 % 1015,4 hPa 0,0 mm 0,0 km/h (0 Bft) S-SW 193 ° 1 min 0,000 mm 2,0 UV-I 294 W/m² 16,6 °C 21,2 °C 0,0 km/h (0 Bft)
26.08.2017 09:29 21,2 °C 21,2 °C 73 % 1015,4 hPa 0,0 mm 0,0 km/h (0 Bft) S-SW 194 ° 1 min 0,000 mm 2,2 UV-I 294 W/m² 16,2 °C 21,2 °C 0,0 km/h (0 Bft)
26.08.2017 09:30 21,3 °C 21,3 °C 76 % 1015,4 hPa 0,0 mm 0,0 km/h (0 Bft) S-SW 193 ° 1 min 0,000 mm 2,6 UV-I 294 W/m² 16,9 °C 21,3 °C 0,0 km/h (0 Bft)
26.08.2017 09:31 21,4 °C 21,4 °C 77 % 1015,5 hPa 0,0 mm 0,0 km/h (0 Bft) S-SW 194 ° 1 min 0,000 mm 2,2 UV-I 438 W/m² 17,2 °C 21,4 °C 0,0 km/h (0 Bft)
26.08.2017 09:32 21,5 °C 21,5 °C 73 % 1015,4 hPa 0,0 mm 0,0 km/h (0 Bft) S-SW 194 ° 1 min 0,000 mm 1,9 UV-I 438 W/m² 16,4 °C 21,5 °C 0,0 km/h (0 Bft)
26.08.2017 09:33 21,6 °C 21,6 °C 74 % 1015,4 hPa 0,0 mm 0,0 km/h (0 Bft) S-SW 194 ° 0 min 0,000 mm 1,8 UV-I 237 W/m² 16,8 °C 21,6 °C 0,0 km/h (0 Bft)
26.08.2017 09:34 21,6 °C 21,6 °C 73 % 1015,4 hPa 0,0 mm 0,0 km/h (0 Bft) S-SW 194 ° 0 min 0,000 mm 1,8 UV-I 234 W/m² 16,5 °C 21,6 °C 0,0 km/h (0 Bft)
26.08.2017 09:35 21,6 °C 21,6 °C 75 % 1015,5 hPa 0,0 mm 0,0 km/h (0 Bft) S-SW 194 ° 0 min 0,000 mm 1,8 UV-I 274 W/m² 17,0 °C 21,6 °C 0,0 km/h (0 Bft)
26.08.2017 09:36 21,6 °C 21,7 °C 75 % 1015,5 hPa 0,0 mm 0,0 km/h (0 Bft) S-SW 194 ° 0 min 0,000 mm 2,0 UV-I 250 W/m² 17,0 °C 21,6 °C 0,0 km/h (0 Bft)
26.08.2017 09:37 21,6 °C 21,6 °C 73 % 1015,5 hPa 0,0 mm 0,5 km/h (0 Bft) SW 232 ° 0 min 0,000 mm 2,0 UV-I 250 W/m² 16,5 °C 21,6 °C 1,6 km/h (1 Bft)
26.08.2017 09:38 21,6 °C 21,6 °C 73 % 1015,5 hPa 0,0 mm 0,0 km/h (0 Bft) SW 232 ° 0 min 0,000 mm 1,8 UV-I 250 W/m² 16,5 °C 21,6 °C 0,0 km/h (0 Bft)
26.08.2017 09:39 21,6 °C 21,6 °C 77 % 1015,5 hPa 0,0 mm 0,0 km/h (0 Bft) SW 232 ° 0 min 0,000 mm 1,8 UV-I 250 W/m² 17,4 °C 21,6 °C 0,0 km/h (0 Bft)
26.08.2017 09:40 21,5 °C 21,6 °C 74 % 1015,5 hPa 0,0 mm 0,0 km/h (0 Bft) SW 232 ° 0 min 0,000 mm 1,8 UV-I 248 W/m² 16,7 °C 21,5 °C 0,0 km/h (0 Bft)
26.08.2017 09:41 21,6 °C 21,6 °C 74 % 1015,5 hPa 0,0 mm 0,0 km/h (0 Bft) SW 232 ° 0 min 0,000 mm 2,4 UV-I 209 W/m² 16,8 °C 21,6 °C 0,0 km/h (0 Bft)
26.08.2017 09:42 21,6 °C 21,6 °C 75 % 1015,5 hPa 0,0 mm 0,0 km/h (0 Bft) SW 232 ° 0 min 0,000 mm 2,0 UV-I 230 W/m² 17,0 °C 21,6 °C 0,0 km/h (0 Bft)
26.08.2017 09:43 21,7 °C 21,7 °C 76 % 1015,5 hPa 0,0 mm 1,8 km/h (1 Bft) SW 232 ° 0 min 0,000 mm 2,2 UV-I 232 W/m² 17,3 °C 21,7 °C 3,2 km/h (1 Bft)
26.08.2017 09:44 21,7 °C 21,8 °C 76 % 1015,5 hPa 0,0 mm 1,0 km/h (0 Bft) SW 232 ° 1 min 0,000 mm 1,9 UV-I 292 W/m² 17,3 °C 21,7 °C 3,2 km/h (1 Bft)
26.08.2017 09:45 21,8 °C 21,8 °C 71 % 1015,5 hPa 0,0 mm 0,0 km/h (0 Bft) SW 232 ° 1 min 0,000 mm 2,6 UV-I 336 W/m² 16,3 °C 21,8 °C 0,0 km/h (0 Bft)
26.08.2017 09:46 21,7 °C 21,8 °C 70 % 1015,6 hPa 0,0 mm 0,1 km/h (0 Bft) SW 231 ° 0 min 0,000 mm 1,9 UV-I 234 W/m² 16,0 °C 21,7 °C 1,6 km/h (1 Bft)
26.08.2017 09:47 21,6 °C 21,7 °C 71 % 1015,6 hPa 0,0 mm 0,0 km/h (0 Bft) SW 231 ° 0 min 0,000 mm 2,1 UV-I 209 W/m² 16,1 °C 21,6 °C 0,0 km/h (0 Bft)
26.08.2017 09:48 21,6 °C 21,6 °C 72 % 1015,6 hPa 0,0 mm 0,0 km/h (0 Bft) SW 231 ° 0 min 0,000 mm 2,4 UV-I 199 W/m² 16,3 °C 21,6 °C 0,0 km/h (0 Bft)
26.08.2017 09:49 21,6 °C 21,6 °C 70 % 1015,6 hPa 0,0 mm 0,0 km/h (0 Bft) SW 231 ° 0 min 0,000 mm 2,8 UV-I 199 W/m² 15,9 °C 21,6 °C 0,0 km/h (0 Bft)
26.08.2017 09:50 21,7 °C 21,7 °C 72 % 1015,6 hPa 0,0 mm 0,0 km/h (0 Bft) SW 231 ° 1 min 0,000 mm 2,8 UV-I 489 W/m² 16,4 °C 21,7 °C 0,0 km/h (0 Bft)
26.08.2017 09:51 21,8 °C 21,8 °C 72 % 1015,6 hPa 0,0 mm 0,0 km/h (0 Bft) SW 231 ° 1 min 0,000 mm 2,8 UV-I 489 W/m² 16,5 °C 21,8 °C 0,0 km/h (0 Bft)
26.08.2017 09:52 21,9 °C 21,9 °C 71 % 1015,6 hPa 0,0 mm 0,0 km/h (0 Bft) SW 231 ° 1 min 0,000 mm 2,8 UV-I 483 W/m² 16,4 °C 21,9 °C 0,0 km/h (0 Bft)
26.08.2017 09:53 22,1 °C 22,1 °C 75 % 1015,6 hPa 0,0 mm 0,0 km/h (0 Bft) SW 231 ° 1 min 0,000 mm 2,9 UV-I 489 W/m² 17,5 °C 22,1 °C 0,0 km/h (0 Bft)
26.08.2017 09:54 22,1 °C 22,1 °C 75 % 1015,6 hPa 0,0 mm 0,0 km/h (0 Bft) SW 231 ° 1 min 0,000 mm 2,7 UV-I 411 W/m² 17,5 °C 22,1 °C 0,0 km/h (0 Bft)
26.08.2017 09:55 22,1 °C 22,1 °C 69 % 1015,5 hPa 0,0 mm 0,4 km/h (0 Bft) SW 230 ° 1 min 0,000 mm 2,9 UV-I 485 W/m² 16,1 °C 22,1 °C 1,6 km/h (1 Bft)
26.08.2017 09:56 22,2 °C 22,2 °C 73 % 1015,5 hPa 0,0 mm 1,4 km/h (1 Bft) SW 230 ° 1 min 0,000 mm 2,7 UV-I 485 W/m² 17,1 °C 22,2 °C 3,2 km/h (1 Bft)
26.08.2017 09:57 22,3 °C 22,3 °C 71 % 1015,5 hPa 0,0 mm 0,0 km/h (0 Bft) SW 230 ° 1 min 0,000 mm 2,9 UV-I 485 W/m² 16,8 °C 22,3 °C 0,0 km/h (0 Bft)
26.08.2017 09:58 22,3 °C 22,3 °C 68 % 1015,6 hPa 0,0 mm 0,0 km/h (0 Bft) SW 230 ° 1 min 0,000 mm 2,9 UV-I 482 W/m² 16,1 °C 22,3 °C 0,0 km/h (0 Bft)
26.08.2017 09:59 22,3 °C 22,4 °C 70 % 1015,6 hPa 0,0 mm 0,3 km/h (0 Bft) SW 230 ° 1 min 0,000 mm 2,9 UV-I 483 W/m² 16,6 °C 22,3 °C 1,6 km/h (1 Bft)
26.08.2017 10:00 22,4 °C 22,4 °C 68 % 1015,6 hPa 0,0 mm 0,0 km/h (0 Bft) SW 230 ° 1 min 0,203 mm 2,9 UV-I 489 W/m² 16,2 °C 22,4 °C 0,0 km/h (0 Bft)
26.08.2017 10:01 22,4 °C 22,4 °C 71 % 1015,5 hPa 0,0 mm 2,4 km/h (1 Bft) S 175 ° 1 min 0,000 mm 2,5 UV-I 448 W/m² 16,9 °C 22,4 °C 4,8 km/h (1 Bft)
26.08.2017 10:02 22,6 °C 22,6 °C 67 % 1015,5 hPa 0,0 mm 1,3 km/h (1 Bft) S 176 ° 1 min 0,000 mm 3,0 UV-I 352 W/m² 16,2 °C 22,6 °C 3,2 km/h (1 Bft)
26.08.2017 10:03 22,8 °C 22,8 °C 67 % 1015,5 hPa 0,0 mm 0,0 km/h (0 Bft) S 176 ° 1 min 0,000 mm 2,9 UV-I 399 W/m² 16,3 °C 22,8 °C 0,0 km/h (0 Bft)
26.08.2017 10:04 23,0 °C 23,0 °C 65 % 1015,5 hPa 0,0 mm 0,1 km/h (0 Bft) S 176 ° 1 min 0,000 mm 3,1 UV-I 503 W/m² 16,1 °C 23,0 °C 1,6 km/h (1 Bft)
26.08.2017 10:05 23,3 °C 23,3 °C 66 % 1015,5 hPa 0,0 mm 3,9 km/h (1 Bft) W-SW 244 ° 1 min 0,000 mm 3,1 UV-I 499 W/m² 16,6 °C 23,3 °C 6,4 km/h (2 Bft)
26.08.2017 10:06 23,6 °C 23,6 °C 70 % 1015,5 hPa 0,0 mm 2,7 km/h (1 Bft) W-SW 246 ° 1 min 0,000 mm 3,1 UV-I 494 W/m² 17,8 °C 23,6 °C 6,4 km/h (2 Bft)
26.08.2017 10:07 23,7 °C 23,7 °C 68 % 1015,5 hPa 0,0 mm 1,3 km/h (1 Bft) W-SW 246 ° 1 min 0,000 mm 3,1 UV-I 492 W/m² 17,4 °C 23,7 °C 3,2 km/h (1 Bft)
26.08.2017 10:08 23,7 °C 23,7 °C 64 % 1015,6 hPa 0,0 mm 0,4 km/h (0 Bft) W-SW 246 ° 1 min 0,000 mm 3,1 UV-I 494 W/m² 16,5 °C 23,7 °C 1,6 km/h (1 Bft)
26.08.2017 10:09 23,9 °C 23,9 °C 66 % 1015,6 hPa 0,0 mm 2,6 km/h (1 Bft) W-SW 245 ° 1 min 0,000 mm 3,1 UV-I 494 W/m² 17,1 °C 23,9 °C 6,4 km/h (2 Bft)
26.08.2017 10:10 24,1 °C 24,1 °C 69 % 1015,6 hPa 0,0 mm 1,5 km/h (1 Bft) W-SW 245 ° 1 min 0,000 mm 3,1 UV-I 496 W/m² 18,0 °C 24,1 °C 3,2 km/h (1 Bft)
26.08.2017 10:11 24,1 °C 24,2 °C 64 % 1015,5 hPa 0,0 mm 0,8 km/h (0 Bft) W-SW 245 ° 1 min 0,000 mm 3,2 UV-I 496 W/m² 16,9 °C 24,1 °C 1,6 km/h (1 Bft)
26.08.2017 10:12 23,9 °C 24,1 °C 62 % 1015,6 hPa 0,0 mm 1,4 km/h (1 Bft) W-SW 245 ° 1 min 0,000 mm 3,2 UV-I 496 W/m² 16,2 °C 23,9 °C 3,2 km/h (1 Bft)
26.08.2017 10:13 23,9 °C 23,9 °C 65 % 1015,6 hPa 0,0 mm 1,9 km/h (1 Bft) W-SW 254 ° 1 min 0,000 mm 3,2 UV-I 497 W/m² 16,9 °C 23,9 °C 3,2 km/h (1 Bft)
26.08.2017 10:14 24,2 °C 24,2 °C 66 % 1015,6 hPa 0,0 mm 3,2 km/h (1 Bft) W-SW 254 ° 1 min 0,000 mm 3,2 UV-I 497 W/m² 17,4 °C 24,2 °C 4,8 km/h (1 Bft)
26.08.2017 10:15 24,3 °C 24,3 °C 64 % 1015,6 hPa 0,0 mm 1,7 km/h (1 Bft) W-SW 254 ° 1 min 0,000 mm 3,2 UV-I 504 W/m² 17,0 °C 24,3 °C 3,2 km/h (1 Bft)
26.08.2017 10:16 24,3 °C 24,3 °C 62 % 1015,6 hPa 0,0 mm 1,3 km/h (1 Bft) W-SW 254 ° 1 min 0,000 mm 3,3 UV-I 508 W/m² 16,5 °C 24,3 °C 3,2 km/h (1 Bft)
26.08.2017 10:17 24,3 °C 24,3 °C 61 % 1015,6 hPa 0,0 mm 0,0 km/h (0 Bft) W-SW 254 ° 1 min 0,000 mm 3,3 UV-I 510 W/m² 16,3 °C 24,3 °C 0,0 km/h (0 Bft)
26.08.2017 10:18 24,2 °C 24,3 °C 65 % 1015,6 hPa 0,0 mm 0,1 km/h (0 Bft) W-SW 254 ° 1 min 0,000 mm 3,3 UV-I 510 W/m² 17,2 °C 24,2 °C 1,6 km/h (1 Bft)
26.08.2017 10:19 24,3 °C 24,3 °C 69 % 1015,5 hPa 0,0 mm 4,0 km/h (1 Bft) N-NW 333 ° 1 min 0,000 mm 3,3 UV-I 512 W/m² 18,2 °C 24,3 °C 11,3 km/h (2 Bft)
26.08.2017 10:20 24,5 °C 24,5 °C 57 % 1015,5 hPa 0,0 mm 4,4 km/h (1 Bft) W-NW 295 ° 1 min 0,000 mm 3,3 UV-I 512 W/m² 15,4 °C 24,5 °C 6,4 km/h (2 Bft)
26.08.2017 10:21 24,6 °C 24,6 °C 58 % 1015,6 hPa 0,0 mm 2,7 km/h (1 Bft) W-SW 242 ° 1 min 0,000 mm 3,4 UV-I 524 W/m² 15,8 °C 24,6 °C 4,8 km/h (1 Bft)
26.08.2017 10:22 24,6 °C 24,6 °C 62 % 1015,6 hPa 0,0 mm 0,2 km/h (0 Bft) W-SW 242 ° 1 min 0,000 mm 3,4 UV-I 531 W/m² 16,8 °C 24,6 °C 1,6 km/h (1 Bft)
26.08.2017 10:23 24,5 °C 24,6 °C 60 % 1015,5 hPa 0,0 mm 0,0 km/h (0 Bft) W-SW 242 ° 1 min 0,000 mm 3,5 UV-I 536 W/m² 16,2 °C 24,5 °C 0,0 km/h (0 Bft)
26.08.2017 10:24 24,4 °C 24,5 °C 63 % 1015,4 hPa 0,0 mm 1,1 km/h (1 Bft) W-SW 244 ° 1 min 0,000 mm 3,5 UV-I 547 W/m² 16,9 °C 24,4 °C 3,2 km/h (1 Bft)
26.08.2017 10:25 24,5 °C 24,5 °C 61 % 1015,5 hPa 0,0 mm 5,2 km/h (1 Bft) W 261 ° 1 min 0,000 mm 3,6 UV-I 555 W/m² 16,5 °C 24,5 °C 8,0 km/h (2 Bft)
26.08.2017 10:26 24,6 °C 24,6 °C 63 % 1015,5 hPa 0,0 mm 4,0 km/h (1 Bft) W 265 ° 1 min 0,000 mm 3,6 UV-I 564 W/m² 17,1 °C 24,6 °C 8,0 km/h (2 Bft)
26.08.2017 10:27 24,6 °C 24,6 °C 61 % 1015,5 hPa 0,0 mm 2,7 km/h (1 Bft) SW 216 ° 1 min 0,000 mm 3,7 UV-I 578 W/m² 16,6 °C 24,6 °C 6,4 km/h (2 Bft)
26.08.2017 10:28 24,7 °C 24,7 °C 57 % 1015,5 hPa 0,0 mm 2,4 km/h (1 Bft) NW 317 ° 1 min 0,000 mm 3,7 UV-I 582 W/m² 15,6 °C 24,7 °C 4,8 km/h (1 Bft)
26.08.2017 10:29 24,8 °C 24,8 °C 60 % 1015,5 hPa 0,0 mm 3,3 km/h (1 Bft) W-SW 252 ° 1 min 0,000 mm 3,7 UV-I 582 W/m² 16,5 °C 24,8 °C 6,4 km/h (2 Bft)
26.08.2017 10:30 25,1 °C 25,1 °C 60 % 1015,5 hPa 0,0 mm 6,9 km/h (2 Bft) W-NW 288 ° 1 min 0,000 mm 3,7 UV-I 584 W/m² 16,8 °C 25,1 °C 11,3 km/h (2 Bft)
26.08.2017 10:31 25,2 °C 25,2 °C 55 % 1015,4 hPa 0,0 mm 3,3 km/h (1 Bft) W 273 ° 1 min 0,000 mm 3,7 UV-I 585 W/m² 15,5 °C 25,2 °C 4,8 km/h (1 Bft)
26.08.2017 10:32 25,2 °C 25,2 °C 60 % 1015,4 hPa 0,0 mm 4,2 km/h (1 Bft) W 262 ° 1 min 0,000 mm 3,7 UV-I 585 W/m² 16,9 °C 25,2 °C 4,8 km/h (1 Bft)
26.08.2017 10:33 25,1 °C 25,2 °C 56 % 1015,4 hPa 0,0 mm 0,5 km/h (0 Bft) W 262 ° 1 min 0,000 mm 3,7 UV-I 584 W/m² 15,7 °C 25,1 °C 3,2 km/h (1 Bft)
26.08.2017 10:34 25,1 °C 25,1 °C 57 % 1015,5 hPa 0,0 mm 2,5 km/h (1 Bft) W 279 ° 1 min 0,000 mm 3,7 UV-I 582 W/m² 16,0 °C 25,1 °C 4,8 km/h (1 Bft)
26.08.2017 10:35 25,0 °C 25,1 °C 57 % 1015,5 hPa 0,0 mm 2,9 km/h (1 Bft) N 5 ° 1 min 0,000 mm 3,7 UV-I 582 W/m² 15,9 °C 25,0 °C 6,4 km/h (2 Bft)
26.08.2017 10:36 24,9 °C 25,0 °C 64 % 1015,4 hPa 0,0 mm 3,5 km/h (1 Bft) W-SW 250 ° 0 min 0,000 mm 2,2 UV-I 153 W/m² 17,6 °C 24,9 °C 4,8 km/h (1 Bft)
26.08.2017 10:37 24,9 °C 24,9 °C 59 % 1015,4 hPa 0,0 mm 2,6 km/h (1 Bft) W-NW 294 ° 0 min 0,000 mm 3,7 UV-I 153 W/m² 16,3 °C 24,9 °C 4,8 km/h (1 Bft)
26.08.2017 10:38 25,0 °C 25,0 °C 61 % 1015,4 hPa 0,0 mm 3,3 km/h (1 Bft) W 277 ° 1 min 0,000 mm 3,8 UV-I 561 W/m² 16,9 °C 25,0 °C 6,4 km/h (2 Bft)
26.08.2017 10:39 24,9 °C 25,0 °C 63 % 1015,4 hPa 0,0 mm 0,0 km/h (0 Bft) W 277 ° 1 min 0,000 mm 3,8 UV-I 559 W/m² 17,4 °C 24,9 °C 0,0 km/h (0 Bft)
26.08.2017 10:40 24,8 °C 24,9 °C 62 % 1015,5 hPa 0,0 mm 0,0 km/h (0 Bft) W 277 ° 1 min 0,000 mm 3,8 UV-I 563 W/m² 17,0 °C 24,8 °C 0,0 km/h (0 Bft)
26.08.2017 10:41 24,9 °C 24,9 °C 62 % 1015,5 hPa 0,0 mm 3,1 km/h (1 Bft) W 265 ° 1 min 0,000 mm 3,8 UV-I 563 W/m² 17,1 °C 24,9 °C 6,4 km/h (2 Bft)
26.08.2017 10:42 25,1 °C 25,1 °C 60 % 1015,5 hPa 0,0 mm 6,0 km/h (2 Bft) W 268 ° 1 min 0,000 mm 3,8 UV-I 564 W/m² 16,8 °C 25,1 °C 9,7 km/h (2 Bft)
26.08.2017 10:43 25,2 °C 25,2 °C 55 % 1015,5 hPa 0,0 mm 4,5 km/h (1 Bft) NW 323 ° 1 min 0,000 mm 3,9 UV-I 566 W/m² 15,5 °C 25,2 °C 8,0 km/h (2 Bft)
26.08.2017 10:44 25,3 °C 25,3 °C 56 % 1015,4 hPa 0,0 mm 4,9 km/h (1 Bft) NW 320 ° 1 min 0,000 mm 3,9 UV-I 566 W/m² 15,9 °C 25,3 °C 6,4 km/h (2 Bft)
26.08.2017 10:45 25,4 °C 25,4 °C 56 % 1015,4 hPa 0,0 mm 5,6 km/h (1 Bft) W 270 ° 1 min 0,000 mm 3,9 UV-I 564 W/m² 16,0 °C 25,4 °C 9,7 km/h (2 Bft)
26.08.2017 10:46 25,5 °C 25,5 °C 53 % 1015,5 hPa 0,0 mm 6,2 km/h (2 Bft) W-NW 291 ° 1 min 0,000 mm 3,9 UV-I 568 W/m² 15,2 °C 25,5 °C 8,0 km/h (2 Bft)
26.08.2017 10:47 25,6 °C 25,6 °C 56 % 1015,5 hPa 0,0 mm 4,0 km/h (1 Bft) W 271 ° 1 min 0,000 mm 3,9 UV-I 570 W/m² 16,2 °C 25,6 °C 6,4 km/h (2 Bft)
26.08.2017 10:48 25,6 °C 25,6 °C 54 % 1015,5 hPa 0,0 mm 3,3 km/h (1 Bft) W 269 ° 1 min 0,000 mm 3,9 UV-I 570 W/m² 15,6 °C 25,6 °C 9,7 km/h (2 Bft)
26.08.2017 10:49 25,6 °C 25,6 °C 58 % 1015,5 hPa 0,0 mm 3,7 km/h (1 Bft) W 279 ° 1 min 0,000 mm 3,9 UV-I 570 W/m² 16,7 °C 25,6 °C 4,8 km/h (1 Bft)
26.08.2017 10:50 25,6 °C 25,6 °C 56 % 1015,4 hPa 0,0 mm 2,7 km/h (1 Bft) W 279 ° 1 min 0,000 mm 4,0 UV-I 570 W/m² 16,2 °C 25,6 °C 4,8 km/h (1 Bft)
26.08.2017 10:51 25,6 °C 25,6 °C 53 % 1015,5 hPa 0,0 mm 3,6 km/h (1 Bft) W-NW 302 ° 1 min 0,000 mm 4,0 UV-I 575 W/m² 15,3 °C 25,6 °C 4,8 km/h (1 Bft)
26.08.2017 10:52 25,6 °C 25,6 °C 54 % 1015,5 hPa 0,0 mm 3,5 km/h (1 Bft) W-NW 296 ° 1 min 0,000 mm 4,0 UV-I 577 W/m² 15,6 °C 25,6 °C 6,4 km/h (2 Bft)
26.08.2017 10:53 25,8 °C 25,8 °C 56 % 1015,5 hPa 0,0 mm 5,8 km/h (2 Bft) W 277 ° 1 min 0,000 mm 4,0 UV-I 580 W/m² 16,3 °C 25,8 °C 11,3 km/h (2 Bft)
26.08.2017 10:54 25,8 °C 25,8 °C 58 % 1015,5 hPa 0,0 mm 2,6 km/h (1 Bft) W 262 ° 1 min 0,000 mm 4,0 UV-I 582 W/m² 16,9 °C 25,8 °C 4,8 km/h (1 Bft)
26.08.2017 10:55 25,7 °C 25,8 °C 56 % 1015,5 hPa 0,0 mm 5,1 km/h (1 Bft) W-NW 296 ° 1 min 0,000 mm 4,1 UV-I 584 W/m² 16,2 °C 25,7 °C 9,7 km/h (2 Bft)
26.08.2017 10:56 25,7 °C 25,7 °C 58 % 1015,5 hPa 0,0 mm 5,6 km/h (1 Bft) W 281 ° 1 min 0,000 mm 4,1 UV-I 584 W/m² 16,8 °C 25,7 °C 11,3 km/h (2 Bft)
26.08.2017 10:57 25,7 °C 25,7 °C 58 % 1015,4 hPa 0,0 mm 3,6 km/h (1 Bft) W-NW 301 ° 1 min 0,000 mm 4,1 UV-I 584 W/m² 16,8 °C 25,7 °C 4,8 km/h (1 Bft)
26.08.2017 10:58 25,6 °C 25,7 °C 61 % 1015,4 hPa 0,0 mm 1,7 km/h (1 Bft) W-NW 301 ° 1 min 0,000 mm 4,1 UV-I 587 W/m² 17,5 °C 25,6 °C 3,2 km/h (1 Bft)
26.08.2017 10:59 25,4 °C 25,6 °C 55 % 1015,5 hPa 0,0 mm 2,6 km/h (1 Bft) W-NW 295 ° 1 min 0,000 mm 4,1 UV-I 589 W/m² 15,7 °C 25,4 °C 3,2 km/h (1 Bft)
26.08.2017 11:00 25,2 °C 25,4 °C 55 % 1015,5 hPa 0,0 mm 0,6 km/h (0 Bft) W-NW 295 ° 1 min 0,000 mm 4,2 UV-I 596 W/m² 15,5 °C 25,2 °C 1,6 km/h (1 Bft)
26.08.2017 11:01 25,0 °C 25,2 °C 55 % 1015,5 hPa 0,0 mm 0,4 km/h (0 Bft) W-NW 295 ° 1 min 0,356 mm 4,2 UV-I 578 W/m² 15,3 °C 25,0 °C 1,6 km/h (1 Bft)
26.08.2017 11:02 24,9 °C 25,0 °C 60 % 1015,5 hPa 0,0 mm 3,6 km/h (1 Bft) W-NW 294 ° 1 min 0,000 mm 4,2 UV-I 596 W/m² 16,6 °C 24,9 °C 6,4 km/h (2 Bft)
26.08.2017 11:03 24,9 °C 24,9 °C 66 % 1015,4 hPa 0,0 mm 2,7 km/h (1 Bft) W-NW 291 ° 1 min 0,000 mm 4,3 UV-I 605 W/m² 18,1 °C 24,9 °C 6,4 km/h (2 Bft)
26.08.2017 11:04 24,8 °C 24,9 °C 66 % 1015,4 hPa 0,0 mm 0,1 km/h (0 Bft) W-NW 291 ° 1 min 0,000 mm 4,3 UV-I 606 W/m² 18,0 °C 24,8 °C 1,6 km/h (1 Bft)
26.08.2017 11:05 24,7 °C 24,8 °C 58 % 1015,4 hPa 0,0 mm 1,4 km/h (1 Bft) NW 321 ° 1 min 0,000 mm 4,3 UV-I 606 W/m² 15,9 °C 24,7 °C 3,2 km/h (1 Bft)
26.08.2017 11:06 24,7 °C 24,7 °C 66 % 1015,4 hPa 0,0 mm 4,3 km/h (1 Bft) W-NW 290 ° 1 min 0,000 mm 4,3 UV-I 610 W/m² 17,9 °C 24,7 °C 11,3 km/h (2 Bft)
26.08.2017 11:07 24,9 °C 24,9 °C 60 % 1015,4 hPa 0,0 mm 6,4 km/h (2 Bft) W-NW 290 ° 1 min 0,000 mm 4,4 UV-I 619 W/m² 16,6 °C 24,9 °C 9,7 km/h (2 Bft)
26.08.2017 11:08 25,2 °C 25,2 °C 60 % 1015,4 hPa 0,0 mm 9,2 km/h (2 Bft) W 270 ° 1 min 0,000 mm 4,4 UV-I 594 W/m² 16,9 °C 25,2 °C 16,1 km/h (3 Bft)
26.08.2017 11:09 25,4 °C 25,4 °C 55 % 1015,4 hPa 0,0 mm 8,0 km/h (2 Bft) W-SW 238 ° 1 min 0,000 mm 4,1 UV-I 547 W/m² 15,7 °C 25,4 °C 11,3 km/h (2 Bft)
26.08.2017 11:10 25,5 °C 25,5 °C 58 % 1015,4 hPa 0,0 mm 4,8 km/h (1 Bft) W-NW 300 ° 1 min 0,000 mm 4,0 UV-I 471 W/m² 16,6 °C 25,5 °C 8,0 km/h (2 Bft)
26.08.2017 11:11 25,4 °C 25,5 °C 59 % 1015,4 hPa 0,0 mm 2,9 km/h (1 Bft) W 263 ° 1 min 0,000 mm 4,0 UV-I 499 W/m² 16,8 °C 25,4 °C 4,8 km/h (1 Bft)
26.08.2017 11:12 25,5 °C 25,5 °C 55 % 1015,4 hPa 0,0 mm 3,6 km/h (1 Bft) W-NW 298 ° 1 min 0,000 mm 3,8 UV-I 459 W/m² 15,8 °C 25,5 °C 4,8 km/h (1 Bft)
26.08.2017 11:13 25,6 °C 25,6 °C 58 % 1015,4 hPa 0,0 mm 4,3 km/h (1 Bft) W-NW 300 ° 1 min 0,000 mm 3,7 UV-I 459 W/m² 16,7 °C 25,6 °C 6,4 km/h (2 Bft)
26.08.2017 11:14 25,7 °C 25,7 °C 59 % 1015,4 hPa 0,0 mm 6,3 km/h (2 Bft) W-NW 288 ° 1 min 0,000 mm 4,2 UV-I 459 W/m² 17,1 °C 25,7 °C 8,0 km/h (2 Bft)
26.08.2017 11:15 25,7 °C 25,7 °C 60 % 1015,4 hPa 0,0 mm 5,4 km/h (1 Bft) W 273 ° 1 min 0,000 mm 4,0 UV-I 459 W/m² 17,3 °C 25,7 °C 9,7 km/h (2 Bft)
26.08.2017 11:16 25,7 °C 25,7 °C 57 % 1015,4 hPa 0,0 mm 6,8 km/h (2 Bft) W 264 ° 1 min 0,000 mm 4,1 UV-I 497 W/m² 16,5 °C 25,7 °C 14,5 km/h (3 Bft)
26.08.2017 11:17 25,7 °C 25,8 °C 55 % 1015,4 hPa 0,0 mm 4,9 km/h (1 Bft) W 278 ° 1 min 0,000 mm 4,5 UV-I 497 W/m² 16,0 °C 25,7 °C 8,0 km/h (2 Bft)
26.08.2017 11:18 25,7 °C 25,7 °C 56 % 1015,4 hPa 0,0 mm 2,5 km/h (1 Bft) W 259 ° 1 min 0,000 mm 4,0 UV-I 564 W/m² 16,2 °C 25,7 °C 4,8 km/h (1 Bft)
26.08.2017 11:19 25,7 °C 25,7 °C 57 % 1015,3 hPa 0,0 mm 2,7 km/h (1 Bft) W 269 ° 1 min 0,000 mm 4,3 UV-I 540 W/m² 16,5 °C 25,7 °C 6,4 km/h (2 Bft)
26.08.2017 11:20 25,6 °C 25,7 °C 55 % 1015,4 hPa 0,0 mm 5,6 km/h (1 Bft) W 259 ° 1 min 0,000 mm 4,0 UV-I 392 W/m² 15,9 °C 25,6 °C 9,7 km/h (2 Bft)
26.08.2017 11:21 25,4 °C 25,6 °C 59 % 1015,4 hPa 0,0 mm 2,7 km/h (1 Bft) W-NW 286 ° 1 min 0,000 mm 3,8 UV-I 462 W/m² 16,8 °C 25,4 °C 4,8 km/h (1 Bft)
26.08.2017 11:22 25,3 °C 25,4 °C 56 % 1015,3 hPa 0,0 mm 2,1 km/h (1 Bft) W-NW 284 ° 1 min 0,000 mm 3,5 UV-I 496 W/m² 15,9 °C 25,3 °C 4,8 km/h (1 Bft)
26.08.2017 11:23 25,3 °C 25,3 °C 54 % 1015,4 hPa 0,0 mm 8,1 km/h (2 Bft) W-NW 298 ° 1 min 0,000 mm 3,8 UV-I 496 W/m² 15,3 °C 25,3 °C 16,1 km/h (3 Bft)
26.08.2017 11:24 25,2 °C 25,3 °C 55 % 1015,4 hPa 0,0 mm 5,6 km/h (1 Bft) NW 323 ° 1 min 0,000 mm 3,7 UV-I 422 W/m² 15,5 °C 25,2 °C 11,3 km/h (2 Bft)
26.08.2017 11:25 25,2 °C 25,3 °C 55 % 1015,4 hPa 0,0 mm 4,8 km/h (1 Bft) W 271 ° 1 min 0,000 mm 3,7 UV-I 427 W/m² 15,5 °C 25,2 °C 9,7 km/h (2 Bft)
26.08.2017 11:26 25,2 °C 25,3 °C 55 % 1015,3 hPa 0,0 mm 5,5 km/h (1 Bft) W 266 ° 1 min 0,000 mm 4,0 UV-I 515 W/m² 15,5 °C 25,2 °C 6,4 km/h (2 Bft)
26.08.2017 11:27 25,3 °C 25,3 °C 55 % 1015,3 hPa 0,0 mm 4,2 km/h (1 Bft) W-NW 300 ° 1 min 0,000 mm 4,5 UV-I 555 W/m² 15,6 °C 25,3 °C 6,4 km/h (2 Bft)
26.08.2017 11:28 25,4 °C 25,4 °C 53 % 1015,3 hPa 0,0 mm 6,2 km/h (2 Bft) W 267 ° 1 min 0,000 mm 4,4 UV-I 615 W/m² 15,1 °C 25,4 °C 9,7 km/h (2 Bft)
26.08.2017 11:29 25,4 °C 25,4 °C 58 % 1015,3 hPa 0,0 mm 6,4 km/h (2 Bft) W 275 ° 1 min 0,000 mm 4,4 UV-I 580 W/m² 16,5 °C 25,4 °C 11,3 km/h (2 Bft)
26.08.2017 11:30 25,5 °C 25,5 °C 57 % 1015,3 hPa 0,0 mm 4,2 km/h (1 Bft) W 274 ° 1 min 0,000 mm 4,7 UV-I 580 W/m² 16,3 °C 25,5 °C 11,3 km/h (2 Bft)
26.08.2017 11:31 25,5 °C 25,5 °C 58 % 1015,3 hPa 0,0 mm 0,7 km/h (0 Bft) W 274 ° 1 min 0,000 mm 4,9 UV-I 694 W/m² 16,6 °C 25,5 °C 3,2 km/h (1 Bft)
26.08.2017 11:32 25,6 °C 25,6 °C 58 % 1015,3 hPa 0,0 mm 3,4 km/h (1 Bft) W 274 ° 1 min 0,000 mm 4,9 UV-I 696 W/m² 16,7 °C 25,6 °C 4,8 km/h (1 Bft)
26.08.2017 11:33 25,7 °C 25,7 °C 58 % 1015,3 hPa 0,0 mm 3,7 km/h (1 Bft) W-NW 292 ° 1 min 0,000 mm 5,0 UV-I 728 W/m² 16,8 °C 25,7 °C 4,8 km/h (1 Bft)
26.08.2017 11:34 25,8 °C 25,8 °C 62 % 1015,2 hPa 0,0 mm 1,9 km/h (1 Bft) W-NW 292 ° 1 min 0,000 mm 4,6 UV-I 645 W/m² 18,0 °C 25,8 °C 3,2 km/h (1 Bft)
26.08.2017 11:35 25,8 °C 25,8 °C 60 % 1015,2 hPa 0,0 mm 0,3 km/h (0 Bft) W 281 ° 1 min 0,000 mm 4,3 UV-I 645 W/m² 17,4 °C 25,8 °C 1,6 km/h (1 Bft)
26.08.2017 11:36 25,8 °C 25,8 °C 60 % 1015,3 hPa 0,0 mm 4,6 km/h (1 Bft) W-SW 241 ° 1 min 0,000 mm 4,0 UV-I 529 W/m² 17,4 °C 25,8 °C 6,4 km/h (2 Bft)
26.08.2017 11:37 25,8 °C 25,8 °C 57 % 1015,2 hPa 0,0 mm 4,9 km/h (1 Bft) W-SW 254 ° 1 min 0,000 mm 3,7 UV-I 425 W/m² 16,6 °C 25,8 °C 9,7 km/h (2 Bft)
26.08.2017 11:38 25,8 °C 25,8 °C 57 % 1015,2 hPa 0,0 mm 6,5 km/h (2 Bft) W-SW 246 ° 1 min 0,000 mm 4,4 UV-I 425 W/m² 16,6 °C 25,8 °C 11,3 km/h (2 Bft)
26.08.2017 11:39 25,8 °C 25,8 °C 59 % 1015,3 hPa 0,0 mm 4,2 km/h (1 Bft) W-SW 253 ° 1 min 0,000 mm 4,0 UV-I 425 W/m² 17,2 °C 25,8 °C 9,7 km/h (2 Bft)
26.08.2017 11:40 25,7 °C 25,8 °C 59 % 1015,3 hPa 0,0 mm 7,3 km/h (2 Bft) W 278 ° 1 min 0,000 mm 3,4 UV-I 425 W/m² 17,1 °C 25,7 °C 11,3 km/h (2 Bft)
26.08.2017 11:41 25,6 °C 25,7 °C 57 % 1015,3 hPa 0,0 mm 4,8 km/h (1 Bft) W 268 ° 1 min 0,000 mm 3,3 UV-I 348 W/m² 16,4 °C 25,6 °C 9,7 km/h (2 Bft)
26.08.2017 11:42 25,5 °C 25,6 °C 54 % 1015,3 hPa 0,0 mm 7,6 km/h (2 Bft) W-NW 296 ° 1 min 0,000 mm 3,4 UV-I 332 W/m² 15,5 °C 25,5 °C 12,9 km/h (3 Bft)
26.08.2017 11:43 25,4 °C 25,5 °C 56 % 1015,3 hPa 0,0 mm 5,6 km/h (1 Bft) W-NW 298 ° 1 min 0,000 mm 3,2 UV-I 334 W/m² 16,0 °C 25,4 °C 9,7 km/h (2 Bft)
26.08.2017 11:44 25,3 °C 25,4 °C 57 % 1015,3 hPa 0,0 mm 7,1 km/h (2 Bft) W 259 ° 1 min 0,000 mm 3,5 UV-I 355 W/m² 16,2 °C 25,3 °C 11,3 km/h (2 Bft)
26.08.2017 11:45 25,2 °C 25,3 °C 58 % 1015,3 hPa 0,0 mm 4,3 km/h (1 Bft) W-NW 294 ° 1 min 0,000 mm 3,4 UV-I 378 W/m² 16,3 °C 25,2 °C 8,0 km/h (2 Bft)
26.08.2017 11:46 25,1 °C 25,2 °C 57 % 1015,2 hPa 0,0 mm 3,4 km/h (1 Bft) NW 313 ° 1 min 0,000 mm 3,4 UV-I 373 W/m² 16,0 °C 25,1 °C 6,4 km/h (2 Bft)
26.08.2017 11:47 25,0 °C 25,1 °C 57 % 1015,2 hPa 0,0 mm 5,1 km/h (1 Bft) W-NW 295 ° 1 min 0,000 mm 3,4 UV-I 322 W/m² 15,9 °C 25,0 °C 8,0 km/h (2 Bft)
26.08.2017 11:48 24,9 °C 25,0 °C 57 % 1015,2 hPa 0,0 mm 4,3 km/h (1 Bft) W-NW 284 ° 1 min 0,000 mm 3,1 UV-I 304 W/m² 15,8 °C 24,9 °C 11,3 km/h (2 Bft)
26.08.2017 11:49 24,8 °C 24,9 °C 56 % 1015,2 hPa 0,0 mm 3,2 km/h (1 Bft) W-NW 290 ° 1 min 0,000 mm 3,1 UV-I 325 W/m² 15,4 °C 24,8 °C 6,4 km/h (2 Bft)
26.08.2017 11:50 24,8 °C 24,8 °C 58 % 1015,2 hPa 0,0 mm 5,8 km/h (2 Bft) NW 304 ° 1 min 0,000 mm 3,2 UV-I 322 W/m² 16,0 °C 24,8 °C 9,7 km/h (2 Bft)
26.08.2017 11:51 24,8 °C 24,8 °C 61 % 1015,2 hPa 0,0 mm 3,3 km/h (1 Bft) W-NW 293 ° 1 min 0,000 mm 3,1 UV-I 304 W/m² 16,8 °C 24,8 °C 4,8 km/h (1 Bft)
26.08.2017 11:52 24,7 °C 24,8 °C 63 % 1015,2 hPa 0,0 mm 8,6 km/h (2 Bft) N-NW 338 ° 1 min 0,000 mm 3,5 UV-I 346 W/m² 17,2 °C 24,7 °C 14,5 km/h (3 Bft)
26.08.2017 11:53 24,7 °C 24,8 °C 57 % 1015,2 hPa 0,0 mm 8,3 km/h (2 Bft) NW 304 ° 1 min 0,000 mm 3,7 UV-I 327 W/m² 15,6 °C 24,7 °C 12,9 km/h (3 Bft)
26.08.2017 11:54 24,8 °C 24,8 °C 56 % 1015,2 hPa 0,0 mm 7,2 km/h (2 Bft) W-NW 302 ° 1 min 0,000 mm 3,5 UV-I 334 W/m² 15,4 °C 24,8 °C 12,9 km/h (3 Bft)
26.08.2017 11:55 24,8 °C 24,8 °C 57 % 1015,3 hPa 0,0 mm 7,6 km/h (2 Bft) W-NW 297 ° 1 min 0,000 mm 3,7 UV-I 316 W/m² 15,7 °C 24,8 °C 14,5 km/h (3 Bft)
26.08.2017 11:56 24,8 °C 24,8 °C 56 % 1015,2 hPa 0,0 mm 8,2 km/h (2 Bft) W-NW 291 ° 0 min 0,000 mm 3,1 UV-I 281 W/m² 15,4 °C 24,8 °C 12,9 km/h (3 Bft)
26.08.2017 11:57 24,8 °C 24,8 °C 57 % 1015,2 hPa 0,0 mm 4,9 km/h (1 Bft) W-SW 255 ° 1 min 0,000 mm 3,3 UV-I 346 W/m² 15,7 °C 24,8 °C 8,0 km/h (2 Bft)
26.08.2017 11:58 24,7 °C 24,8 °C 57 % 1015,2 hPa 0,0 mm 4,0 km/h (1 Bft) W-NW 297 ° 1 min 0,000 mm 3,2 UV-I 311 W/m² 15,6 °C 24,7 °C 6,4 km/h (2 Bft)
26.08.2017 11:59 24,6 °C 24,7 °C 59 % 1015,2 hPa 0,0 mm 3,2 km/h (1 Bft) W-SW 248 ° 0 min 0,000 mm 3,1 UV-I 288 W/m² 16,0 °C 24,6 °C 6,4 km/h (2 Bft)
26.08.2017 12:00 24,6 °C 24,6 °C 58 % 1015,2 hPa 0,0 mm 5,4 km/h (1 Bft) W 271 ° 1 min 0,330 mm 3,4 UV-I 367 W/m² 15,8 °C 24,6 °C 11,3 km/h (2 Bft)
26.08.2017 12:01 24,5 °C 24,6 °C 62 % 1015,2 hPa 0,0 mm 3,6 km/h (1 Bft) W 267 ° 1 min 0,000 mm 3,8 UV-I 422 W/m² 16,7 °C 24,5 °C 6,4 km/h (2 Bft)
26.08.2017 12:02 24,4 °C 24,5 °C 67 % 1015,2 hPa 0,0 mm 2,0 km/h (1 Bft) W 267 ° 1 min 0,000 mm 4,6 UV-I 482 W/m² 17,9 °C 24,4 °C 4,8 km/h (1 Bft)
26.08.2017 12:03 24,4 °C 24,4 °C 65 % 1015,2 hPa 0,0 mm 3,9 km/h (1 Bft) SW 234 ° 1 min 0,000 mm 5,5 UV-I 482 W/m² 17,4 °C 24,4 °C 8,0 km/h (2 Bft)
26.08.2017 12:04 24,6 °C 24,6 °C 61 % 1015,3 hPa 0,0 mm 7,4 km/h (2 Bft) W-NW 298 ° 1 min 0,000 mm 5,5 UV-I 809 W/m² 16,6 °C 24,6 °C 14,5 km/h (3 Bft)
26.08.2017 12:05 24,8 °C 24,8 °C 59 % 1015,2 hPa 0,0 mm 6,2 km/h (2 Bft) SW 229 ° 1 min 0,000 mm 5,5 UV-I 742 W/m² 16,2 °C 24,8 °C 12,9 km/h (3 Bft)
26.08.2017 12:06 25,1 °C 25,1 °C 57 % 1015,2 hPa 0,0 mm 9,7 km/h (2 Bft) W 265 ° 1 min 0,000 mm 5,0 UV-I 742 W/m² 16,0 °C 25,1 °C 14,5 km/h (3 Bft)
26.08.2017 12:07 25,2 °C 25,2 °C 56 % 1015,2 hPa 0,0 mm 8,8 km/h (2 Bft) W-SW 248 ° 1 min 0,000 mm 4,7 UV-I 570 W/m² 15,8 °C 25,2 °C 14,5 km/h (3 Bft)
26.08.2017 12:08 25,2 °C 25,2 °C 58 % 1015,2 hPa 0,0 mm 3,8 km/h (1 Bft) W 269 ° 1 min 0,000 mm 3,9 UV-I 439 W/m² 16,3 °C 25,2 °C 4,8 km/h (1 Bft)
26.08.2017 12:09 25,2 °C 25,3 °C 60 % 1015,2 hPa 0,0 mm 4,5 km/h (1 Bft) W 265 ° 1 min 0,000 mm 3,9 UV-I 394 W/m² 16,9 °C 25,2 °C 9,7 km/h (2 Bft)
26.08.2017 12:10 25,1 °C 25,2 °C 57 % 1015,1 hPa 0,0 mm 0,5 km/h (0 Bft) W 266 ° 1 min 0,000 mm 3,9 UV-I 455 W/m² 16,0 °C 25,1 °C 3,2 km/h (1 Bft)
26.08.2017 12:11 25,1 °C 25,1 °C 59 % 1015,1 hPa 0,0 mm 2,8 km/h (1 Bft) W-SW 241 ° 1 min 0,000 mm 4,4 UV-I 452 W/m² 16,5 °C 25,1 °C 6,4 km/h (2 Bft)
26.08.2017 12:12 25,1 °C 25,1 °C 55 % 1015,1 hPa 0,0 mm 6,1 km/h (2 Bft) W-SW 245 ° 1 min 0,000 mm 4,7 UV-I 568 W/m² 15,4 °C 25,1 °C 11,3 km/h (2 Bft)
26.08.2017 12:13 25,2 °C 25,2 °C 56 % 1015,1 hPa 0,0 mm 5,5 km/h (1 Bft) NW 305 ° 1 min 0,000 mm 4,5 UV-I 594 W/m² 15,8 °C 25,2 °C 9,7 km/h (2 Bft)
26.08.2017 12:14 25,4 °C 25,4 °C 55 % 1015,1 hPa 0,0 mm 7,6 km/h (2 Bft) W-NW 292 ° 1 min 0,000 mm 4,9 UV-I 626 W/m² 15,7 °C 25,4 °C 11,3 km/h (2 Bft)
26.08.2017 12:15 25,5 °C 25,5 °C 59 % 1015,1 hPa 0,0 mm 4,6 km/h (1 Bft) W-SW 255 ° 1 min 0,000 mm 5,2 UV-I 659 W/m² 16,9 °C 25,5 °C 6,4 km/h (2 Bft)
26.08.2017 12:16 25,7 °C 25,7 °C 59 % 1015,0 hPa 0,0 mm 2,4 km/h (1 Bft) W-NW 284 ° 1 min 0,000 mm 5,4 UV-I 677 W/m² 17,1 °C 25,7 °C 4,8 km/h (1 Bft)
26.08.2017 12:17 25,8 °C 25,8 °C 61 % 1015,0 hPa 0,0 mm 1,8 km/h (1 Bft) W-NW 284 ° 1 min 0,000 mm 5,3 UV-I 715 W/m² 17,7 °C 25,8 °C 3,2 km/h (1 Bft)
26.08.2017 12:18 25,8 °C 25,8 °C 61 % 1015,0 hPa 0,0 mm 5,2 km/h (1 Bft) NW 317 ° 1 min 0,000 mm 5,5 UV-I 742 W/m² 17,7 °C 25,8 °C 11,3 km/h (2 Bft)
26.08.2017 12:19 25,9 °C 25,9 °C 57 % 1015,0 hPa 0,0 mm 5,4 km/h (1 Bft) W-NW 296 ° 1 min 0,000 mm 5,3 UV-I 758 W/m² 16,7 °C 25,9 °C 6,4 km/h (2 Bft)
26.08.2017 12:20 26,0 °C 26,0 °C 58 % 1015,0 hPa 0,0 mm 4,2 km/h (1 Bft) NW 317 ° 1 min 0,000 mm 4,6 UV-I 758 W/m² 17,1 °C 26,0 °C 6,4 km/h (2 Bft)
26.08.2017 12:21 26,1 °C 26,1 °C 55 % 1015,0 hPa 0,0 mm 8,7 km/h (2 Bft) W-NW 296 ° 1 min 0,000 mm 4,8 UV-I 758 W/m² 16,3 °C 26,1 °C 12,9 km/h (3 Bft)
26.08.2017 12:22 26,1 °C 26,1 °C 54 % 1015,0 hPa 0,0 mm 9,5 km/h (2 Bft) NW 306 ° 1 min 0,000 mm 4,9 UV-I 677 W/m² 16,0 °C 26,1 °C 16,1 km/h (3 Bft)
26.08.2017 12:23 26,1 °C 26,1 °C 53 % 1014,9 hPa 0,0 mm 10,6 km/h (2 Bft) W-NW 286 ° 1 min 0,000 mm 4,6 UV-I 677 W/m² 15,8 °C 26,1 °C 17,7 km/h (3 Bft)
26.08.2017 12:24 26,1 °C 26,1 °C 53 % 1014,9 hPa 0,0 mm 11,6 km/h (2 Bft) W-NW 295 ° 1 min 0,000 mm 5,6 UV-I 677 W/m² 15,8 °C 26,1 °C 17,7 km/h (3 Bft)
26.08.2017 12:25 26,1 °C 26,1 °C 54 % 1014,9 hPa 0,0 mm 9,4 km/h (2 Bft) W-NW 283 ° 1 min 0,000 mm 5,4 UV-I 696 W/m² 16,0 °C 26,1 °C 14,5 km/h (3 Bft)
26.08.2017 12:26 26,0 °C 26,1 °C 56 % 1014,9 hPa 0,0 mm 3,8 km/h (1 Bft) W 271 ° 1 min 0,000 mm 5,3 UV-I 686 W/m² 16,5 °C 26,0 °C 6,4 km/h (2 Bft)
26.08.2017 12:27 26,1 °C 26,1 °C 55 % 1015,0 hPa 0,0 mm 1,7 km/h (1 Bft) W-NW 294 ° 1 min 0,000 mm 5,3 UV-I 687 W/m² 16,3 °C 26,1 °C 4,8 km/h (1 Bft)
26.08.2017 12:28 26,1 °C 26,1 °C 59 % 1014,9 hPa 0,0 mm 3,0 km/h (1 Bft) W-NW 294 ° 1 min 0,000 mm 5,3 UV-I 687 W/m² 17,4 °C 26,1 °C 4,8 km/h (1 Bft)
26.08.2017 12:29 26,2 °C 26,2 °C 52 % 1015,0 hPa 0,0 mm 4,2 km/h (1 Bft) W-NW 299 ° 1 min 0,000 mm 5,3 UV-I 642 W/m² 15,6 °C 26,2 °C 8,0 km/h (2 Bft)
26.08.2017 12:30 26,2 °C 26,2 °C 53 % 1014,9 hPa 0,0 mm 6,6 km/h (2 Bft) W-NW 291 ° 1 min 0,000 mm 5,6 UV-I 694 W/m² 15,8 °C 26,2 °C 12,9 km/h (3 Bft)
26.08.2017 12:31 26,2 °C 26,2 °C 55 % 1014,9 hPa 0,0 mm 3,2 km/h (1 Bft) W-NW 284 ° 1 min 0,000 mm 3,4 UV-I 694 W/m² 16,4 °C 26,2 °C 6,4 km/h (2 Bft)
26.08.2017 12:32 26,2 °C 26,2 °C 53 % 1014,9 hPa 0,0 mm 3,1 km/h (1 Bft) W-NW 299 ° 1 min 0,000 mm 3,5 UV-I 297 W/m² 15,8 °C 26,2 °C 4,8 km/h (1 Bft)
26.08.2017 12:33 26,1 °C 26,2 °C 56 % 1014,9 hPa 0,0 mm 5,1 km/h (1 Bft) W 265 ° 1 min 0,000 mm 4,7 UV-I 297 W/m² 16,6 °C 26,1 °C 9,7 km/h (2 Bft)
26.08.2017 12:34 25,9 °C 26,1 °C 56 % 1014,9 hPa 0,0 mm 5,3 km/h (1 Bft) W-NW 294 ° 1 min 0,000 mm 5,5 UV-I 297 W/m² 16,4 °C 25,9 °C 9,7 km/h (2 Bft)
26.08.2017 12:35 25,9 °C 25,9 °C 58 % 1014,9 hPa 0,0 mm 3,3 km/h (1 Bft) W-NW 292 ° 1 min 0,000 mm 4,7 UV-I 297 W/m² 17,0 °C 25,9 °C 6,4 km/h (2 Bft)
26.08.2017 12:36 25,9 °C 25,9 °C 57 % 1014,8 hPa 0,0 mm 0,5 km/h (0 Bft) W-NW 292 ° 1 min 0,000 mm 4,7 UV-I 540 W/m² 16,7 °C 25,9 °C 1,6 km/h (1 Bft)
26.08.2017 12:37 25,8 °C 25,9 °C 57 % 1014,8 hPa 0,0 mm 0,6 km/h (0 Bft) W 265 ° 1 min 0,000 mm 4,2 UV-I 540 W/m² 16,6 °C 25,8 °C 1,6 km/h (1 Bft)
26.08.2017 12:39 25,9 °C 25,9 °C 55 % 1014,8 hPa 0,0 mm 2,1 km/h (1 Bft) W-NW 300 ° 2 min 0,000 mm 2,2 UV-I 540 W/m² 16,2 °C 25,9 °C 6,4 km/h (2 Bft)
26.08.2017 12:40 26,0 °C 26,0 °C 53 % 1014,8 hPa 0,0 mm 1,5 km/h (1 Bft) W-NW 300 ° 1 min 0,000 mm 4,2 UV-I 448 W/m² 15,7 °C 26,0 °C 1,6 km/h (1 Bft)
26.08.2017 12:41 26,0 °C 26,0 °C 54 % 1014,8 hPa 0,0 mm 0,8 km/h (0 Bft) W-NW 300 ° 1 min 0,000 mm 4,2 UV-I 548 W/m² 16,0 °C 26,0 °C 1,6 km/h (1 Bft)
26.08.2017 12:42 26,1 °C 26,1 °C 55 % 1014,7 hPa 0,0 mm 3,8 km/h (1 Bft) W-NW 289 ° 1 min 0,000 mm 5,4 UV-I 548 W/m² 16,3 °C 26,1 °C 6,4 km/h (2 Bft)
26.08.2017 12:43 26,1 °C 26,1 °C 62 % 1014,8 hPa 0,0 mm 3,7 km/h (1 Bft) W-NW 289 ° 1 min 0,000 mm 5,7 UV-I 548 W/m² 18,2 °C 26,1 °C 6,4 km/h (2 Bft)
26.08.2017 12:44 26,2 °C 26,2 °C 54 % 1014,7 hPa 0,0 mm 2,1 km/h (1 Bft) NW 317 ° 1 min 0,000 mm 3,5 UV-I 548 W/m² 16,1 °C 26,2 °C 4,8 km/h (1 Bft)
26.08.2017 12:45 26,3 °C 26,3 °C 58 % 1014,7 hPa 0,0 mm 1,9 km/h (1 Bft) NW 317 ° 1 min 0,000 mm 5,8 UV-I 548 W/m² 17,4 °C 26,3 °C 3,2 km/h (1 Bft)
26.08.2017 12:46 26,2 °C 26,3 °C 61 % 1014,7 hPa 0,0 mm 1,4 km/h (1 Bft) W-NW 285 ° 1 min 0,000 mm 5,7 UV-I 548 W/m² 18,1 °C 26,2 °C 3,2 km/h (1 Bft)
26.08.2017 12:47 26,3 °C 26,4 °C 58 % 1014,7 hPa 0,0 mm 4,0 km/h (1 Bft) NW 320 ° 1 min 0,000 mm 5,0 UV-I 548 W/m² 17,4 °C 26,3 °C 8,0 km/h (2 Bft)
26.08.2017 12:48 26,4 °C 26,4 °C 54 % 1014,7 hPa 0,0 mm 3,8 km/h (1 Bft) W-SW 252 ° 1 min 0,000 mm 4,7 UV-I 591 W/m² 16,3 °C 26,4 °C 6,4 km/h (2 Bft)
26.08.2017 12:49 26,4 °C 26,4 °C 59 % 1014,7 hPa 0,0 mm 2,5 km/h (1 Bft) W-SW 252 ° 1 min 0,000 mm 4,0 UV-I 591 W/m² 17,7 °C 26,4 °C 4,8 km/h (1 Bft)
26.08.2017 12:50 26,3 °C 26,4 °C 60 % 1014,7 hPa 0,0 mm 1,9 km/h (1 Bft) W-SW 252 ° 1 min 0,000 mm 5,7 UV-I 343 W/m² 17,9 °C 26,3 °C 4,8 km/h (1 Bft)
26.08.2017 12:51 26,2 °C 26,3 °C 55 % 1014,7 hPa 0,0 mm 6,1 km/h (2 Bft) W 265 ° 1 min 0,000 mm 4,2 UV-I 343 W/m² 16,4 °C 26,2 °C 9,7 km/h (2 Bft)
26.08.2017 12:52 26,2 °C 26,2 °C 59 % 1014,7 hPa 0,0 mm 6,2 km/h (2 Bft) W-SW 248 ° 1 min 0,000 mm 5,3 UV-I 705 W/m² 17,5 °C 26,2 °C 9,7 km/h (2 Bft)
26.08.2017 12:53 26,2 °C 26,2 °C 57 % 1014,7 hPa 0,0 mm 8,0 km/h (2 Bft) W-SW 254 ° 1 min 0,000 mm 5,1 UV-I 705 W/m² 17,0 °C 26,2 °C 12,9 km/h (3 Bft)
26.08.2017 12:54 26,2 °C 26,2 °C 55 % 1014,6 hPa 0,0 mm 6,2 km/h (2 Bft) W 279 ° 1 min 0,000 mm 6,0 UV-I 809 W/m² 16,4 °C 26,2 °C 11,3 km/h (2 Bft)
26.08.2017 12:55 26,2 °C 26,2 °C 59 % 1014,7 hPa 0,0 mm 3,8 km/h (1 Bft) W-NW 292 ° 1 min 0,000 mm 5,9 UV-I 796 W/m² 17,5 °C 26,2 °C 4,8 km/h (1 Bft)
26.08.2017 12:56 26,1 °C 26,2 °C 53 % 1014,6 hPa 0,0 mm 3,3 km/h (1 Bft) NW 307 ° 1 min 0,000 mm 5,9 UV-I 795 W/m² 15,8 °C 26,1 °C 4,8 km/h (1 Bft)
26.08.2017 12:57 26,2 °C 26,2 °C 55 % 1014,6 hPa 0,0 mm 2,9 km/h (1 Bft) NW 315 ° 1 min 0,000 mm 5,9 UV-I 789 W/m² 16,4 °C 26,2 °C 4,8 km/h (1 Bft)
26.08.2017 12:58 26,3 °C 26,3 °C 52 % 1014,6 hPa 0,0 mm 0,7 km/h (0 Bft) NW 315 ° 1 min 0,000 mm 5,9 UV-I 786 W/m² 15,6 °C 26,3 °C 1,6 km/h (1 Bft)
26.08.2017 12:59 26,4 °C 26,4 °C 54 % 1014,6 hPa 0,0 mm 1,4 km/h (1 Bft) NW 315 ° 1 min 0,000 mm 5,9 UV-I 698 W/m² 16,3 °C 26,4 °C 3,2 km/h (1 Bft)
26.08.2017 13:00 26,4 °C 26,5 °C 56 % 1014,6 hPa 0,0 mm 3,0 km/h (1 Bft) NW 314 ° 1 min 0,000 mm 5,6 UV-I 784 W/m² 16,9 °C 26,4 °C 3,2 km/h (1 Bft)
26.08.2017 13:01 26,6 °C 26,6 °C 57 % 1014,6 hPa 0,0 mm 3,8 km/h (1 Bft) W-SW 244 ° 1 min 0,432 mm 5,8 UV-I 796 W/m² 17,4 °C 26,6 °C 8,0 km/h (2 Bft)
26.08.2017 13:02 26,6 °C 26,6 °C 53 % 1014,6 hPa 0,0 mm 8,7 km/h (2 Bft) W-NW 288 ° 1 min 0,000 mm 5,9 UV-I 782 W/m² 16,2 °C 26,6 °C 11,3 km/h (2 Bft)
26.08.2017 13:03 26,6 °C 26,6 °C 54 % 1014,6 hPa 0,0 mm 5,1 km/h (1 Bft) N-NW 346 ° 1 min 0,000 mm 5,4 UV-I 812 W/m² 16,5 °C 26,6 °C 11,3 km/h (2 Bft)
26.08.2017 13:04 26,6 °C 26,7 °C 54 % 1014,6 hPa 0,0 mm 4,1 km/h (1 Bft) N-NW 327 ° 1 min 0,000 mm 5,8 UV-I 715 W/m² 16,5 °C 26,6 °C 6,4 km/h (2 Bft)
26.08.2017 13:05 26,7 °C 26,7 °C 55 % 1014,5 hPa 0,0 mm 4,8 km/h (1 Bft) W-NW 294 ° 1 min 0,000 mm 5,5 UV-I 715 W/m² 16,9 °C 26,7 °C 6,4 km/h (2 Bft)
26.08.2017 13:06 26,7 °C 26,7 °C 55 % 1014,6 hPa 0,0 mm 3,4 km/h (1 Bft) NW 325 ° 1 min 0,000 mm 4,1 UV-I 715 W/m² 16,9 °C 26,7 °C 6,4 km/h (2 Bft)
26.08.2017 13:07 26,7 °C 26,8 °C 51 % 1014,6 hPa 0,0 mm 3,1 km/h (1 Bft) W-NW 290 ° 1 min 0,000 mm 4,6 UV-I 715 W/m² 15,7 °C 26,7 °C 6,4 km/h (2 Bft)
26.08.2017 13:08 26,6 °C 26,7 °C 52 % 1014,5 hPa 0,0 mm 3,7 km/h (1 Bft) W-NW 302 ° 1 min 0,000 mm 1,9 UV-I 715 W/m² 15,9 °C 26,6 °C 4,8 km/h (1 Bft)
26.08.2017 13:09 26,5 °C 26,6 °C 51 % 1014,5 hPa 0,0 mm 3,6 km/h (1 Bft) W-NW 302 ° 1 min 0,000 mm 3,7 UV-I 399 W/m² 15,5 °C 26,5 °C 4,8 km/h (1 Bft)
26.08.2017 13:10 26,3 °C 26,5 °C 51 % 1014,5 hPa 0,0 mm 3,7 km/h (1 Bft) W-NW 284 ° 1 min 0,000 mm 5,5 UV-I 367 W/m² 15,3 °C 26,3 °C 6,4 km/h (2 Bft)
26.08.2017 13:11 26,2 °C 26,3 °C 54 % 1014,5 hPa 0,0 mm 4,1 km/h (1 Bft) W 278 ° 1 min 0,000 mm 4,8 UV-I 550 W/m² 16,1 °C 26,2 °C 6,4 km/h (2 Bft)
26.08.2017 13:12 26,2 °C 26,2 °C 52 % 1014,5 hPa 0,0 mm 2,0 km/h (1 Bft) W 278 ° 1 min 0,000 mm 5,9 UV-I 550 W/m² 15,6 °C 26,2 °C 4,8 km/h (1 Bft)
26.08.2017 13:14 26,4 °C 26,4 °C 53 % 1014,5 hPa 0,0 mm 2,2 km/h (1 Bft) W-SW 251 ° 2 min 0,000 mm 5,3 UV-I 798 W/m² 16,0 °C 26,4 °C 6,4 km/h (2 Bft)
26.08.2017 13:15 26,4 °C 26,4 °C 51 % 1014,5 hPa 0,0 mm 2,6 km/h (1 Bft) W-SW 256 ° 1 min 0,000 mm 6,0 UV-I 814 W/m² 15,4 °C 26,4 °C 4,8 km/h (1 Bft)
26.08.2017 13:16 26,5 °C 26,5 °C 52 % 1014,5 hPa 0,0 mm 4,8 km/h (1 Bft) W-NW 284 ° 1 min 0,000 mm 6,0 UV-I 749 W/m² 15,8 °C 26,5 °C 6,4 km/h (2 Bft)
26.08.2017 13:17 26,5 °C 26,5 °C 50 % 1014,5 hPa 0,0 mm 3,9 km/h (1 Bft) W-NW 286 ° 1 min 0,000 mm 6,2 UV-I 779 W/m² 15,2 °C 26,5 °C 4,8 km/h (1 Bft)
26.08.2017 13:18 26,6 °C 26,6 °C 54 % 1014,5 hPa 0,0 mm 3,1 km/h (1 Bft) NW 321 ° 1 min 0,000 mm 5,6 UV-I 779 W/m² 16,5 °C 26,6 °C 4,8 km/h (1 Bft)
26.08.2017 13:19 26,7 °C 26,7 °C 51 % 1014,5 hPa 0,0 mm 2,8 km/h (1 Bft) NW 304 ° 1 min 0,000 mm 5,0 UV-I 615 W/m² 15,7 °C 26,7 °C 4,8 km/h (1 Bft)
26.08.2017 13:20 26,7 °C 26,7 °C 52 % 1014,5 hPa 0,0 mm 3,4 km/h (1 Bft) W-NW 294 ° 1 min 0,000 mm 4,9 UV-I 536 W/m² 16,0 °C 26,7 °C 4,8 km/h (1 Bft)
26.08.2017 13:21 26,7 °C 26,7 °C 52 % 1014,5 hPa 0,0 mm 2,0 km/h (1 Bft) W-NW 294 ° 1 min 0,000 mm 5,1 UV-I 527 W/m² 16,0 °C 26,7 °C 3,2 km/h (1 Bft)
26.08.2017 13:22 26,7 °C 26,7 °C 52 % 1014,4 hPa 0,0 mm 3,2 km/h (1 Bft) W-NW 287 ° 1 min 0,000 mm 4,9 UV-I 527 W/m² 16,0 °C 26,7 °C 4,8 km/h (1 Bft)
26.08.2017 13:23 26,6 °C 26,7 °C 54 % 1014,4 hPa 0,0 mm 4,5 km/h (1 Bft) W 261 ° 1 min 0,000 mm 5,0 UV-I 605 W/m² 16,5 °C 26,6 °C 9,7 km/h (2 Bft)
26.08.2017 13:24 26,6 °C 26,6 °C 52 % 1014,5 hPa 0,0 mm 4,5 km/h (1 Bft) W-SW 239 ° 1 min 0,000 mm 5,5 UV-I 809 W/m² 15,9 °C 26,6 °C 6,4 km/h (2 Bft)
26.08.2017 13:25 26,6 °C 26,6 °C 55 % 1014,4 hPa 0,0 mm 4,1 km/h (1 Bft) W-NW 298 ° 1 min 0,000 mm 6,0 UV-I 831 W/m² 16,8 °C 26,6 °C 6,4 km/h (2 Bft)
26.08.2017 13:26 26,7 °C 26,7 °C 50 % 1014,4 hPa 0,0 mm 3,8 km/h (1 Bft) W 271 ° 1 min 0,000 mm 6,0 UV-I 826 W/m² 15,4 °C 26,7 °C 4,8 km/h (1 Bft)
26.08.2017 13:27 26,8 °C 26,8 °C 53 % 1014,4 hPa 0,0 mm 3,9 km/h (1 Bft) W-SW 256 ° 1 min 0,000 mm 5,5 UV-I 751 W/m² 16,4 °C 26,8 °C 6,4 km/h (2 Bft)
26.08.2017 13:28 26,8 °C 26,8 °C 53 % 1014,4 hPa 0,0 mm 5,3 km/h (1 Bft) W-SW 244 ° 1 min 0,000 mm 4,3 UV-I 751 W/m² 16,4 °C 26,8 °C 6,4 km/h (2 Bft)
26.08.2017 13:29 26,7 °C 26,8 °C 57 % 1014,4 hPa 0,0 mm 6,0 km/h (2 Bft) W-SW 252 ° 1 min 0,000 mm 4,9 UV-I 418 W/m² 17,5 °C 26,7 °C 8,0 km/h (2 Bft)
26.08.2017 13:30 26,7 °C 26,7 °C 55 % 1014,5 hPa 0,0 mm 4,5 km/h (1 Bft) W-NW 296 ° 1 min 0,000 mm 4,1 UV-I 448 W/m² 16,9 °C 26,7 °C 11,3 km/h (2 Bft)
26.08.2017 13:31 26,5 °C 26,7 °C 50 % 1014,5 hPa 0,0 mm 2,9 km/h (1 Bft) W-NW 291 ° 1 min 0,000 mm 5,0 UV-I 448 W/m² 15,2 °C 26,5 °C 4,8 km/h (1 Bft)
26.08.2017 13:32 26,5 °C 26,5 °C 49 % 1014,5 hPa 0,0 mm 1,0 km/h (0 Bft) W-NW 291 ° 1 min 0,000 mm 5,6 UV-I 520 W/m² 14,9 °C 26,5 °C 3,2 km/h (1 Bft)
26.08.2017 13:33 26,5 °C 26,6 °C 59 % 1014,4 hPa 0,0 mm 4,2 km/h (1 Bft) W-SW 252 ° 1 min 0,000 mm 5,7 UV-I 520 W/m² 17,8 °C 26,5 °C 6,4 km/h (2 Bft)
26.08.2017 13:34 26,6 °C 26,6 °C 54 % 1014,4 hPa 0,0 mm 4,4 km/h (1 Bft) W-SW 252 ° 1 min 0,000 mm 5,3 UV-I 585 W/m² 16,5 °C 26,6 °C 6,4 km/h (2 Bft)
26.08.2017 13:35 26,5 °C 26,6 °C 50 % 1014,4 hPa 0,0 mm 0,5 km/h (0 Bft) W-SW 252 ° 1 min 0,000 mm 5,4 UV-I 585 W/m² 15,2 °C 26,5 °C 1,6 km/h (1 Bft)
26.08.2017 13:36 26,6 °C 26,6 °C 51 % 1014,4 hPa 0,0 mm 3,1 km/h (1 Bft) NW 321 ° 1 min 0,000 mm 5,0 UV-I 585 W/m² 15,6 °C 26,6 °C 4,8 km/h (1 Bft)
26.08.2017 13:37 26,7 °C 26,7 °C 52 % 1014,4 hPa 0,0 mm 4,5 km/h (1 Bft) NW 304 ° 1 min 0,000 mm 5,7 UV-I 585 W/m² 16,0 °C 26,7 °C 6,4 km/h (2 Bft)
26.08.2017 13:38 26,8 °C 26,8 °C 50 % 1014,4 hPa 0,0 mm 3,0 km/h (1 Bft) NW 304 ° 1 min 0,000 mm 5,7 UV-I 772 W/m² 15,5 °C 26,8 °C 4,8 km/h (1 Bft)
26.08.2017 13:39 26,8 °C 26,9 °C 52 % 1014,4 hPa 0,0 mm 0,7 km/h (0 Bft) W-NW 302 ° 1 min 0,000 mm 4,9 UV-I 772 W/m² 16,1 °C 26,8 °C 1,6 km/h (1 Bft)
26.08.2017 13:40 26,8 °C 26,9 °C 56 % 1014,4 hPa 0,0 mm 3,8 km/h (1 Bft) W-NW 284 ° 1 min 0,000 mm 3,9 UV-I 388 W/m² 17,3 °C 26,8 °C 4,8 km/h (1 Bft)
26.08.2017 13:41 26,8 °C 26,8 °C 54 % 1014,5 hPa 0,0 mm 4,2 km/h (1 Bft) W-NW 298 ° 1 min 0,000 mm 4,8 UV-I 388 W/m² 16,7 °C 26,8 °C 4,8 km/h (1 Bft)
26.08.2017 13:42 26,7 °C 26,8 °C 54 % 1014,5 hPa 0,0 mm 5,0 km/h (1 Bft) W-NW 296 ° 1 min 0,000 mm 4,4 UV-I 388 W/m² 16,6 °C 26,7 °C 8,0 km/h (2 Bft)
26.08.2017 13:44 26,6 °C 26,7 °C 51 % 1014,5 hPa 0,0 mm 5,6 km/h (1 Bft) NW 309 ° 2 min 0,000 mm 2,9 UV-I 754 W/m² 15,6 °C 26,6 °C 9,7 km/h (2 Bft)
26.08.2017 13:45 26,7 °C 26,7 °C 52 % 1014,5 hPa 0,0 mm 3,8 km/h (1 Bft) N-NW 340 ° 1 min 0,000 mm 5,6 UV-I 749 W/m² 16,0 °C 26,7 °C 6,4 km/h (2 Bft)
26.08.2017 13:46 26,8 °C 26,8 °C 52 % 1014,5 hPa 0,0 mm 4,2 km/h (1 Bft) N 355 ° 1 min 0,000 mm 5,6 UV-I 749 W/m² 16,1 °C 26,8 °C 6,4 km/h (2 Bft)
26.08.2017 13:47 26,8 °C 26,8 °C 50 % 1014,5 hPa 0,0 mm 3,2 km/h (1 Bft) NW 308 ° 1 min 0,000 mm 5,6 UV-I 733 W/m² 15,5 °C 26,8 °C 6,4 km/h (2 Bft)
26.08.2017 13:48 26,9 °C 26,9 °C 57 % 1014,5 hPa 0,0 mm 2,1 km/h (1 Bft) NW 313 ° 1 min 0,000 mm 5,6 UV-I 735 W/m² 17,6 °C 26,9 °C 3,2 km/h (1 Bft)
26.08.2017 13:49 26,9 °C 26,9 °C 51 % 1014,4 hPa 0,0 mm 4,5 km/h (1 Bft) W-SW 258 ° 1 min 0,000 mm 5,6 UV-I 733 W/m² 15,9 °C 26,9 °C 12,9 km/h (3 Bft)
26.08.2017 13:50 26,9 °C 26,9 °C 52 % 1014,4 hPa 0,0 mm 8,3 km/h (2 Bft) W-SW 257 ° 1 min 0,000 mm 5,5 UV-I 724 W/m² 16,2 °C 26,9 °C 12,9 km/h (3 Bft)
26.08.2017 13:51 26,8 °C 26,9 °C 51 % 1014,4 hPa 0,0 mm 9,0 km/h (2 Bft) W-SW 256 ° 1 min 0,000 mm 5,6 UV-I 737 W/m² 15,8 °C 26,8 °C 12,9 km/h (3 Bft)
26.08.2017 13:52 26,8 °C 26,8 °C 56 % 1014,4 hPa 0,0 mm 6,8 km/h (2 Bft) W-NW 301 ° 1 min 0,000 mm 5,6 UV-I 737 W/m² 17,3 °C 26,8 °C 11,3 km/h (2 Bft)
26.08.2017 13:53 26,8 °C 26,8 °C 50 % 1014,4 hPa 0,0 mm 4,1 km/h (1 Bft) W-NW 282 ° 1 min 0,000 mm 5,5 UV-I 726 W/m² 15,5 °C 26,8 °C 6,4 km/h (2 Bft)
26.08.2017 13:54 26,8 °C 26,8 °C 52 % 1014,4 hPa 0,0 mm 5,5 km/h (1 Bft) W-NW 293 ° 1 min 0,000 mm 5,5 UV-I 747 W/m² 16,1 °C 26,8 °C 8,0 km/h (2 Bft)
26.08.2017 13:55 26,7 °C 26,8 °C 53 % 1014,4 hPa 0,0 mm 3,6 km/h (1 Bft) NW 316 ° 1 min 0,000 mm 5,6 UV-I 717 W/m² 16,3 °C 26,7 °C 6,4 km/h (2 Bft)
26.08.2017 13:56 26,8 °C 26,8 °C 53 % 1014,5 hPa 0,0 mm 2,1 km/h (1 Bft) W-NW 299 ° 1 min 0,000 mm 5,6 UV-I 758 W/m² 16,4 °C 26,8 °C 4,8 km/h (1 Bft)
26.08.2017 13:57 26,8 °C 26,8 °C 53 % 1014,4 hPa 0,0 mm 1,7 km/h (1 Bft) W-NW 299 ° 1 min 0,000 mm 5,6 UV-I 763 W/m² 16,4 °C 26,8 °C 4,8 km/h (1 Bft)
26.08.2017 13:58 26,9 °C 26,9 °C 51 % 1014,4 hPa 0,0 mm 0,3 km/h (0 Bft) W-NW 299 ° 1 min 0,000 mm 5,6 UV-I 737 W/m² 15,9 °C 26,9 °C 1,6 km/h (1 Bft)
26.08.2017 13:59 26,9 °C 26,9 °C 51 % 1014,4 hPa 0,0 mm 2,6 km/h (1 Bft) W-NW 299 ° 1 min 0,000 mm 5,0 UV-I 737 W/m² 15,9 °C 26,9 °C 4,8 km/h (1 Bft)
26.08.2017 14:00 26,9 °C 26,9 °C 56 % 1014,4 hPa 0,0 mm 4,2 km/h (1 Bft) W-NW 300 ° 1 min 0,432 mm 5,2 UV-I 737 W/m² 17,4 °C 26,9 °C 6,4 km/h (2 Bft)
26.08.2017 14:01 26,9 °C 26,9 °C 52 % 1014,4 hPa 0,0 mm 3,8 km/h (1 Bft) N-NW 336 ° 1 min 0,000 mm 4,1 UV-I 737 W/m² 16,2 °C 26,9 °C 6,4 km/h (2 Bft)
26.08.2017 14:02 26,9 °C 26,9 °C 53 % 1014,4 hPa 0,0 mm 4,8 km/h (1 Bft) N-NW 331 ° 1 min 0,000 mm 5,5 UV-I 708 W/m² 16,5 °C 26,9 °C 8,0 km/h (2 Bft)
26.08.2017 14:03 26,9 °C 26,9 °C 52 % 1014,4 hPa 0,0 mm 5,7 km/h (1 Bft) NW 323 ° 1 min 0,000 mm 5,5 UV-I 731 W/m² 16,2 °C 26,9 °C 9,7 km/h (2 Bft)
26.08.2017 14:04 26,9 °C 26,9 °C 50 % 1014,4 hPa 0,0 mm 4,8 km/h (1 Bft) W-NW 291 ° 1 min 0,000 mm 5,5 UV-I 728 W/m² 15,6 °C 26,9 °C 6,4 km/h (2 Bft)
26.08.2017 14:05 26,9 °C 26,9 °C 49 % 1014,4 hPa 0,0 mm 3,3 km/h (1 Bft) W-NW 291 ° 1 min 0,000 mm 5,5 UV-I 729 W/m² 15,3 °C 26,9 °C 4,8 km/h (1 Bft)
26.08.2017 14:06 26,9 °C 26,9 °C 49 % 1014,4 hPa 0,0 mm 3,2 km/h (1 Bft) NW 305 ° 1 min 0,000 mm 5,5 UV-I 731 W/m² 15,3 °C 26,9 °C 4,8 km/h (1 Bft)
26.08.2017 14:07 26,9 °C 26,9 °C 49 % 1014,4 hPa 0,0 mm 2,3 km/h (1 Bft) NW 305 ° 1 min 0,000 mm 5,5 UV-I 729 W/m² 15,3 °C 26,9 °C 3,2 km/h (1 Bft)
26.08.2017 14:08 26,9 °C 26,9 °C 50 % 1014,4 hPa 0,0 mm 1,2 km/h (1 Bft) NW 305 ° 1 min 0,000 mm 5,5 UV-I 729 W/m² 15,6 °C 26,9 °C 3,2 km/h (1 Bft)
26.08.2017 14:09 26,9 °C 26,9 °C 49 % 1014,3 hPa 0,0 mm 0,3 km/h (0 Bft) NW 305 ° 1 min 0,000 mm 5,5 UV-I 729 W/m² 15,3 °C 26,9 °C 1,6 km/h (1 Bft)
26.08.2017 14:10 26,9 °C 26,9 °C 53 % 1014,3 hPa 0,0 mm 0,0 km/h (0 Bft) NW 305 ° 1 min 0,000 mm 5,5 UV-I 738 W/m² 16,5 °C 26,9 °C 0,0 km/h (0 Bft)
26.08.2017 14:11 26,9 °C 26,9 °C 51 % 1014,4 hPa 0,0 mm 0,0 km/h (0 Bft) NW 305 ° 1 min 0,000 mm 5,5 UV-I 744 W/m² 15,9 °C 26,9 °C 0,0 km/h (0 Bft)
26.08.2017 14:12 26,9 °C 26,9 °C 58 % 1014,4 hPa 0,0 mm 1,3 km/h (1 Bft) W-NW 285 ° 1 min 0,000 mm 5,5 UV-I 744 W/m² 17,9 °C 26,9 °C 4,8 km/h (1 Bft)
26.08.2017 14:13 26,9 °C 26,9 °C 50 % 1014,4 hPa 0,0 mm 5,2 km/h (1 Bft) W-NW 284 ° 1 min 0,000 mm 5,6 UV-I 744 W/m² 15,6 °C 26,9 °C 8,0 km/h (2 Bft)
26.08.2017 14:14 26,9 °C 26,9 °C 49 % 1014,4 hPa 0,0 mm 3,4 km/h (1 Bft) NW 319 ° 1 min 0,000 mm 4,5 UV-I 744 W/m² 15,3 °C 26,9 °C 6,4 km/h (2 Bft)
26.08.2017 14:15 26,9 °C 26,9 °C 48 % 1014,4 hPa 0,0 mm 0,4 km/h (0 Bft) NW 319 ° 1 min 0,000 mm 5,4 UV-I 744 W/m² 14,9 °C 26,9 °C 1,6 km/h (1 Bft)
26.08.2017 14:16 27,0 °C 27,0 °C 59 % 1014,4 hPa 0,0 mm 2,4 km/h (1 Bft) NW 309 ° 1 min 0,000 mm 5,7 UV-I 817 W/m² 18,3 °C 27,0 °C 4,8 km/h (1 Bft)
26.08.2017 14:17 27,2 °C 27,2 °C 53 % 1014,3 hPa 0,0 mm 3,5 km/h (1 Bft) N-NW 332 ° 1 min 0,000 mm 3,7 UV-I 817 W/m² 16,8 °C 27,2 °C 6,4 km/h (2 Bft)
26.08.2017 14:18 27,2 °C 27,2 °C 51 % 1014,4 hPa 0,0 mm 1,6 km/h (1 Bft) N-NW 338 ° 1 min 0,000 mm 3,6 UV-I 817 W/m² 16,2 °C 27,2 °C 4,8 km/h (1 Bft)
26.08.2017 14:19 27,2 °C 27,2 °C 53 % 1014,3 hPa 0,0 mm 1,9 km/h (1 Bft) N-NW 338 ° 1 min 0,000 mm 5,2 UV-I 817 W/m² 16,8 °C 27,2 °C 4,8 km/h (1 Bft)
26.08.2017 14:20 27,1 °C 27,2 °C 49 % 1014,3 hPa 0,0 mm 5,0 km/h (1 Bft) NW 319 ° 1 min 0,000 mm 3,7 UV-I 696 W/m² 15,4 °C 27,1 °C 8,0 km/h (2 Bft)
26.08.2017 14:21 27,1 °C 27,1 °C 50 % 1014,3 hPa 0,0 mm 4,4 km/h (1 Bft) N-NW 344 ° 1 min 0,000 mm 3,8 UV-I 696 W/m² 15,8 °C 27,1 °C 6,4 km/h (2 Bft)
26.08.2017 14:22 27,1 °C 27,1 °C 52 % 1014,3 hPa 0,0 mm 2,1 km/h (1 Bft) N-NW 347 ° 1 min 0,000 mm 3,4 UV-I 338 W/m² 16,4 °C 27,1 °C 3,2 km/h (1 Bft)
26.08.2017 14:23 26,9 °C 27,1 °C 47 % 1014,3 hPa 0,0 mm 1,7 km/h (1 Bft) N-NW 347 ° 1 min 0,000 mm 3,4 UV-I 360 W/m² 14,6 °C 26,9 °C 4,8 km/h (1 Bft)
26.08.2017 14:24 26,9 °C 26,9 °C 52 % 1014,3 hPa 0,0 mm 3,9 km/h (1 Bft) N 360 ° 1 min 0,000 mm 3,2 UV-I 315 W/m² 16,2 °C 26,9 °C 4,8 km/h (1 Bft)
26.08.2017 14:25 26,9 °C 26,9 °C 48 % 1014,2 hPa 0,0 mm 1,1 km/h (1 Bft) N 360 ° 1 min 0,000 mm 3,6 UV-I 350 W/m² 14,9 °C 26,9 °C 3,2 km/h (1 Bft)
26.08.2017 14:26 26,8 °C 26,9 °C 53 % 1014,2 hPa 0,0 mm 3,0 km/h (1 Bft) O 94 ° 1 min 0,000 mm 5,0 UV-I 350 W/m² 16,4 °C 26,8 °C 4,8 km/h (1 Bft)
26.08.2017 14:27 26,7 °C 26,8 °C 48 % 1014,2 hPa 0,0 mm 0,3 km/h (0 Bft) O 94 ° 1 min 0,000 mm 3,4 UV-I 339 W/m² 14,8 °C 26,7 °C 1,6 km/h (1 Bft)
26.08.2017 14:28 26,7 °C 26,8 °C 51 % 1014,2 hPa 0,0 mm 3,6 km/h (1 Bft) W-NW 297 ° 1 min 0,000 mm 4,4 UV-I 339 W/m² 15,7 °C 26,7 °C 6,4 km/h (2 Bft)
26.08.2017 14:29 26,7 °C 26,7 °C 49 % 1014,2 hPa 0,0 mm 2,3 km/h (1 Bft) W-NW 292 ° 1 min 0,000 mm 3,7 UV-I 339 W/m² 15,1 °C 26,7 °C 6,4 km/h (2 Bft)
26.08.2017 14:30 26,6 °C 26,7 °C 51 % 1014,3 hPa 0,0 mm 3,4 km/h (1 Bft) W-NW 286 ° 1 min 0,000 mm 3,7 UV-I 401 W/m² 15,6 °C 26,6 °C 6,4 km/h (2 Bft)
26.08.2017 14:31 26,6 °C 26,6 °C 52 % 1014,2 hPa 0,0 mm 5,1 km/h (1 Bft) W 263 ° 1 min 0,000 mm 3,4 UV-I 355 W/m² 15,9 °C 26,6 °C 8,0 km/h (2 Bft)
26.08.2017 14:32 26,6 °C 26,6 °C 50 % 1014,2 hPa 0,0 mm 4,9 km/h (1 Bft) W 267 ° 1 min 0,000 mm 3,8 UV-I 355 W/m² 15,3 °C 26,6 °C 6,4 km/h (2 Bft)
26.08.2017 14:33 26,5 °C 26,6 °C 49 % 1014,2 hPa 0,0 mm 1,7 km/h (1 Bft) W 267 ° 1 min 0,000 mm 3,5 UV-I 425 W/m² 14,9 °C 26,5 °C 3,2 km/h (1 Bft)
26.08.2017 14:34 26,4 °C 26,5 °C 56 % 1014,2 hPa 0,0 mm 0,5 km/h (0 Bft) W 267 ° 1 min 0,000 mm 3,7 UV-I 404 W/m² 16,9 °C 26,4 °C 1,6 km/h (1 Bft)
26.08.2017 14:35 26,3 °C 26,4 °C 51 % 1014,1 hPa 0,0 mm 0,5 km/h (0 Bft) W 267 ° 1 min 0,000 mm 3,3 UV-I 339 W/m² 15,3 °C 26,3 °C 1,6 km/h (1 Bft)
26.08.2017 14:36 26,4 °C 26,4 °C 53 % 1014,1 hPa 0,0 mm 2,6 km/h (1 Bft) W-NW 294 ° 1 min 0,000 mm 4,0 UV-I 380 W/m² 16,0 °C 26,4 °C 4,8 km/h (1 Bft)
26.08.2017 14:37 26,3 °C 26,4 °C 56 % 1014,1 hPa 0,0 mm 1,3 km/h (1 Bft) W-NW 294 ° 1 min 0,000 mm 4,0 UV-I 445 W/m² 16,8 °C 26,3 °C 3,2 km/h (1 Bft)
26.08.2017 14:38 26,4 °C 26,4 °C 51 % 1014,1 hPa 0,0 mm 3,5 km/h (1 Bft) W 277 ° 1 min 0,000 mm 4,6 UV-I 445 W/m² 15,4 °C 26,4 °C 6,4 km/h (2 Bft)
26.08.2017 14:39 26,4 °C 26,4 °C 56 % 1014,1 hPa 0,0 mm 3,4 km/h (1 Bft) W 277 ° 1 min 0,000 mm 5,4 UV-I 782 W/m² 16,9 °C 26,4 °C 4,8 km/h (1 Bft)
26.08.2017 14:40 26,6 °C 26,6 °C 56 % 1014,1 hPa 0,0 mm 2,0 km/h (1 Bft) W 277 ° 1 min 0,000 mm 5,3 UV-I 659 W/m² 17,1 °C 26,6 °C 3,2 km/h (1 Bft)
26.08.2017 14:41 26,6 °C 26,6 °C 58 % 1014,1 hPa 0,0 mm 2,1 km/h (1 Bft) W 277 ° 1 min 0,000 mm 5,3 UV-I 659 W/m² 17,6 °C 26,6 °C 3,2 km/h (1 Bft)
26.08.2017 14:42 26,7 °C 26,7 °C 51 % 1014,1 hPa 0,0 mm 0,7 km/h (0 Bft) W 277 ° 1 min 0,000 mm 5,3 UV-I 765 W/m² 15,7 °C 26,7 °C 1,6 km/h (1 Bft)
26.08.2017 14:44 26,9 °C 26,9 °C 54 % 1014,1 hPa 0,0 mm 1,8 km/h (1 Bft) NW 314 ° 2 min 0,000 mm 5,2 UV-I 744 W/m² 16,8 °C 26,9 °C 6,4 km/h (2 Bft)
26.08.2017 14:45 27,0 °C 27,0 °C 51 % 1014,1 hPa 0,0 mm 2,8 km/h (1 Bft) N 355 ° 1 min 0,000 mm 5,1 UV-I 694 W/m² 16,0 °C 27,0 °C 4,8 km/h (1 Bft)
26.08.2017 14:46 27,1 °C 27,1 °C 52 % 1014,1 hPa 0,0 mm 2,4 km/h (1 Bft) N 355 ° 1 min 0,000 mm 5,1 UV-I 694 W/m² 16,4 °C 27,1 °C 4,8 km/h (1 Bft)
26.08.2017 14:47 27,2 °C 27,2 °C 50 % 1014,1 hPa 0,0 mm 2,3 km/h (1 Bft) N 355 ° 1 min 0,000 mm 5,2 UV-I 694 W/m² 15,9 °C 27,2 °C 3,2 km/h (1 Bft)
26.08.2017 14:48 27,2 °C 27,2 °C 49 % 1014,0 hPa 0,0 mm 0,6 km/h (0 Bft) N 355 ° 1 min 0,000 mm 5,2 UV-I 733 W/m² 15,5 °C 27,2 °C 1,6 km/h (1 Bft)
26.08.2017 14:49 27,3 °C 27,3 °C 48 % 1014,0 hPa 0,0 mm 3,4 km/h (1 Bft) NW 326 ° 1 min 0,000 mm 5,2 UV-I 729 W/m² 15,3 °C 27,3 °C 6,4 km/h (2 Bft)
26.08.2017 14:50 27,3 °C 27,3 °C 46 % 1014,0 hPa 0,0 mm 1,0 km/h (0 Bft) NW 326 ° 1 min 0,000 mm 5,2 UV-I 722 W/m² 14,6 °C 27,3 °C 3,2 km/h (1 Bft)
26.08.2017 14:51 27,3 °C 27,3 °C 46 % 1014,0 hPa 0,0 mm 0,0 km/h (0 Bft) NW 326 ° 1 min 0,000 mm 5,1 UV-I 715 W/m² 14,6 °C 27,3 °C 0,0 km/h (0 Bft)
26.08.2017 14:52 27,3 °C 27,3 °C 46 % 1014,0 hPa 0,0 mm 1,0 km/h (0 Bft) NW 326 ° 1 min 0,000 mm 4,6 UV-I 715 W/m² 14,6 °C 27,3 °C 3,2 km/h (1 Bft)
26.08.2017 14:53 27,3 °C 27,3 °C 46 % 1014,1 hPa 0,0 mm 0,1 km/h (0 Bft) NW 326 ° 1 min 0,000 mm 4,6 UV-I 715 W/m² 14,6 °C 27,3 °C 1,6 km/h (1 Bft)
26.08.2017 14:54 27,2 °C 27,3 °C 47 % 1014,1 hPa 0,0 mm 1,1 km/h (1 Bft) NW 325 ° 1 min 0,000 mm 5,0 UV-I 715 W/m² 14,9 °C 27,2 °C 3,2 km/h (1 Bft)
26.08.2017 14:55 27,1 °C 27,2 °C 52 % 1014,0 hPa 0,0 mm 1,1 km/h (1 Bft) NW 325 ° 1 min 0,000 mm 4,9 UV-I 696 W/m² 16,4 °C 27,1 °C 3,2 km/h (1 Bft)
26.08.2017 14:56 27,1 °C 27,1 °C 49 % 1014,0 hPa 0,0 mm 2,3 km/h (1 Bft) NW 325 ° 1 min 0,000 mm 4,9 UV-I 694 W/m² 15,4 °C 27,1 °C 4,8 km/h (1 Bft)
26.08.2017 14:57 27,1 °C 27,1 °C 49 % 1014,0 hPa 0,0 mm 2,1 km/h (1 Bft) NW 325 ° 1 min 0,000 mm 4,9 UV-I 698 W/m² 15,4 °C 27,1 °C 3,2 km/h (1 Bft)
26.08.2017 14:58 27,1 °C 27,1 °C 46 % 1014,0 hPa 0,0 mm 2,2 km/h (1 Bft) NW 325 ° 1 min 0,000 mm 4,9 UV-I 698 W/m² 14,5 °C 27,1 °C 3,2 km/h (1 Bft)
26.08.2017 14:59 27,1 °C 27,1 °C 46 % 1014,0 hPa 0,0 mm 0,5 km/h (0 Bft) NW 325 ° 1 min 0,000 mm 5,0 UV-I 719 W/m² 14,5 °C 27,1 °C 1,6 km/h (1 Bft)
26.08.2017 15:00 27,2 °C 27,2 °C 47 % 1014,0 hPa 0,0 mm 0,0 km/h (0 Bft) NW 325 ° 1 min 0,000 mm 5,0 UV-I 731 W/m² 14,9 °C 27,2 °C 0,0 km/h (0 Bft)
26.08.2017 15:01 27,2 °C 27,2 °C 50 % 1014,0 hPa 0,0 mm 0,1 km/h (0 Bft) NW 325 ° 1 min 0,406 mm 5,1 UV-I 745 W/m² 15,9 °C 27,2 °C 1,6 km/h (1 Bft)
26.08.2017 15:02 27,2 °C 27,2 °C 51 % 1014,0 hPa 0,0 mm 1,7 km/h (1 Bft) N-NW 327 ° 1 min 0,000 mm 4,9 UV-I 691 W/m² 16,2 °C 27,2 °C 3,2 km/h (1 Bft)
26.08.2017 15:03 27,1 °C 27,2 °C 47 % 1014,0 hPa 0,0 mm 1,9 km/h (1 Bft) N-NW 327 ° 1 min 0,000 mm 4,7 UV-I 403 W/m² 14,8 °C 27,1 °C 3,2 km/h (1 Bft)
26.08.2017 15:04 27,1 °C 27,1 °C 48 % 1014,0 hPa 0,0 mm 0,0 km/h (0 Bft) N-NW 327 ° 1 min 0,000 mm 3,8 UV-I 403 W/m² 15,1 °C 27,1 °C 0,0 km/h (0 Bft)
26.08.2017 15:05 27,0 °C 27,1 °C 51 % 1014,0 hPa 0,0 mm 2,1 km/h (1 Bft) O 99 ° 1 min 0,000 mm 5,0 UV-I 666 W/m² 16,0 °C 27,0 °C 4,8 km/h (1 Bft)
26.08.2017 15:06 27,1 °C 27,1 °C 47 % 1014,0 hPa 0,0 mm 0,1 km/h (0 Bft) O 99 ° 1 min 0,000 mm 5,0 UV-I 666 W/m² 14,8 °C 27,1 °C 1,6 km/h (1 Bft)
26.08.2017 15:07 27,2 °C 27,2 °C 48 % 1014,0 hPa 0,0 mm 0,3 km/h (0 Bft) O 89 ° 1 min 0,000 mm 5,0 UV-I 770 W/m² 15,2 °C 27,2 °C 1,6 km/h (1 Bft)
26.08.2017 15:08 27,3 °C 27,3 °C 56 % 1014,0 hPa 0,0 mm 4,5 km/h (1 Bft) N 5 ° 1 min 0,000 mm 3,4 UV-I 782 W/m² 17,7 °C 27,3 °C 6,4 km/h (2 Bft)
26.08.2017 15:09 27,4 °C 27,4 °C 49 % 1014,0 hPa 0,0 mm 3,6 km/h (1 Bft) N 5 ° 1 min 0,000 mm 3,2 UV-I 353 W/m² 15,7 °C 27,4 °C 4,8 km/h (1 Bft)
26.08.2017 15:10 27,4 °C 27,4 °C 47 % 1014,0 hPa 0,0 mm 2,8 km/h (1 Bft) N 5 ° 1 min 0,000 mm 3,1 UV-I 338 W/m² 15,1 °C 27,4 °C 3,2 km/h (1 Bft)
26.08.2017 15:11 27,4 °C 27,4 °C 52 % 1014,0 hPa 0,0 mm 1,3 km/h (1 Bft) N 5 ° 1 min 0,000 mm 3,2 UV-I 369 W/m² 16,7 °C 27,4 °C 3,2 km/h (1 Bft)
26.08.2017 15:12 27,4 °C 27,4 °C 47 % 1013,9 hPa 0,0 mm 0,3 km/h (0 Bft) N 5 ° 1 min 0,000 mm 2,9 UV-I 315 W/m² 15,1 °C 27,4 °C 1,6 km/h (1 Bft)
26.08.2017 15:13 27,3 °C 27,4 °C 49 % 1013,9 hPa 0,0 mm 0,0 km/h (0 Bft) N 5 ° 0 min 0,000 mm 2,7 UV-I 278 W/m² 15,6 °C 27,3 °C 0,0 km/h (0 Bft)
26.08.2017 15:14 27,2 °C 27,3 °C 51 % 1013,9 hPa 0,0 mm 0,3 km/h (0 Bft) N 5 ° 1 min 0,000 mm 2,8 UV-I 306 W/m² 16,2 °C 27,2 °C 1,6 km/h (1 Bft)
26.08.2017 15:15 27,1 °C 27,2 °C 51 % 1013,9 hPa 0,0 mm 1,7 km/h (1 Bft) N 5 ° 0 min 0,000 mm 2,6 UV-I 258 W/m² 16,1 °C 27,1 °C 3,2 km/h (1 Bft)
26.08.2017 15:16 27,1 °C 27,1 °C 50 % 1013,9 hPa 0,0 mm 3,2 km/h (1 Bft) N-NW 347 ° 0 min 0,000 mm 2,4 UV-I 241 W/m² 15,8 °C 27,1 °C 6,4 km/h (2 Bft)
26.08.2017 15:17 26,9 °C 27,1 °C 54 % 1013,9 hPa 0,0 mm 4,0 km/h (1 Bft) N-NW 331 ° 0 min 0,000 mm 2,3 UV-I 229 W/m² 16,8 °C 26,9 °C 4,8 km/h (1 Bft)
26.08.2017 15:18 26,9 °C 26,9 °C 53 % 1013,9 hPa 0,0 mm 1,0 km/h (0 Bft) N-NW 331 ° 0 min 0,000 mm 2,3 UV-I 218 W/m² 16,5 °C 26,9 °C 3,2 km/h (1 Bft)
26.08.2017 15:19 26,8 °C 26,9 °C 54 % 1013,9 hPa 0,0 mm 2,6 km/h (1 Bft) N-NW 344 ° 0 min 0,000 mm 2,2 UV-I 211 W/m² 16,7 °C 26,8 °C 4,8 km/h (1 Bft)
26.08.2017 15:20 26,7 °C 26,8 °C 54 % 1013,9 hPa 0,0 mm 2,6 km/h (1 Bft) N-NW 342 ° 0 min 0,000 mm 2,2 UV-I 204 W/m² 16,6 °C 26,7 °C 4,8 km/h (1 Bft)
26.08.2017 15:21 26,7 °C 26,7 °C 55 % 1013,9 hPa 0,0 mm 3,2 km/h (1 Bft) NW 317 ° 0 min 0,000 mm 2,0 UV-I 200 W/m² 16,9 °C 26,7 °C 4,8 km/h (1 Bft)
26.08.2017 15:22 26,6 °C 26,7 °C 55 % 1013,9 hPa 0,0 mm 3,2 km/h (1 Bft) NW 317 ° 0 min 0,000 mm 2,0 UV-I 199 W/m² 16,8 °C 26,6 °C 4,8 km/h (1 Bft)
26.08.2017 15:23 26,6 °C 26,6 °C 57 % 1013,9 hPa 0,0 mm 2,3 km/h (1 Bft) NW 317 ° 0 min 0,000 mm 1,9 UV-I 197 W/m² 17,4 °C 26,6 °C 3,2 km/h (1 Bft)
26.08.2017 15:24 26,4 °C 26,6 °C 55 % 1013,9 hPa 0,0 mm 2,9 km/h (1 Bft) NW 317 ° 0 min 0,000 mm 1,9 UV-I 195 W/m² 16,6 °C 26,4 °C 3,2 km/h (1 Bft)
26.08.2017 15:25 26,3 °C 26,4 °C 55 % 1013,9 hPa 0,0 mm 4,2 km/h (1 Bft) NW 317 ° 0 min 0,000 mm 1,9 UV-I 195 W/m² 16,5 °C 26,3 °C 6,4 km/h (2 Bft)
26.08.2017 15:26 26,3 °C 26,3 °C 55 % 1013,9 hPa 0,0 mm 3,2 km/h (1 Bft) NW 317 ° 0 min 0,000 mm 1,8 UV-I 197 W/m² 16,5 °C 26,3 °C 4,8 km/h (1 Bft)
26.08.2017 15:27 26,3 °C 26,3 °C 55 % 1013,9 hPa 0,0 mm 1,8 km/h (1 Bft) NW 317 ° 0 min 0,000 mm 1,7 UV-I 195 W/m² 16,5 °C 26,3 °C 3,2 km/h (1 Bft)
26.08.2017 15:28 26,2 °C 26,3 °C 56 % 1013,8 hPa 0,0 mm 0,9 km/h (0 Bft) NW 317 ° 0 min 0,000 mm 1,7 UV-I 193 W/m² 16,7 °C 26,2 °C 3,2 km/h (1 Bft)
26.08.2017 15:29 26,2 °C 26,2 °C 55 % 1013,8 hPa 0,0 mm 4,3 km/h (1 Bft) NW 317 ° 0 min 0,000 mm 1,7 UV-I 192 W/m² 16,4 °C 26,2 °C 6,4 km/h (2 Bft)
26.08.2017 15:30 26,1 °C 26,2 °C 62 % 1013,8 hPa 0,0 mm 2,0 km/h (1 Bft) NW 317 ° 0 min 0,000 mm 1,7 UV-I 192 W/m² 18,2 °C 26,1 °C 3,2 km/h (1 Bft)
26.08.2017 15:31 26,1 °C 26,1 °C 56 % 1013,8 hPa 0,0 mm 2,7 km/h (1 Bft) NW 317 ° 0 min 0,000 mm 1,6 UV-I 192 W/m² 16,6 °C 26,1 °C 3,2 km/h (1 Bft)
26.08.2017 15:32 26,0 °C 26,1 °C 61 % 1013,7 hPa 0,0 mm 3,2 km/h (1 Bft) NW 318 ° 0 min 0,000 mm 1,6 UV-I 193 W/m² 17,9 °C 26,0 °C 6,4 km/h (2 Bft)
26.08.2017 15:33 26,0 °C 26,0 °C 58 % 1013,8 hPa 0,0 mm 3,4 km/h (1 Bft) NW 317 ° 0 min 0,000 mm 1,6 UV-I 195 W/m² 17,1 °C 26,0 °C 6,4 km/h (2 Bft)
26.08.2017 15:34 26,1 °C 26,1 °C 57 % 1013,8 hPa 0,0 mm 3,4 km/h (1 Bft) NW 318 ° 0 min 0,000 mm 1,7 UV-I 199 W/m² 16,9 °C 26,1 °C 6,4 km/h (2 Bft)
26.08.2017 15:35 26,1 °C 26,1 °C 54 % 1013,7 hPa 0,0 mm 2,1 km/h (1 Bft) NW 318 ° 0 min 0,000 mm 1,7 UV-I 204 W/m² 16,0 °C 26,1 °C 4,8 km/h (1 Bft)
26.08.2017 15:36 26,1 °C 26,1 °C 55 % 1013,7 hPa 0,0 mm 1,5 km/h (1 Bft) NW 319 ° 0 min 0,000 mm 1,7 UV-I 213 W/m² 16,3 °C 26,1 °C 3,2 km/h (1 Bft)
26.08.2017 15:37 26,1 °C 26,1 °C 54 % 1013,7 hPa 0,0 mm 1,2 km/h (1 Bft) NW 319 ° 0 min 0,000 mm 1,8 UV-I 221 W/m² 16,0 °C 26,1 °C 3,2 km/h (1 Bft)
26.08.2017 15:38 26,1 °C 26,1 °C 56 % 1013,7 hPa 0,0 mm 2,0 km/h (1 Bft) NW 319 ° 0 min 0,000 mm 1,9 UV-I 244 W/m² 16,6 °C 26,1 °C 3,2 km/h (1 Bft)
26.08.2017 15:39 26,1 °C 26,2 °C 56 % 1013,7 hPa 0,0 mm 2,7 km/h (1 Bft) N 360 ° 0 min 0,000 mm 2,0 UV-I 244 W/m² 16,6 °C 26,1 °C 4,8 km/h (1 Bft)
26.08.2017 15:40 26,1 °C 26,1 °C 56 % 1013,7 hPa 0,0 mm 1,5 km/h (1 Bft) N 360 ° 0 min 0,000 mm 2,0 UV-I 248 W/m² 16,6 °C 26,1 °C 3,2 km/h (1 Bft)
26.08.2017 15:41 26,1 °C 26,1 °C 56 % 1013,8 hPa 0,0 mm 3,0 km/h (1 Bft) NW 326 ° 0 min 0,000 mm 2,2 UV-I 258 W/m² 16,6 °C 26,1 °C 4,8 km/h (1 Bft)
26.08.2017 15:42 26,1 °C 26,1 °C 57 % 1013,7 hPa 0,0 mm 3,0 km/h (1 Bft) N 5 ° 0 min 0,000 mm 2,1 UV-I 262 W/m² 16,9 °C 26,1 °C 6,4 km/h (2 Bft)
26.08.2017 15:43 26,1 °C 26,2 °C 58 % 1013,7 hPa 0,0 mm 1,7 km/h (1 Bft) N 5 ° 0 min 0,000 mm 2,1 UV-I 267 W/m² 17,2 °C 26,1 °C 3,2 km/h (1 Bft)
26.08.2017 15:44 26,2 °C 26,2 °C 58 % 1013,7 hPa 0,0 mm 3,2 km/h (1 Bft) NW 317 ° 1 min 0,000 mm 2,2 UV-I 292 W/m² 17,3 °C 26,2 °C 4,8 km/h (1 Bft)
26.08.2017 15:45 26,1 °C 26,2 °C 57 % 1013,8 hPa 0,0 mm 2,0 km/h (1 Bft) NW 317 ° 0 min 0,000 mm 2,2 UV-I 281 W/m² 16,9 °C 26,1 °C 3,2 km/h (1 Bft)
26.08.2017 15:46 26,2 °C 26,2 °C 56 % 1013,8 hPa 0,0 mm 1,4 km/h (1 Bft) NW 305 ° 0 min 0,000 mm 2,3 UV-I 285 W/m² 16,7 °C 26,2 °C 4,8 km/h (1 Bft)
26.08.2017 15:47 26,2 °C 26,2 °C 55 % 1013,8 hPa 0,0 mm 4,4 km/h (1 Bft) W-NW 301 ° 1 min 0,000 mm 2,3 UV-I 290 W/m² 16,4 °C 26,2 °C 6,4 km/h (2 Bft)
26.08.2017 15:48 26,1 °C 26,2 °C 56 % 1013,7 hPa 0,0 mm 2,4 km/h (1 Bft) W-NW 301 ° 1 min 0,000 mm 2,3 UV-I 292 W/m² 16,6 °C 26,1 °C 4,8 km/h (1 Bft)
26.08.2017 15:49 26,1 °C 26,1 °C 61 % 1013,8 hPa 0,0 mm 3,0 km/h (1 Bft) NW 323 ° 1 min 0,000 mm 2,3 UV-I 290 W/m² 18,0 °C 26,1 °C 6,4 km/h (2 Bft)
26.08.2017 15:50 26,1 °C 26,1 °C 58 % 1013,8 hPa 0,0 mm 1,4 km/h (1 Bft) W-NW 302 ° 0 min 0,000 mm 2,3 UV-I 285 W/m² 17,2 °C 26,1 °C 4,8 km/h (1 Bft)
26.08.2017 15:51 26,1 °C 26,1 °C 59 % 1013,7 hPa 0,0 mm 1,9 km/h (1 Bft) W-NW 300 ° 0 min 0,000 mm 2,3 UV-I 288 W/m² 17,4 °C 26,1 °C 4,8 km/h (1 Bft)
26.08.2017 15:52 26,1 °C 26,1 °C 60 % 1013,7 hPa 0,0 mm 3,4 km/h (1 Bft) W-NW 298 ° 1 min 0,000 mm 2,6 UV-I 304 W/m² 17,7 °C 26,1 °C 6,4 km/h (2 Bft)
26.08.2017 15:53 26,1 °C 26,1 °C 56 % 1013,7 hPa 0,0 mm 3,4 km/h (1 Bft) W-NW 298 ° 1 min 0,000 mm 3,8 UV-I 304 W/m² 16,6 °C 26,1 °C 4,8 km/h (1 Bft)
26.08.2017 15:54 26,2 °C 26,2 °C 58 % 1013,7 hPa 0,0 mm 1,9 km/h (1 Bft) W-NW 300 ° 1 min 0,000 mm 4,0 UV-I 726 W/m² 17,3 °C 26,2 °C 8,0 km/h (2 Bft)
26.08.2017 15:55 26,4 °C 26,4 °C 59 % 1013,7 hPa 0,0 mm 6,9 km/h (2 Bft) NW 323 ° 1 min 0,000 mm 4,0 UV-I 737 W/m² 17,7 °C 26,4 °C 12,9 km/h (3 Bft)
26.08.2017 15:56 26,6 °C 26,6 °C 60 % 1013,8 hPa 0,0 mm 7,6 km/h (2 Bft) NW 311 ° 1 min 0,000 mm 4,2 UV-I 742 W/m² 18,2 °C 26,6 °C 12,9 km/h (3 Bft)
26.08.2017 15:57 26,6 °C 26,7 °C 51 % 1013,7 hPa 0,0 mm 7,8 km/h (2 Bft) NW 321 ° 1 min 0,000 mm 4,2 UV-I 745 W/m² 15,6 °C 26,6 °C 12,9 km/h (3 Bft)
26.08.2017 15:58 26,7 °C 26,7 °C 54 % 1013,8 hPa 0,0 mm 6,2 km/h (2 Bft) NW 323 ° 1 min 0,000 mm 4,2 UV-I 747 W/m² 16,6 °C 26,7 °C 9,7 km/h (2 Bft)
26.08.2017 15:59 26,7 °C 26,7 °C 54 % 1013,8 hPa 0,0 mm 5,2 km/h (1 Bft) NW 317 ° 1 min 0,000 mm 4,2 UV-I 733 W/m² 16,6 °C 26,7 °C 9,7 km/h (2 Bft)
26.08.2017 16:00 26,8 °C 26,8 °C 53 % 1013,7 hPa 0,0 mm 5,9 km/h (2 Bft) NW 313 ° 1 min 0,254 mm 4,1 UV-I 717 W/m² 16,4 °C 26,8 °C 11,3 km/h (2 Bft)
26.08.2017 16:01 26,7 °C 26,8 °C 54 % 1013,7 hPa 0,0 mm 5,4 km/h (1 Bft) N-NW 333 ° 1 min 0,000 mm 4,1 UV-I 691 W/m² 16,6 °C 26,7 °C 9,7 km/h (2 Bft)
26.08.2017 16:02 26,8 °C 26,8 °C 52 % 1013,7 hPa 0,0 mm 5,8 km/h (2 Bft) NW 314 ° 1 min 0,000 mm 4,0 UV-I 689 W/m² 16,1 °C 26,8 °C 8,0 km/h (2 Bft)
26.08.2017 16:03 26,8 °C 26,8 °C 53 % 1013,7 hPa 0,0 mm 4,3 km/h (1 Bft) SW 236 ° 1 min 0,000 mm 4,0 UV-I 673 W/m² 16,4 °C 26,8 °C 6,4 km/h (2 Bft)
26.08.2017 16:04 26,7 °C 26,8 °C 50 % 1013,7 hPa 0,0 mm 5,4 km/h (1 Bft) W-NW 296 ° 1 min 0,000 mm 4,0 UV-I 663 W/m² 15,4 °C 26,7 °C 6,4 km/h (2 Bft)
26.08.2017 16:05 26,7 °C 26,7 °C 53 % 1013,6 hPa 0,0 mm 7,2 km/h (2 Bft) W-NW 298 ° 1 min 0,000 mm 3,7 UV-I 587 W/m² 16,3 °C 26,7 °C 11,3 km/h (2 Bft)
26.08.2017 16:06 26,7 °C 26,7 °C 54 % 1013,7 hPa 0,0 mm 5,8 km/h (2 Bft) N 355 ° 1 min 0,000 mm 3,7 UV-I 587 W/m² 16,6 °C 26,7 °C 9,7 km/h (2 Bft)
26.08.2017 16:07 26,7 °C 26,7 °C 56 % 1013,7 hPa 0,0 mm 6,6 km/h (2 Bft) NW 323 ° 1 min 0,000 mm 3,7 UV-I 594 W/m² 17,2 °C 26,7 °C 12,9 km/h (3 Bft)
26.08.2017 16:08 26,7 °C 26,7 °C 55 % 1013,6 hPa 0,0 mm 4,3 km/h (1 Bft) N-NW 345 ° 1 min 0,000 mm 3,6 UV-I 575 W/m² 16,9 °C 26,7 °C 6,4 km/h (2 Bft)
26.08.2017 16:09 26,8 °C 26,8 °C 55 % 1013,7 hPa 0,0 mm 3,4 km/h (1 Bft) W-NW 284 ° 1 min 0,000 mm 3,5 UV-I 561 W/m² 17,0 °C 26,8 °C 6,4 km/h (2 Bft)
26.08.2017 16:10 26,7 °C 26,8 °C 56 % 1013,7 hPa 0,0 mm 5,1 km/h (1 Bft) NW 308 ° 1 min 0,000 mm 3,4 UV-I 548 W/m² 17,2 °C 26,7 °C 11,3 km/h (2 Bft)
26.08.2017 16:11 26,7 °C 26,7 °C 53 % 1013,6 hPa 0,0 mm 6,6 km/h (2 Bft) N-NW 329 ° 1 min 0,000 mm 3,4 UV-I 538 W/m² 16,3 °C 26,7 °C 12,9 km/h (3 Bft)
26.08.2017 16:12 26,6 °C 26,7 °C 55 % 1013,6 hPa 0,0 mm 11,1 km/h (2 Bft) NW 316 ° 1 min 0,000 mm 3,3 UV-I 492 W/m² 16,8 °C 26,6 °C 14,5 km/h (3 Bft)
26.08.2017 16:13 26,6 °C 26,6 °C 54 % 1013,6 hPa 0,0 mm 7,1 km/h (2 Bft) W-NW 300 ° 0 min 0,000 mm 3,1 UV-I 229 W/m² 16,5 °C 26,6 °C 12,9 km/h (3 Bft)
26.08.2017 16:14 26,5 °C 26,6 °C 52 % 1013,6 hPa 0,0 mm 4,4 km/h (1 Bft) NW 320 ° 0 min 0,000 mm 2,7 UV-I 258 W/m² 15,8 °C 26,5 °C 8,0 km/h (2 Bft)
26.08.2017 16:15 26,4 °C 26,5 °C 53 % 1013,6 hPa 0,0 mm 4,9 km/h (1 Bft) N-NW 338 ° 0 min 0,000 mm 2,3 UV-I 278 W/m² 16,0 °C 26,4 °C 6,4 km/h (2 Bft)
26.08.2017 16:16 26,4 °C 26,4 °C 54 % 1013,6 hPa 0,0 mm 5,4 km/h (1 Bft) W 277 ° 0 min 0,000 mm 2,3 UV-I 206 W/m² 16,3 °C 26,4 °C 11,3 km/h (2 Bft)
26.08.2017 16:17 26,3 °C 26,4 °C 52 % 1013,6 hPa 0,0 mm 5,1 km/h (1 Bft) W-NW 300 ° 0 min 0,000 mm 2,1 UV-I 151 W/m² 15,6 °C 26,3 °C 9,7 km/h (2 Bft)
26.08.2017 16:18 26,2 °C 26,3 °C 53 % 1013,6 hPa 0,0 mm 6,7 km/h (2 Bft) NW 309 ° 0 min 0,000 mm 2,0 UV-I 207 W/m² 15,8 °C 26,2 °C 12,9 km/h (3 Bft)
26.08.2017 16:19 26,2 °C 26,2 °C 54 % 1013,6 hPa 0,0 mm 5,7 km/h (1 Bft) N-NW 333 ° 0 min 0,000 mm 2,2 UV-I 149 W/m² 16,1 °C 26,2 °C 9,7 km/h (2 Bft)
26.08.2017 16:20 26,1 °C 26,2 °C 54 % 1013,6 hPa 0,0 mm 4,9 km/h (1 Bft) N-NW 331 ° 0 min 0,000 mm 2,1 UV-I 128 W/m² 16,0 °C 26,1 °C 6,4 km/h (2 Bft)
26.08.2017 16:21 26,1 °C 26,1 °C 54 % 1013,7 hPa 0,0 mm 5,6 km/h (1 Bft) W-NW 301 ° 0 min 0,000 mm 1,9 UV-I 128 W/m² 16,0 °C 26,1 °C 8,0 km/h (2 Bft)
26.08.2017 16:22 26,1 °C 26,1 °C 54 % 1013,6 hPa 0,0 mm 4,8 km/h (1 Bft) N-NW 330 ° 0 min 0,000 mm 1,9 UV-I 127 W/m² 16,0 °C 26,1 °C 6,4 km/h (2 Bft)
26.08.2017 16:23 25,9 °C 26,1 °C 57 % 1013,7 hPa 0,0 mm 6,4 km/h (2 Bft) W 265 ° 0 min 0,000 mm 1,9 UV-I 121 W/m² 16,7 °C 25,9 °C 9,7 km/h (2 Bft)
26.08.2017 16:24 25,9 °C 26,0 °C 55 % 1013,6 hPa 0,0 mm 6,8 km/h (2 Bft) NW 312 ° 0 min 0,000 mm 1,9 UV-I 118 W/m² 16,2 °C 25,9 °C 9,7 km/h (2 Bft)
26.08.2017 16:25 25,9 °C 25,9 °C 54 % 1013,6 hPa 0,0 mm 4,5 km/h (1 Bft) NW 319 ° 0 min 0,000 mm 1,9 UV-I 118 W/m² 15,9 °C 25,9 °C 9,7 km/h (2 Bft)
26.08.2017 16:26 25,9 °C 25,9 °C 56 % 1013,7 hPa 0,0 mm 6,3 km/h (2 Bft) NW 304 ° 0 min 0,000 mm 1,9 UV-I 116 W/m² 16,4 °C 25,9 °C 9,7 km/h (2 Bft)
26.08.2017 16:27 25,8 °C 25,9 °C 55 % 1013,6 hPa 0,0 mm 4,8 km/h (1 Bft) NW 317 ° 0 min 0,000 mm 1,8 UV-I 118 W/m² 16,1 °C 25,8 °C 8,0 km/h (2 Bft)
26.08.2017 16:28 25,8 °C 25,9 °C 55 % 1013,6 hPa 0,0 mm 4,0 km/h (1 Bft) NW 304 ° 0 min 0,000 mm 1,8 UV-I 118 W/m² 16,1 °C 25,8 °C 6,4 km/h (2 Bft)
26.08.2017 16:29 25,8 °C 25,8 °C 55 % 1013,6 hPa 0,0 mm 5,0 km/h (1 Bft) NW 313 ° 0 min 0,000 mm 1,8 UV-I 113 W/m² 16,1 °C 25,8 °C 8,0 km/h (2 Bft)
26.08.2017 16:30 25,9 °C 25,9 °C 53 % 1013,6 hPa 0,0 mm 3,8 km/h (1 Bft) NW 311 ° 0 min 0,000 mm 1,8 UV-I 113 W/m² 15,6 °C 25,9 °C 8,0 km/h (2 Bft)
26.08.2017 16:31 25,9 °C 25,9 °C 54 % 1013,6 hPa 0,0 mm 5,0 km/h (1 Bft) NW 321 ° 0 min 0,000 mm 1,8 UV-I 113 W/m² 15,9 °C 25,9 °C 8,0 km/h (2 Bft)
26.08.2017 16:32 25,9 °C 25,9 °C 55 % 1013,6 hPa 0,0 mm 5,2 km/h (1 Bft) NW 320 ° 0 min 0,000 mm 1,8 UV-I 111 W/m² 16,2 °C 25,9 °C 8,0 km/h (2 Bft)
26.08.2017 16:33 25,9 °C 25,9 °C 54 % 1013,7 hPa 0,0 mm 4,8 km/h (1 Bft) NW 323 ° 0 min 0,000 mm 1,8 UV-I 111 W/m² 15,9 °C 25,9 °C 6,4 km/h (2 Bft)
26.08.2017 16:34 25,9 °C 25,9 °C 55 % 1013,7 hPa 0,0 mm 5,2 km/h (1 Bft) NW 306 ° 0 min 0,000 mm 1,8 UV-I 109 W/m² 16,2 °C 25,9 °C 6,4 km/h (2 Bft)
26.08.2017 16:35 25,9 °C 25,9 °C 56 % 1013,6 hPa 0,0 mm 4,9 km/h (1 Bft) NW 324 ° 0 min 0,000 mm 1,8 UV-I 109 W/m² 16,4 °C 25,9 °C 8,0 km/h (2 Bft)
26.08.2017 16:36 25,9 °C 25,9 °C 56 % 1013,6 hPa 0,0 mm 4,6 km/h (1 Bft) NW 308 ° 0 min 0,000 mm 1,7 UV-I 107 W/m² 16,4 °C 25,9 °C 6,4 km/h (2 Bft)
26.08.2017 16:37 25,9 °C 25,9 °C 55 % 1013,6 hPa 0,0 mm 6,3 km/h (2 Bft) W-NW 284 ° 0 min 0,000 mm 1,7 UV-I 107 W/m² 16,2 °C 25,9 °C 9,7 km/h (2 Bft)
26.08.2017 16:38 25,8 °C 25,9 °C 56 % 1013,6 hPa 0,0 mm 6,1 km/h (2 Bft) N-NW 336 ° 0 min 0,000 mm 1,7 UV-I 105 W/m² 16,3 °C 25,8 °C 11,3 km/h (2 Bft)
26.08.2017 16:39 25,9 °C 25,9 °C 54 % 1013,6 hPa 0,0 mm 6,0 km/h (2 Bft) NW 305 ° 0 min 0,000 mm 1,7 UV-I 105 W/m² 15,9 °C 25,9 °C 9,7 km/h (2 Bft)
26.08.2017 16:40 25,9 °C 25,9 °C 53 % 1013,6 hPa 0,0 mm 3,0 km/h (1 Bft) W-NW 298 ° 0 min 0,000 mm 1,7 UV-I 105 W/m² 15,6 °C 25,9 °C 8,0 km/h (2 Bft)
26.08.2017 16:41 25,9 °C 25,9 °C 53 % 1013,5 hPa 0,0 mm 4,4 km/h (1 Bft) W-NW 283 ° 0 min 0,000 mm 1,7 UV-I 105 W/m² 15,6 °C 25,9 °C 6,4 km/h (2 Bft)
26.08.2017 16:42 25,9 °C 25,9 °C 53 % 1013,5 hPa 0,0 mm 4,3 km/h (1 Bft) W 281 ° 0 min 0,000 mm 1,7 UV-I 121 W/m² 15,6 °C 25,9 °C 6,4 km/h (2 Bft)
26.08.2017 16:43 25,9 °C 25,9 °C 55 % 1013,5 hPa 0,0 mm 4,9 km/h (1 Bft) W 264 ° 0 min 0,000 mm 1,7 UV-I 104 W/m² 16,2 °C 25,9 °C 6,4 km/h (2 Bft)
26.08.2017 16:44 25,8 °C 25,9 °C 54 % 1013,5 hPa 0,0 mm 3,3 km/h (1 Bft) W 273 ° 0 min 0,000 mm 1,6 UV-I 111 W/m² 15,8 °C 25,8 °C 4,8 km/h (1 Bft)
26.08.2017 16:45 25,8 °C 25,8 °C 57 % 1013,5 hPa 0,0 mm 3,8 km/h (1 Bft) W 278 ° 0 min 0,000 mm 1,6 UV-I 118 W/m² 16,6 °C 25,8 °C 4,8 km/h (1 Bft)
26.08.2017 16:46 25,8 °C 25,8 °C 57 % 1013,5 hPa 0,0 mm 5,5 km/h (1 Bft) W-NW 288 ° 0 min 0,000 mm 1,6 UV-I 109 W/m² 16,6 °C 25,8 °C 9,7 km/h (2 Bft)
26.08.2017 16:47 25,8 °C 25,8 °C 55 % 1013,5 hPa 0,0 mm 3,9 km/h (1 Bft) W 281 ° 0 min 0,000 mm 1,6 UV-I 98 W/m² 16,1 °C 25,8 °C 9,7 km/h (2 Bft)
26.08.2017 16:48 25,8 °C 25,8 °C 54 % 1013,5 hPa 0,0 mm 5,5 km/h (1 Bft) W-NW 297 ° 0 min 0,000 mm 1,6 UV-I 100 W/m² 15,8 °C 25,8 °C 11,3 km/h (2 Bft)
26.08.2017 16:49 25,8 °C 25,9 °C 55 % 1013,5 hPa 0,0 mm 2,3 km/h (1 Bft) W-NW 298 ° 0 min 0,000 mm 1,6 UV-I 98 W/m² 16,1 °C 25,8 °C 3,2 km/h (1 Bft)
26.08.2017 16:50 25,8 °C 25,9 °C 54 % 1013,5 hPa 0,0 mm 2,2 km/h (1 Bft) W-NW 298 ° 0 min 0,000 mm 1,6 UV-I 97 W/m² 15,8 °C 25,8 °C 4,8 km/h (1 Bft)
26.08.2017 16:51 25,9 °C 25,9 °C 53 % 1013,5 hPa 0,0 mm 5,9 km/h (2 Bft) NW 312 ° 0 min 0,000 mm 1,6 UV-I 95 W/m² 15,6 °C 25,9 °C 8,0 km/h (2 Bft)
26.08.2017 16:52 25,9 °C 25,9 °C 56 % 1013,5 hPa 0,0 mm 4,2 km/h (1 Bft) W-NW 286 ° 0 min 0,000 mm 1,6 UV-I 95 W/m² 16,4 °C 25,9 °C 6,4 km/h (2 Bft)
26.08.2017 16:53 25,8 °C 25,9 °C 54 % 1013,5 hPa 0,0 mm 4,1 km/h (1 Bft) W 270 ° 0 min 0,000 mm 1,5 UV-I 100 W/m² 15,8 °C 25,8 °C 6,4 km/h (2 Bft)
26.08.2017 16:54 25,9 °C 25,9 °C 53 % 1013,5 hPa 0,0 mm 4,6 km/h (1 Bft) W-NW 286 ° 0 min 0,000 mm 1,5 UV-I 95 W/m² 15,6 °C 25,9 °C 6,4 km/h (2 Bft)
26.08.2017 16:55 25,9 °C 25,9 °C 53 % 1013,5 hPa 0,0 mm 5,3 km/h (1 Bft) N-NW 331 ° 0 min 0,000 mm 1,5 UV-I 98 W/m² 15,6 °C 25,9 °C 8,0 km/h (2 Bft)
26.08.2017 16:56 25,8 °C 25,9 °C 55 % 1013,5 hPa 0,0 mm 3,3 km/h (1 Bft) N-NW 329 ° 0 min 0,000 mm 1,5 UV-I 97 W/m² 16,1 °C 25,8 °C 4,8 km/h (1 Bft)
26.08.2017 16:57 25,8 °C 25,9 °C 55 % 1013,5 hPa 0,0 mm 3,6 km/h (1 Bft) NW 319 ° 0 min 0,000 mm 1,5 UV-I 93 W/m² 16,1 °C 25,8 °C 6,4 km/h (2 Bft)
26.08.2017 16:58 25,9 °C 25,9 °C 54 % 1013,5 hPa 0,0 mm 3,6 km/h (1 Bft) NW 318 ° 0 min 0,000 mm 1,5 UV-I 91 W/m² 15,9 °C 25,9 °C 6,4 km/h (2 Bft)
26.08.2017 16:59 25,9 °C 25,9 °C 55 % 1013,5 hPa 0,0 mm 2,4 km/h (1 Bft) NW 319 ° 0 min 0,000 mm 1,5 UV-I 91 W/m² 16,2 °C 25,9 °C 4,8 km/h (1 Bft)
26.08.2017 17:00 25,9 °C 25,9 °C 56 % 1013,5 hPa 0,0 mm 1,7 km/h (1 Bft) NW 319 ° 0 min 0,000 mm 1,5 UV-I 91 W/m² 16,4 °C 25,9 °C 4,8 km/h (1 Bft)
26.08.2017 17:01 25,9 °C 25,9 °C 56 % 1013,5 hPa 0,0 mm 3,0 km/h (1 Bft) NW 319 ° 0 min 0,178 mm 1,5 UV-I 98 W/m² 16,4 °C 25,9 °C 4,8 km/h (1 Bft)
26.08.2017 17:02 25,9 °C 25,9 °C 56 % 1013,5 hPa 0,0 mm 2,4 km/h (1 Bft) NW 319 ° 0 min 0,000 mm 1,5 UV-I 102 W/m² 16,4 °C 25,9 °C 3,2 km/h (1 Bft)
26.08.2017 17:03 26,0 °C 26,0 °C 54 % 1013,6 hPa 0,0 mm 0,5 km/h (0 Bft) NW 319 ° 0 min 0,000 mm 1,5 UV-I 100 W/m² 16,0 °C 26,0 °C 1,6 km/h (1 Bft)
26.08.2017 17:04 26,0 °C 26,0 °C 54 % 1013,6 hPa 0,0 mm 3,3 km/h (1 Bft) W-NW 301 ° 0 min 0,000 mm 1,5 UV-I 93 W/m² 16,0 °C 26,0 °C 4,8 km/h (1 Bft)
26.08.2017 17:05 25,9 °C 26,0 °C 53 % 1013,6 hPa 0,0 mm 1,7 km/h (1 Bft) W-NW 301 ° 0 min 0,000 mm 1,5 UV-I 107 W/m² 15,6 °C 25,9 °C 3,2 km/h (1 Bft)
26.08.2017 17:06 25,9 °C 25,9 °C 54 % 1013,6 hPa 0,0 mm 1,7 km/h (1 Bft) W-NW 301 ° 0 min 0,000 mm 1,5 UV-I 98 W/m² 15,9 °C 25,9 °C 3,2 km/h (1 Bft)
26.08.2017 17:07 25,9 °C 25,9 °C 53 % 1013,6 hPa 0,0 mm 3,0 km/h (1 Bft) N-NW 327 ° 0 min 0,000 mm 1,4 UV-I 90 W/m² 15,6 °C 25,9 °C 4,8 km/h (1 Bft)
26.08.2017 17:08 25,9 °C 25,9 °C 56 % 1013,6 hPa 0,0 mm 1,5 km/h (1 Bft) NW 320 ° 0 min 0,000 mm 1,4 UV-I 93 W/m² 16,4 °C 25,9 °C 3,2 km/h (1 Bft)
26.08.2017 17:09 25,9 °C 25,9 °C 55 % 1013,5 hPa 0,0 mm 2,5 km/h (1 Bft) NW 320 ° 0 min 0,000 mm 1,4 UV-I 100 W/m² 16,2 °C 25,9 °C 3,2 km/h (1 Bft)
26.08.2017 17:10 25,8 °C 25,9 °C 56 % 1013,6 hPa 0,0 mm 1,8 km/h (1 Bft) NW 320 ° 0 min 0,000 mm 1,4 UV-I 100 W/m² 16,3 °C 25,8 °C 4,8 km/h (1 Bft)
26.08.2017 17:11 25,9 °C 25,9 °C 57 % 1013,6 hPa 0,0 mm 5,8 km/h (2 Bft) N-NW 338 ° 0 min 0,000 mm 1,4 UV-I 91 W/m² 16,7 °C 25,9 °C 9,7 km/h (2 Bft)
26.08.2017 17:12 25,9 °C 25,9 °C 57 % 1013,6 hPa 0,0 mm 4,5 km/h (1 Bft) NW 315 ° 0 min 0,000 mm 1,4 UV-I 91 W/m² 16,7 °C 25,9 °C 6,4 km/h (2 Bft)
26.08.2017 17:13 25,9 °C 25,9 °C 55 % 1013,6 hPa 0,0 mm 3,7 km/h (1 Bft) N-NW 327 ° 0 min 0,000 mm 1,3 UV-I 86 W/m² 16,2 °C 25,9 °C 6,4 km/h (2 Bft)
26.08.2017 17:14 25,9 °C 25,9 °C 55 % 1013,6 hPa 0,0 mm 4,5 km/h (1 Bft) NW 325 ° 0 min 0,000 mm 1,3 UV-I 86 W/m² 16,2 °C 25,9 °C 6,4 km/h (2 Bft)
26.08.2017 17:15 25,9 °C 25,9 °C 53 % 1013,6 hPa 0,0 mm 3,0 km/h (1 Bft) NW 325 ° 0 min 0,000 mm 1,3 UV-I 98 W/m² 15,6 °C 25,9 °C 4,8 km/h (1 Bft)
26.08.2017 17:16 25,9 °C 25,9 °C 54 % 1013,6 hPa 0,0 mm 4,2 km/h (1 Bft) NW 324 ° 0 min 0,000 mm 1,3 UV-I 98 W/m² 15,9 °C 25,9 °C 6,4 km/h (2 Bft)
26.08.2017 17:17 25,8 °C 25,9 °C 52 % 1013,6 hPa 0,0 mm 5,7 km/h (1 Bft) N-NW 338 ° 0 min 0,000 mm 1,3 UV-I 84 W/m² 15,2 °C 25,8 °C 8,0 km/h (2 Bft)
26.08.2017 17:18 25,9 °C 25,9 °C 54 % 1013,6 hPa 0,0 mm 4,4 km/h (1 Bft) N-NW 331 ° 0 min 0,000 mm 1,3 UV-I 84 W/m² 15,9 °C 25,9 °C 4,8 km/h (1 Bft)
26.08.2017 17:19 25,9 °C 25,9 °C 54 % 1013,6 hPa 0,0 mm 3,6 km/h (1 Bft) W 261 ° 0 min 0,000 mm 1,3 UV-I 88 W/m² 15,9 °C 25,9 °C 4,8 km/h (1 Bft)
26.08.2017 17:20 25,9 °C 25,9 °C 53 % 1013,6 hPa 0,0 mm 8,0 km/h (2 Bft) W-NW 284 ° 0 min 0,000 mm 1,3 UV-I 88 W/m² 15,6 °C 25,9 °C 12,9 km/h (3 Bft)
26.08.2017 17:21 25,8 °C 25,9 °C 51 % 1013,6 hPa 0,0 mm 3,0 km/h (1 Bft) NW 306 ° 0 min 0,000 mm 1,3 UV-I 86 W/m² 14,9 °C 25,8 °C 9,7 km/h (2 Bft)
26.08.2017 17:22 25,8 °C 25,8 °C 51 % 1013,6 hPa 0,0 mm 3,6 km/h (1 Bft) NW 319 ° 0 min 0,000 mm 1,3 UV-I 84 W/m² 14,9 °C 25,8 °C 6,4 km/h (2 Bft)
26.08.2017 17:23 25,8 °C 25,8 °C 53 % 1013,6 hPa 0,0 mm 3,3 km/h (1 Bft) NW 313 ° 0 min 0,000 mm 1,3 UV-I 83 W/m² 15,5 °C 25,8 °C 6,4 km/h (2 Bft)
26.08.2017 17:24 25,8 °C 25,8 °C 52 % 1013,6 hPa 0,0 mm 3,3 km/h (1 Bft) NW 311 ° 0 min 0,000 mm 1,3 UV-I 84 W/m² 15,2 °C 25,8 °C 4,8 km/h (1 Bft)
26.08.2017 17:25 25,8 °C 25,8 °C 53 % 1013,7 hPa 0,0 mm 2,7 km/h (1 Bft) W-NW 290 ° 0 min 0,000 mm 1,2 UV-I 81 W/m² 15,5 °C 25,8 °C 6,4 km/h (2 Bft)
26.08.2017 17:26 25,8 °C 25,8 °C 54 % 1013,7 hPa 0,0 mm 1,0 km/h (0 Bft) W-NW 290 ° 0 min 0,000 mm 1,2 UV-I 81 W/m² 15,8 °C 25,8 °C 1,6 km/h (1 Bft)
26.08.2017 17:27 25,7 °C 25,8 °C 55 % 1013,7 hPa 0,0 mm 4,9 km/h (1 Bft) W-SW 254 ° 0 min 0,000 mm 1,2 UV-I 83 W/m² 16,0 °C 25,7 °C 8,0 km/h (2 Bft)
26.08.2017 17:29 25,6 °C 25,7 °C 53 % 1013,7 hPa 0,0 mm 3,6 km/h (1 Bft) W-NW 300 ° 0 min 0,000 mm 1,2 UV-I 81 W/m² 15,3 °C 25,6 °C 6,4 km/h (2 Bft)
26.08.2017 17:30 25,6 °C 25,6 °C 53 % 1013,7 hPa 0,0 mm 3,5 km/h (1 Bft) NW 315 ° 0 min 0,000 mm 1,2 UV-I 79 W/m² 15,3 °C 25,6 °C 4,8 km/h (1 Bft)
26.08.2017 17:31 25,6 °C 25,6 °C 55 % 1013,6 hPa 0,0 mm 3,4 km/h (1 Bft) NW 311 ° 0 min 0,000 mm 1,2 UV-I 79 W/m² 15,9 °C 25,6 °C 6,4 km/h (2 Bft)
26.08.2017 17:32 25,6 °C 25,6 °C 55 % 1013,7 hPa 0,0 mm 3,6 km/h (1 Bft) NW 311 ° 0 min 0,000 mm 1,2 UV-I 79 W/m² 15,9 °C 25,6 °C 6,4 km/h (2 Bft)
26.08.2017 17:33 25,6 °C 25,6 °C 57 % 1013,7 hPa 0,0 mm 2,9 km/h (1 Bft) W-SW 257 ° 0 min 0,000 mm 1,2 UV-I 79 W/m² 16,4 °C 25,6 °C 6,4 km/h (2 Bft)
26.08.2017 17:34 25,4 °C 25,6 °C 57 % 1013,7 hPa 0,0 mm 1,8 km/h (1 Bft) W-SW 257 ° 0 min 0,000 mm 1,2 UV-I 79 W/m² 16,2 °C 25,4 °C 3,2 km/h (1 Bft)
26.08.2017 17:35 25,4 °C 25,4 °C 56 % 1013,7 hPa 0,0 mm 4,0 km/h (1 Bft) W 265 ° 0 min 0,000 mm 1,2 UV-I 79 W/m² 16,0 °C 25,4 °C 6,4 km/h (2 Bft)
26.08.2017 17:36 25,4 °C 25,4 °C 55 % 1013,7 hPa 0,0 mm 3,1 km/h (1 Bft) W 266 ° 0 min 0,000 mm 1,1 UV-I 79 W/m² 15,7 °C 25,4 °C 4,8 km/h (1 Bft)
26.08.2017 17:37 25,4 °C 25,4 °C 56 % 1013,7 hPa 0,0 mm 2,8 km/h (1 Bft) W-NW 300 ° 0 min 0,000 mm 1,1 UV-I 79 W/m² 16,0 °C 25,4 °C 4,8 km/h (1 Bft)
26.08.2017 17:38 25,4 °C 25,4 °C 57 % 1013,7 hPa 0,0 mm 1,1 km/h (1 Bft) W-NW 300 ° 0 min 0,000 mm 1,1 UV-I 79 W/m² 16,2 °C 25,4 °C 3,2 km/h (1 Bft)
26.08.2017 17:39 25,4 °C 25,4 °C 56 % 1013,6 hPa 0,0 mm 0,2 km/h (0 Bft) W-NW 300 ° 0 min 0,000 mm 1,1 UV-I 79 W/m² 16,0 °C 25,4 °C 1,6 km/h (1 Bft)
26.08.2017 17:40 25,4 °C 25,4 °C 56 % 1013,7 hPa 0,0 mm 1,3 km/h (1 Bft) W-NW 300 ° 0 min 0,000 mm 1,1 UV-I 79 W/m² 16,0 °C 25,4 °C 1,6 km/h (1 Bft)
26.08.2017 17:41 25,3 °C 25,4 °C 56 % 1013,7 hPa 0,0 mm 0,2 km/h (0 Bft) W-NW 300 ° 0 min 0,000 mm 1,1 UV-I 81 W/m² 15,9 °C 25,3 °C 1,6 km/h (1 Bft)
26.08.2017 17:42 25,3 °C 25,3 °C 56 % 1013,7 hPa 0,0 mm 1,7 km/h (1 Bft) W-NW 300 ° 0 min 0,000 mm 1,1 UV-I 79 W/m² 15,9 °C 25,3 °C 3,2 km/h (1 Bft)
26.08.2017 17:44 25,4 °C 25,4 °C 55 % 1013,6 hPa 0,0 mm 2,8 km/h (1 Bft) W-NW 290 ° 0 min 0,000 mm 1,1 UV-I 77 W/m² 15,7 °C 25,4 °C 6,4 km/h (2 Bft)
26.08.2017 17:45 25,4 °C 25,4 °C 53 % 1013,6 hPa 0,0 mm 2,3 km/h (1 Bft) NW 309 ° 0 min 0,000 mm 1,1 UV-I 77 W/m² 15,1 °C 25,4 °C 3,2 km/h (1 Bft)
26.08.2017 17:46 25,4 °C 25,4 °C 56 % 1013,6 hPa 0,0 mm 0,3 km/h (0 Bft) NW 309 ° 0 min 0,000 mm 1,0 UV-I 77 W/m² 16,0 °C 25,4 °C 1,6 km/h (1 Bft)
26.08.2017 17:47 25,3 °C 25,4 °C 57 % 1013,7 hPa 0,0 mm 0,2 km/h (0 Bft) NW 309 ° 0 min 0,000 mm 1,0 UV-I 77 W/m² 16,2 °C 25,3 °C 1,6 km/h (1 Bft)
26.08.2017 17:48 25,3 °C 25,4 °C 60 % 1013,6 hPa 0,0 mm 0,0 km/h (0 Bft) NW 309 ° 0 min 0,000 mm 1,0 UV-I 77 W/m² 17,0 °C 25,3 °C 0,0 km/h (0 Bft)
26.08.2017 17:49 25,3 °C 25,3 °C 55 % 1013,6 hPa 0,0 mm 0,6 km/h (0 Bft) W 259 ° 0 min 0,000 mm 1,0 UV-I 77 W/m² 15,6 °C 25,3 °C 3,2 km/h (1 Bft)
26.08.2017 17:50 25,4 °C 25,4 °C 57 % 1013,5 hPa 0,0 mm 3,6 km/h (1 Bft) W 279 ° 0 min 0,000 mm 1,0 UV-I 76 W/m² 16,2 °C 25,4 °C 4,8 km/h (1 Bft)
26.08.2017 17:51 25,4 °C 25,4 °C 56 % 1013,5 hPa 0,0 mm 2,5 km/h (1 Bft) W 279 ° 0 min 0,000 mm 1,0 UV-I 76 W/m² 16,0 °C 25,4 °C 3,2 km/h (1 Bft)
26.08.2017 17:52 25,3 °C 25,4 °C 59 % 1013,5 hPa 0,0 mm 0,9 km/h (0 Bft) W 279 ° 0 min 0,000 mm 1,0 UV-I 74 W/m² 16,7 °C 25,3 °C 3,2 km/h (1 Bft)
26.08.2017 17:53 25,3 °C 25,3 °C 55 % 1013,5 hPa 0,0 mm 2,6 km/h (1 Bft) W 279 ° 0 min 0,000 mm 1,0 UV-I 74 W/m² 15,6 °C 25,3 °C 4,8 km/h (1 Bft)
26.08.2017 17:54 25,2 °C 25,3 °C 59 % 1013,5 hPa 0,0 mm 1,6 km/h (1 Bft) W 279 ° 0 min 0,000 mm 1,0 UV-I 74 W/m² 16,6 °C 25,2 °C 3,2 km/h (1 Bft)
26.08.2017 17:55 25,1 °C 25,2 °C 61 % 1013,5 hPa 0,0 mm 2,4 km/h (1 Bft) W 268 ° 0 min 0,000 mm 0,9 UV-I 70 W/m² 17,0 °C 25,1 °C 4,8 km/h (1 Bft)
26.08.2017 17:56 25,0 °C 25,1 °C 62 % 1013,5 hPa 0,0 mm 0,7 km/h (0 Bft) W 268 ° 0 min 0,000 mm 0,9 UV-I 74 W/m² 17,2 °C 25,0 °C 3,2 km/h (1 Bft)
26.08.2017 17:57 24,9 °C 25,0 °C 64 % 1013,5 hPa 0,0 mm 0,2 km/h (0 Bft) W 268 ° 0 min 0,000 mm 0,9 UV-I 74 W/m² 17,6 °C 24,9 °C 1,6 km/h (1 Bft)
26.08.2017 17:58 24,8 °C 24,9 °C 62 % 1013,5 hPa 0,0 mm 0,0 km/h (0 Bft) W 268 ° 0 min 0,000 mm 0,9 UV-I 69 W/m² 17,0 °C 24,8 °C 0,0 km/h (0 Bft)
26.08.2017 17:59 24,8 °C 24,8 °C 57 % 1013,4 hPa 0,0 mm 0,4 km/h (0 Bft) W 268 ° 0 min 0,000 mm 0,9 UV-I 70 W/m² 15,7 °C 24,8 °C 1,6 km/h (1 Bft)
26.08.2017 18:00 24,8 °C 24,8 °C 61 % 1013,4 hPa 0,0 mm 0,4 km/h (0 Bft) W 268 ° 0 min 0,076 mm 0,9 UV-I 67 W/m² 16,8 °C 24,8 °C 1,6 km/h (1 Bft)
26.08.2017 18:01 24,8 °C 24,8 °C 60 % 1013,4 hPa 0,0 mm 0,0 km/h (0 Bft) W 268 ° 0 min 0,000 mm 0,9 UV-I 67 W/m² 16,5 °C 24,8 °C 0,0 km/h (0 Bft)
26.08.2017 18:02 24,7 °C 24,8 °C 63 % 1013,4 hPa 0,0 mm 0,0 km/h (0 Bft) W 268 ° 0 min 0,000 mm 0,9 UV-I 67 W/m² 17,2 °C 24,7 °C 0,0 km/h (0 Bft)
26.08.2017 18:03 24,6 °C 24,7 °C 63 % 1013,3 hPa 0,0 mm 0,0 km/h (0 Bft) W 268 ° 0 min 0,000 mm 0,9 UV-I 70 W/m² 17,1 °C 24,6 °C 0,0 km/h (0 Bft)
26.08.2017 18:04 24,4 °C 24,6 °C 64 % 1013,3 hPa 0,0 mm 0,0 km/h (0 Bft) W 268 ° 0 min 0,000 mm 0,9 UV-I 72 W/m² 17,1 °C 24,4 °C 0,0 km/h (0 Bft)
26.08.2017 18:05 24,3 °C 24,4 °C 67 % 1013,3 hPa 0,0 mm 0,0 km/h (0 Bft) W 268 ° 0 min 0,000 mm 0,9 UV-I 74 W/m² 17,8 °C 24,3 °C 0,0 km/h (0 Bft)
26.08.2017 18:06 24,2 °C 24,3 °C 68 % 1013,3 hPa 0,0 mm 0,0 km/h (0 Bft) W 268 ° 0 min 0,000 mm 0,9 UV-I 72 W/m² 17,9 °C 24,2 °C 0,0 km/h (0 Bft)
26.08.2017 18:07 24,2 °C 24,2 °C 66 % 1013,3 hPa 0,0 mm 0,0 km/h (0 Bft) W 268 ° 0 min 0,000 mm 0,8 UV-I 72 W/m² 17,4 °C 24,2 °C 0,0 km/h (0 Bft)
26.08.2017 18:08 24,1 °C 24,2 °C 64 % 1013,2 hPa 0,0 mm 0,0 km/h (0 Bft) W 268 ° 0 min 0,000 mm 0,8 UV-I 74 W/m² 16,9 °C 24,1 °C 0,0 km/h (0 Bft)
26.08.2017 18:09 24,1 °C 24,1 °C 66 % 1013,2 hPa 0,0 mm 0,0 km/h (0 Bft) W 268 ° 0 min 0,000 mm 0,8 UV-I 74 W/m² 17,3 °C 24,1 °C 0,0 km/h (0 Bft)
26.08.2017 18:10 24,2 °C 24,2 °C 63 % 1013,2 hPa 0,0 mm 0,0 km/h (0 Bft) W 268 ° 0 min 0,000 mm 0,8 UV-I 74 W/m² 16,7 °C 24,2 °C 0,0 km/h (0 Bft)
26.08.2017 18:11 24,2 °C 24,2 °C 66 % 1013,1 hPa 0,0 mm 0,0 km/h (0 Bft) W 268 ° 0 min 0,000 mm 0,8 UV-I 72 W/m² 17,4 °C 24,2 °C 0,0 km/h (0 Bft)
26.08.2017 18:12 24,2 °C 24,2 °C 61 % 1013,2 hPa 0,0 mm 0,0 km/h (0 Bft) W 268 ° 0 min 0,000 mm 0,8 UV-I 72 W/m² 16,2 °C 24,2 °C 0,0 km/h (0 Bft)
26.08.2017 18:14 24,3 °C 24,3 °C 61 % 1013,1 hPa 0,0 mm 0,0 km/h (0 Bft) W 268 ° 0 min 0,000 mm 0,8 UV-I 70 W/m² 16,3 °C 24,3 °C 0,0 km/h (0 Bft)
26.08.2017 18:15 24,4 °C 24,4 °C 62 % 1013,1 hPa 0,0 mm 0,0 km/h (0 Bft) W 268 ° 0 min 0,000 mm 0,8 UV-I 69 W/m² 16,6 °C 24,4 °C 0,0 km/h (0 Bft)
26.08.2017 18:16 24,4 °C 24,4 °C 61 % 1013,1 hPa 0,0 mm 0,0 km/h (0 Bft) W 268 ° 0 min 0,000 mm 0,8 UV-I 69 W/m² 16,4 °C 24,4 °C 0,0 km/h (0 Bft)
26.08.2017 18:17 24,5 °C 24,5 °C 61 % 1013,0 hPa 0,0 mm 0,0 km/h (0 Bft) W 268 ° 0 min 0,000 mm 0,8 UV-I 69 W/m² 16,5 °C 24,5 °C 0,0 km/h (0 Bft)
26.08.2017 18:18 24,5 °C 24,5 °C 61 % 1013,1 hPa 0,0 mm 0,0 km/h (0 Bft) W 268 ° 0 min 0,000 mm 0,8 UV-I 67 W/m² 16,5 °C 24,5 °C 0,0 km/h (0 Bft)
26.08.2017 18:19 24,6 °C 24,6 °C 62 % 1013,0 hPa 0,0 mm 0,0 km/h (0 Bft) W 268 ° 0 min 0,000 mm 0,8 UV-I 67 W/m² 16,8 °C 24,6 °C 0,0 km/h (0 Bft)
26.08.2017 18:20 24,6 °C 24,6 °C 61 % 1013,0 hPa 0,0 mm 0,0 km/h (0 Bft) W 268 ° 0 min 0,000 mm 0,7 UV-I 67 W/m² 16,6 °C 24,6 °C 0,0 km/h (0 Bft)
26.08.2017 18:21 24,6 °C 24,6 °C 65 % 1013,0 hPa 0,0 mm 0,0 km/h (0 Bft) W 268 ° 0 min 0,000 mm 0,7 UV-I 67 W/m² 17,6 °C 24,6 °C 0,0 km/h (0 Bft)
26.08.2017 18:22 24,5 °C 24,6 °C 61 % 1013,0 hPa 0,0 mm 0,0 km/h (0 Bft) W 268 ° 0 min 0,000 mm 0,7 UV-I 63 W/m² 16,5 °C 24,5 °C 0,0 km/h (0 Bft)
26.08.2017 18:23 24,4 °C 24,5 °C 64 % 1013,0 hPa 0,0 mm 0,0 km/h (0 Bft) W 268 ° 0 min 0,000 mm 0,7 UV-I 65 W/m² 17,1 °C 24,4 °C 0,0 km/h (0 Bft)
26.08.2017 18:24 24,3 °C 24,4 °C 62 % 1013,0 hPa 0,0 mm 0,0 km/h (0 Bft) W 268 ° 0 min 0,000 mm 0,7 UV-I 65 W/m² 16,5 °C 24,3 °C 0,0 km/h (0 Bft)
26.08.2017 18:25 24,2 °C 24,3 °C 65 % 1013,0 hPa 0,0 mm 0,0 km/h (0 Bft) W 268 ° 0 min 0,000 mm 0,7 UV-I 65 W/m² 17,2 °C 24,2 °C 0,0 km/h (0 Bft)
26.08.2017 18:26 24,2 °C 24,2 °C 62 % 1013,0 hPa 0,0 mm 0,2 km/h (0 Bft) W 268 ° 0 min 0,000 mm 0,7 UV-I 65 W/m² 16,4 °C 24,2 °C 1,6 km/h (1 Bft)
26.08.2017 18:27 24,2 °C 24,2 °C 64 % 1012,9 hPa 0,0 mm 0,5 km/h (0 Bft) W 268 ° 0 min 0,000 mm 0,7 UV-I 63 W/m² 16,9 °C 24,2 °C 1,6 km/h (1 Bft)
26.08.2017 18:28 24,2 °C 24,2 °C 65 % 1012,9 hPa 0,0 mm 0,0 km/h (0 Bft) W 268 ° 0 min 0,000 mm 0,7 UV-I 63 W/m² 17,2 °C 24,2 °C 0,0 km/h (0 Bft)
26.08.2017 18:30 24,1 °C 24,2 °C 64 % 1012,9 hPa 0,0 mm 0,0 km/h (0 Bft) W 268 ° 0 min 0,000 mm 0,7 UV-I 63 W/m² 16,9 °C 24,1 °C 0,0 km/h (0 Bft)
26.08.2017 18:31 24,0 °C 24,1 °C 66 % 1012,9 hPa 0,0 mm 0,0 km/h (0 Bft) W 268 ° 0 min 0,000 mm 0,6 UV-I 63 W/m² 17,2 °C 24,0 °C 0,0 km/h (0 Bft)
26.08.2017 18:32 23,9 °C 24,1 °C 69 % 1012,9 hPa 0,0 mm 0,0 km/h (0 Bft) W 268 ° 0 min 0,000 mm 0,6 UV-I 63 W/m² 17,9 °C 23,9 °C 0,0 km/h (0 Bft)
26.08.2017 18:33 23,8 °C 23,9 °C 68 % 1012,9 hPa 0,0 mm 0,0 km/h (0 Bft) W 268 ° 0 min 0,000 mm 0,6 UV-I 62 W/m² 17,5 °C 23,8 °C 0,0 km/h (0 Bft)
26.08.2017 18:34 23,8 °C 23,8 °C 63 % 1012,9 hPa 0,0 mm 0,0 km/h (0 Bft) W 268 ° 0 min 0,000 mm 0,6 UV-I 62 W/m² 16,3 °C 23,8 °C 0,0 km/h (0 Bft)
26.08.2017 18:35 23,7 °C 23,8 °C 67 % 1013,0 hPa 0,0 mm 0,0 km/h (0 Bft) W 268 ° 0 min 0,000 mm 0,6 UV-I 62 W/m² 17,2 °C 23,7 °C 0,0 km/h (0 Bft)
26.08.2017 18:36 23,8 °C 23,8 °C 65 % 1012,9 hPa 0,0 mm 1,1 km/h (1 Bft) W 268 ° 0 min 0,000 mm 0,6 UV-I 62 W/m² 16,8 °C 23,8 °C 1,6 km/h (1 Bft)
26.08.2017 18:37 23,8 °C 23,8 °C 66 % 1012,9 hPa 0,0 mm 0,2 km/h (0 Bft) W 268 ° 0 min 0,000 mm 0,6 UV-I 62 W/m² 17,1 °C 23,8 °C 1,6 km/h (1 Bft)
26.08.2017 18:38 23,9 °C 23,9 °C 65 % 1012,9 hPa 0,0 mm 0,0 km/h (0 Bft) W 268 ° 0 min 0,000 mm 0,6 UV-I 62 W/m² 16,9 °C 23,9 °C 0,0 km/h (0 Bft)
26.08.2017 18:39 23,9 °C 23,9 °C 68 % 1013,0 hPa 0,0 mm 0,0 km/h (0 Bft) W 268 ° 0 min 0,000 mm 0,6 UV-I 62 W/m² 17,6 °C 23,9 °C 0,0 km/h (0 Bft)
26.08.2017 18:40 23,9 °C 23,9 °C 65 % 1012,9 hPa 0,0 mm 0,0 km/h (0 Bft) W 268 ° 0 min 0,000 mm 0,6 UV-I 62 W/m² 16,9 °C 23,9 °C 0,0 km/h (0 Bft)
26.08.2017 18:41 23,8 °C 23,9 °C 66 % 1013,0 hPa 0,0 mm 0,0 km/h (0 Bft) W 268 ° 0 min 0,000 mm 0,6 UV-I 62 W/m² 17,1 °C 23,8 °C 0,0 km/h (0 Bft)
26.08.2017 18:42 23,8 °C 23,8 °C 65 % 1013,0 hPa 0,0 mm 0,0 km/h (0 Bft) W 268 ° 0 min 0,000 mm 0,6 UV-I 62 W/m² 16,8 °C 23,8 °C 0,0 km/h (0 Bft)
26.08.2017 18:43 23,9 °C 23,9 °C 65 % 1013,0 hPa 0,0 mm 0,0 km/h (0 Bft) W 268 ° 0 min 0,000 mm 0,5 UV-I 63 W/m² 16,9 °C 23,9 °C 0,0 km/h (0 Bft)
26.08.2017 18:44 23,7 °C 23,9 °C 71 % 1013,0 hPa 0,0 mm 0,0 km/h (0 Bft) W 268 ° 0 min 0,000 mm 0,5 UV-I 63 W/m² 18,1 °C 23,7 °C 0,0 km/h (0 Bft)
26.08.2017 18:45 23,6 °C 23,7 °C 69 % 1013,0 hPa 0,0 mm 0,0 km/h (0 Bft) W 268 ° 0 min 0,000 mm 0,5 UV-I 65 W/m² 17,6 °C 23,6 °C 0,0 km/h (0 Bft)
26.08.2017 18:46 23,6 °C 23,6 °C 66 % 1013,0 hPa 0,0 mm 0,0 km/h (0 Bft) W 268 ° 0 min 0,000 mm 0,5 UV-I 65 W/m² 16,9 °C 23,6 °C 0,0 km/h (0 Bft)
26.08.2017 18:47 23,7 °C 23,7 °C 64 % 1013,1 hPa 0,0 mm 0,0 km/h (0 Bft) W 268 ° 0 min 0,000 mm 0,5 UV-I 62 W/m² 16,5 °C 23,7 °C 0,0 km/h (0 Bft)
26.08.2017 18:48 23,8 °C 23,8 °C 66 % 1013,1 hPa 0,0 mm 0,0 km/h (0 Bft) W 268 ° 0 min 0,000 mm 0,5 UV-I 62 W/m² 17,1 °C 23,8 °C 0,0 km/h (0 Bft)
26.08.2017 18:49 23,9 °C 23,9 °C 66 % 1013,1 hPa 0,0 mm 0,0 km/h (0 Bft) W 268 ° 0 min 0,000 mm 0,5 UV-I 62 W/m² 17,1 °C 23,9 °C 0,0 km/h (0 Bft)
26.08.2017 18:50 23,9 °C 23,9 °C 68 % 1013,1 hPa 0,0 mm 0,0 km/h (0 Bft) W 268 ° 0 min 0,000 mm 0,5 UV-I 63 W/m² 17,6 °C 23,9 °C 0,0 km/h (0 Bft)
26.08.2017 18:51 23,8 °C 23,9 °C 69 % 1013,1 hPa 0,0 mm 0,0 km/h (0 Bft) W 268 ° 0 min 0,000 mm 0,5 UV-I 65 W/m² 17,8 °C 23,8 °C 0,0 km/h (0 Bft)
26.08.2017 18:52 23,8 °C 23,8 °C 70 % 1013,1 hPa 0,0 mm 0,0 km/h (0 Bft) W 268 ° 0 min 0,000 mm 0,5 UV-I 70 W/m² 18,0 °C 23,8 °C 0,0 km/h (0 Bft)
26.08.2017 18:53 23,8 °C 23,8 °C 72 % 1013,1 hPa 0,0 mm 0,0 km/h (0 Bft) W 268 ° 0 min 0,000 mm 0,5 UV-I 72 W/m² 18,4 °C 23,8 °C 0,0 km/h (0 Bft)
26.08.2017 18:54 23,7 °C 23,8 °C 72 % 1013,1 hPa 0,0 mm 0,0 km/h (0 Bft) W 268 ° 0 min 0,000 mm 0,5 UV-I 72 W/m² 18,3 °C 23,7 °C 0,0 km/h (0 Bft)
26.08.2017 18:55 23,7 °C 23,7 °C 71 % 1013,1 hPa 0,0 mm 0,0 km/h (0 Bft) W 268 ° 0 min 0,000 mm 0,0 UV-I 72 W/m² 18,1 °C 23,7 °C 0,0 km/h (0 Bft)
26.08.2017 18:56 23,6 °C 23,7 °C 72 % 1013,1 hPa 0,0 mm 0,0 km/h (0 Bft) W 268 ° 0 min 0,000 mm 0,0 UV-I 76 W/m² 18,2 °C 23,6 °C 0,0 km/h (0 Bft)
26.08.2017 18:57 23,4 °C 23,6 °C 70 % 1013,1 hPa 0,0 mm 0,0 km/h (0 Bft) W 268 ° 0 min 0,000 mm 0,0 UV-I 91 W/m² 17,6 °C 23,4 °C 0,0 km/h (0 Bft)
26.08.2017 18:58 23,4 °C 23,4 °C 68 % 1013,1 hPa 0,0 mm 0,0 km/h (0 Bft) W 268 ° 0 min 0,000 mm 0,0 UV-I 81 W/m² 17,1 °C 23,4 °C 0,0 km/h (0 Bft)
26.08.2017 18:59 23,4 °C 23,5 °C 69 % 1013,1 hPa 0,0 mm 0,0 km/h (0 Bft) W 268 ° 0 min 0,000 mm 0,0 UV-I 86 W/m² 17,4 °C 23,4 °C 0,0 km/h (0 Bft)
26.08.2017 19:00 23,5 °C 23,5 °C 70 % 1013,1 hPa 0,0 mm 0,0 km/h (0 Bft) W 268 ° 0 min 0,000 mm 0,0 UV-I 93 W/m² 17,7 °C 23,5 °C 0,0 km/h (0 Bft)
26.08.2017 19:01 23,4 °C 23,5 °C 69 % 1013,1 hPa 0,0 mm 0,0 km/h (0 Bft) W 268 ° 0 min 0,051 mm 0,0 UV-I 90 W/m² 17,4 °C 23,4 °C 0,0 km/h (0 Bft)
26.08.2017 19:02 23,4 °C 23,4 °C 67 % 1013,2 hPa 0,0 mm 0,0 km/h (0 Bft) W 268 ° 0 min 0,000 mm 0,0 UV-I 84 W/m² 16,9 °C 23,4 °C 0,0 km/h (0 Bft)
26.08.2017 19:03 23,5 °C 23,5 °C 68 % 1013,1 hPa 0,0 mm 0,0 km/h (0 Bft) W 268 ° 0 min 0,000 mm 0,0 UV-I 76 W/m² 17,2 °C 23,5 °C 0,0 km/h (0 Bft)
26.08.2017 19:04 23,5 °C 23,6 °C 68 % 1013,1 hPa 0,0 mm 0,0 km/h (0 Bft) W 268 ° 0 min 0,000 mm 0,0 UV-I 74 W/m² 17,2 °C 23,5 °C 0,0 km/h (0 Bft)
26.08.2017 19:05 23,4 °C 23,5 °C 67 % 1013,1 hPa 0,0 mm 0,0 km/h (0 Bft) W 268 ° 0 min 0,000 mm 0,0 UV-I 74 W/m² 16,9 °C 23,4 °C 0,0 km/h (0 Bft)
26.08.2017 19:06 23,4 °C 23,4 °C 67 % 1013,2 hPa 0,0 mm 0,0 km/h (0 Bft) W 268 ° 0 min 0,000 mm 0,0 UV-I 74 W/m² 16,9 °C 23,4 °C 0,0 km/h (0 Bft)
26.08.2017 19:07 23,4 °C 23,4 °C 67 % 1013,2 hPa 0,0 mm 0,0 km/h (0 Bft) W 268 ° 0 min 0,000 mm 0,0 UV-I 79 W/m² 16,9 °C 23,4 °C 0,0 km/h (0 Bft)
26.08.2017 19:08 23,4 °C 23,4 °C 67 % 1013,2 hPa 0,0 mm 0,0 km/h (0 Bft) W 268 ° 0 min 0,000 mm 0,0 UV-I 76 W/m² 16,9 °C 23,4 °C 0,0 km/h (0 Bft)
26.08.2017 19:09 23,4 °C 23,4 °C 67 % 1013,2 hPa 0,0 mm 0,0 km/h (0 Bft) W 268 ° 0 min 0,000 mm 0,0 UV-I 81 W/m² 16,9 °C 23,4 °C 0,0 km/h (0 Bft)
26.08.2017 19:10 23,4 °C 23,4 °C 67 % 1013,2 hPa 0,0 mm 0,0 km/h (0 Bft) W 268 ° 0 min 0,000 mm 0,0 UV-I 79 W/m² 16,9 °C 23,4 °C 0,0 km/h (0 Bft)
26.08.2017 19:11 23,4 °C 23,4 °C 67 % 1013,2 hPa 0,0 mm 0,0 km/h (0 Bft) W 268 ° 0 min 0,000 mm 0,0 UV-I 81 W/m² 16,9 °C 23,4 °C 0,0 km/h (0 Bft)
26.08.2017 19:12 23,4 °C 23,4 °C 68 % 1013,2 hPa 0,0 mm 0,1 km/h (0 Bft) W 268 ° 0 min 0,000 mm 0,0 UV-I 79 W/m² 17,1 °C 23,4 °C 1,6 km/h (1 Bft)
26.08.2017 19:13 23,4 °C 23,4 °C 69 % 1013,2 hPa 0,0 mm 0,0 km/h (0 Bft) W 268 ° 0 min 0,000 mm 0,0 UV-I 79 W/m² 17,4 °C 23,4 °C 0,0 km/h (0 Bft)
26.08.2017 19:14 23,4 °C 23,4 °C 68 % 1013,2 hPa 0,0 mm 0,0 km/h (0 Bft) W 268 ° 0 min 0,000 mm 0,0 UV-I 74 W/m² 17,1 °C 23,4 °C 0,0 km/h (0 Bft)
26.08.2017 19:15 23,4 °C 23,4 °C 67 % 1013,2 hPa 0,0 mm 0,0 km/h (0 Bft) W 268 ° 0 min 0,000 mm 0,0 UV-I 70 W/m² 16,9 °C 23,4 °C 0,0 km/h (0 Bft)
26.08.2017 19:16 23,4 °C 23,4 °C 69 % 1013,2 hPa 0,0 mm 0,0 km/h (0 Bft) W 268 ° 0 min 0,000 mm 0,0 UV-I 69 W/m² 17,4 °C 23,4 °C 0,0 km/h (0 Bft)
26.08.2017 19:17 23,4 °C 23,4 °C 70 % 1013,2 hPa 0,0 mm 0,0 km/h (0 Bft) W 268 ° 0 min 0,000 mm 0,0 UV-I 67 W/m² 17,6 °C 23,4 °C 0,0 km/h (0 Bft)
26.08.2017 19:18 23,4 °C 23,4 °C 71 % 1013,2 hPa 0,0 mm 0,0 km/h (0 Bft) W 268 ° 0 min 0,000 mm 0,0 UV-I 63 W/m² 17,8 °C 23,4 °C 0,0 km/h (0 Bft)
26.08.2017 19:19 23,3 °C 23,4 °C 71 % 1013,2 hPa 0,0 mm 0,0 km/h (0 Bft) W 268 ° 0 min 0,000 mm 0,0 UV-I 58 W/m² 17,7 °C 23,3 °C 0,0 km/h (0 Bft)
26.08.2017 19:20 23,3 °C 23,3 °C 71 % 1013,2 hPa 0,0 mm 0,0 km/h (0 Bft) W 268 ° 0 min 0,000 mm 0,0 UV-I 49 W/m² 17,7 °C 23,3 °C 0,0 km/h (0 Bft)
26.08.2017 19:21 23,2 °C 23,3 °C 71 % 1013,2 hPa 0,0 mm 0,0 km/h (0 Bft) W 268 ° 0 min 0,000 mm 0,0 UV-I 49 W/m² 17,6 °C 23,2 °C 0,0 km/h (0 Bft)
26.08.2017 19:22 23,0 °C 23,2 °C 74 % 1013,2 hPa 0,0 mm 0,0 km/h (0 Bft) W 268 ° 0 min 0,000 mm 0,0 UV-I 46 W/m² 18,1 °C 23,0 °C 0,0 km/h (0 Bft)
26.08.2017 19:23 22,8 °C 23,0 °C 73 % 1013,3 hPa 0,0 mm 0,0 km/h (0 Bft) W 268 ° 0 min 0,000 mm 0,0 UV-I 42 W/m² 17,7 °C 22,8 °C 0,0 km/h (0 Bft)
26.08.2017 19:24 22,7 °C 22,8 °C 73 % 1013,3 hPa 0,0 mm 0,0 km/h (0 Bft) W 268 ° 0 min 0,000 mm 0,0 UV-I 40 W/m² 17,6 °C 22,7 °C 0,0 km/h (0 Bft)
26.08.2017 19:25 22,6 °C 22,7 °C 75 % 1013,3 hPa 0,0 mm 2,7 km/h (1 Bft) W 268 ° 0 min 0,000 mm 0,0 UV-I 40 W/m² 17,9 °C 22,6 °C 4,8 km/h (1 Bft)
26.08.2017 19:26 22,5 °C 22,6 °C 74 % 1013,3 hPa 0,0 mm 1,6 km/h (1 Bft) W 268 ° 0 min 0,000 mm 0,0 UV-I 42 W/m² 17,6 °C 22,5 °C 3,2 km/h (1 Bft)
26.08.2017 19:27 22,4 °C 22,5 °C 75 % 1013,3 hPa 0,0 mm 0,0 km/h (0 Bft) W 268 ° 0 min 0,000 mm 0,0 UV-I 42 W/m² 17,7 °C 22,4 °C 0,0 km/h (0 Bft)
26.08.2017 19:28 22,3 °C 22,4 °C 75 % 1013,3 hPa 0,0 mm 0,1 km/h (0 Bft) W 268 ° 0 min 0,000 mm 0,0 UV-I 40 W/m² 17,6 °C 22,3 °C 1,6 km/h (1 Bft)
26.08.2017 19:29 22,3 °C 22,3 °C 75 % 1013,3 hPa 0,0 mm 0,1 km/h (0 Bft) W 268 ° 0 min 0,000 mm 0,0 UV-I 39 W/m² 17,6 °C 22,3 °C 1,6 km/h (1 Bft)
26.08.2017 19:30 22,3 °C 22,3 °C 75 % 1013,3 hPa 0,0 mm 0,0 km/h (0 Bft) W 268 ° 0 min 0,000 mm 0,0 UV-I 39 W/m² 17,6 °C 22,3 °C 0,0 km/h (0 Bft)
26.08.2017 19:31 22,2 °C 22,3 °C 75 % 1013,4 hPa 0,0 mm 1,5 km/h (1 Bft) W 268 ° 0 min 0,000 mm 0,0 UV-I 37 W/m² 17,5 °C 22,2 °C 3,2 km/h (1 Bft)
26.08.2017 19:32 22,0 °C 22,2 °C 76 % 1013,3 hPa 0,0 mm 0,1 km/h (0 Bft) W 268 ° 0 min 0,000 mm 0,0 UV-I 33 W/m² 17,6 °C 22,0 °C 1,6 km/h (1 Bft)
26.08.2017 19:33 21,8 °C 22,0 °C 77 % 1013,4 hPa 0,0 mm 0,0 km/h (0 Bft) W 268 ° 0 min 0,000 mm 0,0 UV-I 32 W/m² 17,6 °C 21,8 °C 0,0 km/h (0 Bft)
26.08.2017 19:34 21,6 °C 21,8 °C 78 % 1013,4 hPa 0,0 mm 0,3 km/h (0 Bft) W 268 ° 0 min 0,000 mm 0,0 UV-I 32 W/m² 17,6 °C 21,6 °C 1,6 km/h (1 Bft)
26.08.2017 19:35 21,6 °C 21,6 °C 78 % 1013,4 hPa 0,0 mm 2,7 km/h (1 Bft) W 268 ° 0 min 0,000 mm 0,0 UV-I 30 W/m² 17,6 °C 21,6 °C 3,2 km/h (1 Bft)
26.08.2017 19:36 21,6 °C 21,6 °C 77 % 1013,4 hPa 0,0 mm 1,3 km/h (1 Bft) W 268 ° 0 min 0,000 mm 0,0 UV-I 28 W/m² 17,4 °C 21,6 °C 3,2 km/h (1 Bft)
26.08.2017 19:37 21,6 °C 21,6 °C 77 % 1013,4 hPa 0,0 mm 3,1 km/h (1 Bft) W 268 ° 0 min 0,000 mm 0,0 UV-I 26 W/m² 17,4 °C 21,6 °C 4,8 km/h (1 Bft)
26.08.2017 19:38 21,6 °C 21,6 °C 78 % 1013,4 hPa 0,0 mm 2,5 km/h (1 Bft) W 268 ° 0 min 0,000 mm 0,0 UV-I 23 W/m² 17,6 °C 21,6 °C 3,2 km/h (1 Bft)
26.08.2017 19:39 21,4 °C 21,6 °C 77 % 1013,4 hPa 0,0 mm 2,0 km/h (1 Bft) W 268 ° 0 min 0,000 mm 0,0 UV-I 21 W/m² 17,2 °C 21,4 °C 3,2 km/h (1 Bft)
26.08.2017 19:40 21,4 °C 21,5 °C 76 % 1013,5 hPa 0,0 mm 1,9 km/h (1 Bft) W-SW 239 ° 0 min 0,000 mm 0,0 UV-I 21 W/m² 17,0 °C 21,4 °C 4,8 km/h (1 Bft)
26.08.2017 19:41 21,4 °C 21,4 °C 76 % 1013,5 hPa 0,0 mm 2,7 km/h (1 Bft) W-SW 239 ° 0 min 0,000 mm 0,0 UV-I 19 W/m² 17,0 °C 21,4 °C 4,8 km/h (1 Bft)
26.08.2017 19:42 21,4 °C 21,4 °C 76 % 1013,5 hPa 0,0 mm 0,3 km/h (0 Bft) W-SW 239 ° 0 min 0,000 mm 0,0 UV-I 19 W/m² 17,0 °C 21,4 °C 1,6 km/h (1 Bft)
26.08.2017 19:43 21,3 °C 21,4 °C 77 % 1013,5 hPa 0,0 mm 0,0 km/h (0 Bft) W-SW 239 ° 0 min 0,000 mm 0,0 UV-I 18 W/m² 17,1 °C 21,3 °C 0,0 km/h (0 Bft)
26.08.2017 19:44 21,2 °C 21,3 °C 77 % 1013,5 hPa 0,0 mm 0,8 km/h (0 Bft) W-SW 240 ° 0 min 0,000 mm 0,0 UV-I 18 W/m² 17,0 °C 21,2 °C 3,2 km/h (1 Bft)
26.08.2017 19:45 21,0 °C 21,2 °C 78 % 1013,5 hPa 0,0 mm 0,0 km/h (0 Bft) W-SW 239 ° 0 min 0,000 mm 0,0 UV-I 16 W/m² 17,0 °C 21,0 °C 0,0 km/h (0 Bft)
26.08.2017 19:46 20,9 °C 21,0 °C 78 % 1013,5 hPa 0,0 mm 0,4 km/h (0 Bft) W-SW 239 ° 0 min 0,000 mm 0,0 UV-I 16 W/m² 16,9 °C 20,9 °C 3,2 km/h (1 Bft)
26.08.2017 19:47 20,8 °C 20,9 °C 80 % 1013,5 hPa 0,0 mm 3,0 km/h (1 Bft) S-SW 197 ° 0 min 0,000 mm 0,0 UV-I 16 W/m² 17,2 °C 20,8 °C 3,2 km/h (1 Bft)
26.08.2017 19:48 20,8 °C 20,8 °C 80 % 1013,4 hPa 0,0 mm 2,9 km/h (1 Bft) S-SW 197 ° 0 min 0,000 mm 0,0 UV-I 16 W/m² 17,2 °C 20,8 °C 3,2 km/h (1 Bft)
26.08.2017 19:49 20,8 °C 20,8 °C 79 % 1013,4 hPa 0,0 mm 2,8 km/h (1 Bft) S-SW 197 ° 0 min 0,000 mm 0,0 UV-I 14 W/m² 17,0 °C 20,8 °C 4,8 km/h (1 Bft)
26.08.2017 19:50 20,8 °C 20,9 °C 78 % 1013,4 hPa 0,0 mm 2,3 km/h (1 Bft) S-SW 197 ° 0 min 0,000 mm 0,0 UV-I 14 W/m² 16,8 °C 20,8 °C 3,2 km/h (1 Bft)
26.08.2017 19:51 20,8 °C 20,8 °C 77 % 1013,5 hPa 0,0 mm 0,3 km/h (0 Bft) S-SW 197 ° 0 min 0,000 mm 0,0 UV-I 14 W/m² 16,6 °C 20,8 °C 1,6 km/h (1 Bft)
26.08.2017 19:52 20,8 °C 20,8 °C 77 % 1013,5 hPa 0,0 mm 0,0 km/h (0 Bft) S-SW 197 ° 0 min 0,000 mm 0,0 UV-I 14 W/m² 16,6 °C 20,8 °C 0,0 km/h (0 Bft)
26.08.2017 19:53 20,8 °C 20,8 °C 77 % 1013,5 hPa 0,0 mm 1,8 km/h (1 Bft) S-SW 197 ° 0 min 0,000 mm 0,0 UV-I 12 W/m² 16,6 °C 20,8 °C 3,2 km/h (1 Bft)
26.08.2017 19:54 20,8 °C 20,8 °C 76 % 1013,5 hPa 0,0 mm 1,6 km/h (1 Bft) S-SW 197 ° 0 min 0,000 mm 0,0 UV-I 12 W/m² 16,4 °C 20,8 °C 4,8 km/h (1 Bft)
26.08.2017 19:55 20,8 °C 20,8 °C 78 % 1013,5 hPa 0,0 mm 1,0 km/h (0 Bft) S-SW 197 ° 0 min 0,000 mm 0,0 UV-I 11 W/m² 16,8 °C 20,8 °C 3,2 km/h (1 Bft)
26.08.2017 19:56 20,8 °C 20,8 °C 78 % 1013,5 hPa 0,0 mm 3,3 km/h (1 Bft) S-SW 197 ° 0 min 0,000 mm 0,0 UV-I 9 W/m² 16,8 °C 20,8 °C 4,8 km/h (1 Bft)
26.08.2017 19:57 20,7 °C 20,8 °C 78 % 1013,4 hPa 0,0 mm 0,9 km/h (0 Bft) S-SW 197 ° 0 min 0,000 mm 0,0 UV-I 9 W/m² 16,7 °C 20,7 °C 3,2 km/h (1 Bft)
26.08.2017 19:58 20,7 °C 20,7 °C 78 % 1013,4 hPa 0,0 mm 1,5 km/h (1 Bft) S-SW 197 ° 0 min 0,000 mm 0,0 UV-I 7 W/m² 16,7 °C 20,7 °C 3,2 km/h (1 Bft)
26.08.2017 19:59 20,7 °C 20,7 °C 77 % 1013,3 hPa 0,0 mm 0,5 km/h (0 Bft) S-SW 197 ° 0 min 0,000 mm 0,0 UV-I 7 W/m² 16,5 °C 20,7 °C 1,6 km/h (1 Bft)
26.08.2017 20:00 20,7 °C 20,7 °C 78 % 1013,3 hPa 0,0 mm 1,5 km/h (1 Bft) S-SW 197 ° 0 min 0,000 mm 0,0 UV-I 5 W/m² 16,7 °C 20,7 °C 3,2 km/h (1 Bft)
26.08.2017 20:01 20,7 °C 20,8 °C 77 % 1013,3 hPa 0,0 mm 3,1 km/h (1 Bft) S-SW 197 ° 0 min 0,025 mm 0,0 UV-I 5 W/m² 16,5 °C 20,7 °C 4,8 km/h (1 Bft)
26.08.2017 20:02 20,6 °C 20,7 °C 78 % 1013,4 hPa 0,0 mm 2,3 km/h (1 Bft) S-SW 197 ° 0 min 0,000 mm 0,0 UV-I 0 W/m² 16,6 °C 20,6 °C 3,2 km/h (1 Bft)
26.08.2017 20:03 20,6 °C 20,7 °C 77 % 1013,4 hPa 0,0 mm 2,6 km/h (1 Bft) S-SW 197 ° 0 min 0,000 mm 0,0 UV-I 0 W/m² 16,4 °C 20,6 °C 3,2 km/h (1 Bft)
26.08.2017 20:04 20,7 °C 20,7 °C 77 % 1013,4 hPa 0,0 mm 2,1 km/h (1 Bft) S-SW 197 ° 0 min 0,000 mm 0,0 UV-I 0 W/m² 16,5 °C 20,7 °C 3,2 km/h (1 Bft)
26.08.2017 20:05 20,6 °C 20,7 °C 78 % 1013,3 hPa 0,0 mm 1,9 km/h (1 Bft) S-SW 197 ° 0 min 0,000 mm 0,0 UV-I 0 W/m² 16,6 °C 20,6 °C 3,2 km/h (1 Bft)
26.08.2017 20:06 20,4 °C 20,6 °C 78 % 1013,4 hPa 0,0 mm 0,7 km/h (0 Bft) S-SW 197 ° 0 min 0,000 mm 0,0 UV-I 0 W/m² 16,4 °C 20,4 °C 3,2 km/h (1 Bft)
26.08.2017 20:07 20,3 °C 20,4 °C 79 % 1013,3 hPa 0,0 mm 0,7 km/h (0 Bft) S-SW 197 ° 0 min 0,000 mm 0,0 UV-I 0 W/m² 16,5 °C 20,3 °C 1,6 km/h (1 Bft)
26.08.2017 20:08 20,1 °C 20,3 °C 79 % 1013,4 hPa 0,0 mm 1,7 km/h (1 Bft) S-SW 197 ° 0 min 0,000 mm 0,0 UV-I 0 W/m² 16,3 °C 20,1 °C 4,8 km/h (1 Bft)
26.08.2017 20:09 20,0 °C 20,1 °C 80 % 1013,3 hPa 0,0 mm 2,1 km/h (1 Bft) S-SW 197 ° 0 min 0,000 mm 0,0 UV-I 0 W/m² 16,4 °C 20,0 °C 3,2 km/h (1 Bft)
26.08.2017 20:10 19,9 °C 20,0 °C 80 % 1013,4 hPa 0,0 mm 0,9 km/h (0 Bft) S-SW 197 ° 0 min 0,000 mm 0,0 UV-I 0 W/m² 16,3 °C 19,9 °C 1,6 km/h (1 Bft)
26.08.2017 20:11 19,9 °C 19,9 °C 81 % 1013,4 hPa 0,0 mm 0,1 km/h (0 Bft) S-SW 197 ° 0 min 0,000 mm 0,0 UV-I 0 W/m² 16,5 °C 19,9 °C 1,6 km/h (1 Bft)
26.08.2017 20:12 20,0 °C 20,0 °C 80 % 1013,3 hPa 0,0 mm 0,1 km/h (0 Bft) S-SW 197 ° 0 min 0,000 mm 0,0 UV-I 0 W/m² 16,4 °C 20,0 °C 1,6 km/h (1 Bft)
26.08.2017 20:13 20,0 °C 20,1 °C 80 % 1013,4 hPa 0,0 mm 1,0 km/h (0 Bft) S-SW 197 ° 0 min 0,000 mm 0,0 UV-I 0 W/m² 16,4 °C 20,0 °C 3,2 km/h (1 Bft)
26.08.2017 20:14 19,9 °C 20,0 °C 80 % 1013,4 hPa 0,0 mm 1,6 km/h (1 Bft) S-SW 197 ° 0 min 0,000 mm 0,0 UV-I 0 W/m² 16,3 °C 19,9 °C 3,2 km/h (1 Bft)
26.08.2017 20:15 19,8 °C 19,9 °C 80 % 1013,3 hPa 0,0 mm 0,6 km/h (0 Bft) S-SW 197 ° 0 min 0,000 mm 0,0 UV-I 0 W/m² 16,2 °C 19,8 °C 1,6 km/h (1 Bft)
26.08.2017 20:16 19,7 °C 19,8 °C 81 % 1013,4 hPa 0,0 mm 0,0 km/h (0 Bft) S-SW 197 ° 0 min 0,000 mm 0,0 UV-I 0 W/m² 16,3 °C 19,7 °C 0,0 km/h (0 Bft)
26.08.2017 20:17 19,6 °C 19,7 °C 81 % 1013,4 hPa 0,0 mm 0,0 km/h (0 Bft) S-SW 197 ° 0 min 0,000 mm 0,0 UV-I 0 W/m² 16,2 °C 19,6 °C 0,0 km/h (0 Bft)
26.08.2017 20:18 19,4 °C 19,6 °C 81 % 1013,3 hPa 0,0 mm 0,0 km/h (0 Bft) S-SW 197 ° 0 min 0,000 mm 0,0 UV-I 0 W/m² 16,1 °C 19,4 °C 0,0 km/h (0 Bft)
26.08.2017 20:19 19,5 °C 19,5 °C 81 % 1013,3 hPa 0,0 mm 0,0 km/h (0 Bft) S-SW 197 ° 0 min 0,000 mm 0,0 UV-I 0 W/m² 16,1 °C 19,5 °C 0,0 km/h (0 Bft)
26.08.2017 20:20 19,6 °C 19,6 °C 81 % 1013,3 hPa 0,0 mm 0,0 km/h (0 Bft) S-SW 197 ° 0 min 0,000 mm 0,0 UV-I 0 W/m² 16,2 °C 19,6 °C 0,0 km/h (0 Bft)
26.08.2017 20:21 19,6 °C 19,6 °C 81 % 1013,4 hPa 0,0 mm 0,0 km/h (0 Bft) S-SW 197 ° 0 min 0,000 mm 0,0 UV-I 0 W/m² 16,2 °C 19,6 °C 0,0 km/h (0 Bft)
26.08.2017 20:22 19,7 °C 19,7 °C 81 % 1013,3 hPa 0,0 mm 0,0 km/h (0 Bft) S-SW 197 ° 0 min 0,000 mm 0,0 UV-I 0 W/m² 16,3 °C 19,7 °C 0,0 km/h (0 Bft)
26.08.2017 20:23 19,7 °C 19,7 °C 81 % 1013,4 hPa 0,0 mm 0,3 km/h (0 Bft) S-SW 197 ° 0 min 0,000 mm 0,0 UV-I 0 W/m² 16,3 °C 19,7 °C 3,2 km/h (1 Bft)
26.08.2017 20:24 19,6 °C 19,7 °C 81 % 1013,4 hPa 0,0 mm 2,8 km/h (1 Bft) S-SW 197 ° 0 min 0,000 mm 0,0 UV-I 0 W/m² 16,2 °C 19,6 °C 4,8 km/h (1 Bft)
26.08.2017 20:25 19,4 °C 19,6 °C 81 % 1013,4 hPa 0,0 mm 1,2 km/h (1 Bft) S-SW 197 ° 0 min 0,000 mm 0,0 UV-I 0 W/m² 16,1 °C 19,4 °C 3,2 km/h (1 Bft)
26.08.2017 20:26 19,3 °C 19,4 °C 82 % 1013,4 hPa 0,0 mm 0,0 km/h (0 Bft) S-SW 197 ° 0 min 0,000 mm 0,0 UV-I 0 W/m² 16,1 °C 19,3 °C 0,0 km/h (0 Bft)
26.08.2017 20:27 19,2 °C 19,3 °C 82 % 1013,5 hPa 0,0 mm 0,0 km/h (0 Bft) S-SW 197 ° 0 min 0,000 mm 0,0 UV-I 0 W/m² 16,0 °C 19,2 °C 0,0 km/h (0 Bft)
26.08.2017 20:28 19,2 °C 19,2 °C 82 % 1013,5 hPa 0,0 mm 0,0 km/h (0 Bft) S-SW 197 ° 0 min 0,000 mm 0,0 UV-I 0 W/m² 16,0 °C 19,2 °C 0,0 km/h (0 Bft)
26.08.2017 20:29 19,3 °C 19,3 °C 82 % 1013,4 hPa 0,0 mm 0,0 km/h (0 Bft) S-SW 197 ° 0 min 0,000 mm 0,0 UV-I 0 W/m² 16,1 °C 19,3 °C 0,0 km/h (0 Bft)
26.08.2017 20:30 19,3 °C 19,3 °C 82 % 1013,5 hPa 0,0 mm 0,0 km/h (0 Bft) S-SW 197 ° 0 min 0,000 mm 0,0 UV-I 0 W/m² 16,1 °C 19,3 °C 0,0 km/h (0 Bft)
26.08.2017 20:31 19,2 °C 19,3 °C 82 % 1013,5 hPa 0,0 mm 0,0 km/h (0 Bft) S-SW 197 ° 0 min 0,000 mm 0,0 UV-I 0 W/m² 16,0 °C 19,2 °C 0,0 km/h (0 Bft)
26.08.2017 20:33 19,1 °C 19,2 °C 83 % 1013,6 hPa 0,0 mm 1,0 km/h (0 Bft) S-SW 197 ° 0 min 0,000 mm 0,0 UV-I 0 W/m² 16,1 °C 19,1 °C 3,2 km/h (1 Bft)
26.08.2017 20:34 19,1 °C 19,1 °C 82 % 1013,6 hPa 0,0 mm 0,0 km/h (0 Bft) S-SW 197 ° 0 min 0,000 mm 0,0 UV-I 0 W/m² 16,0 °C 19,1 °C 0,0 km/h (0 Bft)
26.08.2017 20:35 19,1 °C 19,1 °C 82 % 1013,6 hPa 0,0 mm 0,0 km/h (0 Bft) S-SW 197 ° 0 min 0,000 mm 0,0 UV-I 0 W/m² 16,0 °C 19,1 °C 0,0 km/h (0 Bft)
26.08.2017 20:36 18,9 °C 19,1 °C 82 % 1013,6 hPa 0,0 mm 0,0 km/h (0 Bft) S-SW 197 ° 0 min 0,000 mm 0,0 UV-I 0 W/m² 15,8 °C 18,9 °C 0,0 km/h (0 Bft)
26.08.2017 20:37 18,9 °C 18,9 °C 83 % 1013,6 hPa 0,0 mm 2,1 km/h (1 Bft) S-SW 197 ° 0 min 0,000 mm 0,0 UV-I 0 W/m² 15,9 °C 18,9 °C 4,8 km/h (1 Bft)
26.08.2017 20:38 18,9 °C 18,9 °C 83 % 1013,6 hPa 0,0 mm 0,7 km/h (0 Bft) S-SW 197 ° 0 min 0,000 mm 0,0 UV-I 0 W/m² 15,9 °C 18,9 °C 3,2 km/h (1 Bft)
26.08.2017 20:39 19,1 °C 19,1 °C 83 % 1013,6 hPa 0,0 mm 1,1 km/h (1 Bft) S-SW 197 ° 0 min 0,000 mm 0,0 UV-I 0 W/m² 16,1 °C 19,1 °C 3,2 km/h (1 Bft)
26.08.2017 20:40 19,1 °C 19,1 °C 82 % 1013,6 hPa 0,0 mm 0,0 km/h (0 Bft) S-SW 197 ° 0 min 0,000 mm 0,0 UV-I 0 W/m² 16,0 °C 19,1 °C 0,0 km/h (0 Bft)
26.08.2017 20:41 19,2 °C 19,2 °C 82 % 1013,6 hPa 0,0 mm 0,0 km/h (0 Bft) S-SW 197 ° 0 min 0,000 mm 0,0 UV-I 0 W/m² 16,0 °C 19,2 °C 0,0 km/h (0 Bft)
26.08.2017 20:42 19,1 °C 19,2 °C 81 % 1013,6 hPa 0,0 mm 0,0 km/h (0 Bft) S-SW 197 ° 0 min 0,000 mm 0,0 UV-I 0 W/m² 15,8 °C 19,1 °C 0,0 km/h (0 Bft)
26.08.2017 20:43 19,0 °C 19,1 °C 81 % 1013,6 hPa 0,0 mm 0,0 km/h (0 Bft) S-SW 197 ° 0 min 0,000 mm 0,0 UV-I 0 W/m² 15,7 °C 19,0 °C 0,0 km/h (0 Bft)
26.08.2017 20:44 18,9 °C 19,0 °C 82 % 1013,7 hPa 0,0 mm 0,0 km/h (0 Bft) S-SW 197 ° 0 min 0,000 mm 0,0 UV-I 0 W/m² 15,8 °C 18,9 °C 0,0 km/h (0 Bft)
26.08.2017 20:45 18,8 °C 18,9 °C 82 % 1013,6 hPa 0,0 mm 0,0 km/h (0 Bft) S-SW 197 ° 0 min 0,000 mm 0,0 UV-I 0 W/m² 15,7 °C 18,8 °C 0,0 km/h (0 Bft)
26.08.2017 20:46 18,8 °C 18,8 °C 82 % 1013,6 hPa 0,0 mm 0,0 km/h (0 Bft) S-SW 197 ° 0 min 0,000 mm 0,0 UV-I 0 W/m² 15,7 °C 18,8 °C 0,0 km/h (0 Bft)
26.08.2017 20:47 18,8 °C 18,8 °C 82 % 1013,7 hPa 0,0 mm 0,0 km/h (0 Bft) S-SW 197 ° 0 min 0,000 mm 0,0 UV-I 0 W/m² 15,7 °C 18,8 °C 0,0 km/h (0 Bft)
26.08.2017 20:48 18,8 °C 18,8 °C 82 % 1013,7 hPa 0,0 mm 0,0 km/h (0 Bft) S-SW 197 ° 0 min 0,000 mm 0,0 UV-I 0 W/m² 15,7 °C 18,8 °C 0,0 km/h (0 Bft)
26.08.2017 20:49 18,8 °C 18,8 °C 82 % 1013,7 hPa 0,0 mm 0,0 km/h (0 Bft) S-SW 197 ° 0 min 0,000 mm 0,0 UV-I 0 W/m² 15,7 °C 18,8 °C 0,0 km/h (0 Bft)
26.08.2017 20:50 18,8 °C 18,8 °C 82 % 1013,7 hPa 0,0 mm 0,0 km/h (0 Bft) S-SW 197 ° 0 min 0,000 mm 0,0 UV-I 0 W/m² 15,7 °C 18,8 °C 0,0 km/h (0 Bft)
26.08.2017 20:51 18,8 °C 18,8 °C 82 % 1013,6 hPa 0,0 mm 0,0 km/h (0 Bft) S-SW 197 ° 0 min 0,000 mm 0,0 UV-I 0 W/m² 15,7 °C 18,8 °C 0,0 km/h (0 Bft)
26.08.2017 20:52 18,8 °C 18,8 °C 82 % 1013,7 hPa 0,0 mm 0,0 km/h (0 Bft) S-SW 197 ° 0 min 0,000 mm 0,0 UV-I 0 W/m² 15,7 °C 18,8 °C 0,0 km/h (0 Bft)
26.08.2017 20:53 18,8 °C 18,8 °C 83 % 1013,7 hPa 0,0 mm 0,0 km/h (0 Bft) S-SW 197 ° 0 min 0,000 mm 0,0 UV-I 0 W/m² 15,8 °C 18,8 °C 0,0 km/h (0 Bft)
26.08.2017 20:54 18,8 °C 18,8 °C 81 % 1013,7 hPa 0,0 mm 0,0 km/h (0 Bft) S-SW 197 ° 0 min 0,000 mm 0,0 UV-I 0 W/m² 15,5 °C 18,8 °C 0,0 km/h (0 Bft)
26.08.2017 20:55 18,8 °C 18,8 °C 82 % 1013,6 hPa 0,0 mm 0,0 km/h (0 Bft) S-SW 197 ° 0 min 0,000 mm 0,0 UV-I 0 W/m² 15,7 °C 18,8 °C 0,0 km/h (0 Bft)
26.08.2017 20:56 18,8 °C 18,8 °C 81 % 1013,7 hPa 0,0 mm 0,0 km/h (0 Bft) S-SW 197 ° 0 min 0,000 mm 0,0 UV-I 0 W/m² 15,5 °C 18,8 °C 0,0 km/h (0 Bft)
26.08.2017 20:57 18,8 °C 18,8 °C 81 % 1013,7 hPa 0,0 mm 0,0 km/h (0 Bft) S-SW 197 ° 0 min 0,000 mm 0,0 UV-I 0 W/m² 15,5 °C 18,8 °C 0,0 km/h (0 Bft)
26.08.2017 20:58 18,7 °C 18,8 °C 81 % 1013,7 hPa 0,0 mm 0,0 km/h (0 Bft) S-SW 197 ° 0 min 0,000 mm 0,0 UV-I 0 W/m² 15,4 °C 18,7 °C 0,0 km/h (0 Bft)
26.08.2017 20:59 18,7 °C 18,7 °C 82 % 1013,7 hPa 0,0 mm 0,0 km/h (0 Bft) S-SW 197 ° 0 min 0,000 mm 0,0 UV-I 0 W/m² 15,6 °C 18,7 °C 0,0 km/h (0 Bft)
26.08.2017 21:00 18,6 °C 18,7 °C 81 % 1013,7 hPa 0,0 mm 0,0 km/h (0 Bft) S-SW 197 ° 0 min 0,000 mm 0,0 UV-I 0 W/m² 15,3 °C 18,6 °C 0,0 km/h (0 Bft)
26.08.2017 21:01 18,5 °C 18,6 °C 81 % 1013,7 hPa 0,0 mm 0,0 km/h (0 Bft) S-SW 197 ° 0 min 0,000 mm 0,0 UV-I 0 W/m² 15,2 °C 18,5 °C 0,0 km/h (0 Bft)
26.08.2017 21:02 18,4 °C 18,5 °C 82 % 1013,8 hPa 0,0 mm 0,0 km/h (0 Bft) S-SW 197 ° 0 min 0,000 mm 0,0 UV-I 0 W/m² 15,3 °C 18,4 °C 0,0 km/h (0 Bft)
26.08.2017 21:03 18,4 °C 18,4 °C 81 % 1013,8 hPa 0,0 mm 0,0 km/h (0 Bft) S-SW 197 ° 0 min 0,000 mm 0,0 UV-I 0 W/m² 15,1 °C 18,4 °C 0,0 km/h (0 Bft)
26.08.2017 21:04 18,6 °C 18,6 °C 81 % 1013,7 hPa 0,0 mm 0,0 km/h (0 Bft) S-SW 197 ° 0 min 0,000 mm 0,0 UV-I 0 W/m² 15,3 °C 18,6 °C 0,0 km/h (0 Bft)
26.08.2017 21:05 18,6 °C 18,6 °C 82 % 1013,8 hPa 0,0 mm 0,0 km/h (0 Bft) S-SW 197 ° 0 min 0,000 mm 0,0 UV-I 0 W/m² 15,5 °C 18,6 °C 0,0 km/h (0 Bft)
26.08.2017 21:06 18,6 °C 18,6 °C 81 % 1013,8 hPa 0,0 mm 0,0 km/h (0 Bft) S-SW 197 ° 0 min 0,000 mm 0,0 UV-I 0 W/m² 15,3 °C 18,6 °C 0,0 km/h (0 Bft)
26.08.2017 21:07 18,6 °C 18,6 °C 81 % 1013,9 hPa 0,0 mm 1,1 km/h (1 Bft) S-SW 197 ° 0 min 0,000 mm 0,0 UV-I 0 W/m² 15,3 °C 18,6 °C 3,2 km/h (1 Bft)
26.08.2017 21:08 18,5 °C 18,6 °C 81 % 1013,9 hPa 0,0 mm 0,2 km/h (0 Bft) S-SW 197 ° 0 min 0,000 mm 0,0 UV-I 0 W/m² 15,2 °C 18,5 °C 3,2 km/h (1 Bft)
26.08.2017 21:09 18,6 °C 18,6 °C 82 % 1013,9 hPa 0,0 mm 2,2 km/h (1 Bft) S-SW 197 ° 0 min 0,000 mm 0,0 UV-I 0 W/m² 15,5 °C 18,6 °C 4,8 km/h (1 Bft)
26.08.2017 21:10 18,7 °C 18,7 °C 81 % 1013,9 hPa 0,0 mm 0,4 km/h (0 Bft) S-SW 197 ° 0 min 0,000 mm 0,0 UV-I 0 W/m² 15,4 °C 18,7 °C 1,6 km/h (1 Bft)
26.08.2017 21:11 18,8 °C 18,8 °C 81 % 1013,9 hPa 0,0 mm 1,0 km/h (0 Bft) S-SW 196 ° 0 min 0,000 mm 0,0 UV-I 0 W/m² 15,5 °C 18,8 °C 6,4 km/h (2 Bft)
26.08.2017 21:12 18,8 °C 18,8 °C 81 % 1014,0 hPa 0,0 mm 6,5 km/h (2 Bft) S-SW 198 ° 0 min 0,000 mm 0,0 UV-I 0 W/m² 15,5 °C 18,8 °C 9,7 km/h (2 Bft)
26.08.2017 21:13 18,8 °C 18,8 °C 81 % 1014,0 hPa 0,0 mm 3,6 km/h (1 Bft) S-SW 198 ° 0 min 0,000 mm 0,0 UV-I 0 W/m² 15,5 °C 18,8 °C 6,4 km/h (2 Bft)
26.08.2017 21:14 18,9 °C 18,9 °C 81 % 1014,0 hPa 0,0 mm 3,2 km/h (1 Bft) S 180 ° 0 min 0,000 mm 0,0 UV-I 0 W/m² 15,6 °C 18,9 °C 4,8 km/h (1 Bft)
26.08.2017 21:15 19,0 °C 19,0 °C 80 % 1014,0 hPa 0,0 mm 4,0 km/h (1 Bft) S-SW 195 ° 0 min 0,000 mm 0,0 UV-I 0 W/m² 15,5 °C 19,0 °C 6,4 km/h (2 Bft)
26.08.2017 21:16 19,1 °C 19,1 °C 80 % 1014,1 hPa 0,0 mm 7,0 km/h (2 Bft) S 190 ° 0 min 0,000 mm 0,0 UV-I 0 W/m² 15,6 °C 19,1 °C 11,3 km/h (2 Bft)
26.08.2017 21:17 19,2 °C 19,2 °C 81 % 1014,1 hPa 0,0 mm 6,1 km/h (2 Bft) S-SO 155 ° 0 min 0,000 mm 0,0 UV-I 0 W/m² 15,9 °C 19,2 °C 8,0 km/h (2 Bft)
26.08.2017 21:18 19,2 °C 19,2 °C 80 % 1014,2 hPa 0,0 mm 2,5 km/h (1 Bft) S-SO 156 ° 0 min 0,000 mm 0,0 UV-I 0 W/m² 15,7 °C 19,2 °C 4,8 km/h (1 Bft)
26.08.2017 21:19 19,2 °C 19,3 °C 80 % 1014,2 hPa 0,0 mm 6,0 km/h (2 Bft) S 188 ° 0 min 0,000 mm 0,0 UV-I 0 W/m² 15,7 °C 19,2 °C 9,7 km/h (2 Bft)
26.08.2017 21:20 19,2 °C 19,3 °C 79 % 1014,2 hPa 0,0 mm 3,6 km/h (1 Bft) S 188 ° 0 min 0,000 mm 0,0 UV-I 0 W/m² 15,5 °C 19,2 °C 4,8 km/h (1 Bft)
26.08.2017 21:21 19,1 °C 19,2 °C 80 % 1014,2 hPa 0,0 mm 4,7 km/h (1 Bft) S 188 ° 0 min 0,000 mm 0,0 UV-I 0 W/m² 15,6 °C 19,1 °C 6,4 km/h (2 Bft)
26.08.2017 21:22 19,1 °C 19,1 °C 80 % 1014,2 hPa 0,0 mm 3,5 km/h (1 Bft) S-SO 154 ° 0 min 0,000 mm 0,0 UV-I 0 W/m² 15,6 °C 19,1 °C 6,4 km/h (2 Bft)
26.08.2017 21:23 19,1 °C 19,1 °C 80 % 1014,2 hPa 0,0 mm 4,5 km/h (1 Bft) SO 142 ° 0 min 0,000 mm 0,0 UV-I 0 W/m² 15,6 °C 19,1 °C 6,4 km/h (2 Bft)
26.08.2017 21:24 19,1 °C 19,1 °C 80 % 1014,2 hPa 0,0 mm 2,2 km/h (1 Bft) SO 142 ° 0 min 0,000 mm 0,0 UV-I 0 W/m² 15,6 °C 19,1 °C 3,2 km/h (1 Bft)
26.08.2017 21:25 19,1 °C 19,2 °C 80 % 1014,2 hPa 0,0 mm 1,9 km/h (1 Bft) SO 142 ° 0 min 0,000 mm 0,0 UV-I 0 W/m² 15,6 °C 19,1 °C 3,2 km/h (1 Bft)
26.08.2017 21:26 18,9 °C 19,1 °C 80 % 1014,2 hPa 0,0 mm 2,1 km/h (1 Bft) SO 142 ° 0 min 0,000 mm 0,0 UV-I 0 W/m² 15,4 °C 18,9 °C 3,2 km/h (1 Bft)
26.08.2017 21:27 18,8 °C 18,9 °C 81 % 1014,3 hPa 0,0 mm 1,3 km/h (1 Bft) SO 142 ° 0 min 0,000 mm 0,0 UV-I 0 W/m² 15,5 °C 18,8 °C 3,2 km/h (1 Bft)
26.08.2017 21:28 18,8 °C 18,8 °C 81 % 1014,3 hPa 0,0 mm 2,2 km/h (1 Bft) SO 142 ° 0 min 0,000 mm 0,0 UV-I 0 W/m² 15,5 °C 18,8 °C 3,2 km/h (1 Bft)
26.08.2017 21:29 18,8 °C 18,9 °C 81 % 1014,2 hPa 0,0 mm 0,2 km/h (0 Bft) SO 142 ° 0 min 0,000 mm 0,0 UV-I 0 W/m² 15,5 °C 18,8 °C 1,6 km/h (1 Bft)
26.08.2017 21:30 18,8 °C 18,8 °C 80 % 1014,2 hPa 0,0 mm 0,0 km/h (0 Bft) SO 142 ° 0 min 0,000 mm 0,0 UV-I 0 W/m² 15,3 °C 18,8 °C 0,0 km/h (0 Bft)
26.08.2017 21:31 18,8 °C 18,8 °C 80 % 1014,2 hPa 0,0 mm 1,5 km/h (1 Bft) SO 142 ° 0 min 0,000 mm 0,0 UV-I 0 W/m² 15,3 °C 18,8 °C 3,2 km/h (1 Bft)
26.08.2017 21:32 18,7 °C 18,8 °C 81 % 1014,2 hPa 0,0 mm 2,7 km/h (1 Bft) SO 142 ° 0 min 0,000 mm 0,0 UV-I 0 W/m² 15,4 °C 18,7 °C 4,8 km/h (1 Bft)
26.08.2017 21:33 18,6 °C 18,7 °C 81 % 1014,2 hPa 0,0 mm 1,0 km/h (0 Bft) SO 142 ° 0 min 0,000 mm 0,0 UV-I 0 W/m² 15,3 °C 18,6 °C 3,2 km/h (1 Bft)
26.08.2017 21:34 18,6 °C 18,6 °C 81 % 1014,2 hPa 0,0 mm 0,9 km/h (0 Bft) SO 142 ° 0 min 0,000 mm 0,0 UV-I 0 W/m² 15,3 °C 18,6 °C 1,6 km/h (1 Bft)
26.08.2017 21:35 18,5 °C 18,6 °C 81 % 1014,2 hPa 0,0 mm 0,3 km/h (0 Bft) SO 142 ° 0 min 0,000 mm 0,0 UV-I 0 W/m² 15,2 °C 18,5 °C 1,6 km/h (1 Bft)
26.08.2017 21:36 18,5 °C 18,5 °C 81 % 1014,2 hPa 0,0 mm 0,0 km/h (0 Bft) SO 142 ° 0 min 0,000 mm 0,0 UV-I 0 W/m² 15,2 °C 18,5 °C 0,0 km/h (0 Bft)
26.08.2017 21:37 18,5 °C 18,5 °C 81 % 1014,3 hPa 0,0 mm 0,6 km/h (0 Bft) SO 142 ° 0 min 0,000 mm 0,0 UV-I 0 W/m² 15,2 °C 18,5 °C 3,2 km/h (1 Bft)
26.08.2017 21:38 18,5 °C 18,5 °C 81 % 1014,3 hPa 0,0 mm 1,5 km/h (1 Bft) SO 142 ° 0 min 0,000 mm 0,0 UV-I 0 W/m² 15,2 °C 18,5 °C 3,2 km/h (1 Bft)
26.08.2017 21:39 18,6 °C 18,6 °C 81 % 1014,3 hPa 0,0 mm 0,1 km/h (0 Bft) SO 142 ° 0 min 0,000 mm 0,0 UV-I 0 W/m² 15,3 °C 18,6 °C 1,6 km/h (1 Bft)
26.08.2017 21:40 18,7 °C 18,7 °C 80 % 1014,3 hPa 0,0 mm 0,0 km/h (0 Bft) SO 142 ° 0 min 0,000 mm 0,0 UV-I 0 W/m² 15,2 °C 18,7 °C 0,0 km/h (0 Bft)
26.08.2017 21:41 18,7 °C 18,7 °C 80 % 1014,4 hPa 0,0 mm 0,0 km/h (0 Bft) SO 142 ° 0 min 0,000 mm 0,0 UV-I 0 W/m² 15,2 °C 18,7 °C 0,0 km/h (0 Bft)
26.08.2017 21:42 18,6 °C 18,7 °C 80 % 1014,3 hPa 0,0 mm 0,0 km/h (0 Bft) SO 142 ° 0 min 0,000 mm 0,0 UV-I 0 W/m² 15,1 °C 18,6 °C 0,0 km/h (0 Bft)
26.08.2017 21:43 18,6 °C 18,6 °C 80 % 1014,3 hPa 0,0 mm 0,0 km/h (0 Bft) SO 142 ° 0 min 0,000 mm 0,0 UV-I 0 W/m² 15,1 °C 18,6 °C 0,0 km/h (0 Bft)
26.08.2017 21:44 18,6 °C 18,6 °C 80 % 1014,3 hPa 0,0 mm 0,0 km/h (0 Bft) SO 142 ° 0 min 0,000 mm 0,0 UV-I 0 W/m² 15,1 °C 18,6 °C 0,0 km/h (0 Bft)
26.08.2017 21:45 18,5 °C 18,6 °C 80 % 1014,4 hPa 0,0 mm 0,0 km/h (0 Bft) SO 142 ° 0 min 0,000 mm 0,0 UV-I 0 W/m² 15,0 °C 18,5 °C 0,0 km/h (0 Bft)
26.08.2017 21:46 18,4 °C 18,5 °C 80 % 1014,4 hPa 0,0 mm 0,0 km/h (0 Bft) SO 142 ° 0 min 0,000 mm 0,0 UV-I 0 W/m² 14,9 °C 18,4 °C 0,0 km/h (0 Bft)
26.08.2017 21:47 18,4 °C 18,4 °C 80 % 1014,4 hPa 0,0 mm 0,0 km/h (0 Bft) SO 142 ° 0 min 0,000 mm 0,0 UV-I 0 W/m² 14,9 °C 18,4 °C 0,0 km/h (0 Bft)
26.08.2017 21:48 18,4 °C 18,4 °C 79 % 1014,4 hPa 0,0 mm 0,0 km/h (0 Bft) SO 142 ° 0 min 0,000 mm 0,0 UV-I 0 W/m² 14,7 °C 18,4 °C 0,0 km/h (0 Bft)
26.08.2017 21:49 18,4 °C 18,4 °C 80 % 1014,4 hPa 0,0 mm 0,0 km/h (0 Bft) SO 142 ° 0 min 0,000 mm 0,0 UV-I 0 W/m² 14,9 °C 18,4 °C 0,0 km/h (0 Bft)
26.08.2017 21:50 18,4 °C 18,4 °C 81 % 1014,4 hPa 0,0 mm 0,0 km/h (0 Bft) SO 142 ° 0 min 0,000 mm 0,0 UV-I 0 W/m² 15,1 °C 18,4 °C 0,0 km/h (0 Bft)
26.08.2017 21:51 18,4 °C 18,4 °C 80 % 1014,3 hPa 0,0 mm 0,0 km/h (0 Bft) SO 142 ° 0 min 0,000 mm 0,0 UV-I 0 W/m² 14,9 °C 18,4 °C 0,0 km/h (0 Bft)
26.08.2017 21:52 18,4 °C 18,4 °C 79 % 1014,3 hPa 0,0 mm 0,0 km/h (0 Bft) SO 142 ° 0 min 0,000 mm 0,0 UV-I 0 W/m² 14,7 °C 18,4 °C 0,0 km/h (0 Bft)
26.08.2017 21:53 18,4 °C 18,4 °C 79 % 1014,3 hPa 0,0 mm 0,0 km/h (0 Bft) SO 142 ° 0 min 0,000 mm 0,0 UV-I 0 W/m² 14,7 °C 18,4 °C 0,0 km/h (0 Bft)
26.08.2017 21:54 18,4 °C 18,4 °C 79 % 1014,3 hPa 0,0 mm 0,0 km/h (0 Bft) SO 142 ° 0 min 0,000 mm 0,0 UV-I 0 W/m² 14,7 °C 18,4 °C 0,0 km/h (0 Bft)
26.08.2017 21:55 18,4 °C 18,4 °C 79 % 1014,3 hPa 0,0 mm 0,0 km/h (0 Bft) S-SO 148 ° 0 min 0,000 mm 0,0 UV-I 0 W/m² 14,7 °C 18,4 °C 0,0 km/h (0 Bft)
26.08.2017 21:56 18,5 °C 18,5 °C 78 % 1014,3 hPa 0,0 mm 3,9 km/h (1 Bft) SO 126 ° 0 min 0,000 mm 0,0 UV-I 0 W/m² 14,6 °C 18,5 °C 6,4 km/h (2 Bft)
26.08.2017 21:57 18,5 °C 18,5 °C 79 % 1014,3 hPa 0,0 mm 2,8 km/h (1 Bft) SO 126 ° 0 min 0,000 mm 0,0 UV-I 0 W/m² 14,8 °C 18,5 °C 4,8 km/h (1 Bft)
26.08.2017 21:58 18,5 °C 18,5 °C 79 % 1014,3 hPa 0,0 mm 0,0 km/h (0 Bft) SO 126 ° 0 min 0,000 mm 0,0 UV-I 0 W/m² 14,8 °C 18,5 °C 0,0 km/h (0 Bft)
26.08.2017 21:59 18,5 °C 18,5 °C 79 % 1014,3 hPa 0,0 mm 0,0 km/h (0 Bft) SO 126 ° 0 min 0,000 mm 0,0 UV-I 0 W/m² 14,8 °C 18,5 °C 0,0 km/h (0 Bft)
26.08.2017 22:00 18,4 °C 18,5 °C 79 % 1014,3 hPa 0,0 mm 0,0 km/h (0 Bft) SO 126 ° 0 min 0,000 mm 0,0 UV-I 0 W/m² 14,7 °C 18,4 °C 0,0 km/h (0 Bft)
26.08.2017 22:01 18,5 °C 18,5 °C 79 % 1014,3 hPa 0,0 mm 0,1 km/h (0 Bft) SO 126 ° 0 min 0,026 mm 0,0 UV-I 0 W/m² 14,8 °C 18,5 °C 1,6 km/h (1 Bft)
26.08.2017 22:02 18,4 °C 18,5 °C 79 % 1014,3 hPa 0,0 mm 0,6 km/h (0 Bft) SO 126 ° 0 min 0,000 mm 0,0 UV-I 0 W/m² 14,7 °C 18,4 °C 3,2 km/h (1 Bft)
26.08.2017 22:03 18,4 °C 18,4 °C 79 % 1014,3 hPa 0,0 mm 0,0 km/h (0 Bft) SO 126 ° 0 min 0,000 mm 0,0 UV-I 0 W/m² 14,7 °C 18,4 °C 0,0 km/h (0 Bft)
26.08.2017 22:04 18,4 °C 18,4 °C 79 % 1014,3 hPa 0,0 mm 0,3 km/h (0 Bft) SO 126 ° 0 min 0,000 mm 0,0 UV-I 0 W/m² 14,7 °C 18,4 °C 1,6 km/h (1 Bft)
26.08.2017 22:05 18,4 °C 18,4 °C 79 % 1014,3 hPa 0,0 mm 0,2 km/h (0 Bft) SO 126 ° 0 min 0,000 mm 0,0 UV-I 0 W/m² 14,7 °C 18,4 °C 1,6 km/h (1 Bft)
26.08.2017 22:06 18,4 °C 18,4 °C 79 % 1014,3 hPa 0,0 mm 0,0 km/h (0 Bft) SO 126 ° 0 min 0,000 mm 0,0 UV-I 0 W/m² 14,7 °C 18,4 °C 0,0 km/h (0 Bft)
26.08.2017 22:07 18,4 °C 18,4 °C 79 % 1014,3 hPa 0,0 mm 0,0 km/h (0 Bft) SO 126 ° 0 min 0,000 mm 0,0 UV-I 0 W/m² 14,7 °C 18,4 °C 0,0 km/h (0 Bft)
26.08.2017 22:08 18,3 °C 18,4 °C 79 % 1014,3 hPa 0,0 mm 0,0 km/h (0 Bft) SO 126 ° 0 min 0,000 mm 0,0 UV-I 0 W/m² 14,6 °C 18,3 °C 0,0 km/h (0 Bft)
26.08.2017 22:09 18,3 °C 18,4 °C 79 % 1014,4 hPa 0,0 mm 0,0 km/h (0 Bft) SO 126 ° 0 min 0,000 mm 0,0 UV-I 0 W/m² 14,6 °C 18,3 °C 0,0 km/h (0 Bft)
26.08.2017 22:10 18,3 °C 18,3 °C 79 % 1014,4 hPa 0,0 mm 0,0 km/h (0 Bft) SO 126 ° 0 min 0,000 mm 0,0 UV-I 0 W/m² 14,6 °C 18,3 °C 0,0 km/h (0 Bft)
26.08.2017 22:11 18,3 °C 18,3 °C 79 % 1014,4 hPa 0,0 mm 0,4 km/h (0 Bft) SO 126 ° 0 min 0,000 mm 0,0 UV-I 0 W/m² 14,6 °C 18,3 °C 1,6 km/h (1 Bft)
26.08.2017 22:12 18,2 °C 18,3 °C 79 % 1014,4 hPa 0,0 mm 0,0 km/h (0 Bft) SO 126 ° 0 min 0,000 mm 0,0 UV-I 0 W/m² 14,5 °C 18,2 °C 0,0 km/h (0 Bft)
26.08.2017 22:13 18,2 °C 18,2 °C 80 % 1014,4 hPa 0,0 mm 0,0 km/h (0 Bft) SO 126 ° 0 min 0,000 mm 0,0 UV-I 0 W/m² 14,7 °C 18,2 °C 0,0 km/h (0 Bft)
26.08.2017 22:14 18,2 °C 18,2 °C 79 % 1014,5 hPa 0,0 mm 0,0 km/h (0 Bft) SO 126 ° 0 min 0,000 mm 0,0 UV-I 0 W/m² 14,5 °C 18,2 °C 0,0 km/h (0 Bft)
26.08.2017 22:15 18,2 °C 18,2 °C 79 % 1014,5 hPa 0,0 mm 0,0 km/h (0 Bft) SO 126 ° 0 min 0,000 mm 0,0 UV-I 0 W/m² 14,5 °C 18,2 °C 0,0 km/h (0 Bft)
26.08.2017 22:16 18,2 °C 18,2 °C 80 % 1014,5 hPa 0,0 mm 0,8 km/h (0 Bft) O-NO 72 ° 0 min 0,000 mm 0,0 UV-I 0 W/m² 14,7 °C 18,2 °C 3,2 km/h (1 Bft)
26.08.2017 22:17 18,1 °C 18,2 °C 80 % 1014,5 hPa 0,0 mm 0,5 km/h (0 Bft) O-NO 72 ° 0 min 0,000 mm 0,0 UV-I 0 W/m² 14,6 °C 18,1 °C 1,6 km/h (1 Bft)
26.08.2017 22:18 18,1 °C 18,1 °C 80 % 1014,5 hPa 0,0 mm 0,0 km/h (0 Bft) O-NO 72 ° 0 min 0,000 mm 0,0 UV-I 0 W/m² 14,6 °C 18,1 °C 0,0 km/h (0 Bft)
26.08.2017 22:19 18,0 °C 18,1 °C 80 % 1014,5 hPa 0,0 mm 0,0 km/h (0 Bft) O-NO 72 ° 0 min 0,000 mm 0,0 UV-I 0 W/m² 14,5 °C 18,0 °C 0,0 km/h (0 Bft)
26.08.2017 22:20 18,1 °C 18,1 °C 80 % 1014,6 hPa 0,0 mm 0,0 km/h (0 Bft) O-NO 72 ° 0 min 0,000 mm 0,0 UV-I 0 W/m² 14,6 °C 18,1 °C 0,0 km/h (0 Bft)
26.08.2017 22:21 18,0 °C 18,1 °C 80 % 1014,5 hPa 0,0 mm 0,0 km/h (0 Bft) O-NO 72 ° 0 min 0,000 mm 0,0 UV-I 0 W/m² 14,5 °C 18,0 °C 0,0 km/h (0 Bft)
26.08.2017 22:22 17,9 °C 18,0 °C 80 % 1014,5 hPa 0,0 mm 0,0 km/h (0 Bft) O-NO 72 ° 0 min 0,000 mm 0,0 UV-I 0 W/m² 14,4 °C 17,9 °C 0,0 km/h (0 Bft)
26.08.2017 22:23 17,9 °C 17,9 °C 80 % 1014,5 hPa 0,0 mm 0,0 km/h (0 Bft) O-NO 72 ° 0 min 0,000 mm 0,0 UV-I 0 W/m² 14,4 °C 17,9 °C 0,0 km/h (0 Bft)
26.08.2017 22:24 17,9 °C 17,9 °C 81 % 1014,6 hPa 0,0 mm 0,0 km/h (0 Bft) O-NO 72 ° 0 min 0,000 mm 0,0 UV-I 0 W/m² 14,6 °C 17,9 °C 0,0 km/h (0 Bft)
26.08.2017 22:25 17,9 °C 17,9 °C 81 % 1014,6 hPa 0,0 mm 0,0 km/h (0 Bft) O-NO 72 ° 0 min 0,000 mm 0,0 UV-I 0 W/m² 14,6 °C 17,9 °C 0,0 km/h (0 Bft)
26.08.2017 22:26 17,9 °C 17,9 °C 81 % 1014,6 hPa 0,0 mm 0,0 km/h (0 Bft) O-NO 72 ° 0 min 0,000 mm 0,0 UV-I 0 W/m² 14,6 °C 17,9 °C 0,0 km/h (0 Bft)
26.08.2017 22:27 17,8 °C 17,9 °C 81 % 1014,6 hPa 0,0 mm 0,0 km/h (0 Bft) O-NO 72 ° 0 min 0,000 mm 0,0 UV-I 0 W/m² 14,5 °C 17,8 °C 0,0 km/h (0 Bft)
26.08.2017 22:28 17,8 °C 17,8 °C 81 % 1014,6 hPa 0,0 mm 0,0 km/h (0 Bft) O-NO 72 ° 0 min 0,000 mm 0,0 UV-I 0 W/m² 14,5 °C 17,8 °C 0,0 km/h (0 Bft)
26.08.2017 22:29 17,8 °C 17,8 °C 81 % 1014,6 hPa 0,0 mm 0,0 km/h (0 Bft) O-NO 72 ° 0 min 0,000 mm 0,0 UV-I 0 W/m² 14,5 °C 17,8 °C 0,0 km/h (0 Bft)
26.08.2017 22:30 17,7 °C 17,8 °C 81 % 1014,6 hPa 0,0 mm 0,0 km/h (0 Bft) O-NO 72 ° 0 min 0,000 mm 0,0 UV-I 0 W/m² 14,4 °C 17,7 °C 0,0 km/h (0 Bft)
26.08.2017 22:31 17,7 °C 17,7 °C 81 % 1014,6 hPa 0,0 mm 0,0 km/h (0 Bft) O-NO 72 ° 0 min 0,000 mm 0,0 UV-I 0 W/m² 14,4 °C 17,7 °C 0,0 km/h (0 Bft)
26.08.2017 22:32 17,7 °C 17,7 °C 81 % 1014,6 hPa 0,0 mm 0,5 km/h (0 Bft) O-SO 122 ° 0 min 0,000 mm 0,0 UV-I 0 W/m² 14,4 °C 17,7 °C 3,2 km/h (1 Bft)
26.08.2017 22:33 17,8 °C 17,8 °C 80 % 1014,6 hPa 0,0 mm 1,5 km/h (1 Bft) S 172 ° 0 min 0,000 mm 0,0 UV-I 0 W/m² 14,3 °C 17,8 °C 8,0 km/h (2 Bft)
26.08.2017 22:34 17,9 °C 17,9 °C 80 % 1014,6 hPa 0,0 mm 0,7 km/h (0 Bft) S 172 ° 0 min 0,000 mm 0,0 UV-I 0 W/m² 14,4 °C 17,9 °C 3,2 km/h (1 Bft)
26.08.2017 22:35 18,0 °C 18,0 °C 80 % 1014,6 hPa 0,0 mm 1,0 km/h (0 Bft) S 172 ° 0 min 0,000 mm 0,0 UV-I 0 W/m² 14,5 °C 18,0 °C 3,2 km/h (1 Bft)
26.08.2017 22:36 18,0 °C 18,1 °C 79 % 1014,6 hPa 0,0 mm 0,5 km/h (0 Bft) S 172 ° 0 min 0,000 mm 0,0 UV-I 0 W/m² 14,3 °C 18,0 °C 1,6 km/h (1 Bft)
26.08.2017 22:37 18,1 °C 18,1 °C 79 % 1014,6 hPa 0,0 mm 0,0 km/h (0 Bft) S 172 ° 0 min 0,000 mm 0,0 UV-I 0 W/m² 14,4 °C 18,1 °C 0,0 km/h (0 Bft)
26.08.2017 22:38 18,1 °C 18,1 °C 79 % 1014,6 hPa 0,0 mm 0,0 km/h (0 Bft) S 172 ° 0 min 0,000 mm 0,0 UV-I 0 W/m² 14,4 °C 18,1 °C 0,0 km/h (0 Bft)
26.08.2017 22:39 18,1 °C 18,1 °C 79 % 1014,6 hPa 0,0 mm 0,0 km/h (0 Bft) S 172 ° 0 min 0,000 mm 0,0 UV-I 0 W/m² 14,4 °C 18,1 °C 0,0 km/h (0 Bft)
26.08.2017 22:40 18,2 °C 18,2 °C 78 % 1014,6 hPa 0,0 mm 0,0 km/h (0 Bft) S 172 ° 0 min 0,000 mm 0,0 UV-I 0 W/m² 14,3 °C 18,2 °C 0,0 km/h (0 Bft)
26.08.2017 22:41 18,2 °C 18,2 °C 78 % 1014,6 hPa 0,0 mm 0,0 km/h (0 Bft) S 172 ° 0 min 0,000 mm 0,0 UV-I 0 W/m² 14,3 °C 18,2 °C 0,0 km/h (0 Bft)
26.08.2017 22:42 18,1 °C 18,2 °C 78 % 1014,6 hPa 0,0 mm 0,0 km/h (0 Bft) S 172 ° 0 min 0,000 mm 0,0 UV-I 0 W/m² 14,2 °C 18,1 °C 0,0 km/h (0 Bft)
26.08.2017 22:43 17,9 °C 18,1 °C 80 % 1014,6 hPa 0,0 mm 0,0 km/h (0 Bft) S 172 ° 0 min 0,000 mm 0,0 UV-I 0 W/m² 14,4 °C 17,9 °C 0,0 km/h (0 Bft)
26.08.2017 22:44 17,9 °C 18,0 °C 80 % 1014,6 hPa 0,0 mm 0,9 km/h (0 Bft) S 172 ° 0 min 0,000 mm 0,0 UV-I 0 W/m² 14,4 °C 17,9 °C 1,6 km/h (1 Bft)
26.08.2017 22:45 17,9 °C 17,9 °C 80 % 1014,6 hPa 0,0 mm 0,1 km/h (0 Bft) S 172 ° 0 min 0,000 mm 0,0 UV-I 0 W/m² 14,4 °C 17,9 °C 1,6 km/h (1 Bft)
26.08.2017 22:46 17,8 °C 17,9 °C 80 % 1014,6 hPa 0,0 mm 1,2 km/h (1 Bft) N-NW 346 ° 0 min 0,000 mm 0,0 UV-I 0 W/m² 14,3 °C 17,8 °C 4,8 km/h (1 Bft)
26.08.2017 22:47 17,9 °C 17,9 °C 81 % 1014,6 hPa 0,0 mm 1,3 km/h (1 Bft) O-NO 67 ° 0 min 0,000 mm 0,0 UV-I 0 W/m² 14,6 °C 17,9 °C 3,2 km/h (1 Bft)
26.08.2017 22:48 17,9 °C 17,9 °C 81 % 1014,6 hPa 0,0 mm 0,5 km/h (0 Bft) O-NO 67 ° 0 min 0,000 mm 0,0 UV-I 0 W/m² 14,6 °C 17,9 °C 3,2 km/h (1 Bft)
26.08.2017 22:49 17,8 °C 17,9 °C 80 % 1014,6 hPa 0,0 mm 1,1 km/h (1 Bft) O-NO 67 ° 0 min 0,000 mm 0,0 UV-I 0 W/m² 14,3 °C 17,8 °C 3,2 km/h (1 Bft)
26.08.2017 22:50 17,9 °C 17,9 °C 80 % 1014,6 hPa 0,0 mm 0,3 km/h (0 Bft) O-NO 67 ° 0 min 0,000 mm 0,0 UV-I 0 W/m² 14,4 °C 17,9 °C 1,6 km/h (1 Bft)
26.08.2017 22:51 17,9 °C 17,9 °C 80 % 1014,6 hPa 0,0 mm 0,0 km/h (0 Bft) O-NO 67 ° 0 min 0,000 mm 0,0 UV-I 0 W/m² 14,4 °C 17,9 °C 0,0 km/h (0 Bft)
26.08.2017 22:52 17,9 °C 18,0 °C 79 % 1014,6 hPa 0,0 mm 0,1 km/h (0 Bft) O-NO 67 ° 0 min 0,000 mm 0,0 UV-I 0 W/m² 14,2 °C 17,9 °C 1,6 km/h (1 Bft)
26.08.2017 22:53 18,0 °C 18,0 °C 79 % 1014,6 hPa 0,0 mm 3,1 km/h (1 Bft) O 89 ° 0 min 0,000 mm 0,0 UV-I 0 W/m² 14,3 °C 18,0 °C 11,3 km/h (2 Bft)
26.08.2017 22:54 18,1 °C 18,1 °C 79 % 1014,6 hPa 0,0 mm 0,7 km/h (0 Bft) N-NO 26 ° 0 min 0,000 mm 0,0 UV-I 0 W/m² 14,4 °C 18,1 °C 3,2 km/h (1 Bft)
26.08.2017 22:55 18,1 °C 18,1 °C 78 % 1014,6 hPa 0,0 mm 0,0 km/h (0 Bft) N-NO 25 ° 0 min 0,000 mm 0,0 UV-I 0 W/m² 14,2 °C 18,1 °C 0,0 km/h (0 Bft)
26.08.2017 22:56 18,2 °C 18,2 °C 78 % 1014,5 hPa 0,0 mm 0,8 km/h (0 Bft) N-NO 26 ° 0 min 0,000 mm 0,0 UV-I 0 W/m² 14,3 °C 18,2 °C 1,6 km/h (1 Bft)
26.08.2017 22:57 18,2 °C 18,2 °C 77 % 1014,6 hPa 0,0 mm 0,0 km/h (0 Bft) N-NO 26 ° 0 min 0,000 mm 0,0 UV-I 0 W/m² 14,1 °C 18,2 °C 0,0 km/h (0 Bft)
26.08.2017 22:58 18,3 °C 18,3 °C 77 % 1014,6 hPa 0,0 mm 0,2 km/h (0 Bft) N-NO 26 ° 0 min 0,000 mm 0,0 UV-I 0 W/m² 14,2 °C 18,3 °C 1,6 km/h (1 Bft)
26.08.2017 22:59 18,4 °C 18,4 °C 77 % 1014,5 hPa 0,0 mm 2,3 km/h (1 Bft) N-NO 32 ° 0 min 0,000 mm 0,0 UV-I 0 W/m² 14,3 °C 18,4 °C 4,8 km/h (1 Bft)
26.08.2017 23:00 18,4 °C 18,4 °C 78 % 1014,6 hPa 0,0 mm 1,2 km/h (1 Bft) O-NO 63 ° 0 min 0,025 mm 0,0 UV-I 0 W/m² 14,5 °C 18,4 °C 3,2 km/h (1 Bft)
26.08.2017 23:01 18,3 °C 18,4 °C 77 % 1014,6 hPa 0,0 mm 0,0 km/h (0 Bft) O-NO 63 ° 0 min 0,000 mm 0,0 UV-I 0 W/m² 14,2 °C 18,3 °C 0,0 km/h (0 Bft)
26.08.2017 23:02 18,3 °C 18,3 °C 77 % 1014,5 hPa 0,0 mm 0,5 km/h (0 Bft) O-NO 63 ° 0 min 0,000 mm 0,0 UV-I 0 W/m² 14,2 °C 18,3 °C 1,6 km/h (1 Bft)
26.08.2017 23:03 18,3 °C 18,3 °C 77 % 1014,5 hPa 0,0 mm 0,1 km/h (0 Bft) O-NO 63 ° 0 min 0,000 mm 0,0 UV-I 0 W/m² 14,2 °C 18,3 °C 1,6 km/h (1 Bft)
26.08.2017 23:04 18,3 °C 18,3 °C 77 % 1014,6 hPa 0,0 mm 0,3 km/h (0 Bft) O-NO 63 ° 0 min 0,000 mm 0,0 UV-I 0 W/m² 14,2 °C 18,3 °C 1,6 km/h (1 Bft)
26.08.2017 23:05 18,3 °C 18,3 °C 77 % 1014,6 hPa 0,0 mm 3,1 km/h (1 Bft) SO 144 ° 0 min 0,000 mm 0,0 UV-I 0 W/m² 14,2 °C 18,3 °C 6,4 km/h (2 Bft)
26.08.2017 23:06 18,4 °C 18,4 °C 76 % 1014,6 hPa 0,0 mm 1,3 km/h (1 Bft) O 100 ° 0 min 0,000 mm 0,0 UV-I 0 W/m² 14,1 °C 18,4 °C 3,2 km/h (1 Bft)
26.08.2017 23:07 18,4 °C 18,4 °C 76 % 1014,6 hPa 0,0 mm 0,1 km/h (0 Bft) O 100 ° 0 min 0,000 mm 0,0 UV-I 0 W/m² 14,1 °C 18,4 °C 1,6 km/h (1 Bft)
26.08.2017 23:08 18,4 °C 18,4 °C 76 % 1014,6 hPa 0,0 mm 0,0 km/h (0 Bft) O 100 ° 0 min 0,000 mm 0,0 UV-I 0 W/m² 14,1 °C 18,4 °C 0,0 km/h (0 Bft)
26.08.2017 23:09 18,3 °C 18,4 °C 76 % 1014,6 hPa 0,0 mm 0,0 km/h (0 Bft) O 100 ° 0 min 0,000 mm 0,0 UV-I 0 W/m² 14,0 °C 18,3 °C 0,0 km/h (0 Bft)
26.08.2017 23:10 18,3 °C 18,3 °C 76 % 1014,7 hPa 0,0 mm 1,1 km/h (1 Bft) O 100 ° 0 min 0,000 mm 0,0 UV-I 0 W/m² 14,0 °C 18,3 °C 3,2 km/h (1 Bft)
26.08.2017 23:11 18,3 °C 18,3 °C 76 % 1014,6 hPa 0,0 mm 1,0 km/h (0 Bft) O 100 ° 0 min 0,000 mm 0,0 UV-I 0 W/m² 14,0 °C 18,3 °C 3,2 km/h (1 Bft)
26.08.2017 23:12 18,3 °C 18,3 °C 76 % 1014,7 hPa 0,0 mm 0,0 km/h (0 Bft) O 100 ° 0 min 0,000 mm 0,0 UV-I 0 W/m² 14,0 °C 18,3 °C 0,0 km/h (0 Bft)
26.08.2017 23:13 18,2 °C 18,3 °C 76 % 1014,7 hPa 0,0 mm 1,1 km/h (1 Bft) O 100 ° 0 min 0,000 mm 0,0 UV-I 0 W/m² 13,9 °C 18,2 °C 1,6 km/h (1 Bft)
26.08.2017 23:14 18,2 °C 18,2 °C 76 % 1014,6 hPa 0,0 mm 2,0 km/h (1 Bft) O 100 ° 0 min 0,000 mm 0,0 UV-I 0 W/m² 13,9 °C 18,2 °C 3,2 km/h (1 Bft)
26.08.2017 23:15 18,2 °C 18,2 °C 75 % 1014,6 hPa 0,0 mm 0,6 km/h (0 Bft) O 86 ° 0 min 0,000 mm 0,0 UV-I 0 W/m² 13,7 °C 18,2 °C 1,6 km/h (1 Bft)
26.08.2017 23:16 18,1 °C 18,2 °C 75 % 1014,7 hPa 0,0 mm 0,0 km/h (0 Bft) O 86 ° 0 min 0,000 mm 0,0 UV-I 0 W/m² 13,6 °C 18,1 °C 0,0 km/h (0 Bft)
26.08.2017 23:17 18,1 °C 18,1 °C 76 % 1014,6 hPa 0,0 mm 0,0 km/h (0 Bft) O 86 ° 0 min 0,000 mm 0,0 UV-I 0 W/m² 13,8 °C 18,1 °C 0,0 km/h (0 Bft)
26.08.2017 23:18 18,0 °C 18,1 °C 76 % 1014,7 hPa 0,0 mm 0,0 km/h (0 Bft) O 86 ° 0 min 0,000 mm 0,0 UV-I 0 W/m² 13,7 °C 18,0 °C 0,0 km/h (0 Bft)
26.08.2017 23:19 17,9 °C 18,0 °C 76 % 1014,7 hPa 0,0 mm 0,0 km/h (0 Bft) O 86 ° 0 min 0,000 mm 0,0 UV-I 0 W/m² 13,6 °C 17,9 °C 0,0 km/h (0 Bft)
26.08.2017 23:20 17,8 °C 17,9 °C 76 % 1014,6 hPa 0,0 mm 0,1 km/h (0 Bft) O 86 ° 0 min 0,000 mm 0,0 UV-I 0 W/m² 13,5 °C 17,8 °C 1,6 km/h (1 Bft)
26.08.2017 23:21 17,8 °C 17,8 °C 77 % 1014,6 hPa 0,0 mm 0,1 km/h (0 Bft) O 86 ° 0 min 0,000 mm 0,0 UV-I 0 W/m² 13,7 °C 17,8 °C 1,6 km/h (1 Bft)
26.08.2017 23:22 17,7 °C 17,8 °C 77 % 1014,6 hPa 0,0 mm 0,0 km/h (0 Bft) O 86 ° 0 min 0,000 mm 0,0 UV-I 0 W/m² 13,6 °C 17,7 °C 0,0 km/h (0 Bft)
26.08.2017 23:23 17,6 °C 17,7 °C 77 % 1014,5 hPa 0,0 mm 0,0 km/h (0 Bft) O 86 ° 0 min 0,000 mm 0,0 UV-I 0 W/m² 13,5 °C 17,6 °C 0,0 km/h (0 Bft)
26.08.2017 23:24 17,5 °C 17,6 °C 78 % 1014,6 hPa 0,0 mm 0,0 km/h (0 Bft) O 86 ° 0 min 0,000 mm 0,0 UV-I 0 W/m² 13,6 °C 17,5 °C 0,0 km/h (0 Bft)
26.08.2017 23:25 17,4 °C 17,5 °C 78 % 1014,6 hPa 0,0 mm 0,0 km/h (0 Bft) O 86 ° 0 min 0,000 mm 0,0 UV-I 0 W/m² 13,5 °C 17,4 °C 0,0 km/h (0 Bft)
26.08.2017 23:26 17,3 °C 17,4 °C 78 % 1014,5 hPa 0,0 mm 0,0 km/h (0 Bft) O 86 ° 0 min 0,000 mm 0,0 UV-I 0 W/m² 13,4 °C 17,3 °C 0,0 km/h (0 Bft)
26.08.2017 23:27 17,4 °C 17,4 °C 78 % 1014,5 hPa 0,0 mm 0,0 km/h (0 Bft) O 86 ° 0 min 0,000 mm 0,0 UV-I 0 W/m² 13,5 °C 17,4 °C 0,0 km/h (0 Bft)
26.08.2017 23:28 17,3 °C 17,4 °C 78 % 1014,5 hPa 0,0 mm 0,0 km/h (0 Bft) O 86 ° 0 min 0,000 mm 0,0 UV-I 0 W/m² 13,4 °C 17,3 °C 0,0 km/h (0 Bft)
26.08.2017 23:29 17,3 °C 17,4 °C 78 % 1014,5 hPa 0,0 mm 0,0 km/h (0 Bft) O 86 ° 0 min 0,000 mm 0,0 UV-I 0 W/m² 13,4 °C 17,3 °C 0,0 km/h (0 Bft)
26.08.2017 23:30 17,4 °C 17,4 °C 78 % 1014,5 hPa 0,0 mm 0,0 km/h (0 Bft) O 86 ° 0 min 0,000 mm 0,0 UV-I 0 W/m² 13,5 °C 17,4 °C 0,0 km/h (0 Bft)
26.08.2017 23:31 17,4 °C 17,4 °C 78 % 1014,5 hPa 0,0 mm 0,0 km/h (0 Bft) O 86 ° 0 min 0,000 mm 0,0 UV-I 0 W/m² 13,5 °C 17,4 °C 0,0 km/h (0 Bft)
26.08.2017 23:32 17,4 °C 17,4 °C 78 % 1014,5 hPa 0,0 mm 0,0 km/h (0 Bft) O 86 ° 0 min 0,000 mm 0,0 UV-I 0 W/m² 13,5 °C 17,4 °C 0,0 km/h (0 Bft)
26.08.2017 23:33 17,4 °C 17,4 °C 78 % 1014,6 hPa 0,0 mm 0,0 km/h (0 Bft) O 86 ° 0 min 0,000 mm 0,0 UV-I 0 W/m² 13,5 °C 17,4 °C 0,0 km/h (0 Bft)
26.08.2017 23:34 17,4 °C 17,4 °C 78 % 1014,5 hPa 0,0 mm 0,0 km/h (0 Bft) O 86 ° 0 min 0,000 mm 0,0 UV-I 0 W/m² 13,5 °C 17,4 °C 0,0 km/h (0 Bft)
26.08.2017 23:35 17,4 °C 17,4 °C 78 % 1014,6 hPa 0,0 mm 0,0 km/h (0 Bft) O 86 ° 0 min 0,000 mm 0,0 UV-I 0 W/m² 13,5 °C 17,4 °C 0,0 km/h (0 Bft)
26.08.2017 23:36 17,4 °C 17,4 °C 78 % 1014,5 hPa 0,0 mm 0,0 km/h (0 Bft) O 86 ° 0 min 0,000 mm 0,0 UV-I 0 W/m² 13,5 °C 17,4 °C 0,0 km/h (0 Bft)
26.08.2017 23:37 17,3 °C 17,4 °C 78 % 1014,5 hPa 0,0 mm 0,0 km/h (0 Bft) O 86 ° 0 min 0,000 mm 0,0 UV-I 0 W/m² 13,4 °C 17,3 °C 0,0 km/h (0 Bft)
26.08.2017 23:38 17,3 °C 17,3 °C 79 % 1014,5 hPa 0,0 mm 0,0 km/h (0 Bft) O 86 ° 0 min 0,000 mm 0,0 UV-I 0 W/m² 13,6 °C 17,3 °C 0,0 km/h (0 Bft)
26.08.2017 23:39 17,1 °C 17,3 °C 78 % 1014,5 hPa 0,0 mm 0,0 km/h (0 Bft) O 86 ° 0 min 0,000 mm 0,0 UV-I 0 W/m² 13,2 °C 17,1 °C 0,0 km/h (0 Bft)
26.08.2017 23:40 17,0 °C 17,1 °C 78 % 1014,5 hPa 0,0 mm 0,0 km/h (0 Bft) O 86 ° 0 min 0,000 mm 0,0 UV-I 0 W/m² 13,1 °C 17,0 °C 0,0 km/h (0 Bft)
26.08.2017 23:41 16,9 °C 17,0 °C 79 % 1014,5 hPa 0,0 mm 0,0 km/h (0 Bft) O 86 ° 0 min 0,000 mm 0,0 UV-I 0 W/m² 13,2 °C 16,9 °C 0,0 km/h (0 Bft)
26.08.2017 23:42 16,9 °C 16,9 °C 79 % 1014,4 hPa 0,0 mm 0,0 km/h (0 Bft) O 86 ° 0 min 0,000 mm 0,0 UV-I 0 W/m² 13,2 °C 16,9 °C 0,0 km/h (0 Bft)
26.08.2017 23:43 16,9 °C 16,9 °C 79 % 1014,5 hPa 0,0 mm 0,0 km/h (0 Bft) O 86 ° 0 min 0,000 mm 0,0 UV-I 0 W/m² 13,2 °C 16,9 °C 0,0 km/h (0 Bft)
26.08.2017 23:44 17,0 °C 17,0 °C 79 % 1014,4 hPa 0,0 mm 0,0 km/h (0 Bft) O 86 ° 0 min 0,000 mm 0,0 UV-I 0 W/m² 13,3 °C 17,0 °C 0,0 km/h (0 Bft)
26.08.2017 23:45 17,0 °C 17,0 °C 79 % 1014,4 hPa 0,0 mm 0,0 km/h (0 Bft) O 86 ° 0 min 0,000 mm 0,0 UV-I 0 W/m² 13,3 °C 17,0 °C 0,0 km/h (0 Bft)
26.08.2017 23:46 16,9 °C 17,0 °C 79 % 1014,5 hPa 0,0 mm 0,0 km/h (0 Bft) O 86 ° 0 min 0,000 mm 0,0 UV-I 0 W/m² 13,2 °C 16,9 °C 0,0 km/h (0 Bft)
26.08.2017 23:47 16,9 °C 16,9 °C 79 % 1014,5 hPa 0,0 mm 0,0 km/h (0 Bft) O 86 ° 0 min 0,000 mm 0,0 UV-I 0 W/m² 13,2 °C 16,9 °C 0,0 km/h (0 Bft)
26.08.2017 23:48 16,8 °C 16,9 °C 80 % 1014,5 hPa 0,0 mm 0,0 km/h (0 Bft) O 86 ° 0 min 0,000 mm 0,0 UV-I 0 W/m² 13,3 °C 16,8 °C 0,0 km/h (0 Bft)
26.08.2017 23:49 16,7 °C 16,8 °C 79 % 1014,5 hPa 0,0 mm 0,0 km/h (0 Bft) O 86 ° 0 min 0,000 mm 0,0 UV-I 0 W/m² 13,0 °C 16,7 °C 0,0 km/h (0 Bft)
26.08.2017 23:50 16,7 °C 16,7 °C 79 % 1014,5 hPa 0,0 mm 0,0 km/h (0 Bft) O 86 ° 0 min 0,000 mm 0,0 UV-I 0 W/m² 13,0 °C 16,7 °C 0,0 km/h (0 Bft)
26.08.2017 23:51 16,6 °C 16,7 °C 78 % 1014,5 hPa 0,0 mm 0,0 km/h (0 Bft) O 86 ° 0 min 0,000 mm 0,0 UV-I 0 W/m² 12,7 °C 16,6 °C 0,0 km/h (0 Bft)
26.08.2017 23:52 16,7 °C 16,7 °C 78 % 1014,5 hPa 0,0 mm 0,0 km/h (0 Bft) O 86 ° 0 min 0,000 mm 0,0 UV-I 0 W/m² 12,8 °C 16,7 °C 0,0 km/h (0 Bft)
26.08.2017 23:53 16,6 °C 16,7 °C 78 % 1014,5 hPa 0,0 mm 0,0 km/h (0 Bft) O 86 ° 0 min 0,000 mm 0,0 UV-I 0 W/m² 12,7 °C 16,6 °C 0,0 km/h (0 Bft)
26.08.2017 23:54 16,7 °C 16,7 °C 78 % 1014,5 hPa 0,0 mm 0,0 km/h (0 Bft) O 86 ° 0 min 0,000 mm 0,0 UV-I 0 W/m² 12,8 °C 16,7 °C 0,0 km/h (0 Bft)
26.08.2017 23:55 16,6 °C 16,7 °C 78 % 1014,5 hPa 0,0 mm 0,0 km/h (0 Bft) O 86 ° 0 min 0,000 mm 0,0 UV-I 0 W/m² 12,7 °C 16,6 °C 0,0 km/h (0 Bft)
26.08.2017 23:56 16,6 °C 16,6 °C 78 % 1014,5 hPa 0,0 mm 0,0 km/h (0 Bft) O 86 ° 0 min 0,000 mm 0,0 UV-I 0 W/m² 12,7 °C 16,6 °C 0,0 km/h (0 Bft)
26.08.2017 23:57 16,6 °C 16,6 °C 78 % 1014,5 hPa 0,0 mm 0,0 km/h (0 Bft) O 86 ° 0 min 0,000 mm 0,0 UV-I 0 W/m² 12,7 °C 16,6 °C 0,0 km/h (0 Bft)
26.08.2017 23:58 16,5 °C 16,6 °C 79 % 1014,5 hPa 0,0 mm 0,0 km/h (0 Bft) O 86 ° 0 min 0,000 mm 0,0 UV-I 0 W/m² 12,8 °C 16,5 °C 0,0 km/h (0 Bft)
26.08.2017 23:59 16,5 °C 16,6 °C 78 % 1014,5 hPa 0,0 mm 0,0 km/h (0 Bft) O 86 ° 0 min 0,000 mm 0,0 UV-I 0 W/m² 12,6 °C 16,5 °C 0,0 km/h (0 Bft)
_ Min-Zeit 06:43 06:52 14:59 18:40 - 23:59 - - - - - - 06:27 06:43 23:59
Minimum _ 15,1 °C 15,2 °C 46 % 1012,9 hPa - 0,0 km/h (0 Bft) - - - - - - 12,5 °C 15,1 °C 0,0 km/h (0 Bft)
_ Max-Zeit 15:12 15:13 00:03 10:22 23:59 12:24 - - 14:44 14:00 13:17 13:25 18:53 15:12 12:24
Maximum _ 27,4 °C 27,4 °C 89 % 1015,6 hPa 0,0 mm 11,6 km/h
W-NW (2 Bft)
- - 2 min 0,432 mm 6,2 UV-I 831 W/m² 18,4 °C 27,4 °C 17,7 km/h
NW (3 Bft)
Durchschnitt _ 21,2 °C 21,2 °C 71 % 1014,6 hPa #0,0 mm 1,8 km/h (1 Bft) W-NW - #6:24 h #3,124 mm 2,9 UV-I 177 W/m² 15,4 °C 21,2 °C 3,3 km/h (1 Bft)